<?xml version="1.0" encoding="UTF-8" standalone="no" ?>
<gpx xmlns="http://www.topografix.com/GPX/1/1" xmlns:xsi="http://www.w3.org/2001/XMLSchema-instance" xsi:schemaLocation="http://www.topografix.com/GPX/1/1 http://www.topografix.com/GPX/1/1/gpx.xsd" version="1.1" creator="VisuGPX - https://www.visugpx.com">
  <metadata>
    <name>E-O-Pirmil Oudon Mauves Thouaré Nantes</name>
    <desc><![CDATA[E-O-Pirmil Oudon Mauves Thouaré Nantes]]></desc>
  </metadata>
  <trk>
    <name><![CDATA[2021-03-06 13:41 +01:00]]></name>
    <trkseg>
      <trkpt lat="47.16779" lon="-1.62659">
        <ele>70</ele>
        <time>2021-03-06T12:41:16.000Z</time>
      </trkpt>
      <trkpt lat="47.1678" lon="-1.62672">
        <ele>69</ele>
        <time>2021-03-06T12:42:54.000Z</time>
      </trkpt>
      <trkpt lat="47.16771" lon="-1.62678">
        <ele>68</ele>
        <time>2021-03-06T12:42:56.000Z</time>
      </trkpt>
      <trkpt lat="47.16761" lon="-1.62675">
        <ele>68</ele>
        <time>2021-03-06T12:42:58.000Z</time>
      </trkpt>
      <trkpt lat="47.16748" lon="-1.62674">
        <ele>67</ele>
        <time>2021-03-06T12:43:01.000Z</time>
      </trkpt>
      <trkpt lat="47.16738" lon="-1.62681">
        <ele>67</ele>
        <time>2021-03-06T12:43:03.000Z</time>
      </trkpt>
      <trkpt lat="47.16728" lon="-1.62688">
        <ele>68</ele>
        <time>2021-03-06T12:43:05.000Z</time>
      </trkpt>
      <trkpt lat="47.1672" lon="-1.62694">
        <ele>69</ele>
        <time>2021-03-06T12:43:07.000Z</time>
      </trkpt>
      <trkpt lat="47.16711" lon="-1.62693">
        <ele>69</ele>
        <time>2021-03-06T12:43:09.000Z</time>
      </trkpt>
      <trkpt lat="47.16703" lon="-1.62678">
        <ele>68</ele>
        <time>2021-03-06T12:43:11.000Z</time>
      </trkpt>
      <trkpt lat="47.16698" lon="-1.62659">
        <ele>68</ele>
        <time>2021-03-06T12:43:13.000Z</time>
      </trkpt>
      <trkpt lat="47.16696" lon="-1.6264">
        <ele>68</ele>
        <time>2021-03-06T12:43:15.000Z</time>
      </trkpt>
      <trkpt lat="47.16696" lon="-1.6262">
        <ele>68</ele>
        <time>2021-03-06T12:43:17.000Z</time>
      </trkpt>
      <trkpt lat="47.16696" lon="-1.62601">
        <ele>68</ele>
        <time>2021-03-06T12:43:19.000Z</time>
      </trkpt>
      <trkpt lat="47.16699" lon="-1.62583">
        <ele>68</ele>
        <time>2021-03-06T12:43:21.000Z</time>
      </trkpt>
      <trkpt lat="47.167" lon="-1.62564">
        <ele>67</ele>
        <time>2021-03-06T12:43:23.000Z</time>
      </trkpt>
      <trkpt lat="47.167" lon="-1.62544">
        <ele>67</ele>
        <time>2021-03-06T12:43:25.000Z</time>
      </trkpt>
      <trkpt lat="47.16703" lon="-1.62524">
        <ele>67</ele>
        <time>2021-03-06T12:43:27.000Z</time>
      </trkpt>
      <trkpt lat="47.16705" lon="-1.62505">
        <ele>67</ele>
        <time>2021-03-06T12:43:29.000Z</time>
      </trkpt>
      <trkpt lat="47.16709" lon="-1.62486">
        <ele>66</ele>
        <time>2021-03-06T12:43:31.000Z</time>
      </trkpt>
      <trkpt lat="47.16711" lon="-1.62467">
        <ele>66</ele>
        <time>2021-03-06T12:43:33.000Z</time>
      </trkpt>
      <trkpt lat="47.16714" lon="-1.62449">
        <ele>66</ele>
        <time>2021-03-06T12:43:35.000Z</time>
      </trkpt>
      <trkpt lat="47.16716" lon="-1.62431">
        <ele>66</ele>
        <time>2021-03-06T12:43:37.000Z</time>
      </trkpt>
      <trkpt lat="47.16722" lon="-1.62413">
        <ele>66</ele>
        <time>2021-03-06T12:43:39.000Z</time>
      </trkpt>
      <trkpt lat="47.16728" lon="-1.62396">
        <ele>66</ele>
        <time>2021-03-06T12:43:41.000Z</time>
      </trkpt>
      <trkpt lat="47.16733" lon="-1.62378">
        <ele>66</ele>
        <time>2021-03-06T12:43:43.000Z</time>
      </trkpt>
      <trkpt lat="47.16742" lon="-1.62363">
        <ele>67</ele>
        <time>2021-03-06T12:43:45.000Z</time>
      </trkpt>
      <trkpt lat="47.16751" lon="-1.62351">
        <ele>67</ele>
        <time>2021-03-06T12:43:47.000Z</time>
      </trkpt>
      <trkpt lat="47.16763" lon="-1.62342">
        <ele>68</ele>
        <time>2021-03-06T12:43:49.000Z</time>
      </trkpt>
      <trkpt lat="47.16775" lon="-1.62334">
        <ele>69</ele>
        <time>2021-03-06T12:43:51.000Z</time>
      </trkpt>
      <trkpt lat="47.16787" lon="-1.62327">
        <ele>69</ele>
        <time>2021-03-06T12:43:53.000Z</time>
      </trkpt>
      <trkpt lat="47.16799" lon="-1.62321">
        <ele>69</ele>
        <time>2021-03-06T12:43:55.000Z</time>
      </trkpt>
      <trkpt lat="47.1681" lon="-1.62314">
        <ele>69</ele>
        <time>2021-03-06T12:43:57.000Z</time>
      </trkpt>
      <trkpt lat="47.16822" lon="-1.62305">
        <ele>69</ele>
        <time>2021-03-06T12:43:59.000Z</time>
      </trkpt>
      <trkpt lat="47.16833" lon="-1.62296">
        <ele>70</ele>
        <time>2021-03-06T12:44:01.000Z</time>
      </trkpt>
      <trkpt lat="47.16843" lon="-1.62285">
        <ele>70</ele>
        <time>2021-03-06T12:44:03.000Z</time>
      </trkpt>
      <trkpt lat="47.16853" lon="-1.62273">
        <ele>69</ele>
        <time>2021-03-06T12:44:05.000Z</time>
      </trkpt>
      <trkpt lat="47.16863" lon="-1.6226">
        <ele>69</ele>
        <time>2021-03-06T12:44:07.000Z</time>
      </trkpt>
      <trkpt lat="47.16873" lon="-1.62247">
        <ele>69</ele>
        <time>2021-03-06T12:44:09.000Z</time>
      </trkpt>
      <trkpt lat="47.16883" lon="-1.62235">
        <ele>69</ele>
        <time>2021-03-06T12:44:11.000Z</time>
      </trkpt>
      <trkpt lat="47.16892" lon="-1.62222">
        <ele>69</ele>
        <time>2021-03-06T12:44:13.000Z</time>
      </trkpt>
      <trkpt lat="47.16901" lon="-1.62208">
        <ele>69</ele>
        <time>2021-03-06T12:44:15.000Z</time>
      </trkpt>
      <trkpt lat="47.1691" lon="-1.62195">
        <ele>69</ele>
        <time>2021-03-06T12:44:17.000Z</time>
      </trkpt>
      <trkpt lat="47.16919" lon="-1.6218">
        <ele>68</ele>
        <time>2021-03-06T12:44:19.000Z</time>
      </trkpt>
      <trkpt lat="47.16927" lon="-1.62164">
        <ele>69</ele>
        <time>2021-03-06T12:44:21.000Z</time>
      </trkpt>
      <trkpt lat="47.16935" lon="-1.62149">
        <ele>68</ele>
        <time>2021-03-06T12:44:23.000Z</time>
      </trkpt>
      <trkpt lat="47.16943" lon="-1.62134">
        <ele>68</ele>
        <time>2021-03-06T12:44:25.000Z</time>
      </trkpt>
      <trkpt lat="47.16951" lon="-1.62119">
        <ele>68</ele>
        <time>2021-03-06T12:44:27.000Z</time>
      </trkpt>
      <trkpt lat="47.16959" lon="-1.62103">
        <ele>68</ele>
        <time>2021-03-06T12:44:29.000Z</time>
      </trkpt>
      <trkpt lat="47.16967" lon="-1.62089">
        <ele>68</ele>
        <time>2021-03-06T12:44:31.000Z</time>
      </trkpt>
      <trkpt lat="47.16975" lon="-1.62074">
        <ele>67</ele>
        <time>2021-03-06T12:44:33.000Z</time>
      </trkpt>
      <trkpt lat="47.16983" lon="-1.62059">
        <ele>67</ele>
        <time>2021-03-06T12:44:35.000Z</time>
      </trkpt>
      <trkpt lat="47.16991" lon="-1.62045">
        <ele>67</ele>
        <time>2021-03-06T12:44:37.000Z</time>
      </trkpt>
      <trkpt lat="47.16999" lon="-1.62031">
        <ele>67</ele>
        <time>2021-03-06T12:44:39.000Z</time>
      </trkpt>
      <trkpt lat="47.17008" lon="-1.62017">
        <ele>67</ele>
        <time>2021-03-06T12:44:41.000Z</time>
      </trkpt>
      <trkpt lat="47.17017" lon="-1.62003">
        <ele>68</ele>
        <time>2021-03-06T12:44:43.000Z</time>
      </trkpt>
      <trkpt lat="47.17026" lon="-1.6199">
        <ele>68</ele>
        <time>2021-03-06T12:44:45.000Z</time>
      </trkpt>
      <trkpt lat="47.17035" lon="-1.61977">
        <ele>68</ele>
        <time>2021-03-06T12:44:47.000Z</time>
      </trkpt>
      <trkpt lat="47.17043" lon="-1.61964">
        <ele>68</ele>
        <time>2021-03-06T12:44:49.000Z</time>
      </trkpt>
      <trkpt lat="47.17052" lon="-1.61952">
        <ele>69</ele>
        <time>2021-03-06T12:44:51.000Z</time>
      </trkpt>
      <trkpt lat="47.17061" lon="-1.61941">
        <ele>68</ele>
        <time>2021-03-06T12:44:53.000Z</time>
      </trkpt>
      <trkpt lat="47.1707" lon="-1.6193">
        <ele>68</ele>
        <time>2021-03-06T12:44:55.000Z</time>
      </trkpt>
      <trkpt lat="47.1708" lon="-1.61919">
        <ele>68</ele>
        <time>2021-03-06T12:44:57.000Z</time>
      </trkpt>
      <trkpt lat="47.17089" lon="-1.61909">
        <ele>68</ele>
        <time>2021-03-06T12:44:59.000Z</time>
      </trkpt>
      <trkpt lat="47.17099" lon="-1.61899">
        <ele>68</ele>
        <time>2021-03-06T12:45:01.000Z</time>
      </trkpt>
      <trkpt lat="47.17109" lon="-1.6189">
        <ele>68</ele>
        <time>2021-03-06T12:45:03.000Z</time>
      </trkpt>
      <trkpt lat="47.17119" lon="-1.6188">
        <ele>68</ele>
        <time>2021-03-06T12:45:05.000Z</time>
      </trkpt>
      <trkpt lat="47.1713" lon="-1.61871">
        <ele>68</ele>
        <time>2021-03-06T12:45:07.000Z</time>
      </trkpt>
      <trkpt lat="47.1714" lon="-1.61861">
        <ele>68</ele>
        <time>2021-03-06T12:45:09.000Z</time>
      </trkpt>
      <trkpt lat="47.1715" lon="-1.61851">
        <ele>68</ele>
        <time>2021-03-06T12:45:11.000Z</time>
      </trkpt>
      <trkpt lat="47.1716" lon="-1.61841">
        <ele>68</ele>
        <time>2021-03-06T12:45:13.000Z</time>
      </trkpt>
      <trkpt lat="47.1717" lon="-1.61832">
        <ele>68</ele>
        <time>2021-03-06T12:45:15.000Z</time>
      </trkpt>
      <trkpt lat="47.1718" lon="-1.61823">
        <ele>68</ele>
        <time>2021-03-06T12:45:17.000Z</time>
      </trkpt>
      <trkpt lat="47.1719" lon="-1.61814">
        <ele>68</ele>
        <time>2021-03-06T12:45:19.000Z</time>
      </trkpt>
      <trkpt lat="47.172" lon="-1.61804">
        <ele>68</ele>
        <time>2021-03-06T12:45:21.000Z</time>
      </trkpt>
      <trkpt lat="47.17209" lon="-1.61794">
        <ele>68</ele>
        <time>2021-03-06T12:45:23.000Z</time>
      </trkpt>
      <trkpt lat="47.17219" lon="-1.61783">
        <ele>68</ele>
        <time>2021-03-06T12:45:25.000Z</time>
      </trkpt>
      <trkpt lat="47.17224" lon="-1.61768">
        <ele>68</ele>
        <time>2021-03-06T12:45:27.000Z</time>
      </trkpt>
      <trkpt lat="47.17229" lon="-1.61753">
        <ele>68</ele>
        <time>2021-03-06T12:45:29.000Z</time>
      </trkpt>
      <trkpt lat="47.17238" lon="-1.61741">
        <ele>68</ele>
        <time>2021-03-06T12:45:31.000Z</time>
      </trkpt>
      <trkpt lat="47.17247" lon="-1.61729">
        <ele>68</ele>
        <time>2021-03-06T12:45:33.000Z</time>
      </trkpt>
      <trkpt lat="47.17254" lon="-1.61713">
        <ele>68</ele>
        <time>2021-03-06T12:45:35.000Z</time>
      </trkpt>
      <trkpt lat="47.17261" lon="-1.61698">
        <ele>68</ele>
        <time>2021-03-06T12:45:37.000Z</time>
      </trkpt>
      <trkpt lat="47.17268" lon="-1.61683">
        <ele>68</ele>
        <time>2021-03-06T12:45:39.000Z</time>
      </trkpt>
      <trkpt lat="47.17275" lon="-1.61668">
        <ele>68</ele>
        <time>2021-03-06T12:45:41.000Z</time>
      </trkpt>
      <trkpt lat="47.17282" lon="-1.61654">
        <ele>69</ele>
        <time>2021-03-06T12:45:43.000Z</time>
      </trkpt>
      <trkpt lat="47.1729" lon="-1.6164">
        <ele>70</ele>
        <time>2021-03-06T12:45:45.000Z</time>
      </trkpt>
      <trkpt lat="47.17298" lon="-1.61626">
        <ele>70</ele>
        <time>2021-03-06T12:45:47.000Z</time>
      </trkpt>
      <trkpt lat="47.17306" lon="-1.61613">
        <ele>70</ele>
        <time>2021-03-06T12:45:49.000Z</time>
      </trkpt>
      <trkpt lat="47.17316" lon="-1.616">
        <ele>70</ele>
        <time>2021-03-06T12:45:51.000Z</time>
      </trkpt>
      <trkpt lat="47.17324" lon="-1.61586">
        <ele>70</ele>
        <time>2021-03-06T12:45:53.000Z</time>
      </trkpt>
      <trkpt lat="47.17333" lon="-1.61575">
        <ele>70</ele>
        <time>2021-03-06T12:45:55.000Z</time>
      </trkpt>
      <trkpt lat="47.17342" lon="-1.61563">
        <ele>70</ele>
        <time>2021-03-06T12:45:57.000Z</time>
      </trkpt>
      <trkpt lat="47.17352" lon="-1.61553">
        <ele>70</ele>
        <time>2021-03-06T12:45:59.000Z</time>
      </trkpt>
      <trkpt lat="47.17362" lon="-1.61543">
        <ele>70</ele>
        <time>2021-03-06T12:46:01.000Z</time>
      </trkpt>
      <trkpt lat="47.17372" lon="-1.61533">
        <ele>70</ele>
        <time>2021-03-06T12:46:03.000Z</time>
      </trkpt>
      <trkpt lat="47.17383" lon="-1.61524">
        <ele>70</ele>
        <time>2021-03-06T12:46:05.000Z</time>
      </trkpt>
      <trkpt lat="47.17393" lon="-1.61514">
        <ele>70</ele>
        <time>2021-03-06T12:46:07.000Z</time>
      </trkpt>
      <trkpt lat="47.17405" lon="-1.61505">
        <ele>69</ele>
        <time>2021-03-06T12:46:09.000Z</time>
      </trkpt>
      <trkpt lat="47.17417" lon="-1.61496">
        <ele>68</ele>
        <time>2021-03-06T12:46:11.000Z</time>
      </trkpt>
      <trkpt lat="47.1743" lon="-1.61487">
        <ele>68</ele>
        <time>2021-03-06T12:46:13.000Z</time>
      </trkpt>
      <trkpt lat="47.17443" lon="-1.6148">
        <ele>67</ele>
        <time>2021-03-06T12:46:15.000Z</time>
      </trkpt>
      <trkpt lat="47.17455" lon="-1.61473">
        <ele>66</ele>
        <time>2021-03-06T12:46:17.000Z</time>
      </trkpt>
      <trkpt lat="47.17467" lon="-1.61466">
        <ele>66</ele>
        <time>2021-03-06T12:46:19.000Z</time>
      </trkpt>
      <trkpt lat="47.1748" lon="-1.61461">
        <ele>65</ele>
        <time>2021-03-06T12:46:21.000Z</time>
      </trkpt>
      <trkpt lat="47.17493" lon="-1.61457">
        <ele>65</ele>
        <time>2021-03-06T12:46:23.000Z</time>
      </trkpt>
      <trkpt lat="47.17505" lon="-1.61452">
        <ele>65</ele>
        <time>2021-03-06T12:46:25.000Z</time>
      </trkpt>
      <trkpt lat="47.17512" lon="-1.61443">
        <ele>64</ele>
        <time>2021-03-06T12:46:27.000Z</time>
      </trkpt>
      <trkpt lat="47.17514" lon="-1.61425">
        <ele>63</ele>
        <time>2021-03-06T12:46:29.000Z</time>
      </trkpt>
      <trkpt lat="47.17518" lon="-1.61406">
        <ele>62</ele>
        <time>2021-03-06T12:46:31.000Z</time>
      </trkpt>
      <trkpt lat="47.17523" lon="-1.61386">
        <ele>62</ele>
        <time>2021-03-06T12:46:33.000Z</time>
      </trkpt>
      <trkpt lat="47.17528" lon="-1.61367">
        <ele>61</ele>
        <time>2021-03-06T12:46:35.000Z</time>
      </trkpt>
      <trkpt lat="47.17528" lon="-1.61349">
        <ele>61</ele>
        <time>2021-03-06T12:46:37.000Z</time>
      </trkpt>
      <trkpt lat="47.17523" lon="-1.61331">
        <ele>62</ele>
        <time>2021-03-06T12:46:39.000Z</time>
      </trkpt>
      <trkpt lat="47.17521" lon="-1.61312">
        <ele>61</ele>
        <time>2021-03-06T12:46:41.000Z</time>
      </trkpt>
      <trkpt lat="47.17519" lon="-1.61294">
        <ele>61</ele>
        <time>2021-03-06T12:46:43.000Z</time>
      </trkpt>
      <trkpt lat="47.17512" lon="-1.61278">
        <ele>60</ele>
        <time>2021-03-06T12:46:45.000Z</time>
      </trkpt>
      <trkpt lat="47.17503" lon="-1.61262">
        <ele>61</ele>
        <time>2021-03-06T12:46:47.000Z</time>
      </trkpt>
      <trkpt lat="47.17496" lon="-1.61247">
        <ele>61</ele>
        <time>2021-03-06T12:46:49.000Z</time>
      </trkpt>
      <trkpt lat="47.1749" lon="-1.61231">
        <ele>61</ele>
        <time>2021-03-06T12:46:51.000Z</time>
      </trkpt>
      <trkpt lat="47.17483" lon="-1.61215">
        <ele>62</ele>
        <time>2021-03-06T12:46:53.000Z</time>
      </trkpt>
      <trkpt lat="47.17477" lon="-1.61199">
        <ele>61</ele>
        <time>2021-03-06T12:46:55.000Z</time>
      </trkpt>
      <trkpt lat="47.17471" lon="-1.61183">
        <ele>61</ele>
        <time>2021-03-06T12:46:57.000Z</time>
      </trkpt>
      <trkpt lat="47.17464" lon="-1.61167">
        <ele>61</ele>
        <time>2021-03-06T12:46:59.000Z</time>
      </trkpt>
      <trkpt lat="47.17458" lon="-1.61151">
        <ele>60</ele>
        <time>2021-03-06T12:47:01.000Z</time>
      </trkpt>
      <trkpt lat="47.17451" lon="-1.61136">
        <ele>60</ele>
        <time>2021-03-06T12:47:03.000Z</time>
      </trkpt>
      <trkpt lat="47.17445" lon="-1.6112">
        <ele>59</ele>
        <time>2021-03-06T12:47:05.000Z</time>
      </trkpt>
      <trkpt lat="47.17438" lon="-1.61104">
        <ele>58</ele>
        <time>2021-03-06T12:47:07.000Z</time>
      </trkpt>
      <trkpt lat="47.17431" lon="-1.61086">
        <ele>58</ele>
        <time>2021-03-06T12:47:09.000Z</time>
      </trkpt>
      <trkpt lat="47.17427" lon="-1.61065">
        <ele>58</ele>
        <time>2021-03-06T12:47:11.000Z</time>
      </trkpt>
      <trkpt lat="47.17423" lon="-1.61045">
        <ele>57</ele>
        <time>2021-03-06T12:47:13.000Z</time>
      </trkpt>
      <trkpt lat="47.17421" lon="-1.61027">
        <ele>57</ele>
        <time>2021-03-06T12:47:15.000Z</time>
      </trkpt>
      <trkpt lat="47.17429" lon="-1.61016">
        <ele>56</ele>
        <time>2021-03-06T12:47:18.000Z</time>
      </trkpt>
      <trkpt lat="47.17435" lon="-1.6103">
        <ele>56</ele>
        <time>2021-03-06T12:47:20.000Z</time>
      </trkpt>
      <trkpt lat="47.17439" lon="-1.61046">
        <ele>55</ele>
        <time>2021-03-06T12:47:22.000Z</time>
      </trkpt>
      <trkpt lat="47.17446" lon="-1.61063">
        <ele>54</ele>
        <time>2021-03-06T12:47:24.000Z</time>
      </trkpt>
      <trkpt lat="47.17454" lon="-1.61078">
        <ele>54</ele>
        <time>2021-03-06T12:47:26.000Z</time>
      </trkpt>
      <trkpt lat="47.17465" lon="-1.6109">
        <ele>53</ele>
        <time>2021-03-06T12:47:28.000Z</time>
      </trkpt>
      <trkpt lat="47.17478" lon="-1.61099">
        <ele>53</ele>
        <time>2021-03-06T12:47:30.000Z</time>
      </trkpt>
      <trkpt lat="47.17491" lon="-1.61103">
        <ele>53</ele>
        <time>2021-03-06T12:47:32.000Z</time>
      </trkpt>
      <trkpt lat="47.17505" lon="-1.611">
        <ele>53</ele>
        <time>2021-03-06T12:47:34.000Z</time>
      </trkpt>
      <trkpt lat="47.17518" lon="-1.61094">
        <ele>52</ele>
        <time>2021-03-06T12:47:36.000Z</time>
      </trkpt>
      <trkpt lat="47.1753" lon="-1.61084">
        <ele>53</ele>
        <time>2021-03-06T12:47:38.000Z</time>
      </trkpt>
      <trkpt lat="47.17541" lon="-1.61074">
        <ele>52</ele>
        <time>2021-03-06T12:47:40.000Z</time>
      </trkpt>
      <trkpt lat="47.17552" lon="-1.61063">
        <ele>53</ele>
        <time>2021-03-06T12:47:42.000Z</time>
      </trkpt>
      <trkpt lat="47.17564" lon="-1.61053">
        <ele>53</ele>
        <time>2021-03-06T12:47:44.000Z</time>
      </trkpt>
      <trkpt lat="47.17575" lon="-1.61043">
        <ele>52</ele>
        <time>2021-03-06T12:47:46.000Z</time>
      </trkpt>
      <trkpt lat="47.17587" lon="-1.61033">
        <ele>52</ele>
        <time>2021-03-06T12:47:48.000Z</time>
      </trkpt>
      <trkpt lat="47.17599" lon="-1.61022">
        <ele>52</ele>
        <time>2021-03-06T12:47:50.000Z</time>
      </trkpt>
      <trkpt lat="47.1761" lon="-1.61013">
        <ele>53</ele>
        <time>2021-03-06T12:47:52.000Z</time>
      </trkpt>
      <trkpt lat="47.17622" lon="-1.61002">
        <ele>53</ele>
        <time>2021-03-06T12:47:54.000Z</time>
      </trkpt>
      <trkpt lat="47.17634" lon="-1.60992">
        <ele>52</ele>
        <time>2021-03-06T12:47:56.000Z</time>
      </trkpt>
      <trkpt lat="47.17646" lon="-1.60983">
        <ele>52</ele>
        <time>2021-03-06T12:47:58.000Z</time>
      </trkpt>
      <trkpt lat="47.17657" lon="-1.60973">
        <ele>52</ele>
        <time>2021-03-06T12:48:00.000Z</time>
      </trkpt>
      <trkpt lat="47.1767" lon="-1.60968">
        <ele>52</ele>
        <time>2021-03-06T12:48:02.000Z</time>
      </trkpt>
      <trkpt lat="47.17682" lon="-1.60968">
        <ele>53</ele>
        <time>2021-03-06T12:48:04.000Z</time>
      </trkpt>
      <trkpt lat="47.17694" lon="-1.60969">
        <ele>54</ele>
        <time>2021-03-06T12:48:06.000Z</time>
      </trkpt>
      <trkpt lat="47.17706" lon="-1.60965">
        <ele>54</ele>
        <time>2021-03-06T12:48:08.000Z</time>
      </trkpt>
      <trkpt lat="47.17718" lon="-1.60958">
        <ele>54</ele>
        <time>2021-03-06T12:48:10.000Z</time>
      </trkpt>
      <trkpt lat="47.17729" lon="-1.60951">
        <ele>54</ele>
        <time>2021-03-06T12:48:12.000Z</time>
      </trkpt>
      <trkpt lat="47.1774" lon="-1.60943">
        <ele>53</ele>
        <time>2021-03-06T12:48:14.000Z</time>
      </trkpt>
      <trkpt lat="47.1775" lon="-1.60934">
        <ele>53</ele>
        <time>2021-03-06T12:48:16.000Z</time>
      </trkpt>
      <trkpt lat="47.17761" lon="-1.60926">
        <ele>53</ele>
        <time>2021-03-06T12:48:18.000Z</time>
      </trkpt>
      <trkpt lat="47.17773" lon="-1.60917">
        <ele>53</ele>
        <time>2021-03-06T12:48:20.000Z</time>
      </trkpt>
      <trkpt lat="47.17784" lon="-1.60909">
        <ele>53</ele>
        <time>2021-03-06T12:48:22.000Z</time>
      </trkpt>
      <trkpt lat="47.17795" lon="-1.609">
        <ele>53</ele>
        <time>2021-03-06T12:48:24.000Z</time>
      </trkpt>
      <trkpt lat="47.17806" lon="-1.60891">
        <ele>53</ele>
        <time>2021-03-06T12:48:26.000Z</time>
      </trkpt>
      <trkpt lat="47.17817" lon="-1.60881">
        <ele>53</ele>
        <time>2021-03-06T12:48:28.000Z</time>
      </trkpt>
      <trkpt lat="47.17826" lon="-1.60869">
        <ele>52</ele>
        <time>2021-03-06T12:48:30.000Z</time>
      </trkpt>
      <trkpt lat="47.17834" lon="-1.60854">
        <ele>52</ele>
        <time>2021-03-06T12:48:32.000Z</time>
      </trkpt>
      <trkpt lat="47.17841" lon="-1.60839">
        <ele>52</ele>
        <time>2021-03-06T12:48:34.000Z</time>
      </trkpt>
      <trkpt lat="47.17846" lon="-1.60822">
        <ele>52</ele>
        <time>2021-03-06T12:48:36.000Z</time>
      </trkpt>
      <trkpt lat="47.1785" lon="-1.60804">
        <ele>51</ele>
        <time>2021-03-06T12:48:38.000Z</time>
      </trkpt>
      <trkpt lat="47.17855" lon="-1.60786">
        <ele>51</ele>
        <time>2021-03-06T12:48:40.000Z</time>
      </trkpt>
      <trkpt lat="47.17859" lon="-1.60768">
        <ele>51</ele>
        <time>2021-03-06T12:48:42.000Z</time>
      </trkpt>
      <trkpt lat="47.17863" lon="-1.6075">
        <ele>51</ele>
        <time>2021-03-06T12:48:44.000Z</time>
      </trkpt>
      <trkpt lat="47.17867" lon="-1.60732">
        <ele>50</ele>
        <time>2021-03-06T12:48:46.000Z</time>
      </trkpt>
      <trkpt lat="47.17871" lon="-1.60715">
        <ele>50</ele>
        <time>2021-03-06T12:48:48.000Z</time>
      </trkpt>
      <trkpt lat="47.17875" lon="-1.60698">
        <ele>50</ele>
        <time>2021-03-06T12:48:50.000Z</time>
      </trkpt>
      <trkpt lat="47.1788" lon="-1.60681">
        <ele>50</ele>
        <time>2021-03-06T12:48:52.000Z</time>
      </trkpt>
      <trkpt lat="47.17885" lon="-1.60665">
        <ele>50</ele>
        <time>2021-03-06T12:48:54.000Z</time>
      </trkpt>
      <trkpt lat="47.1789" lon="-1.60649">
        <ele>51</ele>
        <time>2021-03-06T12:48:56.000Z</time>
      </trkpt>
      <trkpt lat="47.17896" lon="-1.60634">
        <ele>51</ele>
        <time>2021-03-06T12:48:58.000Z</time>
      </trkpt>
      <trkpt lat="47.179" lon="-1.6062">
        <ele>51</ele>
        <time>2021-03-06T12:49:00.000Z</time>
      </trkpt>
      <trkpt lat="47.17904" lon="-1.60605">
        <ele>51</ele>
        <time>2021-03-06T12:49:02.000Z</time>
      </trkpt>
      <trkpt lat="47.17907" lon="-1.60589">
        <ele>52</ele>
        <time>2021-03-06T12:49:05.000Z</time>
      </trkpt>
      <trkpt lat="47.17919" lon="-1.60582">
        <ele>52</ele>
        <time>2021-03-06T12:49:09.000Z</time>
      </trkpt>
      <trkpt lat="47.1793" lon="-1.60581">
        <ele>53</ele>
        <time>2021-03-06T12:49:11.000Z</time>
      </trkpt>
      <trkpt lat="47.17942" lon="-1.60579">
        <ele>53</ele>
        <time>2021-03-06T12:49:13.000Z</time>
      </trkpt>
      <trkpt lat="47.17956" lon="-1.60575">
        <ele>53</ele>
        <time>2021-03-06T12:49:15.000Z</time>
      </trkpt>
      <trkpt lat="47.17968" lon="-1.60569">
        <ele>53</ele>
        <time>2021-03-06T12:49:17.000Z</time>
      </trkpt>
      <trkpt lat="47.1798" lon="-1.60564">
        <ele>53</ele>
        <time>2021-03-06T12:49:19.000Z</time>
      </trkpt>
      <trkpt lat="47.17992" lon="-1.60559">
        <ele>53</ele>
        <time>2021-03-06T12:49:21.000Z</time>
      </trkpt>
      <trkpt lat="47.18005" lon="-1.60555">
        <ele>53</ele>
        <time>2021-03-06T12:49:23.000Z</time>
      </trkpt>
      <trkpt lat="47.18017" lon="-1.60551">
        <ele>52</ele>
        <time>2021-03-06T12:49:25.000Z</time>
      </trkpt>
      <trkpt lat="47.18031" lon="-1.60552">
        <ele>53</ele>
        <time>2021-03-06T12:49:27.000Z</time>
      </trkpt>
      <trkpt lat="47.18043" lon="-1.60556">
        <ele>54</ele>
        <time>2021-03-06T12:49:29.000Z</time>
      </trkpt>
      <trkpt lat="47.18056" lon="-1.60562">
        <ele>54</ele>
        <time>2021-03-06T12:49:31.000Z</time>
      </trkpt>
      <trkpt lat="47.18068" lon="-1.60569">
        <ele>54</ele>
        <time>2021-03-06T12:49:33.000Z</time>
      </trkpt>
      <trkpt lat="47.18079" lon="-1.60575">
        <ele>54</ele>
        <time>2021-03-06T12:49:35.000Z</time>
      </trkpt>
      <trkpt lat="47.18091" lon="-1.60582">
        <ele>53</ele>
        <time>2021-03-06T12:49:37.000Z</time>
      </trkpt>
      <trkpt lat="47.18103" lon="-1.60588">
        <ele>53</ele>
        <time>2021-03-06T12:49:39.000Z</time>
      </trkpt>
      <trkpt lat="47.18115" lon="-1.60593">
        <ele>53</ele>
        <time>2021-03-06T12:49:41.000Z</time>
      </trkpt>
      <trkpt lat="47.18127" lon="-1.60596">
        <ele>53</ele>
        <time>2021-03-06T12:49:43.000Z</time>
      </trkpt>
      <trkpt lat="47.18139" lon="-1.60599">
        <ele>53</ele>
        <time>2021-03-06T12:49:45.000Z</time>
      </trkpt>
      <trkpt lat="47.18151" lon="-1.60601">
        <ele>53</ele>
        <time>2021-03-06T12:49:47.000Z</time>
      </trkpt>
      <trkpt lat="47.18163" lon="-1.60601">
        <ele>53</ele>
        <time>2021-03-06T12:49:49.000Z</time>
      </trkpt>
      <trkpt lat="47.18175" lon="-1.60601">
        <ele>54</ele>
        <time>2021-03-06T12:49:51.000Z</time>
      </trkpt>
      <trkpt lat="47.18185" lon="-1.60598">
        <ele>54</ele>
        <time>2021-03-06T12:49:53.000Z</time>
      </trkpt>
      <trkpt lat="47.18191" lon="-1.60586">
        <ele>54</ele>
        <time>2021-03-06T12:49:55.000Z</time>
      </trkpt>
      <trkpt lat="47.18195" lon="-1.60572">
        <ele>53</ele>
        <time>2021-03-06T12:49:57.000Z</time>
      </trkpt>
      <trkpt lat="47.18207" lon="-1.60569">
        <ele>54</ele>
        <time>2021-03-06T12:49:59.000Z</time>
      </trkpt>
      <trkpt lat="47.18219" lon="-1.60563">
        <ele>53</ele>
        <time>2021-03-06T12:50:01.000Z</time>
      </trkpt>
      <trkpt lat="47.18229" lon="-1.60556">
        <ele>54</ele>
        <time>2021-03-06T12:50:03.000Z</time>
      </trkpt>
      <trkpt lat="47.1824" lon="-1.60548">
        <ele>54</ele>
        <time>2021-03-06T12:50:05.000Z</time>
      </trkpt>
      <trkpt lat="47.18252" lon="-1.6054">
        <ele>54</ele>
        <time>2021-03-06T12:50:07.000Z</time>
      </trkpt>
      <trkpt lat="47.18264" lon="-1.60531">
        <ele>54</ele>
        <time>2021-03-06T12:50:09.000Z</time>
      </trkpt>
      <trkpt lat="47.18275" lon="-1.6052">
        <ele>54</ele>
        <time>2021-03-06T12:50:11.000Z</time>
      </trkpt>
      <trkpt lat="47.18285" lon="-1.60511">
        <ele>53</ele>
        <time>2021-03-06T12:50:13.000Z</time>
      </trkpt>
      <trkpt lat="47.18295" lon="-1.60501">
        <ele>53</ele>
        <time>2021-03-06T12:50:15.000Z</time>
      </trkpt>
      <trkpt lat="47.18305" lon="-1.6049">
        <ele>53</ele>
        <time>2021-03-06T12:50:17.000Z</time>
      </trkpt>
      <trkpt lat="47.18315" lon="-1.60478">
        <ele>53</ele>
        <time>2021-03-06T12:50:19.000Z</time>
      </trkpt>
      <trkpt lat="47.18325" lon="-1.60467">
        <ele>54</ele>
        <time>2021-03-06T12:50:21.000Z</time>
      </trkpt>
      <trkpt lat="47.18335" lon="-1.60456">
        <ele>53</ele>
        <time>2021-03-06T12:50:23.000Z</time>
      </trkpt>
      <trkpt lat="47.18344" lon="-1.60444">
        <ele>53</ele>
        <time>2021-03-06T12:50:25.000Z</time>
      </trkpt>
      <trkpt lat="47.18353" lon="-1.60432">
        <ele>53</ele>
        <time>2021-03-06T12:50:27.000Z</time>
      </trkpt>
      <trkpt lat="47.18363" lon="-1.60421">
        <ele>53</ele>
        <time>2021-03-06T12:50:29.000Z</time>
      </trkpt>
      <trkpt lat="47.18372" lon="-1.60409">
        <ele>53</ele>
        <time>2021-03-06T12:50:31.000Z</time>
      </trkpt>
      <trkpt lat="47.18381" lon="-1.60396">
        <ele>53</ele>
        <time>2021-03-06T12:50:33.000Z</time>
      </trkpt>
      <trkpt lat="47.1839" lon="-1.60384">
        <ele>53</ele>
        <time>2021-03-06T12:50:35.000Z</time>
      </trkpt>
      <trkpt lat="47.184" lon="-1.60372">
        <ele>53</ele>
        <time>2021-03-06T12:50:37.000Z</time>
      </trkpt>
      <trkpt lat="47.18408" lon="-1.60359">
        <ele>53</ele>
        <time>2021-03-06T12:50:39.000Z</time>
      </trkpt>
      <trkpt lat="47.18418" lon="-1.60347">
        <ele>53</ele>
        <time>2021-03-06T12:50:41.000Z</time>
      </trkpt>
      <trkpt lat="47.18426" lon="-1.60334">
        <ele>53</ele>
        <time>2021-03-06T12:50:43.000Z</time>
      </trkpt>
      <trkpt lat="47.18434" lon="-1.60322">
        <ele>53</ele>
        <time>2021-03-06T12:50:45.000Z</time>
      </trkpt>
      <trkpt lat="47.18442" lon="-1.6031">
        <ele>53</ele>
        <time>2021-03-06T12:50:47.000Z</time>
      </trkpt>
      <trkpt lat="47.1845" lon="-1.60297">
        <ele>54</ele>
        <time>2021-03-06T12:50:49.000Z</time>
      </trkpt>
      <trkpt lat="47.18458" lon="-1.60285">
        <ele>54</ele>
        <time>2021-03-06T12:50:51.000Z</time>
      </trkpt>
      <trkpt lat="47.18465" lon="-1.60271">
        <ele>54</ele>
        <time>2021-03-06T12:50:53.000Z</time>
      </trkpt>
      <trkpt lat="47.18473" lon="-1.60258">
        <ele>54</ele>
        <time>2021-03-06T12:50:55.000Z</time>
      </trkpt>
      <trkpt lat="47.1848" lon="-1.60244">
        <ele>53</ele>
        <time>2021-03-06T12:50:57.000Z</time>
      </trkpt>
      <trkpt lat="47.18487" lon="-1.60231">
        <ele>53</ele>
        <time>2021-03-06T12:50:59.000Z</time>
      </trkpt>
      <trkpt lat="47.18494" lon="-1.60217">
        <ele>53</ele>
        <time>2021-03-06T12:51:01.000Z</time>
      </trkpt>
      <trkpt lat="47.18501" lon="-1.60204">
        <ele>53</ele>
        <time>2021-03-06T12:51:03.000Z</time>
      </trkpt>
      <trkpt lat="47.18508" lon="-1.6019">
        <ele>53</ele>
        <time>2021-03-06T12:51:05.000Z</time>
      </trkpt>
      <trkpt lat="47.18515" lon="-1.60176">
        <ele>53</ele>
        <time>2021-03-06T12:51:07.000Z</time>
      </trkpt>
      <trkpt lat="47.18522" lon="-1.60161">
        <ele>53</ele>
        <time>2021-03-06T12:51:09.000Z</time>
      </trkpt>
      <trkpt lat="47.18529" lon="-1.60147">
        <ele>53</ele>
        <time>2021-03-06T12:51:11.000Z</time>
      </trkpt>
      <trkpt lat="47.18536" lon="-1.60132">
        <ele>53</ele>
        <time>2021-03-06T12:51:13.000Z</time>
      </trkpt>
      <trkpt lat="47.18542" lon="-1.60117">
        <ele>53</ele>
        <time>2021-03-06T12:51:15.000Z</time>
      </trkpt>
      <trkpt lat="47.18549" lon="-1.60102">
        <ele>53</ele>
        <time>2021-03-06T12:51:17.000Z</time>
      </trkpt>
      <trkpt lat="47.18555" lon="-1.60086">
        <ele>53</ele>
        <time>2021-03-06T12:51:19.000Z</time>
      </trkpt>
      <trkpt lat="47.18561" lon="-1.60071">
        <ele>53</ele>
        <time>2021-03-06T12:51:21.000Z</time>
      </trkpt>
      <trkpt lat="47.18567" lon="-1.60056">
        <ele>53</ele>
        <time>2021-03-06T12:51:23.000Z</time>
      </trkpt>
      <trkpt lat="47.18573" lon="-1.6004">
        <ele>53</ele>
        <time>2021-03-06T12:51:25.000Z</time>
      </trkpt>
      <trkpt lat="47.18578" lon="-1.60024">
        <ele>54</ele>
        <time>2021-03-06T12:51:27.000Z</time>
      </trkpt>
      <trkpt lat="47.18584" lon="-1.60008">
        <ele>53</ele>
        <time>2021-03-06T12:51:29.000Z</time>
      </trkpt>
      <trkpt lat="47.18588" lon="-1.59993">
        <ele>53</ele>
        <time>2021-03-06T12:51:31.000Z</time>
      </trkpt>
      <trkpt lat="47.18593" lon="-1.59977">
        <ele>53</ele>
        <time>2021-03-06T12:51:33.000Z</time>
      </trkpt>
      <trkpt lat="47.18598" lon="-1.59961">
        <ele>53</ele>
        <time>2021-03-06T12:51:35.000Z</time>
      </trkpt>
      <trkpt lat="47.18603" lon="-1.59944">
        <ele>53</ele>
        <time>2021-03-06T12:51:37.000Z</time>
      </trkpt>
      <trkpt lat="47.18608" lon="-1.59928">
        <ele>53</ele>
        <time>2021-03-06T12:51:39.000Z</time>
      </trkpt>
      <trkpt lat="47.18612" lon="-1.59912">
        <ele>53</ele>
        <time>2021-03-06T12:51:41.000Z</time>
      </trkpt>
      <trkpt lat="47.18616" lon="-1.59897">
        <ele>53</ele>
        <time>2021-03-06T12:51:43.000Z</time>
      </trkpt>
      <trkpt lat="47.1862" lon="-1.59882">
        <ele>53</ele>
        <time>2021-03-06T12:51:45.000Z</time>
      </trkpt>
      <trkpt lat="47.18622" lon="-1.59868">
        <ele>53</ele>
        <time>2021-03-06T12:51:47.000Z</time>
      </trkpt>
      <trkpt lat="47.18619" lon="-1.59852">
        <ele>53</ele>
        <time>2021-03-06T12:51:49.000Z</time>
      </trkpt>
      <trkpt lat="47.18615" lon="-1.59837">
        <ele>52</ele>
        <time>2021-03-06T12:51:51.000Z</time>
      </trkpt>
      <trkpt lat="47.18619" lon="-1.59823">
        <ele>53</ele>
        <time>2021-03-06T12:51:53.000Z</time>
      </trkpt>
      <trkpt lat="47.18626" lon="-1.59812">
        <ele>53</ele>
        <time>2021-03-06T12:51:55.000Z</time>
      </trkpt>
      <trkpt lat="47.1863" lon="-1.59796">
        <ele>54</ele>
        <time>2021-03-06T12:51:57.000Z</time>
      </trkpt>
      <trkpt lat="47.18634" lon="-1.59779">
        <ele>53</ele>
        <time>2021-03-06T12:51:59.000Z</time>
      </trkpt>
      <trkpt lat="47.18641" lon="-1.59765">
        <ele>54</ele>
        <time>2021-03-06T12:52:01.000Z</time>
      </trkpt>
      <trkpt lat="47.18649" lon="-1.59753">
        <ele>54</ele>
        <time>2021-03-06T12:52:03.000Z</time>
      </trkpt>
      <trkpt lat="47.18654" lon="-1.59738">
        <ele>54</ele>
        <time>2021-03-06T12:52:05.000Z</time>
      </trkpt>
      <trkpt lat="47.18656" lon="-1.59722">
        <ele>54</ele>
        <time>2021-03-06T12:52:07.000Z</time>
      </trkpt>
      <trkpt lat="47.1866" lon="-1.59705">
        <ele>54</ele>
        <time>2021-03-06T12:52:09.000Z</time>
      </trkpt>
      <trkpt lat="47.18663" lon="-1.59687">
        <ele>53</ele>
        <time>2021-03-06T12:52:11.000Z</time>
      </trkpt>
      <trkpt lat="47.18667" lon="-1.5967">
        <ele>53</ele>
        <time>2021-03-06T12:52:13.000Z</time>
      </trkpt>
      <trkpt lat="47.18672" lon="-1.59654">
        <ele>53</ele>
        <time>2021-03-06T12:52:15.000Z</time>
      </trkpt>
      <trkpt lat="47.18675" lon="-1.59637">
        <ele>53</ele>
        <time>2021-03-06T12:52:17.000Z</time>
      </trkpt>
      <trkpt lat="47.18677" lon="-1.5962">
        <ele>53</ele>
        <time>2021-03-06T12:52:19.000Z</time>
      </trkpt>
      <trkpt lat="47.18679" lon="-1.59604">
        <ele>53</ele>
        <time>2021-03-06T12:52:21.000Z</time>
      </trkpt>
      <trkpt lat="47.18681" lon="-1.59587">
        <ele>53</ele>
        <time>2021-03-06T12:52:23.000Z</time>
      </trkpt>
      <trkpt lat="47.18683" lon="-1.59569">
        <ele>53</ele>
        <time>2021-03-06T12:52:25.000Z</time>
      </trkpt>
      <trkpt lat="47.18685" lon="-1.59552">
        <ele>53</ele>
        <time>2021-03-06T12:52:27.000Z</time>
      </trkpt>
      <trkpt lat="47.18687" lon="-1.59534">
        <ele>53</ele>
        <time>2021-03-06T12:52:29.000Z</time>
      </trkpt>
      <trkpt lat="47.18689" lon="-1.59517">
        <ele>53</ele>
        <time>2021-03-06T12:52:31.000Z</time>
      </trkpt>
      <trkpt lat="47.1869" lon="-1.59499">
        <ele>54</ele>
        <time>2021-03-06T12:52:33.000Z</time>
      </trkpt>
      <trkpt lat="47.18692" lon="-1.59481">
        <ele>53</ele>
        <time>2021-03-06T12:52:35.000Z</time>
      </trkpt>
      <trkpt lat="47.18694" lon="-1.59464">
        <ele>53</ele>
        <time>2021-03-06T12:52:37.000Z</time>
      </trkpt>
      <trkpt lat="47.18696" lon="-1.59447">
        <ele>53</ele>
        <time>2021-03-06T12:52:39.000Z</time>
      </trkpt>
      <trkpt lat="47.18698" lon="-1.5943">
        <ele>53</ele>
        <time>2021-03-06T12:52:41.000Z</time>
      </trkpt>
      <trkpt lat="47.18701" lon="-1.59412">
        <ele>53</ele>
        <time>2021-03-06T12:52:43.000Z</time>
      </trkpt>
      <trkpt lat="47.18703" lon="-1.59395">
        <ele>53</ele>
        <time>2021-03-06T12:52:45.000Z</time>
      </trkpt>
      <trkpt lat="47.18704" lon="-1.59378">
        <ele>53</ele>
        <time>2021-03-06T12:52:47.000Z</time>
      </trkpt>
      <trkpt lat="47.18706" lon="-1.5936">
        <ele>53</ele>
        <time>2021-03-06T12:52:49.000Z</time>
      </trkpt>
      <trkpt lat="47.18708" lon="-1.59344">
        <ele>53</ele>
        <time>2021-03-06T12:52:51.000Z</time>
      </trkpt>
      <trkpt lat="47.1871" lon="-1.59326">
        <ele>53</ele>
        <time>2021-03-06T12:52:53.000Z</time>
      </trkpt>
      <trkpt lat="47.18711" lon="-1.59309">
        <ele>53</ele>
        <time>2021-03-06T12:52:55.000Z</time>
      </trkpt>
      <trkpt lat="47.18713" lon="-1.59292">
        <ele>53</ele>
        <time>2021-03-06T12:52:57.000Z</time>
      </trkpt>
      <trkpt lat="47.18715" lon="-1.59275">
        <ele>53</ele>
        <time>2021-03-06T12:52:59.000Z</time>
      </trkpt>
      <trkpt lat="47.18717" lon="-1.59257">
        <ele>53</ele>
        <time>2021-03-06T12:53:01.000Z</time>
      </trkpt>
      <trkpt lat="47.18719" lon="-1.5924">
        <ele>54</ele>
        <time>2021-03-06T12:53:03.000Z</time>
      </trkpt>
      <trkpt lat="47.18721" lon="-1.59223">
        <ele>53</ele>
        <time>2021-03-06T12:53:05.000Z</time>
      </trkpt>
      <trkpt lat="47.18723" lon="-1.59206">
        <ele>53</ele>
        <time>2021-03-06T12:53:07.000Z</time>
      </trkpt>
      <trkpt lat="47.18725" lon="-1.59189">
        <ele>53</ele>
        <time>2021-03-06T12:53:09.000Z</time>
      </trkpt>
      <trkpt lat="47.18727" lon="-1.59172">
        <ele>53</ele>
        <time>2021-03-06T12:53:11.000Z</time>
      </trkpt>
      <trkpt lat="47.18728" lon="-1.59155">
        <ele>53</ele>
        <time>2021-03-06T12:53:13.000Z</time>
      </trkpt>
      <trkpt lat="47.1873" lon="-1.59139">
        <ele>53</ele>
        <time>2021-03-06T12:53:15.000Z</time>
      </trkpt>
      <trkpt lat="47.18732" lon="-1.59122">
        <ele>53</ele>
        <time>2021-03-06T12:53:17.000Z</time>
      </trkpt>
      <trkpt lat="47.18734" lon="-1.59106">
        <ele>53</ele>
        <time>2021-03-06T12:53:19.000Z</time>
      </trkpt>
      <trkpt lat="47.18736" lon="-1.5909">
        <ele>53</ele>
        <time>2021-03-06T12:53:21.000Z</time>
      </trkpt>
      <trkpt lat="47.18737" lon="-1.59073">
        <ele>53</ele>
        <time>2021-03-06T12:53:23.000Z</time>
      </trkpt>
      <trkpt lat="47.18739" lon="-1.59057">
        <ele>53</ele>
        <time>2021-03-06T12:53:25.000Z</time>
      </trkpt>
      <trkpt lat="47.18741" lon="-1.5904">
        <ele>53</ele>
        <time>2021-03-06T12:53:27.000Z</time>
      </trkpt>
      <trkpt lat="47.18742" lon="-1.59024">
        <ele>54</ele>
        <time>2021-03-06T12:53:29.000Z</time>
      </trkpt>
      <trkpt lat="47.18745" lon="-1.59007">
        <ele>54</ele>
        <time>2021-03-06T12:53:31.000Z</time>
      </trkpt>
      <trkpt lat="47.18746" lon="-1.58991">
        <ele>54</ele>
        <time>2021-03-06T12:53:33.000Z</time>
      </trkpt>
      <trkpt lat="47.18748" lon="-1.58975">
        <ele>54</ele>
        <time>2021-03-06T12:53:35.000Z</time>
      </trkpt>
      <trkpt lat="47.18749" lon="-1.58959">
        <ele>55</ele>
        <time>2021-03-06T12:53:37.000Z</time>
      </trkpt>
      <trkpt lat="47.18751" lon="-1.58943">
        <ele>55</ele>
        <time>2021-03-06T12:53:39.000Z</time>
      </trkpt>
      <trkpt lat="47.18753" lon="-1.58927">
        <ele>55</ele>
        <time>2021-03-06T12:53:41.000Z</time>
      </trkpt>
      <trkpt lat="47.18755" lon="-1.58911">
        <ele>55</ele>
        <time>2021-03-06T12:53:43.000Z</time>
      </trkpt>
      <trkpt lat="47.18757" lon="-1.58896">
        <ele>55</ele>
        <time>2021-03-06T12:53:45.000Z</time>
      </trkpt>
      <trkpt lat="47.18759" lon="-1.58879">
        <ele>55</ele>
        <time>2021-03-06T12:53:47.000Z</time>
      </trkpt>
      <trkpt lat="47.1876" lon="-1.58863">
        <ele>55</ele>
        <time>2021-03-06T12:53:49.000Z</time>
      </trkpt>
      <trkpt lat="47.18762" lon="-1.58846">
        <ele>55</ele>
        <time>2021-03-06T12:53:51.000Z</time>
      </trkpt>
      <trkpt lat="47.18765" lon="-1.5883">
        <ele>55</ele>
        <time>2021-03-06T12:53:53.000Z</time>
      </trkpt>
      <trkpt lat="47.18765" lon="-1.58815">
        <ele>55</ele>
        <time>2021-03-06T12:53:55.000Z</time>
      </trkpt>
      <trkpt lat="47.18765" lon="-1.58799">
        <ele>55</ele>
        <time>2021-03-06T12:53:57.000Z</time>
      </trkpt>
      <trkpt lat="47.18763" lon="-1.58784">
        <ele>55</ele>
        <time>2021-03-06T12:53:59.000Z</time>
      </trkpt>
      <trkpt lat="47.18758" lon="-1.58768">
        <ele>56</ele>
        <time>2021-03-06T12:54:01.000Z</time>
      </trkpt>
      <trkpt lat="47.18756" lon="-1.58749">
        <ele>55</ele>
        <time>2021-03-06T12:54:03.000Z</time>
      </trkpt>
      <trkpt lat="47.1876" lon="-1.5873">
        <ele>56</ele>
        <time>2021-03-06T12:54:05.000Z</time>
      </trkpt>
      <trkpt lat="47.18768" lon="-1.58715">
        <ele>55</ele>
        <time>2021-03-06T12:54:07.000Z</time>
      </trkpt>
      <trkpt lat="47.18777" lon="-1.58702">
        <ele>55</ele>
        <time>2021-03-06T12:54:09.000Z</time>
      </trkpt>
      <trkpt lat="47.18784" lon="-1.58687">
        <ele>55</ele>
        <time>2021-03-06T12:54:11.000Z</time>
      </trkpt>
      <trkpt lat="47.18788" lon="-1.58669">
        <ele>55</ele>
        <time>2021-03-06T12:54:13.000Z</time>
      </trkpt>
      <trkpt lat="47.18793" lon="-1.58651">
        <ele>55</ele>
        <time>2021-03-06T12:54:15.000Z</time>
      </trkpt>
      <trkpt lat="47.18798" lon="-1.58633">
        <ele>54</ele>
        <time>2021-03-06T12:54:17.000Z</time>
      </trkpt>
      <trkpt lat="47.18803" lon="-1.58616">
        <ele>55</ele>
        <time>2021-03-06T12:54:19.000Z</time>
      </trkpt>
      <trkpt lat="47.18807" lon="-1.58599">
        <ele>55</ele>
        <time>2021-03-06T12:54:21.000Z</time>
      </trkpt>
      <trkpt lat="47.18812" lon="-1.58582">
        <ele>55</ele>
        <time>2021-03-06T12:54:23.000Z</time>
      </trkpt>
      <trkpt lat="47.18816" lon="-1.58566">
        <ele>55</ele>
        <time>2021-03-06T12:54:25.000Z</time>
      </trkpt>
      <trkpt lat="47.18821" lon="-1.5855">
        <ele>55</ele>
        <time>2021-03-06T12:54:27.000Z</time>
      </trkpt>
      <trkpt lat="47.18825" lon="-1.58533">
        <ele>55</ele>
        <time>2021-03-06T12:54:29.000Z</time>
      </trkpt>
      <trkpt lat="47.1883" lon="-1.58516">
        <ele>54</ele>
        <time>2021-03-06T12:54:31.000Z</time>
      </trkpt>
      <trkpt lat="47.18834" lon="-1.58501">
        <ele>54</ele>
        <time>2021-03-06T12:54:33.000Z</time>
      </trkpt>
      <trkpt lat="47.1884" lon="-1.58484">
        <ele>54</ele>
        <time>2021-03-06T12:54:35.000Z</time>
      </trkpt>
      <trkpt lat="47.18844" lon="-1.58468">
        <ele>54</ele>
        <time>2021-03-06T12:54:37.000Z</time>
      </trkpt>
      <trkpt lat="47.18849" lon="-1.58452">
        <ele>54</ele>
        <time>2021-03-06T12:54:39.000Z</time>
      </trkpt>
      <trkpt lat="47.18854" lon="-1.58435">
        <ele>54</ele>
        <time>2021-03-06T12:54:41.000Z</time>
      </trkpt>
      <trkpt lat="47.18859" lon="-1.58419">
        <ele>54</ele>
        <time>2021-03-06T12:54:43.000Z</time>
      </trkpt>
      <trkpt lat="47.18864" lon="-1.58403">
        <ele>54</ele>
        <time>2021-03-06T12:54:45.000Z</time>
      </trkpt>
      <trkpt lat="47.18869" lon="-1.58387">
        <ele>54</ele>
        <time>2021-03-06T12:54:47.000Z</time>
      </trkpt>
      <trkpt lat="47.18874" lon="-1.58372">
        <ele>54</ele>
        <time>2021-03-06T12:54:49.000Z</time>
      </trkpt>
      <trkpt lat="47.18879" lon="-1.58357">
        <ele>54</ele>
        <time>2021-03-06T12:54:51.000Z</time>
      </trkpt>
      <trkpt lat="47.18885" lon="-1.58341">
        <ele>54</ele>
        <time>2021-03-06T12:54:53.000Z</time>
      </trkpt>
      <trkpt lat="47.1889" lon="-1.58326">
        <ele>54</ele>
        <time>2021-03-06T12:54:55.000Z</time>
      </trkpt>
      <trkpt lat="47.18896" lon="-1.5831">
        <ele>55</ele>
        <time>2021-03-06T12:54:57.000Z</time>
      </trkpt>
      <trkpt lat="47.18901" lon="-1.58294">
        <ele>55</ele>
        <time>2021-03-06T12:54:59.000Z</time>
      </trkpt>
      <trkpt lat="47.18907" lon="-1.58278">
        <ele>55</ele>
        <time>2021-03-06T12:55:01.000Z</time>
      </trkpt>
      <trkpt lat="47.18913" lon="-1.58263">
        <ele>55</ele>
        <time>2021-03-06T12:55:03.000Z</time>
      </trkpt>
      <trkpt lat="47.18918" lon="-1.58247">
        <ele>54</ele>
        <time>2021-03-06T12:55:05.000Z</time>
      </trkpt>
      <trkpt lat="47.18923" lon="-1.58232">
        <ele>55</ele>
        <time>2021-03-06T12:55:07.000Z</time>
      </trkpt>
      <trkpt lat="47.18928" lon="-1.58217">
        <ele>55</ele>
        <time>2021-03-06T12:55:09.000Z</time>
      </trkpt>
      <trkpt lat="47.18934" lon="-1.58201">
        <ele>56</ele>
        <time>2021-03-06T12:55:11.000Z</time>
      </trkpt>
      <trkpt lat="47.1894" lon="-1.58186">
        <ele>55</ele>
        <time>2021-03-06T12:55:13.000Z</time>
      </trkpt>
      <trkpt lat="47.18945" lon="-1.58171">
        <ele>55</ele>
        <time>2021-03-06T12:55:15.000Z</time>
      </trkpt>
      <trkpt lat="47.1895" lon="-1.58156">
        <ele>55</ele>
        <time>2021-03-06T12:55:17.000Z</time>
      </trkpt>
      <trkpt lat="47.18955" lon="-1.58142">
        <ele>55</ele>
        <time>2021-03-06T12:55:19.000Z</time>
      </trkpt>
      <trkpt lat="47.18961" lon="-1.58129">
        <ele>55</ele>
        <time>2021-03-06T12:55:21.000Z</time>
      </trkpt>
      <trkpt lat="47.18966" lon="-1.58113">
        <ele>56</ele>
        <time>2021-03-06T12:55:23.000Z</time>
      </trkpt>
      <trkpt lat="47.18972" lon="-1.58098">
        <ele>56</ele>
        <time>2021-03-06T12:55:25.000Z</time>
      </trkpt>
      <trkpt lat="47.18976" lon="-1.58082">
        <ele>56</ele>
        <time>2021-03-06T12:55:27.000Z</time>
      </trkpt>
      <trkpt lat="47.18982" lon="-1.58067">
        <ele>56</ele>
        <time>2021-03-06T12:55:29.000Z</time>
      </trkpt>
      <trkpt lat="47.18987" lon="-1.58051">
        <ele>55</ele>
        <time>2021-03-06T12:55:31.000Z</time>
      </trkpt>
      <trkpt lat="47.18992" lon="-1.58036">
        <ele>55</ele>
        <time>2021-03-06T12:55:33.000Z</time>
      </trkpt>
      <trkpt lat="47.18998" lon="-1.5802">
        <ele>56</ele>
        <time>2021-03-06T12:55:35.000Z</time>
      </trkpt>
      <trkpt lat="47.19003" lon="-1.58004">
        <ele>56</ele>
        <time>2021-03-06T12:55:37.000Z</time>
      </trkpt>
      <trkpt lat="47.19009" lon="-1.57988">
        <ele>55</ele>
        <time>2021-03-06T12:55:39.000Z</time>
      </trkpt>
      <trkpt lat="47.19015" lon="-1.57972">
        <ele>55</ele>
        <time>2021-03-06T12:55:41.000Z</time>
      </trkpt>
      <trkpt lat="47.1902" lon="-1.57957">
        <ele>55</ele>
        <time>2021-03-06T12:55:43.000Z</time>
      </trkpt>
      <trkpt lat="47.19026" lon="-1.57941">
        <ele>55</ele>
        <time>2021-03-06T12:55:45.000Z</time>
      </trkpt>
      <trkpt lat="47.19031" lon="-1.57927">
        <ele>56</ele>
        <time>2021-03-06T12:55:47.000Z</time>
      </trkpt>
      <trkpt lat="47.19037" lon="-1.57912">
        <ele>56</ele>
        <time>2021-03-06T12:55:49.000Z</time>
      </trkpt>
      <trkpt lat="47.19042" lon="-1.57896">
        <ele>56</ele>
        <time>2021-03-06T12:55:51.000Z</time>
      </trkpt>
      <trkpt lat="47.19047" lon="-1.57881">
        <ele>55</ele>
        <time>2021-03-06T12:55:53.000Z</time>
      </trkpt>
      <trkpt lat="47.19052" lon="-1.57865">
        <ele>56</ele>
        <time>2021-03-06T12:55:55.000Z</time>
      </trkpt>
      <trkpt lat="47.19058" lon="-1.57851">
        <ele>56</ele>
        <time>2021-03-06T12:55:57.000Z</time>
      </trkpt>
      <trkpt lat="47.19063" lon="-1.57834">
        <ele>57</ele>
        <time>2021-03-06T12:55:59.000Z</time>
      </trkpt>
      <trkpt lat="47.19069" lon="-1.57819">
        <ele>56</ele>
        <time>2021-03-06T12:56:01.000Z</time>
      </trkpt>
      <trkpt lat="47.19074" lon="-1.57804">
        <ele>55</ele>
        <time>2021-03-06T12:56:03.000Z</time>
      </trkpt>
      <trkpt lat="47.19081" lon="-1.57789">
        <ele>55</ele>
        <time>2021-03-06T12:56:05.000Z</time>
      </trkpt>
      <trkpt lat="47.19086" lon="-1.57774">
        <ele>55</ele>
        <time>2021-03-06T12:56:07.000Z</time>
      </trkpt>
      <trkpt lat="47.19092" lon="-1.57758">
        <ele>55</ele>
        <time>2021-03-06T12:56:09.000Z</time>
      </trkpt>
      <trkpt lat="47.19097" lon="-1.57742">
        <ele>55</ele>
        <time>2021-03-06T12:56:11.000Z</time>
      </trkpt>
      <trkpt lat="47.19103" lon="-1.57727">
        <ele>55</ele>
        <time>2021-03-06T12:56:13.000Z</time>
      </trkpt>
      <trkpt lat="47.19108" lon="-1.57711">
        <ele>55</ele>
        <time>2021-03-06T12:56:15.000Z</time>
      </trkpt>
      <trkpt lat="47.19114" lon="-1.57696">
        <ele>55</ele>
        <time>2021-03-06T12:56:17.000Z</time>
      </trkpt>
      <trkpt lat="47.19119" lon="-1.57681">
        <ele>55</ele>
        <time>2021-03-06T12:56:19.000Z</time>
      </trkpt>
      <trkpt lat="47.19124" lon="-1.57666">
        <ele>55</ele>
        <time>2021-03-06T12:56:21.000Z</time>
      </trkpt>
      <trkpt lat="47.1913" lon="-1.57652">
        <ele>55</ele>
        <time>2021-03-06T12:56:23.000Z</time>
      </trkpt>
      <trkpt lat="47.19135" lon="-1.57637">
        <ele>55</ele>
        <time>2021-03-06T12:56:25.000Z</time>
      </trkpt>
      <trkpt lat="47.1914" lon="-1.57623">
        <ele>55</ele>
        <time>2021-03-06T12:56:27.000Z</time>
      </trkpt>
      <trkpt lat="47.19144" lon="-1.57609">
        <ele>55</ele>
        <time>2021-03-06T12:56:29.000Z</time>
      </trkpt>
      <trkpt lat="47.19149" lon="-1.57595">
        <ele>56</ele>
        <time>2021-03-06T12:56:31.000Z</time>
      </trkpt>
      <trkpt lat="47.19154" lon="-1.57581">
        <ele>56</ele>
        <time>2021-03-06T12:56:33.000Z</time>
      </trkpt>
      <trkpt lat="47.19159" lon="-1.57568">
        <ele>56</ele>
        <time>2021-03-06T12:56:35.000Z</time>
      </trkpt>
      <trkpt lat="47.19164" lon="-1.57553">
        <ele>56</ele>
        <time>2021-03-06T12:56:37.000Z</time>
      </trkpt>
      <trkpt lat="47.19169" lon="-1.57539">
        <ele>56</ele>
        <time>2021-03-06T12:56:39.000Z</time>
      </trkpt>
      <trkpt lat="47.19174" lon="-1.57524">
        <ele>57</ele>
        <time>2021-03-06T12:56:41.000Z</time>
      </trkpt>
      <trkpt lat="47.19179" lon="-1.57509">
        <ele>56</ele>
        <time>2021-03-06T12:56:43.000Z</time>
      </trkpt>
      <trkpt lat="47.19184" lon="-1.57493">
        <ele>56</ele>
        <time>2021-03-06T12:56:45.000Z</time>
      </trkpt>
      <trkpt lat="47.19188" lon="-1.57478">
        <ele>56</ele>
        <time>2021-03-06T12:56:47.000Z</time>
      </trkpt>
      <trkpt lat="47.19192" lon="-1.57462">
        <ele>56</ele>
        <time>2021-03-06T12:56:49.000Z</time>
      </trkpt>
      <trkpt lat="47.19197" lon="-1.57446">
        <ele>55</ele>
        <time>2021-03-06T12:56:51.000Z</time>
      </trkpt>
      <trkpt lat="47.19202" lon="-1.57431">
        <ele>55</ele>
        <time>2021-03-06T12:56:53.000Z</time>
      </trkpt>
      <trkpt lat="47.19207" lon="-1.57416">
        <ele>55</ele>
        <time>2021-03-06T12:56:55.000Z</time>
      </trkpt>
      <trkpt lat="47.19211" lon="-1.57401">
        <ele>55</ele>
        <time>2021-03-06T12:56:57.000Z</time>
      </trkpt>
      <trkpt lat="47.19215" lon="-1.57385">
        <ele>55</ele>
        <time>2021-03-06T12:56:59.000Z</time>
      </trkpt>
      <trkpt lat="47.19219" lon="-1.57369">
        <ele>55</ele>
        <time>2021-03-06T12:57:01.000Z</time>
      </trkpt>
      <trkpt lat="47.19222" lon="-1.57353">
        <ele>55</ele>
        <time>2021-03-06T12:57:03.000Z</time>
      </trkpt>
      <trkpt lat="47.19225" lon="-1.57336">
        <ele>54</ele>
        <time>2021-03-06T12:57:05.000Z</time>
      </trkpt>
      <trkpt lat="47.19228" lon="-1.57321">
        <ele>54</ele>
        <time>2021-03-06T12:57:07.000Z</time>
      </trkpt>
      <trkpt lat="47.19232" lon="-1.57306">
        <ele>54</ele>
        <time>2021-03-06T12:57:09.000Z</time>
      </trkpt>
      <trkpt lat="47.19235" lon="-1.5729">
        <ele>54</ele>
        <time>2021-03-06T12:57:11.000Z</time>
      </trkpt>
      <trkpt lat="47.19237" lon="-1.57273">
        <ele>53</ele>
        <time>2021-03-06T12:57:13.000Z</time>
      </trkpt>
      <trkpt lat="47.19239" lon="-1.57256">
        <ele>53</ele>
        <time>2021-03-06T12:57:15.000Z</time>
      </trkpt>
      <trkpt lat="47.19241" lon="-1.57239">
        <ele>53</ele>
        <time>2021-03-06T12:57:17.000Z</time>
      </trkpt>
      <trkpt lat="47.19243" lon="-1.57223">
        <ele>53</ele>
        <time>2021-03-06T12:57:19.000Z</time>
      </trkpt>
      <trkpt lat="47.19245" lon="-1.57207">
        <ele>53</ele>
        <time>2021-03-06T12:57:21.000Z</time>
      </trkpt>
      <trkpt lat="47.19247" lon="-1.57191">
        <ele>53</ele>
        <time>2021-03-06T12:57:23.000Z</time>
      </trkpt>
      <trkpt lat="47.19248" lon="-1.57174">
        <ele>52</ele>
        <time>2021-03-06T12:57:25.000Z</time>
      </trkpt>
      <trkpt lat="47.19252" lon="-1.57158">
        <ele>53</ele>
        <time>2021-03-06T12:57:27.000Z</time>
      </trkpt>
      <trkpt lat="47.19255" lon="-1.57141">
        <ele>53</ele>
        <time>2021-03-06T12:57:29.000Z</time>
      </trkpt>
      <trkpt lat="47.19258" lon="-1.57124">
        <ele>53</ele>
        <time>2021-03-06T12:57:31.000Z</time>
      </trkpt>
      <trkpt lat="47.1926" lon="-1.57107">
        <ele>52</ele>
        <time>2021-03-06T12:57:33.000Z</time>
      </trkpt>
      <trkpt lat="47.19262" lon="-1.57091">
        <ele>52</ele>
        <time>2021-03-06T12:57:35.000Z</time>
      </trkpt>
      <trkpt lat="47.19262" lon="-1.57078">
        <ele>52</ele>
        <time>2021-03-06T12:57:37.000Z</time>
      </trkpt>
      <trkpt lat="47.19258" lon="-1.57063">
        <ele>52</ele>
        <time>2021-03-06T12:57:40.000Z</time>
      </trkpt>
      <trkpt lat="47.19257" lon="-1.57046">
        <ele>52</ele>
        <time>2021-03-06T12:57:42.000Z</time>
      </trkpt>
      <trkpt lat="47.19262" lon="-1.5703">
        <ele>52</ele>
        <time>2021-03-06T12:57:44.000Z</time>
      </trkpt>
      <trkpt lat="47.19269" lon="-1.57015">
        <ele>52</ele>
        <time>2021-03-06T12:57:46.000Z</time>
      </trkpt>
      <trkpt lat="47.19273" lon="-1.56998">
        <ele>52</ele>
        <time>2021-03-06T12:57:48.000Z</time>
      </trkpt>
      <trkpt lat="47.19275" lon="-1.56981">
        <ele>52</ele>
        <time>2021-03-06T12:57:50.000Z</time>
      </trkpt>
      <trkpt lat="47.19278" lon="-1.56964">
        <ele>52</ele>
        <time>2021-03-06T12:57:52.000Z</time>
      </trkpt>
      <trkpt lat="47.19278" lon="-1.56948">
        <ele>52</ele>
        <time>2021-03-06T12:57:54.000Z</time>
      </trkpt>
      <trkpt lat="47.1928" lon="-1.56932">
        <ele>53</ele>
        <time>2021-03-06T12:57:56.000Z</time>
      </trkpt>
      <trkpt lat="47.1928" lon="-1.56916">
        <ele>53</ele>
        <time>2021-03-06T12:57:58.000Z</time>
      </trkpt>
      <trkpt lat="47.19281" lon="-1.569">
        <ele>53</ele>
        <time>2021-03-06T12:58:00.000Z</time>
      </trkpt>
      <trkpt lat="47.19282" lon="-1.56885">
        <ele>53</ele>
        <time>2021-03-06T12:58:02.000Z</time>
      </trkpt>
      <trkpt lat="47.19284" lon="-1.56869">
        <ele>53</ele>
        <time>2021-03-06T12:58:04.000Z</time>
      </trkpt>
      <trkpt lat="47.19286" lon="-1.56852">
        <ele>53</ele>
        <time>2021-03-06T12:58:06.000Z</time>
      </trkpt>
      <trkpt lat="47.19287" lon="-1.56835">
        <ele>53</ele>
        <time>2021-03-06T12:58:08.000Z</time>
      </trkpt>
      <trkpt lat="47.19289" lon="-1.56819">
        <ele>53</ele>
        <time>2021-03-06T12:58:10.000Z</time>
      </trkpt>
      <trkpt lat="47.19289" lon="-1.56803">
        <ele>53</ele>
        <time>2021-03-06T12:58:12.000Z</time>
      </trkpt>
      <trkpt lat="47.19289" lon="-1.56786">
        <ele>53</ele>
        <time>2021-03-06T12:58:14.000Z</time>
      </trkpt>
      <trkpt lat="47.1929" lon="-1.56769">
        <ele>53</ele>
        <time>2021-03-06T12:58:16.000Z</time>
      </trkpt>
      <trkpt lat="47.1929" lon="-1.56751">
        <ele>53</ele>
        <time>2021-03-06T12:58:18.000Z</time>
      </trkpt>
      <trkpt lat="47.1929" lon="-1.56734">
        <ele>53</ele>
        <time>2021-03-06T12:58:20.000Z</time>
      </trkpt>
      <trkpt lat="47.1929" lon="-1.56717">
        <ele>53</ele>
        <time>2021-03-06T12:58:22.000Z</time>
      </trkpt>
      <trkpt lat="47.1929" lon="-1.56701">
        <ele>53</ele>
        <time>2021-03-06T12:58:24.000Z</time>
      </trkpt>
      <trkpt lat="47.19289" lon="-1.56684">
        <ele>53</ele>
        <time>2021-03-06T12:58:26.000Z</time>
      </trkpt>
      <trkpt lat="47.19288" lon="-1.56669">
        <ele>53</ele>
        <time>2021-03-06T12:58:28.000Z</time>
      </trkpt>
      <trkpt lat="47.19287" lon="-1.56653">
        <ele>53</ele>
        <time>2021-03-06T12:58:30.000Z</time>
      </trkpt>
      <trkpt lat="47.19285" lon="-1.56638">
        <ele>53</ele>
        <time>2021-03-06T12:58:32.000Z</time>
      </trkpt>
      <trkpt lat="47.19284" lon="-1.56622">
        <ele>53</ele>
        <time>2021-03-06T12:58:34.000Z</time>
      </trkpt>
      <trkpt lat="47.19282" lon="-1.56606">
        <ele>53</ele>
        <time>2021-03-06T12:58:36.000Z</time>
      </trkpt>
      <trkpt lat="47.1928" lon="-1.56591">
        <ele>53</ele>
        <time>2021-03-06T12:58:38.000Z</time>
      </trkpt>
      <trkpt lat="47.19279" lon="-1.56574">
        <ele>53</ele>
        <time>2021-03-06T12:58:40.000Z</time>
      </trkpt>
      <trkpt lat="47.19277" lon="-1.56558">
        <ele>52</ele>
        <time>2021-03-06T12:58:42.000Z</time>
      </trkpt>
      <trkpt lat="47.19276" lon="-1.56542">
        <ele>52</ele>
        <time>2021-03-06T12:58:44.000Z</time>
      </trkpt>
      <trkpt lat="47.19275" lon="-1.56526">
        <ele>53</ele>
        <time>2021-03-06T12:58:46.000Z</time>
      </trkpt>
      <trkpt lat="47.19273" lon="-1.5651">
        <ele>53</ele>
        <time>2021-03-06T12:58:48.000Z</time>
      </trkpt>
      <trkpt lat="47.19271" lon="-1.56494">
        <ele>53</ele>
        <time>2021-03-06T12:58:50.000Z</time>
      </trkpt>
      <trkpt lat="47.19269" lon="-1.56478">
        <ele>53</ele>
        <time>2021-03-06T12:58:52.000Z</time>
      </trkpt>
      <trkpt lat="47.19268" lon="-1.56461">
        <ele>53</ele>
        <time>2021-03-06T12:58:54.000Z</time>
      </trkpt>
      <trkpt lat="47.19266" lon="-1.56445">
        <ele>53</ele>
        <time>2021-03-06T12:58:56.000Z</time>
      </trkpt>
      <trkpt lat="47.19265" lon="-1.56428">
        <ele>54</ele>
        <time>2021-03-06T12:58:58.000Z</time>
      </trkpt>
      <trkpt lat="47.19264" lon="-1.56412">
        <ele>53</ele>
        <time>2021-03-06T12:59:00.000Z</time>
      </trkpt>
      <trkpt lat="47.19263" lon="-1.56395">
        <ele>53</ele>
        <time>2021-03-06T12:59:02.000Z</time>
      </trkpt>
      <trkpt lat="47.19262" lon="-1.56379">
        <ele>53</ele>
        <time>2021-03-06T12:59:04.000Z</time>
      </trkpt>
      <trkpt lat="47.19259" lon="-1.56364">
        <ele>53</ele>
        <time>2021-03-06T12:59:06.000Z</time>
      </trkpt>
      <trkpt lat="47.19255" lon="-1.56348">
        <ele>53</ele>
        <time>2021-03-06T12:59:08.000Z</time>
      </trkpt>
      <trkpt lat="47.1925" lon="-1.56333">
        <ele>53</ele>
        <time>2021-03-06T12:59:10.000Z</time>
      </trkpt>
      <trkpt lat="47.19242" lon="-1.56321">
        <ele>54</ele>
        <time>2021-03-06T12:59:12.000Z</time>
      </trkpt>
      <trkpt lat="47.19234" lon="-1.56307">
        <ele>54</ele>
        <time>2021-03-06T12:59:14.000Z</time>
      </trkpt>
      <trkpt lat="47.19232" lon="-1.56291">
        <ele>54</ele>
        <time>2021-03-06T12:59:16.000Z</time>
      </trkpt>
      <trkpt lat="47.19234" lon="-1.56273">
        <ele>54</ele>
        <time>2021-03-06T12:59:18.000Z</time>
      </trkpt>
      <trkpt lat="47.19241" lon="-1.56256">
        <ele>54</ele>
        <time>2021-03-06T12:59:20.000Z</time>
      </trkpt>
      <trkpt lat="47.19245" lon="-1.5624">
        <ele>54</ele>
        <time>2021-03-06T12:59:22.000Z</time>
      </trkpt>
      <trkpt lat="47.19243" lon="-1.56221">
        <ele>54</ele>
        <time>2021-03-06T12:59:24.000Z</time>
      </trkpt>
      <trkpt lat="47.19241" lon="-1.56203">
        <ele>54</ele>
        <time>2021-03-06T12:59:26.000Z</time>
      </trkpt>
      <trkpt lat="47.19242" lon="-1.56185">
        <ele>54</ele>
        <time>2021-03-06T12:59:28.000Z</time>
      </trkpt>
      <trkpt lat="47.19243" lon="-1.56167">
        <ele>53</ele>
        <time>2021-03-06T12:59:30.000Z</time>
      </trkpt>
      <trkpt lat="47.19243" lon="-1.56149">
        <ele>53</ele>
        <time>2021-03-06T12:59:32.000Z</time>
      </trkpt>
      <trkpt lat="47.19243" lon="-1.56131">
        <ele>53</ele>
        <time>2021-03-06T12:59:34.000Z</time>
      </trkpt>
      <trkpt lat="47.19243" lon="-1.56113">
        <ele>53</ele>
        <time>2021-03-06T12:59:36.000Z</time>
      </trkpt>
      <trkpt lat="47.19242" lon="-1.56096">
        <ele>53</ele>
        <time>2021-03-06T12:59:38.000Z</time>
      </trkpt>
      <trkpt lat="47.19241" lon="-1.56078">
        <ele>53</ele>
        <time>2021-03-06T12:59:40.000Z</time>
      </trkpt>
      <trkpt lat="47.1924" lon="-1.56061">
        <ele>53</ele>
        <time>2021-03-06T12:59:42.000Z</time>
      </trkpt>
      <trkpt lat="47.19239" lon="-1.56043">
        <ele>53</ele>
        <time>2021-03-06T12:59:44.000Z</time>
      </trkpt>
      <trkpt lat="47.19238" lon="-1.56026">
        <ele>53</ele>
        <time>2021-03-06T12:59:46.000Z</time>
      </trkpt>
      <trkpt lat="47.19236" lon="-1.56008">
        <ele>53</ele>
        <time>2021-03-06T12:59:48.000Z</time>
      </trkpt>
      <trkpt lat="47.19234" lon="-1.55991">
        <ele>53</ele>
        <time>2021-03-06T12:59:50.000Z</time>
      </trkpt>
      <trkpt lat="47.19232" lon="-1.55974">
        <ele>54</ele>
        <time>2021-03-06T12:59:52.000Z</time>
      </trkpt>
      <trkpt lat="47.1923" lon="-1.55957">
        <ele>54</ele>
        <time>2021-03-06T12:59:54.000Z</time>
      </trkpt>
      <trkpt lat="47.19228" lon="-1.5594">
        <ele>54</ele>
        <time>2021-03-06T12:59:56.000Z</time>
      </trkpt>
      <trkpt lat="47.19226" lon="-1.55924">
        <ele>54</ele>
        <time>2021-03-06T12:59:58.000Z</time>
      </trkpt>
      <trkpt lat="47.19225" lon="-1.55906">
        <ele>54</ele>
        <time>2021-03-06T13:00:00.000Z</time>
      </trkpt>
      <trkpt lat="47.19224" lon="-1.55889">
        <ele>54</ele>
        <time>2021-03-06T13:00:02.000Z</time>
      </trkpt>
      <trkpt lat="47.19222" lon="-1.55872">
        <ele>54</ele>
        <time>2021-03-06T13:00:04.000Z</time>
      </trkpt>
      <trkpt lat="47.19221" lon="-1.55854">
        <ele>54</ele>
        <time>2021-03-06T13:00:06.000Z</time>
      </trkpt>
      <trkpt lat="47.1922" lon="-1.55838">
        <ele>54</ele>
        <time>2021-03-06T13:00:08.000Z</time>
      </trkpt>
      <trkpt lat="47.1922" lon="-1.55821">
        <ele>54</ele>
        <time>2021-03-06T13:00:10.000Z</time>
      </trkpt>
      <trkpt lat="47.19219" lon="-1.55803">
        <ele>54</ele>
        <time>2021-03-06T13:00:12.000Z</time>
      </trkpt>
      <trkpt lat="47.19219" lon="-1.55786">
        <ele>54</ele>
        <time>2021-03-06T13:00:14.000Z</time>
      </trkpt>
      <trkpt lat="47.19219" lon="-1.55769">
        <ele>54</ele>
        <time>2021-03-06T13:00:16.000Z</time>
      </trkpt>
      <trkpt lat="47.19219" lon="-1.55751">
        <ele>54</ele>
        <time>2021-03-06T13:00:18.000Z</time>
      </trkpt>
      <trkpt lat="47.19219" lon="-1.55735">
        <ele>54</ele>
        <time>2021-03-06T13:00:20.000Z</time>
      </trkpt>
      <trkpt lat="47.19219" lon="-1.55718">
        <ele>54</ele>
        <time>2021-03-06T13:00:22.000Z</time>
      </trkpt>
      <trkpt lat="47.19219" lon="-1.557">
        <ele>54</ele>
        <time>2021-03-06T13:00:24.000Z</time>
      </trkpt>
      <trkpt lat="47.19219" lon="-1.55683">
        <ele>54</ele>
        <time>2021-03-06T13:00:26.000Z</time>
      </trkpt>
      <trkpt lat="47.1922" lon="-1.55666">
        <ele>54</ele>
        <time>2021-03-06T13:00:28.000Z</time>
      </trkpt>
      <trkpt lat="47.1922" lon="-1.5565">
        <ele>54</ele>
        <time>2021-03-06T13:00:30.000Z</time>
      </trkpt>
      <trkpt lat="47.19222" lon="-1.55633">
        <ele>54</ele>
        <time>2021-03-06T13:00:32.000Z</time>
      </trkpt>
      <trkpt lat="47.19222" lon="-1.55615">
        <ele>54</ele>
        <time>2021-03-06T13:00:34.000Z</time>
      </trkpt>
      <trkpt lat="47.19223" lon="-1.55598">
        <ele>54</ele>
        <time>2021-03-06T13:00:36.000Z</time>
      </trkpt>
      <trkpt lat="47.19225" lon="-1.55582">
        <ele>54</ele>
        <time>2021-03-06T13:00:38.000Z</time>
      </trkpt>
      <trkpt lat="47.19227" lon="-1.55565">
        <ele>54</ele>
        <time>2021-03-06T13:00:40.000Z</time>
      </trkpt>
      <trkpt lat="47.19229" lon="-1.55548">
        <ele>54</ele>
        <time>2021-03-06T13:00:42.000Z</time>
      </trkpt>
      <trkpt lat="47.1923" lon="-1.55532">
        <ele>54</ele>
        <time>2021-03-06T13:00:44.000Z</time>
      </trkpt>
      <trkpt lat="47.19231" lon="-1.55517">
        <ele>54</ele>
        <time>2021-03-06T13:00:46.000Z</time>
      </trkpt>
      <trkpt lat="47.19232" lon="-1.55501">
        <ele>54</ele>
        <time>2021-03-06T13:00:48.000Z</time>
      </trkpt>
      <trkpt lat="47.19231" lon="-1.55486">
        <ele>54</ele>
        <time>2021-03-06T13:00:50.000Z</time>
      </trkpt>
      <trkpt lat="47.1923" lon="-1.55473">
        <ele>54</ele>
        <time>2021-03-06T13:00:52.000Z</time>
      </trkpt>
      <trkpt lat="47.19224" lon="-1.55461">
        <ele>54</ele>
        <time>2021-03-06T13:00:54.000Z</time>
      </trkpt>
      <trkpt lat="47.19215" lon="-1.5545">
        <ele>54</ele>
        <time>2021-03-06T13:00:56.000Z</time>
      </trkpt>
      <trkpt lat="47.19212" lon="-1.55433">
        <ele>55</ele>
        <time>2021-03-06T13:00:58.000Z</time>
      </trkpt>
      <trkpt lat="47.19217" lon="-1.55415">
        <ele>55</ele>
        <time>2021-03-06T13:01:00.000Z</time>
      </trkpt>
      <trkpt lat="47.19228" lon="-1.55401">
        <ele>54</ele>
        <time>2021-03-06T13:01:02.000Z</time>
      </trkpt>
      <trkpt lat="47.19237" lon="-1.5539">
        <ele>54</ele>
        <time>2021-03-06T13:01:04.000Z</time>
      </trkpt>
      <trkpt lat="47.19242" lon="-1.55377">
        <ele>54</ele>
        <time>2021-03-06T13:01:06.000Z</time>
      </trkpt>
      <trkpt lat="47.19248" lon="-1.55362">
        <ele>54</ele>
        <time>2021-03-06T13:01:08.000Z</time>
      </trkpt>
      <trkpt lat="47.19252" lon="-1.55347">
        <ele>55</ele>
        <time>2021-03-06T13:01:10.000Z</time>
      </trkpt>
      <trkpt lat="47.19257" lon="-1.55332">
        <ele>55</ele>
        <time>2021-03-06T13:01:12.000Z</time>
      </trkpt>
      <trkpt lat="47.1926" lon="-1.55318">
        <ele>55</ele>
        <time>2021-03-06T13:01:14.000Z</time>
      </trkpt>
      <trkpt lat="47.19263" lon="-1.55302">
        <ele>55</ele>
        <time>2021-03-06T13:01:16.000Z</time>
      </trkpt>
      <trkpt lat="47.19267" lon="-1.55287">
        <ele>55</ele>
        <time>2021-03-06T13:01:18.000Z</time>
      </trkpt>
      <trkpt lat="47.19269" lon="-1.55272">
        <ele>56</ele>
        <time>2021-03-06T13:01:20.000Z</time>
      </trkpt>
      <trkpt lat="47.19272" lon="-1.55258">
        <ele>56</ele>
        <time>2021-03-06T13:01:22.000Z</time>
      </trkpt>
      <trkpt lat="47.19275" lon="-1.55244">
        <ele>56</ele>
        <time>2021-03-06T13:01:24.000Z</time>
      </trkpt>
      <trkpt lat="47.19279" lon="-1.55229">
        <ele>56</ele>
        <time>2021-03-06T13:01:26.000Z</time>
      </trkpt>
      <trkpt lat="47.19282" lon="-1.55214">
        <ele>56</ele>
        <time>2021-03-06T13:01:28.000Z</time>
      </trkpt>
      <trkpt lat="47.19286" lon="-1.552">
        <ele>56</ele>
        <time>2021-03-06T13:01:30.000Z</time>
      </trkpt>
      <trkpt lat="47.1929" lon="-1.55186">
        <ele>56</ele>
        <time>2021-03-06T13:01:32.000Z</time>
      </trkpt>
      <trkpt lat="47.19294" lon="-1.55171">
        <ele>56</ele>
        <time>2021-03-06T13:01:34.000Z</time>
      </trkpt>
      <trkpt lat="47.19298" lon="-1.55157">
        <ele>56</ele>
        <time>2021-03-06T13:01:36.000Z</time>
      </trkpt>
      <trkpt lat="47.19301" lon="-1.55143">
        <ele>56</ele>
        <time>2021-03-06T13:01:38.000Z</time>
      </trkpt>
      <trkpt lat="47.19305" lon="-1.55129">
        <ele>57</ele>
        <time>2021-03-06T13:01:40.000Z</time>
      </trkpt>
      <trkpt lat="47.19309" lon="-1.55114">
        <ele>57</ele>
        <time>2021-03-06T13:01:42.000Z</time>
      </trkpt>
      <trkpt lat="47.19312" lon="-1.551">
        <ele>58</ele>
        <time>2021-03-06T13:01:44.000Z</time>
      </trkpt>
      <trkpt lat="47.19316" lon="-1.55087">
        <ele>58</ele>
        <time>2021-03-06T13:01:46.000Z</time>
      </trkpt>
      <trkpt lat="47.19319" lon="-1.55073">
        <ele>58</ele>
        <time>2021-03-06T13:01:48.000Z</time>
      </trkpt>
      <trkpt lat="47.19323" lon="-1.55059">
        <ele>58</ele>
        <time>2021-03-06T13:01:50.000Z</time>
      </trkpt>
      <trkpt lat="47.19327" lon="-1.55044">
        <ele>59</ele>
        <time>2021-03-06T13:01:52.000Z</time>
      </trkpt>
      <trkpt lat="47.19331" lon="-1.55029">
        <ele>59</ele>
        <time>2021-03-06T13:01:54.000Z</time>
      </trkpt>
      <trkpt lat="47.19334" lon="-1.55014">
        <ele>59</ele>
        <time>2021-03-06T13:01:56.000Z</time>
      </trkpt>
      <trkpt lat="47.19338" lon="-1.55">
        <ele>60</ele>
        <time>2021-03-06T13:01:58.000Z</time>
      </trkpt>
      <trkpt lat="47.19342" lon="-1.54986">
        <ele>60</ele>
        <time>2021-03-06T13:02:00.000Z</time>
      </trkpt>
      <trkpt lat="47.19346" lon="-1.54972">
        <ele>60</ele>
        <time>2021-03-06T13:02:02.000Z</time>
      </trkpt>
      <trkpt lat="47.19349" lon="-1.54958">
        <ele>61</ele>
        <time>2021-03-06T13:02:04.000Z</time>
      </trkpt>
      <trkpt lat="47.19352" lon="-1.54943">
        <ele>61</ele>
        <time>2021-03-06T13:02:06.000Z</time>
      </trkpt>
      <trkpt lat="47.19356" lon="-1.54929">
        <ele>61</ele>
        <time>2021-03-06T13:02:08.000Z</time>
      </trkpt>
      <trkpt lat="47.1936" lon="-1.54915">
        <ele>61</ele>
        <time>2021-03-06T13:02:10.000Z</time>
      </trkpt>
      <trkpt lat="47.19363" lon="-1.54901">
        <ele>61</ele>
        <time>2021-03-06T13:02:12.000Z</time>
      </trkpt>
      <trkpt lat="47.19366" lon="-1.54887">
        <ele>61</ele>
        <time>2021-03-06T13:02:14.000Z</time>
      </trkpt>
      <trkpt lat="47.1937" lon="-1.54871">
        <ele>61</ele>
        <time>2021-03-06T13:02:16.000Z</time>
      </trkpt>
      <trkpt lat="47.19374" lon="-1.54856">
        <ele>61</ele>
        <time>2021-03-06T13:02:18.000Z</time>
      </trkpt>
      <trkpt lat="47.19377" lon="-1.54838">
        <ele>61</ele>
        <time>2021-03-06T13:02:20.000Z</time>
      </trkpt>
      <trkpt lat="47.19381" lon="-1.54822">
        <ele>61</ele>
        <time>2021-03-06T13:02:22.000Z</time>
      </trkpt>
      <trkpt lat="47.19387" lon="-1.54804">
        <ele>61</ele>
        <time>2021-03-06T13:02:24.000Z</time>
      </trkpt>
      <trkpt lat="47.19392" lon="-1.54785">
        <ele>60</ele>
        <time>2021-03-06T13:02:26.000Z</time>
      </trkpt>
      <trkpt lat="47.19397" lon="-1.54766">
        <ele>59</ele>
        <time>2021-03-06T13:02:28.000Z</time>
      </trkpt>
      <trkpt lat="47.19402" lon="-1.54747">
        <ele>59</ele>
        <time>2021-03-06T13:02:30.000Z</time>
      </trkpt>
      <trkpt lat="47.19407" lon="-1.54727">
        <ele>58</ele>
        <time>2021-03-06T13:02:32.000Z</time>
      </trkpt>
      <trkpt lat="47.19411" lon="-1.54708">
        <ele>57</ele>
        <time>2021-03-06T13:02:34.000Z</time>
      </trkpt>
      <trkpt lat="47.19415" lon="-1.5469">
        <ele>56</ele>
        <time>2021-03-06T13:02:36.000Z</time>
      </trkpt>
      <trkpt lat="47.1942" lon="-1.54674">
        <ele>56</ele>
        <time>2021-03-06T13:02:38.000Z</time>
      </trkpt>
      <trkpt lat="47.19425" lon="-1.54658">
        <ele>56</ele>
        <time>2021-03-06T13:02:40.000Z</time>
      </trkpt>
      <trkpt lat="47.19429" lon="-1.54644">
        <ele>55</ele>
        <time>2021-03-06T13:02:42.000Z</time>
      </trkpt>
      <trkpt lat="47.19433" lon="-1.54627">
        <ele>55</ele>
        <time>2021-03-06T13:02:45.000Z</time>
      </trkpt>
      <trkpt lat="47.1943" lon="-1.54613">
        <ele>55</ele>
        <time>2021-03-06T13:02:51.000Z</time>
      </trkpt>
      <trkpt lat="47.19423" lon="-1.54604">
        <ele>56</ele>
        <time>2021-03-06T13:02:53.000Z</time>
      </trkpt>
      <trkpt lat="47.19421" lon="-1.54587">
        <ele>56</ele>
        <time>2021-03-06T13:02:55.000Z</time>
      </trkpt>
      <trkpt lat="47.19427" lon="-1.54572">
        <ele>56</ele>
        <time>2021-03-06T13:02:57.000Z</time>
      </trkpt>
      <trkpt lat="47.19435" lon="-1.54558">
        <ele>55</ele>
        <time>2021-03-06T13:02:59.000Z</time>
      </trkpt>
      <trkpt lat="47.19446" lon="-1.54549">
        <ele>55</ele>
        <time>2021-03-06T13:03:01.000Z</time>
      </trkpt>
      <trkpt lat="47.19454" lon="-1.54536">
        <ele>56</ele>
        <time>2021-03-06T13:03:03.000Z</time>
      </trkpt>
      <trkpt lat="47.19459" lon="-1.54521">
        <ele>55</ele>
        <time>2021-03-06T13:03:05.000Z</time>
      </trkpt>
      <trkpt lat="47.19464" lon="-1.54505">
        <ele>55</ele>
        <time>2021-03-06T13:03:07.000Z</time>
      </trkpt>
      <trkpt lat="47.19469" lon="-1.5449">
        <ele>55</ele>
        <time>2021-03-06T13:03:09.000Z</time>
      </trkpt>
      <trkpt lat="47.19474" lon="-1.54474">
        <ele>55</ele>
        <time>2021-03-06T13:03:11.000Z</time>
      </trkpt>
      <trkpt lat="47.19481" lon="-1.54461">
        <ele>56</ele>
        <time>2021-03-06T13:03:13.000Z</time>
      </trkpt>
      <trkpt lat="47.19492" lon="-1.54453">
        <ele>55</ele>
        <time>2021-03-06T13:03:15.000Z</time>
      </trkpt>
      <trkpt lat="47.19502" lon="-1.54445">
        <ele>56</ele>
        <time>2021-03-06T13:03:17.000Z</time>
      </trkpt>
      <trkpt lat="47.19512" lon="-1.54437">
        <ele>56</ele>
        <time>2021-03-06T13:03:19.000Z</time>
      </trkpt>
      <trkpt lat="47.19522" lon="-1.5443">
        <ele>56</ele>
        <time>2021-03-06T13:03:21.000Z</time>
      </trkpt>
      <trkpt lat="47.19532" lon="-1.54422">
        <ele>55</ele>
        <time>2021-03-06T13:03:23.000Z</time>
      </trkpt>
      <trkpt lat="47.19541" lon="-1.54414">
        <ele>55</ele>
        <time>2021-03-06T13:03:25.000Z</time>
      </trkpt>
      <trkpt lat="47.19551" lon="-1.54407">
        <ele>56</ele>
        <time>2021-03-06T13:03:27.000Z</time>
      </trkpt>
      <trkpt lat="47.1956" lon="-1.54399">
        <ele>56</ele>
        <time>2021-03-06T13:03:29.000Z</time>
      </trkpt>
      <trkpt lat="47.1957" lon="-1.54392">
        <ele>56</ele>
        <time>2021-03-06T13:03:32.000Z</time>
      </trkpt>
      <trkpt lat="47.19578" lon="-1.54384">
        <ele>55</ele>
        <time>2021-03-06T13:03:36.000Z</time>
      </trkpt>
      <trkpt lat="47.19586" lon="-1.54378">
        <ele>55</ele>
        <time>2021-03-06T13:03:41.000Z</time>
      </trkpt>
      <trkpt lat="47.19595" lon="-1.5437">
        <ele>55</ele>
        <time>2021-03-06T13:03:44.000Z</time>
      </trkpt>
      <trkpt lat="47.19604" lon="-1.54362">
        <ele>55</ele>
        <time>2021-03-06T13:03:46.000Z</time>
      </trkpt>
      <trkpt lat="47.19614" lon="-1.54352">
        <ele>55</ele>
        <time>2021-03-06T13:03:48.000Z</time>
      </trkpt>
      <trkpt lat="47.19622" lon="-1.5434">
        <ele>55</ele>
        <time>2021-03-06T13:03:50.000Z</time>
      </trkpt>
      <trkpt lat="47.19631" lon="-1.54328">
        <ele>56</ele>
        <time>2021-03-06T13:03:52.000Z</time>
      </trkpt>
      <trkpt lat="47.19639" lon="-1.54316">
        <ele>56</ele>
        <time>2021-03-06T13:03:54.000Z</time>
      </trkpt>
      <trkpt lat="47.19648" lon="-1.54304">
        <ele>56</ele>
        <time>2021-03-06T13:03:56.000Z</time>
      </trkpt>
      <trkpt lat="47.19659" lon="-1.54295">
        <ele>56</ele>
        <time>2021-03-06T13:03:58.000Z</time>
      </trkpt>
      <trkpt lat="47.1967" lon="-1.54287">
        <ele>56</ele>
        <time>2021-03-06T13:04:00.000Z</time>
      </trkpt>
      <trkpt lat="47.19681" lon="-1.54278">
        <ele>56</ele>
        <time>2021-03-06T13:04:02.000Z</time>
      </trkpt>
      <trkpt lat="47.19692" lon="-1.54271">
        <ele>56</ele>
        <time>2021-03-06T13:04:04.000Z</time>
      </trkpt>
      <trkpt lat="47.19703" lon="-1.54264">
        <ele>56</ele>
        <time>2021-03-06T13:04:06.000Z</time>
      </trkpt>
      <trkpt lat="47.19714" lon="-1.54257">
        <ele>57</ele>
        <time>2021-03-06T13:04:08.000Z</time>
      </trkpt>
      <trkpt lat="47.19725" lon="-1.54248">
        <ele>57</ele>
        <time>2021-03-06T13:04:10.000Z</time>
      </trkpt>
      <trkpt lat="47.19735" lon="-1.5424">
        <ele>57</ele>
        <time>2021-03-06T13:04:12.000Z</time>
      </trkpt>
      <trkpt lat="47.19744" lon="-1.54232">
        <ele>57</ele>
        <time>2021-03-06T13:04:14.000Z</time>
      </trkpt>
      <trkpt lat="47.19751" lon="-1.54224">
        <ele>57</ele>
        <time>2021-03-06T13:04:16.000Z</time>
      </trkpt>
      <trkpt lat="47.19762" lon="-1.54215">
        <ele>57</ele>
        <time>2021-03-06T13:04:19.000Z</time>
      </trkpt>
      <trkpt lat="47.19771" lon="-1.54204">
        <ele>57</ele>
        <time>2021-03-06T13:04:22.000Z</time>
      </trkpt>
      <trkpt lat="47.19779" lon="-1.54196">
        <ele>57</ele>
        <time>2021-03-06T13:04:24.000Z</time>
      </trkpt>
      <trkpt lat="47.19787" lon="-1.54185">
        <ele>57</ele>
        <time>2021-03-06T13:04:26.000Z</time>
      </trkpt>
      <trkpt lat="47.19791" lon="-1.54171">
        <ele>57</ele>
        <time>2021-03-06T13:04:28.000Z</time>
      </trkpt>
      <trkpt lat="47.19794" lon="-1.54157">
        <ele>57</ele>
        <time>2021-03-06T13:04:30.000Z</time>
      </trkpt>
      <trkpt lat="47.19796" lon="-1.54142">
        <ele>57</ele>
        <time>2021-03-06T13:04:32.000Z</time>
      </trkpt>
      <trkpt lat="47.198" lon="-1.54127">
        <ele>57</ele>
        <time>2021-03-06T13:04:34.000Z</time>
      </trkpt>
      <trkpt lat="47.19808" lon="-1.54114">
        <ele>56</ele>
        <time>2021-03-06T13:04:36.000Z</time>
      </trkpt>
      <trkpt lat="47.19818" lon="-1.54104">
        <ele>56</ele>
        <time>2021-03-06T13:04:38.000Z</time>
      </trkpt>
      <trkpt lat="47.19829" lon="-1.54092">
        <ele>55</ele>
        <time>2021-03-06T13:04:40.000Z</time>
      </trkpt>
      <trkpt lat="47.19834" lon="-1.54076">
        <ele>55</ele>
        <time>2021-03-06T13:04:42.000Z</time>
      </trkpt>
      <trkpt lat="47.19843" lon="-1.54064">
        <ele>54</ele>
        <time>2021-03-06T13:04:44.000Z</time>
      </trkpt>
      <trkpt lat="47.19849" lon="-1.54048">
        <ele>54</ele>
        <time>2021-03-06T13:04:46.000Z</time>
      </trkpt>
      <trkpt lat="47.19854" lon="-1.54031">
        <ele>54</ele>
        <time>2021-03-06T13:04:48.000Z</time>
      </trkpt>
      <trkpt lat="47.19859" lon="-1.54015">
        <ele>54</ele>
        <time>2021-03-06T13:04:50.000Z</time>
      </trkpt>
      <trkpt lat="47.19864" lon="-1.53999">
        <ele>54</ele>
        <time>2021-03-06T13:04:52.000Z</time>
      </trkpt>
      <trkpt lat="47.19869" lon="-1.53983">
        <ele>53</ele>
        <time>2021-03-06T13:04:54.000Z</time>
      </trkpt>
      <trkpt lat="47.19874" lon="-1.53966">
        <ele>53</ele>
        <time>2021-03-06T13:04:56.000Z</time>
      </trkpt>
      <trkpt lat="47.19879" lon="-1.5395">
        <ele>54</ele>
        <time>2021-03-06T13:04:58.000Z</time>
      </trkpt>
      <trkpt lat="47.19883" lon="-1.53933">
        <ele>53</ele>
        <time>2021-03-06T13:05:00.000Z</time>
      </trkpt>
      <trkpt lat="47.19887" lon="-1.53916">
        <ele>53</ele>
        <time>2021-03-06T13:05:02.000Z</time>
      </trkpt>
      <trkpt lat="47.19892" lon="-1.53899">
        <ele>53</ele>
        <time>2021-03-06T13:05:04.000Z</time>
      </trkpt>
      <trkpt lat="47.19896" lon="-1.53883">
        <ele>54</ele>
        <time>2021-03-06T13:05:06.000Z</time>
      </trkpt>
      <trkpt lat="47.199" lon="-1.53867">
        <ele>54</ele>
        <time>2021-03-06T13:05:08.000Z</time>
      </trkpt>
      <trkpt lat="47.19904" lon="-1.5385">
        <ele>54</ele>
        <time>2021-03-06T13:05:10.000Z</time>
      </trkpt>
      <trkpt lat="47.19907" lon="-1.53833">
        <ele>54</ele>
        <time>2021-03-06T13:05:12.000Z</time>
      </trkpt>
      <trkpt lat="47.19911" lon="-1.53816">
        <ele>54</ele>
        <time>2021-03-06T13:05:14.000Z</time>
      </trkpt>
      <trkpt lat="47.19914" lon="-1.53801">
        <ele>54</ele>
        <time>2021-03-06T13:05:16.000Z</time>
      </trkpt>
      <trkpt lat="47.19917" lon="-1.53785">
        <ele>54</ele>
        <time>2021-03-06T13:05:18.000Z</time>
      </trkpt>
      <trkpt lat="47.1992" lon="-1.53768">
        <ele>53</ele>
        <time>2021-03-06T13:05:20.000Z</time>
      </trkpt>
      <trkpt lat="47.19923" lon="-1.5375">
        <ele>52</ele>
        <time>2021-03-06T13:05:22.000Z</time>
      </trkpt>
      <trkpt lat="47.19927" lon="-1.53732">
        <ele>52</ele>
        <time>2021-03-06T13:05:24.000Z</time>
      </trkpt>
      <trkpt lat="47.19931" lon="-1.53716">
        <ele>53</ele>
        <time>2021-03-06T13:05:26.000Z</time>
      </trkpt>
      <trkpt lat="47.19935" lon="-1.537">
        <ele>53</ele>
        <time>2021-03-06T13:05:28.000Z</time>
      </trkpt>
      <trkpt lat="47.19939" lon="-1.53684">
        <ele>53</ele>
        <time>2021-03-06T13:05:30.000Z</time>
      </trkpt>
      <trkpt lat="47.19943" lon="-1.53667">
        <ele>53</ele>
        <time>2021-03-06T13:05:32.000Z</time>
      </trkpt>
      <trkpt lat="47.19947" lon="-1.53651">
        <ele>53</ele>
        <time>2021-03-06T13:05:34.000Z</time>
      </trkpt>
      <trkpt lat="47.19951" lon="-1.53635">
        <ele>53</ele>
        <time>2021-03-06T13:05:36.000Z</time>
      </trkpt>
      <trkpt lat="47.19955" lon="-1.53618">
        <ele>52</ele>
        <time>2021-03-06T13:05:38.000Z</time>
      </trkpt>
      <trkpt lat="47.19959" lon="-1.53602">
        <ele>52</ele>
        <time>2021-03-06T13:05:40.000Z</time>
      </trkpt>
      <trkpt lat="47.19963" lon="-1.53586">
        <ele>53</ele>
        <time>2021-03-06T13:05:42.000Z</time>
      </trkpt>
      <trkpt lat="47.19968" lon="-1.53571">
        <ele>52</ele>
        <time>2021-03-06T13:05:44.000Z</time>
      </trkpt>
      <trkpt lat="47.19973" lon="-1.53555">
        <ele>52</ele>
        <time>2021-03-06T13:05:46.000Z</time>
      </trkpt>
      <trkpt lat="47.19977" lon="-1.53539">
        <ele>52</ele>
        <time>2021-03-06T13:05:48.000Z</time>
      </trkpt>
      <trkpt lat="47.19981" lon="-1.53524">
        <ele>52</ele>
        <time>2021-03-06T13:05:50.000Z</time>
      </trkpt>
      <trkpt lat="47.19985" lon="-1.53509">
        <ele>52</ele>
        <time>2021-03-06T13:05:52.000Z</time>
      </trkpt>
      <trkpt lat="47.19986" lon="-1.53495">
        <ele>52</ele>
        <time>2021-03-06T13:05:54.000Z</time>
      </trkpt>
      <trkpt lat="47.19987" lon="-1.5348">
        <ele>53</ele>
        <time>2021-03-06T13:05:56.000Z</time>
      </trkpt>
      <trkpt lat="47.19995" lon="-1.53468">
        <ele>53</ele>
        <time>2021-03-06T13:05:58.000Z</time>
      </trkpt>
      <trkpt lat="47.20007" lon="-1.53466">
        <ele>53</ele>
        <time>2021-03-06T13:06:00.000Z</time>
      </trkpt>
      <trkpt lat="47.20018" lon="-1.53465">
        <ele>54</ele>
        <time>2021-03-06T13:06:02.000Z</time>
      </trkpt>
      <trkpt lat="47.20026" lon="-1.53453">
        <ele>54</ele>
        <time>2021-03-06T13:06:04.000Z</time>
      </trkpt>
      <trkpt lat="47.20032" lon="-1.53439">
        <ele>54</ele>
        <time>2021-03-06T13:06:06.000Z</time>
      </trkpt>
      <trkpt lat="47.20037" lon="-1.53423">
        <ele>55</ele>
        <time>2021-03-06T13:06:08.000Z</time>
      </trkpt>
      <trkpt lat="47.20043" lon="-1.53408">
        <ele>55</ele>
        <time>2021-03-06T13:06:10.000Z</time>
      </trkpt>
      <trkpt lat="47.20049" lon="-1.53393">
        <ele>55</ele>
        <time>2021-03-06T13:06:12.000Z</time>
      </trkpt>
      <trkpt lat="47.20055" lon="-1.53379">
        <ele>54</ele>
        <time>2021-03-06T13:06:14.000Z</time>
      </trkpt>
      <trkpt lat="47.2006" lon="-1.53367">
        <ele>54</ele>
        <time>2021-03-06T13:06:16.000Z</time>
      </trkpt>
      <trkpt lat="47.20065" lon="-1.53355">
        <ele>54</ele>
        <time>2021-03-06T13:06:20.000Z</time>
      </trkpt>
      <trkpt lat="47.20077" lon="-1.5335">
        <ele>54</ele>
        <time>2021-03-06T13:06:23.000Z</time>
      </trkpt>
      <trkpt lat="47.20082" lon="-1.53334">
        <ele>54</ele>
        <time>2021-03-06T13:06:25.000Z</time>
      </trkpt>
      <trkpt lat="47.20088" lon="-1.5332">
        <ele>55</ele>
        <time>2021-03-06T13:06:27.000Z</time>
      </trkpt>
      <trkpt lat="47.20094" lon="-1.53306">
        <ele>56</ele>
        <time>2021-03-06T13:06:29.000Z</time>
      </trkpt>
      <trkpt lat="47.20099" lon="-1.5329">
        <ele>56</ele>
        <time>2021-03-06T13:06:31.000Z</time>
      </trkpt>
      <trkpt lat="47.20104" lon="-1.53275">
        <ele>57</ele>
        <time>2021-03-06T13:06:33.000Z</time>
      </trkpt>
      <trkpt lat="47.20109" lon="-1.5326">
        <ele>57</ele>
        <time>2021-03-06T13:06:35.000Z</time>
      </trkpt>
      <trkpt lat="47.20113" lon="-1.53245">
        <ele>57</ele>
        <time>2021-03-06T13:06:37.000Z</time>
      </trkpt>
      <trkpt lat="47.20117" lon="-1.53229">
        <ele>57</ele>
        <time>2021-03-06T13:06:39.000Z</time>
      </trkpt>
      <trkpt lat="47.20121" lon="-1.53213">
        <ele>57</ele>
        <time>2021-03-06T13:06:41.000Z</time>
      </trkpt>
      <trkpt lat="47.20124" lon="-1.53196">
        <ele>56</ele>
        <time>2021-03-06T13:06:43.000Z</time>
      </trkpt>
      <trkpt lat="47.20128" lon="-1.5318">
        <ele>57</ele>
        <time>2021-03-06T13:06:45.000Z</time>
      </trkpt>
      <trkpt lat="47.20133" lon="-1.53164">
        <ele>57</ele>
        <time>2021-03-06T13:06:47.000Z</time>
      </trkpt>
      <trkpt lat="47.20138" lon="-1.53149">
        <ele>57</ele>
        <time>2021-03-06T13:06:49.000Z</time>
      </trkpt>
      <trkpt lat="47.20144" lon="-1.53134">
        <ele>56</ele>
        <time>2021-03-06T13:06:51.000Z</time>
      </trkpt>
      <trkpt lat="47.20151" lon="-1.53118">
        <ele>56</ele>
        <time>2021-03-06T13:06:53.000Z</time>
      </trkpt>
      <trkpt lat="47.20158" lon="-1.53103">
        <ele>56</ele>
        <time>2021-03-06T13:06:55.000Z</time>
      </trkpt>
      <trkpt lat="47.20165" lon="-1.53088">
        <ele>57</ele>
        <time>2021-03-06T13:06:57.000Z</time>
      </trkpt>
      <trkpt lat="47.20173" lon="-1.53074">
        <ele>57</ele>
        <time>2021-03-06T13:06:59.000Z</time>
      </trkpt>
      <trkpt lat="47.20181" lon="-1.53061">
        <ele>57</ele>
        <time>2021-03-06T13:07:01.000Z</time>
      </trkpt>
      <trkpt lat="47.20189" lon="-1.53048">
        <ele>57</ele>
        <time>2021-03-06T13:07:03.000Z</time>
      </trkpt>
      <trkpt lat="47.20199" lon="-1.53037">
        <ele>57</ele>
        <time>2021-03-06T13:07:05.000Z</time>
      </trkpt>
      <trkpt lat="47.20208" lon="-1.53027">
        <ele>57</ele>
        <time>2021-03-06T13:07:07.000Z</time>
      </trkpt>
      <trkpt lat="47.20218" lon="-1.53017">
        <ele>57</ele>
        <time>2021-03-06T13:07:09.000Z</time>
      </trkpt>
      <trkpt lat="47.20227" lon="-1.53005">
        <ele>57</ele>
        <time>2021-03-06T13:07:11.000Z</time>
      </trkpt>
      <trkpt lat="47.20235" lon="-1.52992">
        <ele>57</ele>
        <time>2021-03-06T13:07:13.000Z</time>
      </trkpt>
      <trkpt lat="47.20243" lon="-1.52978">
        <ele>57</ele>
        <time>2021-03-06T13:07:15.000Z</time>
      </trkpt>
      <trkpt lat="47.2025" lon="-1.52964">
        <ele>57</ele>
        <time>2021-03-06T13:07:17.000Z</time>
      </trkpt>
      <trkpt lat="47.20257" lon="-1.52951">
        <ele>58</ele>
        <time>2021-03-06T13:07:19.000Z</time>
      </trkpt>
      <trkpt lat="47.20265" lon="-1.52938">
        <ele>58</ele>
        <time>2021-03-06T13:07:21.000Z</time>
      </trkpt>
      <trkpt lat="47.20271" lon="-1.52924">
        <ele>57</ele>
        <time>2021-03-06T13:07:23.000Z</time>
      </trkpt>
      <trkpt lat="47.20278" lon="-1.5291">
        <ele>57</ele>
        <time>2021-03-06T13:07:25.000Z</time>
      </trkpt>
      <trkpt lat="47.20285" lon="-1.52895">
        <ele>57</ele>
        <time>2021-03-06T13:07:27.000Z</time>
      </trkpt>
      <trkpt lat="47.20291" lon="-1.52879">
        <ele>57</ele>
        <time>2021-03-06T13:07:29.000Z</time>
      </trkpt>
      <trkpt lat="47.20297" lon="-1.52862">
        <ele>57</ele>
        <time>2021-03-06T13:07:31.000Z</time>
      </trkpt>
      <trkpt lat="47.20304" lon="-1.52847">
        <ele>57</ele>
        <time>2021-03-06T13:07:33.000Z</time>
      </trkpt>
      <trkpt lat="47.2031" lon="-1.52832">
        <ele>57</ele>
        <time>2021-03-06T13:07:35.000Z</time>
      </trkpt>
      <trkpt lat="47.20317" lon="-1.52817">
        <ele>58</ele>
        <time>2021-03-06T13:07:37.000Z</time>
      </trkpt>
      <trkpt lat="47.20324" lon="-1.52803">
        <ele>58</ele>
        <time>2021-03-06T13:07:39.000Z</time>
      </trkpt>
      <trkpt lat="47.20331" lon="-1.52789">
        <ele>57</ele>
        <time>2021-03-06T13:07:41.000Z</time>
      </trkpt>
      <trkpt lat="47.20337" lon="-1.52775">
        <ele>57</ele>
        <time>2021-03-06T13:07:43.000Z</time>
      </trkpt>
      <trkpt lat="47.20344" lon="-1.52761">
        <ele>56</ele>
        <time>2021-03-06T13:07:45.000Z</time>
      </trkpt>
      <trkpt lat="47.20351" lon="-1.52747">
        <ele>56</ele>
        <time>2021-03-06T13:07:47.000Z</time>
      </trkpt>
      <trkpt lat="47.20358" lon="-1.52734">
        <ele>55</ele>
        <time>2021-03-06T13:07:49.000Z</time>
      </trkpt>
      <trkpt lat="47.20365" lon="-1.5272">
        <ele>55</ele>
        <time>2021-03-06T13:07:51.000Z</time>
      </trkpt>
      <trkpt lat="47.20373" lon="-1.52706">
        <ele>55</ele>
        <time>2021-03-06T13:07:53.000Z</time>
      </trkpt>
      <trkpt lat="47.20381" lon="-1.52693">
        <ele>55</ele>
        <time>2021-03-06T13:07:55.000Z</time>
      </trkpt>
      <trkpt lat="47.20388" lon="-1.52679">
        <ele>55</ele>
        <time>2021-03-06T13:07:57.000Z</time>
      </trkpt>
      <trkpt lat="47.20394" lon="-1.52664">
        <ele>55</ele>
        <time>2021-03-06T13:07:59.000Z</time>
      </trkpt>
      <trkpt lat="47.204" lon="-1.52649">
        <ele>55</ele>
        <time>2021-03-06T13:08:01.000Z</time>
      </trkpt>
      <trkpt lat="47.20407" lon="-1.52635">
        <ele>55</ele>
        <time>2021-03-06T13:08:03.000Z</time>
      </trkpt>
      <trkpt lat="47.20413" lon="-1.52619">
        <ele>55</ele>
        <time>2021-03-06T13:08:05.000Z</time>
      </trkpt>
      <trkpt lat="47.20418" lon="-1.52603">
        <ele>55</ele>
        <time>2021-03-06T13:08:07.000Z</time>
      </trkpt>
      <trkpt lat="47.20422" lon="-1.52586">
        <ele>55</ele>
        <time>2021-03-06T13:08:09.000Z</time>
      </trkpt>
      <trkpt lat="47.20427" lon="-1.5257">
        <ele>55</ele>
        <time>2021-03-06T13:08:11.000Z</time>
      </trkpt>
      <trkpt lat="47.20431" lon="-1.52554">
        <ele>55</ele>
        <time>2021-03-06T13:08:13.000Z</time>
      </trkpt>
      <trkpt lat="47.20436" lon="-1.52539">
        <ele>55</ele>
        <time>2021-03-06T13:08:15.000Z</time>
      </trkpt>
      <trkpt lat="47.20442" lon="-1.52524">
        <ele>55</ele>
        <time>2021-03-06T13:08:17.000Z</time>
      </trkpt>
      <trkpt lat="47.20448" lon="-1.5251">
        <ele>56</ele>
        <time>2021-03-06T13:08:19.000Z</time>
      </trkpt>
      <trkpt lat="47.20453" lon="-1.52495">
        <ele>55</ele>
        <time>2021-03-06T13:08:21.000Z</time>
      </trkpt>
      <trkpt lat="47.20459" lon="-1.5248">
        <ele>55</ele>
        <time>2021-03-06T13:08:23.000Z</time>
      </trkpt>
      <trkpt lat="47.20464" lon="-1.52465">
        <ele>55</ele>
        <time>2021-03-06T13:08:25.000Z</time>
      </trkpt>
      <trkpt lat="47.2047" lon="-1.5245">
        <ele>55</ele>
        <time>2021-03-06T13:08:27.000Z</time>
      </trkpt>
      <trkpt lat="47.20477" lon="-1.52436">
        <ele>55</ele>
        <time>2021-03-06T13:08:29.000Z</time>
      </trkpt>
      <trkpt lat="47.20483" lon="-1.52419">
        <ele>54</ele>
        <time>2021-03-06T13:08:31.000Z</time>
      </trkpt>
      <trkpt lat="47.2049" lon="-1.52402">
        <ele>53</ele>
        <time>2021-03-06T13:08:33.000Z</time>
      </trkpt>
      <trkpt lat="47.20496" lon="-1.52385">
        <ele>53</ele>
        <time>2021-03-06T13:08:35.000Z</time>
      </trkpt>
      <trkpt lat="47.20501" lon="-1.52369">
        <ele>53</ele>
        <time>2021-03-06T13:08:37.000Z</time>
      </trkpt>
      <trkpt lat="47.20506" lon="-1.52352">
        <ele>53</ele>
        <time>2021-03-06T13:08:39.000Z</time>
      </trkpt>
      <trkpt lat="47.20511" lon="-1.52335">
        <ele>53</ele>
        <time>2021-03-06T13:08:41.000Z</time>
      </trkpt>
      <trkpt lat="47.20516" lon="-1.52321">
        <ele>53</ele>
        <time>2021-03-06T13:08:43.000Z</time>
      </trkpt>
      <trkpt lat="47.2052" lon="-1.52307">
        <ele>53</ele>
        <time>2021-03-06T13:08:45.000Z</time>
      </trkpt>
      <trkpt lat="47.20522" lon="-1.52292">
        <ele>54</ele>
        <time>2021-03-06T13:08:47.000Z</time>
      </trkpt>
      <trkpt lat="47.20526" lon="-1.52276">
        <ele>54</ele>
        <time>2021-03-06T13:08:49.000Z</time>
      </trkpt>
      <trkpt lat="47.20532" lon="-1.5226">
        <ele>54</ele>
        <time>2021-03-06T13:08:51.000Z</time>
      </trkpt>
      <trkpt lat="47.20538" lon="-1.52246">
        <ele>54</ele>
        <time>2021-03-06T13:08:53.000Z</time>
      </trkpt>
      <trkpt lat="47.20544" lon="-1.52234">
        <ele>54</ele>
        <time>2021-03-06T13:08:55.000Z</time>
      </trkpt>
      <trkpt lat="47.20551" lon="-1.52221">
        <ele>54</ele>
        <time>2021-03-06T13:08:57.000Z</time>
      </trkpt>
      <trkpt lat="47.20558" lon="-1.52208">
        <ele>55</ele>
        <time>2021-03-06T13:08:59.000Z</time>
      </trkpt>
      <trkpt lat="47.20565" lon="-1.52195">
        <ele>55</ele>
        <time>2021-03-06T13:09:01.000Z</time>
      </trkpt>
      <trkpt lat="47.20571" lon="-1.52184">
        <ele>55</ele>
        <time>2021-03-06T13:09:03.000Z</time>
      </trkpt>
      <trkpt lat="47.20579" lon="-1.52172">
        <ele>56</ele>
        <time>2021-03-06T13:09:05.000Z</time>
      </trkpt>
      <trkpt lat="47.20586" lon="-1.52159">
        <ele>55</ele>
        <time>2021-03-06T13:09:07.000Z</time>
      </trkpt>
      <trkpt lat="47.20593" lon="-1.52146">
        <ele>55</ele>
        <time>2021-03-06T13:09:09.000Z</time>
      </trkpt>
      <trkpt lat="47.206" lon="-1.52132">
        <ele>55</ele>
        <time>2021-03-06T13:09:11.000Z</time>
      </trkpt>
      <trkpt lat="47.20606" lon="-1.5212">
        <ele>55</ele>
        <time>2021-03-06T13:09:13.000Z</time>
      </trkpt>
      <trkpt lat="47.20613" lon="-1.52107">
        <ele>55</ele>
        <time>2021-03-06T13:09:15.000Z</time>
      </trkpt>
      <trkpt lat="47.2062" lon="-1.52095">
        <ele>55</ele>
        <time>2021-03-06T13:09:17.000Z</time>
      </trkpt>
      <trkpt lat="47.20628" lon="-1.52082">
        <ele>55</ele>
        <time>2021-03-06T13:09:19.000Z</time>
      </trkpt>
      <trkpt lat="47.20635" lon="-1.5207">
        <ele>55</ele>
        <time>2021-03-06T13:09:21.000Z</time>
      </trkpt>
      <trkpt lat="47.20642" lon="-1.52058">
        <ele>55</ele>
        <time>2021-03-06T13:09:23.000Z</time>
      </trkpt>
      <trkpt lat="47.20651" lon="-1.52046">
        <ele>55</ele>
        <time>2021-03-06T13:09:25.000Z</time>
      </trkpt>
      <trkpt lat="47.20658" lon="-1.52034">
        <ele>55</ele>
        <time>2021-03-06T13:09:27.000Z</time>
      </trkpt>
      <trkpt lat="47.20666" lon="-1.5202">
        <ele>55</ele>
        <time>2021-03-06T13:09:29.000Z</time>
      </trkpt>
      <trkpt lat="47.20673" lon="-1.52007">
        <ele>55</ele>
        <time>2021-03-06T13:09:31.000Z</time>
      </trkpt>
      <trkpt lat="47.20681" lon="-1.51993">
        <ele>55</ele>
        <time>2021-03-06T13:09:33.000Z</time>
      </trkpt>
      <trkpt lat="47.20689" lon="-1.5198">
        <ele>55</ele>
        <time>2021-03-06T13:09:35.000Z</time>
      </trkpt>
      <trkpt lat="47.20696" lon="-1.51967">
        <ele>55</ele>
        <time>2021-03-06T13:09:37.000Z</time>
      </trkpt>
      <trkpt lat="47.20704" lon="-1.51954">
        <ele>55</ele>
        <time>2021-03-06T13:09:39.000Z</time>
      </trkpt>
      <trkpt lat="47.20711" lon="-1.51941">
        <ele>55</ele>
        <time>2021-03-06T13:09:41.000Z</time>
      </trkpt>
      <trkpt lat="47.20718" lon="-1.51928">
        <ele>55</ele>
        <time>2021-03-06T13:09:43.000Z</time>
      </trkpt>
      <trkpt lat="47.20724" lon="-1.51914">
        <ele>54</ele>
        <time>2021-03-06T13:09:45.000Z</time>
      </trkpt>
      <trkpt lat="47.2073" lon="-1.519">
        <ele>54</ele>
        <time>2021-03-06T13:09:47.000Z</time>
      </trkpt>
      <trkpt lat="47.20736" lon="-1.51886">
        <ele>53</ele>
        <time>2021-03-06T13:09:49.000Z</time>
      </trkpt>
      <trkpt lat="47.20742" lon="-1.51873">
        <ele>53</ele>
        <time>2021-03-06T13:09:51.000Z</time>
      </trkpt>
      <trkpt lat="47.20747" lon="-1.51858">
        <ele>54</ele>
        <time>2021-03-06T13:09:53.000Z</time>
      </trkpt>
      <trkpt lat="47.20754" lon="-1.51844">
        <ele>54</ele>
        <time>2021-03-06T13:09:55.000Z</time>
      </trkpt>
      <trkpt lat="47.20759" lon="-1.5183">
        <ele>54</ele>
        <time>2021-03-06T13:09:57.000Z</time>
      </trkpt>
      <trkpt lat="47.20764" lon="-1.51814">
        <ele>53</ele>
        <time>2021-03-06T13:09:59.000Z</time>
      </trkpt>
      <trkpt lat="47.20767" lon="-1.51798">
        <ele>53</ele>
        <time>2021-03-06T13:10:01.000Z</time>
      </trkpt>
      <trkpt lat="47.2077" lon="-1.5178">
        <ele>53</ele>
        <time>2021-03-06T13:10:03.000Z</time>
      </trkpt>
      <trkpt lat="47.20774" lon="-1.51763">
        <ele>53</ele>
        <time>2021-03-06T13:10:05.000Z</time>
      </trkpt>
      <trkpt lat="47.20778" lon="-1.51748">
        <ele>53</ele>
        <time>2021-03-06T13:10:07.000Z</time>
      </trkpt>
      <trkpt lat="47.20782" lon="-1.51733">
        <ele>53</ele>
        <time>2021-03-06T13:10:09.000Z</time>
      </trkpt>
      <trkpt lat="47.20786" lon="-1.51718">
        <ele>53</ele>
        <time>2021-03-06T13:10:11.000Z</time>
      </trkpt>
      <trkpt lat="47.20789" lon="-1.51703">
        <ele>53</ele>
        <time>2021-03-06T13:10:13.000Z</time>
      </trkpt>
      <trkpt lat="47.20791" lon="-1.51688">
        <ele>53</ele>
        <time>2021-03-06T13:10:15.000Z</time>
      </trkpt>
      <trkpt lat="47.20793" lon="-1.51673">
        <ele>54</ele>
        <time>2021-03-06T13:10:17.000Z</time>
      </trkpt>
      <trkpt lat="47.20796" lon="-1.51657">
        <ele>53</ele>
        <time>2021-03-06T13:10:19.000Z</time>
      </trkpt>
      <trkpt lat="47.20799" lon="-1.51641">
        <ele>53</ele>
        <time>2021-03-06T13:10:21.000Z</time>
      </trkpt>
      <trkpt lat="47.20802" lon="-1.51625">
        <ele>53</ele>
        <time>2021-03-06T13:10:23.000Z</time>
      </trkpt>
      <trkpt lat="47.20804" lon="-1.51609">
        <ele>53</ele>
        <time>2021-03-06T13:10:25.000Z</time>
      </trkpt>
      <trkpt lat="47.20805" lon="-1.51592">
        <ele>53</ele>
        <time>2021-03-06T13:10:27.000Z</time>
      </trkpt>
      <trkpt lat="47.20807" lon="-1.51576">
        <ele>53</ele>
        <time>2021-03-06T13:10:29.000Z</time>
      </trkpt>
      <trkpt lat="47.20808" lon="-1.5156">
        <ele>53</ele>
        <time>2021-03-06T13:10:31.000Z</time>
      </trkpt>
      <trkpt lat="47.2081" lon="-1.51544">
        <ele>53</ele>
        <time>2021-03-06T13:10:33.000Z</time>
      </trkpt>
      <trkpt lat="47.20813" lon="-1.51528">
        <ele>53</ele>
        <time>2021-03-06T13:10:35.000Z</time>
      </trkpt>
      <trkpt lat="47.20816" lon="-1.51512">
        <ele>53</ele>
        <time>2021-03-06T13:10:37.000Z</time>
      </trkpt>
      <trkpt lat="47.20819" lon="-1.51495">
        <ele>54</ele>
        <time>2021-03-06T13:10:39.000Z</time>
      </trkpt>
      <trkpt lat="47.20822" lon="-1.5148">
        <ele>54</ele>
        <time>2021-03-06T13:10:41.000Z</time>
      </trkpt>
      <trkpt lat="47.20825" lon="-1.51464">
        <ele>54</ele>
        <time>2021-03-06T13:10:43.000Z</time>
      </trkpt>
      <trkpt lat="47.20827" lon="-1.51448">
        <ele>54</ele>
        <time>2021-03-06T13:10:45.000Z</time>
      </trkpt>
      <trkpt lat="47.2083" lon="-1.51431">
        <ele>54</ele>
        <time>2021-03-06T13:10:47.000Z</time>
      </trkpt>
      <trkpt lat="47.20832" lon="-1.51415">
        <ele>54</ele>
        <time>2021-03-06T13:10:49.000Z</time>
      </trkpt>
      <trkpt lat="47.20835" lon="-1.51398">
        <ele>54</ele>
        <time>2021-03-06T13:10:51.000Z</time>
      </trkpt>
      <trkpt lat="47.20839" lon="-1.51382">
        <ele>54</ele>
        <time>2021-03-06T13:10:53.000Z</time>
      </trkpt>
      <trkpt lat="47.20844" lon="-1.51367">
        <ele>55</ele>
        <time>2021-03-06T13:10:55.000Z</time>
      </trkpt>
      <trkpt lat="47.20848" lon="-1.51351">
        <ele>55</ele>
        <time>2021-03-06T13:10:57.000Z</time>
      </trkpt>
      <trkpt lat="47.20852" lon="-1.51334">
        <ele>55</ele>
        <time>2021-03-06T13:10:59.000Z</time>
      </trkpt>
      <trkpt lat="47.20857" lon="-1.51319">
        <ele>55</ele>
        <time>2021-03-06T13:11:01.000Z</time>
      </trkpt>
      <trkpt lat="47.20863" lon="-1.51304">
        <ele>55</ele>
        <time>2021-03-06T13:11:03.000Z</time>
      </trkpt>
      <trkpt lat="47.2087" lon="-1.51289">
        <ele>55</ele>
        <time>2021-03-06T13:11:05.000Z</time>
      </trkpt>
      <trkpt lat="47.20877" lon="-1.51275">
        <ele>55</ele>
        <time>2021-03-06T13:11:07.000Z</time>
      </trkpt>
      <trkpt lat="47.20884" lon="-1.51261">
        <ele>55</ele>
        <time>2021-03-06T13:11:09.000Z</time>
      </trkpt>
      <trkpt lat="47.20889" lon="-1.51246">
        <ele>54</ele>
        <time>2021-03-06T13:11:11.000Z</time>
      </trkpt>
      <trkpt lat="47.20895" lon="-1.51231">
        <ele>55</ele>
        <time>2021-03-06T13:11:13.000Z</time>
      </trkpt>
      <trkpt lat="47.209" lon="-1.51215">
        <ele>54</ele>
        <time>2021-03-06T13:11:15.000Z</time>
      </trkpt>
      <trkpt lat="47.20906" lon="-1.51201">
        <ele>54</ele>
        <time>2021-03-06T13:11:17.000Z</time>
      </trkpt>
      <trkpt lat="47.20911" lon="-1.51187">
        <ele>55</ele>
        <time>2021-03-06T13:11:19.000Z</time>
      </trkpt>
      <trkpt lat="47.20916" lon="-1.51172">
        <ele>55</ele>
        <time>2021-03-06T13:11:21.000Z</time>
      </trkpt>
      <trkpt lat="47.20921" lon="-1.51157">
        <ele>55</ele>
        <time>2021-03-06T13:11:23.000Z</time>
      </trkpt>
      <trkpt lat="47.20926" lon="-1.51142">
        <ele>55</ele>
        <time>2021-03-06T13:11:25.000Z</time>
      </trkpt>
      <trkpt lat="47.20932" lon="-1.51126">
        <ele>55</ele>
        <time>2021-03-06T13:11:27.000Z</time>
      </trkpt>
      <trkpt lat="47.20936" lon="-1.51111">
        <ele>56</ele>
        <time>2021-03-06T13:11:29.000Z</time>
      </trkpt>
      <trkpt lat="47.20941" lon="-1.51095">
        <ele>56</ele>
        <time>2021-03-06T13:11:31.000Z</time>
      </trkpt>
      <trkpt lat="47.20945" lon="-1.5108">
        <ele>55</ele>
        <time>2021-03-06T13:11:33.000Z</time>
      </trkpt>
      <trkpt lat="47.20948" lon="-1.51065">
        <ele>54</ele>
        <time>2021-03-06T13:11:35.000Z</time>
      </trkpt>
      <trkpt lat="47.2095" lon="-1.51048">
        <ele>54</ele>
        <time>2021-03-06T13:11:37.000Z</time>
      </trkpt>
      <trkpt lat="47.20952" lon="-1.51032">
        <ele>54</ele>
        <time>2021-03-06T13:11:39.000Z</time>
      </trkpt>
      <trkpt lat="47.20956" lon="-1.51017">
        <ele>54</ele>
        <time>2021-03-06T13:11:41.000Z</time>
      </trkpt>
      <trkpt lat="47.20962" lon="-1.51003">
        <ele>54</ele>
        <time>2021-03-06T13:11:43.000Z</time>
      </trkpt>
      <trkpt lat="47.20966" lon="-1.50987">
        <ele>54</ele>
        <time>2021-03-06T13:11:45.000Z</time>
      </trkpt>
      <trkpt lat="47.20968" lon="-1.50971">
        <ele>54</ele>
        <time>2021-03-06T13:11:47.000Z</time>
      </trkpt>
      <trkpt lat="47.20969" lon="-1.50954">
        <ele>54</ele>
        <time>2021-03-06T13:11:49.000Z</time>
      </trkpt>
      <trkpt lat="47.20971" lon="-1.50937">
        <ele>54</ele>
        <time>2021-03-06T13:11:51.000Z</time>
      </trkpt>
      <trkpt lat="47.20973" lon="-1.5092">
        <ele>54</ele>
        <time>2021-03-06T13:11:53.000Z</time>
      </trkpt>
      <trkpt lat="47.20974" lon="-1.50903">
        <ele>54</ele>
        <time>2021-03-06T13:11:55.000Z</time>
      </trkpt>
      <trkpt lat="47.20976" lon="-1.50886">
        <ele>54</ele>
        <time>2021-03-06T13:11:57.000Z</time>
      </trkpt>
      <trkpt lat="47.20978" lon="-1.5087">
        <ele>54</ele>
        <time>2021-03-06T13:11:59.000Z</time>
      </trkpt>
      <trkpt lat="47.2098" lon="-1.50853">
        <ele>54</ele>
        <time>2021-03-06T13:12:01.000Z</time>
      </trkpt>
      <trkpt lat="47.20982" lon="-1.50836">
        <ele>54</ele>
        <time>2021-03-06T13:12:03.000Z</time>
      </trkpt>
      <trkpt lat="47.20984" lon="-1.5082">
        <ele>54</ele>
        <time>2021-03-06T13:12:05.000Z</time>
      </trkpt>
      <trkpt lat="47.20986" lon="-1.50804">
        <ele>54</ele>
        <time>2021-03-06T13:12:07.000Z</time>
      </trkpt>
      <trkpt lat="47.20988" lon="-1.50786">
        <ele>54</ele>
        <time>2021-03-06T13:12:09.000Z</time>
      </trkpt>
      <trkpt lat="47.2099" lon="-1.5077">
        <ele>54</ele>
        <time>2021-03-06T13:12:11.000Z</time>
      </trkpt>
      <trkpt lat="47.20991" lon="-1.50754">
        <ele>54</ele>
        <time>2021-03-06T13:12:13.000Z</time>
      </trkpt>
      <trkpt lat="47.20993" lon="-1.50737">
        <ele>54</ele>
        <time>2021-03-06T13:12:15.000Z</time>
      </trkpt>
      <trkpt lat="47.20995" lon="-1.5072">
        <ele>55</ele>
        <time>2021-03-06T13:12:17.000Z</time>
      </trkpt>
      <trkpt lat="47.20997" lon="-1.50704">
        <ele>55</ele>
        <time>2021-03-06T13:12:19.000Z</time>
      </trkpt>
      <trkpt lat="47.20998" lon="-1.50687">
        <ele>55</ele>
        <time>2021-03-06T13:12:21.000Z</time>
      </trkpt>
      <trkpt lat="47.21" lon="-1.50671">
        <ele>55</ele>
        <time>2021-03-06T13:12:23.000Z</time>
      </trkpt>
      <trkpt lat="47.21001" lon="-1.50654">
        <ele>55</ele>
        <time>2021-03-06T13:12:25.000Z</time>
      </trkpt>
      <trkpt lat="47.21002" lon="-1.50636">
        <ele>55</ele>
        <time>2021-03-06T13:12:27.000Z</time>
      </trkpt>
      <trkpt lat="47.21002" lon="-1.5062">
        <ele>54</ele>
        <time>2021-03-06T13:12:29.000Z</time>
      </trkpt>
      <trkpt lat="47.21002" lon="-1.50603">
        <ele>54</ele>
        <time>2021-03-06T13:12:31.000Z</time>
      </trkpt>
      <trkpt lat="47.21003" lon="-1.50586">
        <ele>54</ele>
        <time>2021-03-06T13:12:33.000Z</time>
      </trkpt>
      <trkpt lat="47.21003" lon="-1.50569">
        <ele>54</ele>
        <time>2021-03-06T13:12:35.000Z</time>
      </trkpt>
      <trkpt lat="47.21003" lon="-1.50552">
        <ele>54</ele>
        <time>2021-03-06T13:12:37.000Z</time>
      </trkpt>
      <trkpt lat="47.21002" lon="-1.50536">
        <ele>54</ele>
        <time>2021-03-06T13:12:39.000Z</time>
      </trkpt>
      <trkpt lat="47.21002" lon="-1.5052">
        <ele>54</ele>
        <time>2021-03-06T13:12:41.000Z</time>
      </trkpt>
      <trkpt lat="47.21002" lon="-1.50504">
        <ele>54</ele>
        <time>2021-03-06T13:12:43.000Z</time>
      </trkpt>
      <trkpt lat="47.21002" lon="-1.50487">
        <ele>54</ele>
        <time>2021-03-06T13:12:45.000Z</time>
      </trkpt>
      <trkpt lat="47.21001" lon="-1.50471">
        <ele>54</ele>
        <time>2021-03-06T13:12:47.000Z</time>
      </trkpt>
      <trkpt lat="47.21001" lon="-1.50454">
        <ele>54</ele>
        <time>2021-03-06T13:12:49.000Z</time>
      </trkpt>
      <trkpt lat="47.21001" lon="-1.50437">
        <ele>54</ele>
        <time>2021-03-06T13:12:51.000Z</time>
      </trkpt>
      <trkpt lat="47.21" lon="-1.50421">
        <ele>54</ele>
        <time>2021-03-06T13:12:53.000Z</time>
      </trkpt>
      <trkpt lat="47.21" lon="-1.50404">
        <ele>53</ele>
        <time>2021-03-06T13:12:55.000Z</time>
      </trkpt>
      <trkpt lat="47.20999" lon="-1.50387">
        <ele>53</ele>
        <time>2021-03-06T13:12:57.000Z</time>
      </trkpt>
      <trkpt lat="47.20999" lon="-1.5037">
        <ele>53</ele>
        <time>2021-03-06T13:12:59.000Z</time>
      </trkpt>
      <trkpt lat="47.21" lon="-1.50354">
        <ele>53</ele>
        <time>2021-03-06T13:13:01.000Z</time>
      </trkpt>
      <trkpt lat="47.21" lon="-1.50337">
        <ele>53</ele>
        <time>2021-03-06T13:13:03.000Z</time>
      </trkpt>
      <trkpt lat="47.21" lon="-1.50321">
        <ele>54</ele>
        <time>2021-03-06T13:13:05.000Z</time>
      </trkpt>
      <trkpt lat="47.21001" lon="-1.50305">
        <ele>53</ele>
        <time>2021-03-06T13:13:07.000Z</time>
      </trkpt>
      <trkpt lat="47.21002" lon="-1.50289">
        <ele>54</ele>
        <time>2021-03-06T13:13:09.000Z</time>
      </trkpt>
      <trkpt lat="47.21004" lon="-1.50274">
        <ele>53</ele>
        <time>2021-03-06T13:13:11.000Z</time>
      </trkpt>
      <trkpt lat="47.21007" lon="-1.50258">
        <ele>53</ele>
        <time>2021-03-06T13:13:13.000Z</time>
      </trkpt>
      <trkpt lat="47.21014" lon="-1.50246">
        <ele>53</ele>
        <time>2021-03-06T13:13:15.000Z</time>
      </trkpt>
      <trkpt lat="47.2102" lon="-1.50232">
        <ele>53</ele>
        <time>2021-03-06T13:13:17.000Z</time>
      </trkpt>
      <trkpt lat="47.21018" lon="-1.50215">
        <ele>53</ele>
        <time>2021-03-06T13:13:19.000Z</time>
      </trkpt>
      <trkpt lat="47.21014" lon="-1.50199">
        <ele>53</ele>
        <time>2021-03-06T13:13:21.000Z</time>
      </trkpt>
      <trkpt lat="47.21014" lon="-1.50183">
        <ele>54</ele>
        <time>2021-03-06T13:13:23.000Z</time>
      </trkpt>
      <trkpt lat="47.21019" lon="-1.50167">
        <ele>54</ele>
        <time>2021-03-06T13:13:25.000Z</time>
      </trkpt>
      <trkpt lat="47.21023" lon="-1.5015">
        <ele>54</ele>
        <time>2021-03-06T13:13:27.000Z</time>
      </trkpt>
      <trkpt lat="47.21026" lon="-1.50135">
        <ele>54</ele>
        <time>2021-03-06T13:13:29.000Z</time>
      </trkpt>
      <trkpt lat="47.2103" lon="-1.5012">
        <ele>54</ele>
        <time>2021-03-06T13:13:31.000Z</time>
      </trkpt>
      <trkpt lat="47.21034" lon="-1.50104">
        <ele>55</ele>
        <time>2021-03-06T13:13:33.000Z</time>
      </trkpt>
      <trkpt lat="47.21038" lon="-1.5009">
        <ele>54</ele>
        <time>2021-03-06T13:13:35.000Z</time>
      </trkpt>
      <trkpt lat="47.21042" lon="-1.50075">
        <ele>54</ele>
        <time>2021-03-06T13:13:37.000Z</time>
      </trkpt>
      <trkpt lat="47.21047" lon="-1.50059">
        <ele>54</ele>
        <time>2021-03-06T13:13:39.000Z</time>
      </trkpt>
      <trkpt lat="47.2105" lon="-1.50044">
        <ele>53</ele>
        <time>2021-03-06T13:13:41.000Z</time>
      </trkpt>
      <trkpt lat="47.21054" lon="-1.50028">
        <ele>53</ele>
        <time>2021-03-06T13:13:43.000Z</time>
      </trkpt>
      <trkpt lat="47.21058" lon="-1.50013">
        <ele>53</ele>
        <time>2021-03-06T13:13:45.000Z</time>
      </trkpt>
      <trkpt lat="47.21062" lon="-1.49997">
        <ele>53</ele>
        <time>2021-03-06T13:13:47.000Z</time>
      </trkpt>
      <trkpt lat="47.21066" lon="-1.49982">
        <ele>53</ele>
        <time>2021-03-06T13:13:49.000Z</time>
      </trkpt>
      <trkpt lat="47.2107" lon="-1.49967">
        <ele>53</ele>
        <time>2021-03-06T13:13:51.000Z</time>
      </trkpt>
      <trkpt lat="47.21074" lon="-1.49952">
        <ele>53</ele>
        <time>2021-03-06T13:13:53.000Z</time>
      </trkpt>
      <trkpt lat="47.21078" lon="-1.49936">
        <ele>53</ele>
        <time>2021-03-06T13:13:55.000Z</time>
      </trkpt>
      <trkpt lat="47.21082" lon="-1.49921">
        <ele>53</ele>
        <time>2021-03-06T13:13:57.000Z</time>
      </trkpt>
      <trkpt lat="47.21087" lon="-1.49907">
        <ele>53</ele>
        <time>2021-03-06T13:13:59.000Z</time>
      </trkpt>
      <trkpt lat="47.21091" lon="-1.49894">
        <ele>53</ele>
        <time>2021-03-06T13:14:01.000Z</time>
      </trkpt>
      <trkpt lat="47.21096" lon="-1.4988">
        <ele>53</ele>
        <time>2021-03-06T13:14:03.000Z</time>
      </trkpt>
      <trkpt lat="47.21099" lon="-1.49864">
        <ele>52</ele>
        <time>2021-03-06T13:14:05.000Z</time>
      </trkpt>
      <trkpt lat="47.21099" lon="-1.49848">
        <ele>53</ele>
        <time>2021-03-06T13:14:07.000Z</time>
      </trkpt>
      <trkpt lat="47.21102" lon="-1.49832">
        <ele>53</ele>
        <time>2021-03-06T13:14:09.000Z</time>
      </trkpt>
      <trkpt lat="47.21104" lon="-1.49816">
        <ele>53</ele>
        <time>2021-03-06T13:14:11.000Z</time>
      </trkpt>
      <trkpt lat="47.21107" lon="-1.49801">
        <ele>53</ele>
        <time>2021-03-06T13:14:13.000Z</time>
      </trkpt>
      <trkpt lat="47.21109" lon="-1.49785">
        <ele>53</ele>
        <time>2021-03-06T13:14:15.000Z</time>
      </trkpt>
      <trkpt lat="47.21111" lon="-1.49768">
        <ele>53</ele>
        <time>2021-03-06T13:14:17.000Z</time>
      </trkpt>
      <trkpt lat="47.21113" lon="-1.49753">
        <ele>53</ele>
        <time>2021-03-06T13:14:19.000Z</time>
      </trkpt>
      <trkpt lat="47.21115" lon="-1.49737">
        <ele>53</ele>
        <time>2021-03-06T13:14:21.000Z</time>
      </trkpt>
      <trkpt lat="47.21116" lon="-1.49721">
        <ele>53</ele>
        <time>2021-03-06T13:14:23.000Z</time>
      </trkpt>
      <trkpt lat="47.21117" lon="-1.49705">
        <ele>53</ele>
        <time>2021-03-06T13:14:25.000Z</time>
      </trkpt>
      <trkpt lat="47.21117" lon="-1.49689">
        <ele>53</ele>
        <time>2021-03-06T13:14:27.000Z</time>
      </trkpt>
      <trkpt lat="47.21119" lon="-1.49673">
        <ele>53</ele>
        <time>2021-03-06T13:14:29.000Z</time>
      </trkpt>
      <trkpt lat="47.2112" lon="-1.49655">
        <ele>53</ele>
        <time>2021-03-06T13:14:31.000Z</time>
      </trkpt>
      <trkpt lat="47.21121" lon="-1.49639">
        <ele>53</ele>
        <time>2021-03-06T13:14:33.000Z</time>
      </trkpt>
      <trkpt lat="47.21122" lon="-1.49622">
        <ele>53</ele>
        <time>2021-03-06T13:14:35.000Z</time>
      </trkpt>
      <trkpt lat="47.21125" lon="-1.49607">
        <ele>53</ele>
        <time>2021-03-06T13:14:37.000Z</time>
      </trkpt>
      <trkpt lat="47.21132" lon="-1.49595">
        <ele>53</ele>
        <time>2021-03-06T13:14:39.000Z</time>
      </trkpt>
      <trkpt lat="47.21137" lon="-1.49578">
        <ele>52</ele>
        <time>2021-03-06T13:14:41.000Z</time>
      </trkpt>
      <trkpt lat="47.21135" lon="-1.49563">
        <ele>51</ele>
        <time>2021-03-06T13:14:43.000Z</time>
      </trkpt>
      <trkpt lat="47.2113" lon="-1.49549">
        <ele>52</ele>
        <time>2021-03-06T13:14:45.000Z</time>
      </trkpt>
      <trkpt lat="47.21127" lon="-1.49532">
        <ele>52</ele>
        <time>2021-03-06T13:14:47.000Z</time>
      </trkpt>
      <trkpt lat="47.21127" lon="-1.49515">
        <ele>52</ele>
        <time>2021-03-06T13:14:49.000Z</time>
      </trkpt>
      <trkpt lat="47.21126" lon="-1.49497">
        <ele>52</ele>
        <time>2021-03-06T13:14:51.000Z</time>
      </trkpt>
      <trkpt lat="47.21127" lon="-1.4948">
        <ele>52</ele>
        <time>2021-03-06T13:14:53.000Z</time>
      </trkpt>
      <trkpt lat="47.21128" lon="-1.49462">
        <ele>52</ele>
        <time>2021-03-06T13:14:55.000Z</time>
      </trkpt>
      <trkpt lat="47.21128" lon="-1.49444">
        <ele>52</ele>
        <time>2021-03-06T13:14:57.000Z</time>
      </trkpt>
      <trkpt lat="47.21128" lon="-1.49427">
        <ele>52</ele>
        <time>2021-03-06T13:14:59.000Z</time>
      </trkpt>
      <trkpt lat="47.21129" lon="-1.49408">
        <ele>53</ele>
        <time>2021-03-06T13:15:01.000Z</time>
      </trkpt>
      <trkpt lat="47.21129" lon="-1.49391">
        <ele>53</ele>
        <time>2021-03-06T13:15:03.000Z</time>
      </trkpt>
      <trkpt lat="47.2113" lon="-1.49373">
        <ele>53</ele>
        <time>2021-03-06T13:15:05.000Z</time>
      </trkpt>
      <trkpt lat="47.21131" lon="-1.49355">
        <ele>53</ele>
        <time>2021-03-06T13:15:07.000Z</time>
      </trkpt>
      <trkpt lat="47.21132" lon="-1.49336">
        <ele>54</ele>
        <time>2021-03-06T13:15:09.000Z</time>
      </trkpt>
      <trkpt lat="47.21133" lon="-1.49319">
        <ele>54</ele>
        <time>2021-03-06T13:15:11.000Z</time>
      </trkpt>
      <trkpt lat="47.21133" lon="-1.493">
        <ele>54</ele>
        <time>2021-03-06T13:15:13.000Z</time>
      </trkpt>
      <trkpt lat="47.21134" lon="-1.49283">
        <ele>54</ele>
        <time>2021-03-06T13:15:15.000Z</time>
      </trkpt>
      <trkpt lat="47.21135" lon="-1.49266">
        <ele>54</ele>
        <time>2021-03-06T13:15:17.000Z</time>
      </trkpt>
      <trkpt lat="47.21136" lon="-1.49247">
        <ele>54</ele>
        <time>2021-03-06T13:15:19.000Z</time>
      </trkpt>
      <trkpt lat="47.21137" lon="-1.49229">
        <ele>54</ele>
        <time>2021-03-06T13:15:21.000Z</time>
      </trkpt>
      <trkpt lat="47.21139" lon="-1.49211">
        <ele>55</ele>
        <time>2021-03-06T13:15:23.000Z</time>
      </trkpt>
      <trkpt lat="47.2114" lon="-1.49194">
        <ele>55</ele>
        <time>2021-03-06T13:15:25.000Z</time>
      </trkpt>
      <trkpt lat="47.21142" lon="-1.49176">
        <ele>55</ele>
        <time>2021-03-06T13:15:27.000Z</time>
      </trkpt>
      <trkpt lat="47.21144" lon="-1.49159">
        <ele>54</ele>
        <time>2021-03-06T13:15:29.000Z</time>
      </trkpt>
      <trkpt lat="47.21147" lon="-1.49142">
        <ele>54</ele>
        <time>2021-03-06T13:15:31.000Z</time>
      </trkpt>
      <trkpt lat="47.2115" lon="-1.49125">
        <ele>54</ele>
        <time>2021-03-06T13:15:33.000Z</time>
      </trkpt>
      <trkpt lat="47.21153" lon="-1.49108">
        <ele>54</ele>
        <time>2021-03-06T13:15:35.000Z</time>
      </trkpt>
      <trkpt lat="47.21159" lon="-1.49094">
        <ele>54</ele>
        <time>2021-03-06T13:15:37.000Z</time>
      </trkpt>
      <trkpt lat="47.21163" lon="-1.49077">
        <ele>53</ele>
        <time>2021-03-06T13:15:39.000Z</time>
      </trkpt>
      <trkpt lat="47.21158" lon="-1.49062">
        <ele>53</ele>
        <time>2021-03-06T13:15:41.000Z</time>
      </trkpt>
      <trkpt lat="47.21153" lon="-1.49046">
        <ele>54</ele>
        <time>2021-03-06T13:15:43.000Z</time>
      </trkpt>
      <trkpt lat="47.21155" lon="-1.49029">
        <ele>54</ele>
        <time>2021-03-06T13:15:45.000Z</time>
      </trkpt>
      <trkpt lat="47.21158" lon="-1.49011">
        <ele>54</ele>
        <time>2021-03-06T13:15:47.000Z</time>
      </trkpt>
      <trkpt lat="47.21161" lon="-1.48992">
        <ele>55</ele>
        <time>2021-03-06T13:15:49.000Z</time>
      </trkpt>
      <trkpt lat="47.21164" lon="-1.48974">
        <ele>55</ele>
        <time>2021-03-06T13:15:51.000Z</time>
      </trkpt>
      <trkpt lat="47.21167" lon="-1.48956">
        <ele>55</ele>
        <time>2021-03-06T13:15:53.000Z</time>
      </trkpt>
      <trkpt lat="47.2117" lon="-1.48939">
        <ele>54</ele>
        <time>2021-03-06T13:15:55.000Z</time>
      </trkpt>
      <trkpt lat="47.21173" lon="-1.48921">
        <ele>55</ele>
        <time>2021-03-06T13:15:57.000Z</time>
      </trkpt>
      <trkpt lat="47.21178" lon="-1.48904">
        <ele>55</ele>
        <time>2021-03-06T13:15:59.000Z</time>
      </trkpt>
      <trkpt lat="47.21182" lon="-1.48886">
        <ele>55</ele>
        <time>2021-03-06T13:16:01.000Z</time>
      </trkpt>
      <trkpt lat="47.21185" lon="-1.48869">
        <ele>55</ele>
        <time>2021-03-06T13:16:03.000Z</time>
      </trkpt>
      <trkpt lat="47.21188" lon="-1.48852">
        <ele>55</ele>
        <time>2021-03-06T13:16:05.000Z</time>
      </trkpt>
      <trkpt lat="47.2119" lon="-1.48832">
        <ele>55</ele>
        <time>2021-03-06T13:16:07.000Z</time>
      </trkpt>
      <trkpt lat="47.21194" lon="-1.48813">
        <ele>55</ele>
        <time>2021-03-06T13:16:09.000Z</time>
      </trkpt>
      <trkpt lat="47.21198" lon="-1.48795">
        <ele>55</ele>
        <time>2021-03-06T13:16:11.000Z</time>
      </trkpt>
      <trkpt lat="47.21201" lon="-1.48777">
        <ele>56</ele>
        <time>2021-03-06T13:16:13.000Z</time>
      </trkpt>
      <trkpt lat="47.21206" lon="-1.48759">
        <ele>55</ele>
        <time>2021-03-06T13:16:15.000Z</time>
      </trkpt>
      <trkpt lat="47.2121" lon="-1.48742">
        <ele>56</ele>
        <time>2021-03-06T13:16:17.000Z</time>
      </trkpt>
      <trkpt lat="47.21214" lon="-1.48725">
        <ele>55</ele>
        <time>2021-03-06T13:16:19.000Z</time>
      </trkpt>
      <trkpt lat="47.21218" lon="-1.48708">
        <ele>55</ele>
        <time>2021-03-06T13:16:21.000Z</time>
      </trkpt>
      <trkpt lat="47.21222" lon="-1.4869">
        <ele>55</ele>
        <time>2021-03-06T13:16:23.000Z</time>
      </trkpt>
      <trkpt lat="47.21227" lon="-1.48673">
        <ele>55</ele>
        <time>2021-03-06T13:16:25.000Z</time>
      </trkpt>
      <trkpt lat="47.21231" lon="-1.48658">
        <ele>54</ele>
        <time>2021-03-06T13:16:27.000Z</time>
      </trkpt>
      <trkpt lat="47.21236" lon="-1.48642">
        <ele>55</ele>
        <time>2021-03-06T13:16:29.000Z</time>
      </trkpt>
      <trkpt lat="47.2124" lon="-1.48627">
        <ele>55</ele>
        <time>2021-03-06T13:16:31.000Z</time>
      </trkpt>
      <trkpt lat="47.21247" lon="-1.48603">
        <ele>55</ele>
        <time>2021-03-06T13:16:34.000Z</time>
      </trkpt>
      <trkpt lat="47.21253" lon="-1.48578">
        <ele>55</ele>
        <time>2021-03-06T13:16:37.000Z</time>
      </trkpt>
      <trkpt lat="47.2126" lon="-1.48554">
        <ele>55</ele>
        <time>2021-03-06T13:16:40.000Z</time>
      </trkpt>
      <trkpt lat="47.21265" lon="-1.4854">
        <ele>55</ele>
        <time>2021-03-06T13:16:42.000Z</time>
      </trkpt>
      <trkpt lat="47.21271" lon="-1.48526">
        <ele>54</ele>
        <time>2021-03-06T13:16:44.000Z</time>
      </trkpt>
      <trkpt lat="47.21281" lon="-1.48516">
        <ele>54</ele>
        <time>2021-03-06T13:16:46.000Z</time>
      </trkpt>
      <trkpt lat="47.21296" lon="-1.48504">
        <ele>55</ele>
        <time>2021-03-06T13:16:49.000Z</time>
      </trkpt>
      <trkpt lat="47.21299" lon="-1.48487">
        <ele>55</ele>
        <time>2021-03-06T13:16:51.000Z</time>
      </trkpt>
      <trkpt lat="47.21301" lon="-1.48469">
        <ele>55</ele>
        <time>2021-03-06T13:16:53.000Z</time>
      </trkpt>
      <trkpt lat="47.21304" lon="-1.48452">
        <ele>55</ele>
        <time>2021-03-06T13:16:55.000Z</time>
      </trkpt>
      <trkpt lat="47.21307" lon="-1.48435">
        <ele>54</ele>
        <time>2021-03-06T13:16:57.000Z</time>
      </trkpt>
      <trkpt lat="47.21314" lon="-1.48409">
        <ele>54</ele>
        <time>2021-03-06T13:17:00.000Z</time>
      </trkpt>
      <trkpt lat="47.21319" lon="-1.48393">
        <ele>53</ele>
        <time>2021-03-06T13:17:02.000Z</time>
      </trkpt>
      <trkpt lat="47.21325" lon="-1.48376">
        <ele>54</ele>
        <time>2021-03-06T13:17:04.000Z</time>
      </trkpt>
      <trkpt lat="47.21333" lon="-1.48352">
        <ele>53</ele>
        <time>2021-03-06T13:17:07.000Z</time>
      </trkpt>
      <trkpt lat="47.21341" lon="-1.48328">
        <ele>54</ele>
        <time>2021-03-06T13:17:10.000Z</time>
      </trkpt>
      <trkpt lat="47.21346" lon="-1.48312">
        <ele>54</ele>
        <time>2021-03-06T13:17:12.000Z</time>
      </trkpt>
      <trkpt lat="47.21351" lon="-1.48295">
        <ele>54</ele>
        <time>2021-03-06T13:17:14.000Z</time>
      </trkpt>
      <trkpt lat="47.21357" lon="-1.48279">
        <ele>54</ele>
        <time>2021-03-06T13:17:16.000Z</time>
      </trkpt>
      <trkpt lat="47.21362" lon="-1.48262">
        <ele>53</ele>
        <time>2021-03-06T13:17:18.000Z</time>
      </trkpt>
      <trkpt lat="47.21368" lon="-1.48245">
        <ele>53</ele>
        <time>2021-03-06T13:17:20.000Z</time>
      </trkpt>
      <trkpt lat="47.21374" lon="-1.48229">
        <ele>53</ele>
        <time>2021-03-06T13:17:22.000Z</time>
      </trkpt>
      <trkpt lat="47.21383" lon="-1.48205">
        <ele>53</ele>
        <time>2021-03-06T13:17:25.000Z</time>
      </trkpt>
      <trkpt lat="47.2139" lon="-1.4819">
        <ele>53</ele>
        <time>2021-03-06T13:17:27.000Z</time>
      </trkpt>
      <trkpt lat="47.21397" lon="-1.48175">
        <ele>53</ele>
        <time>2021-03-06T13:17:29.000Z</time>
      </trkpt>
      <trkpt lat="47.21405" lon="-1.48161">
        <ele>53</ele>
        <time>2021-03-06T13:17:31.000Z</time>
      </trkpt>
      <trkpt lat="47.21411" lon="-1.48148">
        <ele>53</ele>
        <time>2021-03-06T13:17:33.000Z</time>
      </trkpt>
      <trkpt lat="47.21418" lon="-1.48134">
        <ele>53</ele>
        <time>2021-03-06T13:17:35.000Z</time>
      </trkpt>
      <trkpt lat="47.21426" lon="-1.4812">
        <ele>54</ele>
        <time>2021-03-06T13:17:37.000Z</time>
      </trkpt>
      <trkpt lat="47.21438" lon="-1.48099">
        <ele>54</ele>
        <time>2021-03-06T13:17:40.000Z</time>
      </trkpt>
      <trkpt lat="47.21449" lon="-1.4808">
        <ele>54</ele>
        <time>2021-03-06T13:17:43.000Z</time>
      </trkpt>
      <trkpt lat="47.21457" lon="-1.48067">
        <ele>54</ele>
        <time>2021-03-06T13:17:45.000Z</time>
      </trkpt>
      <trkpt lat="47.21465" lon="-1.48055">
        <ele>55</ele>
        <time>2021-03-06T13:17:47.000Z</time>
      </trkpt>
      <trkpt lat="47.21474" lon="-1.48043">
        <ele>55</ele>
        <time>2021-03-06T13:17:49.000Z</time>
      </trkpt>
      <trkpt lat="47.21484" lon="-1.48032">
        <ele>55</ele>
        <time>2021-03-06T13:17:51.000Z</time>
      </trkpt>
      <trkpt lat="47.21493" lon="-1.48021">
        <ele>55</ele>
        <time>2021-03-06T13:17:53.000Z</time>
      </trkpt>
      <trkpt lat="47.21502" lon="-1.48011">
        <ele>55</ele>
        <time>2021-03-06T13:17:55.000Z</time>
      </trkpt>
      <trkpt lat="47.21511" lon="-1.48001">
        <ele>55</ele>
        <time>2021-03-06T13:17:57.000Z</time>
      </trkpt>
      <trkpt lat="47.21519" lon="-1.47991">
        <ele>55</ele>
        <time>2021-03-06T13:17:59.000Z</time>
      </trkpt>
      <trkpt lat="47.21528" lon="-1.47982">
        <ele>55</ele>
        <time>2021-03-06T13:18:01.000Z</time>
      </trkpt>
      <trkpt lat="47.21537" lon="-1.47972">
        <ele>55</ele>
        <time>2021-03-06T13:18:03.000Z</time>
      </trkpt>
      <trkpt lat="47.21546" lon="-1.47962">
        <ele>56</ele>
        <time>2021-03-06T13:18:05.000Z</time>
      </trkpt>
      <trkpt lat="47.21556" lon="-1.47952">
        <ele>56</ele>
        <time>2021-03-06T13:18:07.000Z</time>
      </trkpt>
      <trkpt lat="47.21566" lon="-1.47943">
        <ele>56</ele>
        <time>2021-03-06T13:18:09.000Z</time>
      </trkpt>
      <trkpt lat="47.21576" lon="-1.47933">
        <ele>56</ele>
        <time>2021-03-06T13:18:11.000Z</time>
      </trkpt>
      <trkpt lat="47.21586" lon="-1.47925">
        <ele>56</ele>
        <time>2021-03-06T13:18:13.000Z</time>
      </trkpt>
      <trkpt lat="47.21595" lon="-1.47916">
        <ele>56</ele>
        <time>2021-03-06T13:18:15.000Z</time>
      </trkpt>
      <trkpt lat="47.21604" lon="-1.47908">
        <ele>56</ele>
        <time>2021-03-06T13:18:17.000Z</time>
      </trkpt>
      <trkpt lat="47.21612" lon="-1.479">
        <ele>56</ele>
        <time>2021-03-06T13:18:19.000Z</time>
      </trkpt>
      <trkpt lat="47.21621" lon="-1.47891">
        <ele>56</ele>
        <time>2021-03-06T13:18:21.000Z</time>
      </trkpt>
      <trkpt lat="47.2163" lon="-1.47883">
        <ele>56</ele>
        <time>2021-03-06T13:18:23.000Z</time>
      </trkpt>
      <trkpt lat="47.21639" lon="-1.47875">
        <ele>56</ele>
        <time>2021-03-06T13:18:25.000Z</time>
      </trkpt>
      <trkpt lat="47.21649" lon="-1.47867">
        <ele>56</ele>
        <time>2021-03-06T13:18:27.000Z</time>
      </trkpt>
      <trkpt lat="47.21658" lon="-1.47859">
        <ele>56</ele>
        <time>2021-03-06T13:18:29.000Z</time>
      </trkpt>
      <trkpt lat="47.21668" lon="-1.4785">
        <ele>56</ele>
        <time>2021-03-06T13:18:31.000Z</time>
      </trkpt>
      <trkpt lat="47.21677" lon="-1.47842">
        <ele>55</ele>
        <time>2021-03-06T13:18:33.000Z</time>
      </trkpt>
      <trkpt lat="47.21685" lon="-1.47833">
        <ele>55</ele>
        <time>2021-03-06T13:18:35.000Z</time>
      </trkpt>
      <trkpt lat="47.21694" lon="-1.47824">
        <ele>55</ele>
        <time>2021-03-06T13:18:37.000Z</time>
      </trkpt>
      <trkpt lat="47.21704" lon="-1.47815">
        <ele>55</ele>
        <time>2021-03-06T13:18:39.000Z</time>
      </trkpt>
      <trkpt lat="47.21713" lon="-1.47807">
        <ele>56</ele>
        <time>2021-03-06T13:18:41.000Z</time>
      </trkpt>
      <trkpt lat="47.21722" lon="-1.47798">
        <ele>56</ele>
        <time>2021-03-06T13:18:43.000Z</time>
      </trkpt>
      <trkpt lat="47.21731" lon="-1.4779">
        <ele>56</ele>
        <time>2021-03-06T13:18:45.000Z</time>
      </trkpt>
      <trkpt lat="47.2174" lon="-1.47781">
        <ele>57</ele>
        <time>2021-03-06T13:18:47.000Z</time>
      </trkpt>
      <trkpt lat="47.21749" lon="-1.47773">
        <ele>57</ele>
        <time>2021-03-06T13:18:49.000Z</time>
      </trkpt>
      <trkpt lat="47.21758" lon="-1.47765">
        <ele>57</ele>
        <time>2021-03-06T13:18:51.000Z</time>
      </trkpt>
      <trkpt lat="47.21767" lon="-1.47756">
        <ele>56</ele>
        <time>2021-03-06T13:18:53.000Z</time>
      </trkpt>
      <trkpt lat="47.21777" lon="-1.47748">
        <ele>57</ele>
        <time>2021-03-06T13:18:55.000Z</time>
      </trkpt>
      <trkpt lat="47.21787" lon="-1.4774">
        <ele>57</ele>
        <time>2021-03-06T13:18:57.000Z</time>
      </trkpt>
      <trkpt lat="47.21797" lon="-1.47733">
        <ele>57</ele>
        <time>2021-03-06T13:18:59.000Z</time>
      </trkpt>
      <trkpt lat="47.21808" lon="-1.47725">
        <ele>57</ele>
        <time>2021-03-06T13:19:01.000Z</time>
      </trkpt>
      <trkpt lat="47.21818" lon="-1.47717">
        <ele>57</ele>
        <time>2021-03-06T13:19:03.000Z</time>
      </trkpt>
      <trkpt lat="47.21833" lon="-1.47704">
        <ele>56</ele>
        <time>2021-03-06T13:19:06.000Z</time>
      </trkpt>
      <trkpt lat="47.21843" lon="-1.47696">
        <ele>56</ele>
        <time>2021-03-06T13:19:08.000Z</time>
      </trkpt>
      <trkpt lat="47.21853" lon="-1.47687">
        <ele>55</ele>
        <time>2021-03-06T13:19:10.000Z</time>
      </trkpt>
      <trkpt lat="47.21863" lon="-1.47678">
        <ele>55</ele>
        <time>2021-03-06T13:19:12.000Z</time>
      </trkpt>
      <trkpt lat="47.21874" lon="-1.47669">
        <ele>54</ele>
        <time>2021-03-06T13:19:14.000Z</time>
      </trkpt>
      <trkpt lat="47.21884" lon="-1.4766">
        <ele>54</ele>
        <time>2021-03-06T13:19:16.000Z</time>
      </trkpt>
      <trkpt lat="47.21894" lon="-1.4765">
        <ele>54</ele>
        <time>2021-03-06T13:19:18.000Z</time>
      </trkpt>
      <trkpt lat="47.21904" lon="-1.47641">
        <ele>54</ele>
        <time>2021-03-06T13:19:20.000Z</time>
      </trkpt>
      <trkpt lat="47.21913" lon="-1.47633">
        <ele>54</ele>
        <time>2021-03-06T13:19:22.000Z</time>
      </trkpt>
      <trkpt lat="47.21923" lon="-1.47625">
        <ele>53</ele>
        <time>2021-03-06T13:19:24.000Z</time>
      </trkpt>
      <trkpt lat="47.21933" lon="-1.47615">
        <ele>54</ele>
        <time>2021-03-06T13:19:26.000Z</time>
      </trkpt>
      <trkpt lat="47.21943" lon="-1.47605">
        <ele>53</ele>
        <time>2021-03-06T13:19:28.000Z</time>
      </trkpt>
      <trkpt lat="47.21953" lon="-1.47595">
        <ele>53</ele>
        <time>2021-03-06T13:19:30.000Z</time>
      </trkpt>
      <trkpt lat="47.21964" lon="-1.47586">
        <ele>53</ele>
        <time>2021-03-06T13:19:32.000Z</time>
      </trkpt>
      <trkpt lat="47.21974" lon="-1.47576">
        <ele>53</ele>
        <time>2021-03-06T13:19:34.000Z</time>
      </trkpt>
      <trkpt lat="47.21984" lon="-1.47567">
        <ele>54</ele>
        <time>2021-03-06T13:19:36.000Z</time>
      </trkpt>
      <trkpt lat="47.21993" lon="-1.47558">
        <ele>54</ele>
        <time>2021-03-06T13:19:38.000Z</time>
      </trkpt>
      <trkpt lat="47.22003" lon="-1.4755">
        <ele>54</ele>
        <time>2021-03-06T13:19:40.000Z</time>
      </trkpt>
      <trkpt lat="47.22012" lon="-1.47541">
        <ele>54</ele>
        <time>2021-03-06T13:19:42.000Z</time>
      </trkpt>
      <trkpt lat="47.22021" lon="-1.47533">
        <ele>54</ele>
        <time>2021-03-06T13:19:44.000Z</time>
      </trkpt>
      <trkpt lat="47.2203" lon="-1.47524">
        <ele>54</ele>
        <time>2021-03-06T13:19:46.000Z</time>
      </trkpt>
      <trkpt lat="47.22039" lon="-1.47515">
        <ele>54</ele>
        <time>2021-03-06T13:19:48.000Z</time>
      </trkpt>
      <trkpt lat="47.22049" lon="-1.47506">
        <ele>54</ele>
        <time>2021-03-06T13:19:50.000Z</time>
      </trkpt>
      <trkpt lat="47.22058" lon="-1.47497">
        <ele>54</ele>
        <time>2021-03-06T13:19:52.000Z</time>
      </trkpt>
      <trkpt lat="47.22068" lon="-1.4749">
        <ele>54</ele>
        <time>2021-03-06T13:19:54.000Z</time>
      </trkpt>
      <trkpt lat="47.22078" lon="-1.47481">
        <ele>54</ele>
        <time>2021-03-06T13:19:56.000Z</time>
      </trkpt>
      <trkpt lat="47.22087" lon="-1.47472">
        <ele>54</ele>
        <time>2021-03-06T13:19:58.000Z</time>
      </trkpt>
      <trkpt lat="47.22097" lon="-1.47464">
        <ele>54</ele>
        <time>2021-03-06T13:20:00.000Z</time>
      </trkpt>
      <trkpt lat="47.22106" lon="-1.47456">
        <ele>54</ele>
        <time>2021-03-06T13:20:02.000Z</time>
      </trkpt>
      <trkpt lat="47.22116" lon="-1.47448">
        <ele>54</ele>
        <time>2021-03-06T13:20:04.000Z</time>
      </trkpt>
      <trkpt lat="47.22125" lon="-1.4744">
        <ele>54</ele>
        <time>2021-03-06T13:20:06.000Z</time>
      </trkpt>
      <trkpt lat="47.22135" lon="-1.47432">
        <ele>54</ele>
        <time>2021-03-06T13:20:08.000Z</time>
      </trkpt>
      <trkpt lat="47.22144" lon="-1.47424">
        <ele>54</ele>
        <time>2021-03-06T13:20:10.000Z</time>
      </trkpt>
      <trkpt lat="47.22154" lon="-1.47416">
        <ele>54</ele>
        <time>2021-03-06T13:20:12.000Z</time>
      </trkpt>
      <trkpt lat="47.22164" lon="-1.47408">
        <ele>54</ele>
        <time>2021-03-06T13:20:14.000Z</time>
      </trkpt>
      <trkpt lat="47.22174" lon="-1.47399">
        <ele>54</ele>
        <time>2021-03-06T13:20:16.000Z</time>
      </trkpt>
      <trkpt lat="47.22185" lon="-1.47391">
        <ele>54</ele>
        <time>2021-03-06T13:20:18.000Z</time>
      </trkpt>
      <trkpt lat="47.22194" lon="-1.47383">
        <ele>54</ele>
        <time>2021-03-06T13:20:20.000Z</time>
      </trkpt>
      <trkpt lat="47.22203" lon="-1.47374">
        <ele>54</ele>
        <time>2021-03-06T13:20:22.000Z</time>
      </trkpt>
      <trkpt lat="47.22213" lon="-1.47367">
        <ele>54</ele>
        <time>2021-03-06T13:20:24.000Z</time>
      </trkpt>
      <trkpt lat="47.22223" lon="-1.4736">
        <ele>54</ele>
        <time>2021-03-06T13:20:26.000Z</time>
      </trkpt>
      <trkpt lat="47.22234" lon="-1.47353">
        <ele>54</ele>
        <time>2021-03-06T13:20:28.000Z</time>
      </trkpt>
      <trkpt lat="47.22244" lon="-1.47347">
        <ele>54</ele>
        <time>2021-03-06T13:20:30.000Z</time>
      </trkpt>
      <trkpt lat="47.22255" lon="-1.4734">
        <ele>54</ele>
        <time>2021-03-06T13:20:32.000Z</time>
      </trkpt>
      <trkpt lat="47.22265" lon="-1.47333">
        <ele>54</ele>
        <time>2021-03-06T13:20:34.000Z</time>
      </trkpt>
      <trkpt lat="47.22275" lon="-1.47325">
        <ele>54</ele>
        <time>2021-03-06T13:20:36.000Z</time>
      </trkpt>
      <trkpt lat="47.22285" lon="-1.47316">
        <ele>54</ele>
        <time>2021-03-06T13:20:38.000Z</time>
      </trkpt>
      <trkpt lat="47.22294" lon="-1.47308">
        <ele>54</ele>
        <time>2021-03-06T13:20:40.000Z</time>
      </trkpt>
      <trkpt lat="47.22304" lon="-1.47301">
        <ele>54</ele>
        <time>2021-03-06T13:20:42.000Z</time>
      </trkpt>
      <trkpt lat="47.22314" lon="-1.47293">
        <ele>54</ele>
        <time>2021-03-06T13:20:44.000Z</time>
      </trkpt>
      <trkpt lat="47.22324" lon="-1.47285">
        <ele>54</ele>
        <time>2021-03-06T13:20:46.000Z</time>
      </trkpt>
      <trkpt lat="47.22333" lon="-1.47278">
        <ele>54</ele>
        <time>2021-03-06T13:20:48.000Z</time>
      </trkpt>
      <trkpt lat="47.22342" lon="-1.4727">
        <ele>54</ele>
        <time>2021-03-06T13:20:50.000Z</time>
      </trkpt>
      <trkpt lat="47.22351" lon="-1.47262">
        <ele>53</ele>
        <time>2021-03-06T13:20:52.000Z</time>
      </trkpt>
      <trkpt lat="47.2236" lon="-1.47254">
        <ele>53</ele>
        <time>2021-03-06T13:20:54.000Z</time>
      </trkpt>
      <trkpt lat="47.2237" lon="-1.47246">
        <ele>53</ele>
        <time>2021-03-06T13:20:56.000Z</time>
      </trkpt>
      <trkpt lat="47.22379" lon="-1.47237">
        <ele>54</ele>
        <time>2021-03-06T13:20:58.000Z</time>
      </trkpt>
      <trkpt lat="47.22388" lon="-1.47228">
        <ele>54</ele>
        <time>2021-03-06T13:21:00.000Z</time>
      </trkpt>
      <trkpt lat="47.22398" lon="-1.47218">
        <ele>54</ele>
        <time>2021-03-06T13:21:02.000Z</time>
      </trkpt>
      <trkpt lat="47.22408" lon="-1.47207">
        <ele>54</ele>
        <time>2021-03-06T13:21:04.000Z</time>
      </trkpt>
      <trkpt lat="47.22416" lon="-1.47196">
        <ele>54</ele>
        <time>2021-03-06T13:21:06.000Z</time>
      </trkpt>
      <trkpt lat="47.22426" lon="-1.47186">
        <ele>55</ele>
        <time>2021-03-06T13:21:08.000Z</time>
      </trkpt>
      <trkpt lat="47.22435" lon="-1.47176">
        <ele>56</ele>
        <time>2021-03-06T13:21:10.000Z</time>
      </trkpt>
      <trkpt lat="47.22445" lon="-1.47167">
        <ele>56</ele>
        <time>2021-03-06T13:21:12.000Z</time>
      </trkpt>
      <trkpt lat="47.22455" lon="-1.47159">
        <ele>56</ele>
        <time>2021-03-06T13:21:14.000Z</time>
      </trkpt>
      <trkpt lat="47.22465" lon="-1.4715">
        <ele>56</ele>
        <time>2021-03-06T13:21:16.000Z</time>
      </trkpt>
      <trkpt lat="47.22475" lon="-1.47142">
        <ele>56</ele>
        <time>2021-03-06T13:21:18.000Z</time>
      </trkpt>
      <trkpt lat="47.22486" lon="-1.47136">
        <ele>57</ele>
        <time>2021-03-06T13:21:20.000Z</time>
      </trkpt>
      <trkpt lat="47.22496" lon="-1.47132">
        <ele>57</ele>
        <time>2021-03-06T13:21:22.000Z</time>
      </trkpt>
      <trkpt lat="47.22507" lon="-1.47129">
        <ele>57</ele>
        <time>2021-03-06T13:21:24.000Z</time>
      </trkpt>
      <trkpt lat="47.22518" lon="-1.47126">
        <ele>56</ele>
        <time>2021-03-06T13:21:26.000Z</time>
      </trkpt>
      <trkpt lat="47.2253" lon="-1.47124">
        <ele>56</ele>
        <time>2021-03-06T13:21:28.000Z</time>
      </trkpt>
      <trkpt lat="47.22541" lon="-1.47121">
        <ele>56</ele>
        <time>2021-03-06T13:21:30.000Z</time>
      </trkpt>
      <trkpt lat="47.22552" lon="-1.47118">
        <ele>56</ele>
        <time>2021-03-06T13:21:32.000Z</time>
      </trkpt>
      <trkpt lat="47.22563" lon="-1.47114">
        <ele>55</ele>
        <time>2021-03-06T13:21:34.000Z</time>
      </trkpt>
      <trkpt lat="47.22575" lon="-1.4711">
        <ele>55</ele>
        <time>2021-03-06T13:21:36.000Z</time>
      </trkpt>
      <trkpt lat="47.22585" lon="-1.47103">
        <ele>55</ele>
        <time>2021-03-06T13:21:38.000Z</time>
      </trkpt>
      <trkpt lat="47.22595" lon="-1.47094">
        <ele>55</ele>
        <time>2021-03-06T13:21:40.000Z</time>
      </trkpt>
      <trkpt lat="47.22604" lon="-1.47082">
        <ele>55</ele>
        <time>2021-03-06T13:21:42.000Z</time>
      </trkpt>
      <trkpt lat="47.22611" lon="-1.47067">
        <ele>55</ele>
        <time>2021-03-06T13:21:44.000Z</time>
      </trkpt>
      <trkpt lat="47.22618" lon="-1.47054">
        <ele>55</ele>
        <time>2021-03-06T13:21:46.000Z</time>
      </trkpt>
      <trkpt lat="47.22626" lon="-1.4704">
        <ele>55</ele>
        <time>2021-03-06T13:21:48.000Z</time>
      </trkpt>
      <trkpt lat="47.22633" lon="-1.47027">
        <ele>55</ele>
        <time>2021-03-06T13:21:50.000Z</time>
      </trkpt>
      <trkpt lat="47.22642" lon="-1.47015">
        <ele>55</ele>
        <time>2021-03-06T13:21:52.000Z</time>
      </trkpt>
      <trkpt lat="47.22651" lon="-1.47005">
        <ele>55</ele>
        <time>2021-03-06T13:21:54.000Z</time>
      </trkpt>
      <trkpt lat="47.2266" lon="-1.46996">
        <ele>55</ele>
        <time>2021-03-06T13:21:56.000Z</time>
      </trkpt>
      <trkpt lat="47.2267" lon="-1.46986">
        <ele>55</ele>
        <time>2021-03-06T13:21:58.000Z</time>
      </trkpt>
      <trkpt lat="47.2268" lon="-1.46979">
        <ele>55</ele>
        <time>2021-03-06T13:22:00.000Z</time>
      </trkpt>
      <trkpt lat="47.22691" lon="-1.46972">
        <ele>54</ele>
        <time>2021-03-06T13:22:02.000Z</time>
      </trkpt>
      <trkpt lat="47.22701" lon="-1.46966">
        <ele>54</ele>
        <time>2021-03-06T13:22:04.000Z</time>
      </trkpt>
      <trkpt lat="47.22712" lon="-1.46961">
        <ele>54</ele>
        <time>2021-03-06T13:22:06.000Z</time>
      </trkpt>
      <trkpt lat="47.22724" lon="-1.46958">
        <ele>54</ele>
        <time>2021-03-06T13:22:08.000Z</time>
      </trkpt>
      <trkpt lat="47.22736" lon="-1.46955">
        <ele>53</ele>
        <time>2021-03-06T13:22:10.000Z</time>
      </trkpt>
      <trkpt lat="47.22747" lon="-1.46952">
        <ele>53</ele>
        <time>2021-03-06T13:22:12.000Z</time>
      </trkpt>
      <trkpt lat="47.22758" lon="-1.46952">
        <ele>53</ele>
        <time>2021-03-06T13:22:14.000Z</time>
      </trkpt>
      <trkpt lat="47.2277" lon="-1.46952">
        <ele>54</ele>
        <time>2021-03-06T13:22:16.000Z</time>
      </trkpt>
      <trkpt lat="47.22781" lon="-1.46953">
        <ele>54</ele>
        <time>2021-03-06T13:22:18.000Z</time>
      </trkpt>
      <trkpt lat="47.22793" lon="-1.46956">
        <ele>54</ele>
        <time>2021-03-06T13:22:20.000Z</time>
      </trkpt>
      <trkpt lat="47.22804" lon="-1.46959">
        <ele>54</ele>
        <time>2021-03-06T13:22:22.000Z</time>
      </trkpt>
      <trkpt lat="47.22815" lon="-1.46963">
        <ele>54</ele>
        <time>2021-03-06T13:22:24.000Z</time>
      </trkpt>
      <trkpt lat="47.22826" lon="-1.46968">
        <ele>54</ele>
        <time>2021-03-06T13:22:26.000Z</time>
      </trkpt>
      <trkpt lat="47.22837" lon="-1.46975">
        <ele>54</ele>
        <time>2021-03-06T13:22:28.000Z</time>
      </trkpt>
      <trkpt lat="47.22848" lon="-1.46981">
        <ele>54</ele>
        <time>2021-03-06T13:22:30.000Z</time>
      </trkpt>
      <trkpt lat="47.2286" lon="-1.46986">
        <ele>54</ele>
        <time>2021-03-06T13:22:32.000Z</time>
      </trkpt>
      <trkpt lat="47.22871" lon="-1.46992">
        <ele>54</ele>
        <time>2021-03-06T13:22:34.000Z</time>
      </trkpt>
      <trkpt lat="47.22883" lon="-1.46997">
        <ele>53</ele>
        <time>2021-03-06T13:22:36.000Z</time>
      </trkpt>
      <trkpt lat="47.22895" lon="-1.46999">
        <ele>53</ele>
        <time>2021-03-06T13:22:38.000Z</time>
      </trkpt>
      <trkpt lat="47.22906" lon="-1.46993">
        <ele>53</ele>
        <time>2021-03-06T13:22:40.000Z</time>
      </trkpt>
      <trkpt lat="47.22913" lon="-1.46977">
        <ele>53</ele>
        <time>2021-03-06T13:22:42.000Z</time>
      </trkpt>
      <trkpt lat="47.22918" lon="-1.46959">
        <ele>53</ele>
        <time>2021-03-06T13:22:44.000Z</time>
      </trkpt>
      <trkpt lat="47.22921" lon="-1.46942">
        <ele>53</ele>
        <time>2021-03-06T13:22:46.000Z</time>
      </trkpt>
      <trkpt lat="47.22925" lon="-1.46927">
        <ele>53</ele>
        <time>2021-03-06T13:22:48.000Z</time>
      </trkpt>
      <trkpt lat="47.22928" lon="-1.4691">
        <ele>52</ele>
        <time>2021-03-06T13:22:50.000Z</time>
      </trkpt>
      <trkpt lat="47.22931" lon="-1.46893">
        <ele>52</ele>
        <time>2021-03-06T13:22:52.000Z</time>
      </trkpt>
      <trkpt lat="47.22934" lon="-1.46877">
        <ele>52</ele>
        <time>2021-03-06T13:22:54.000Z</time>
      </trkpt>
      <trkpt lat="47.22938" lon="-1.46863">
        <ele>52</ele>
        <time>2021-03-06T13:22:56.000Z</time>
      </trkpt>
      <trkpt lat="47.22943" lon="-1.4685">
        <ele>52</ele>
        <time>2021-03-06T13:22:58.000Z</time>
      </trkpt>
      <trkpt lat="47.22947" lon="-1.46838">
        <ele>52</ele>
        <time>2021-03-06T13:23:00.000Z</time>
      </trkpt>
      <trkpt lat="47.22955" lon="-1.46829">
        <ele>53</ele>
        <time>2021-03-06T13:23:02.000Z</time>
      </trkpt>
      <trkpt lat="47.22964" lon="-1.46823">
        <ele>52</ele>
        <time>2021-03-06T13:23:04.000Z</time>
      </trkpt>
      <trkpt lat="47.22971" lon="-1.4681">
        <ele>52</ele>
        <time>2021-03-06T13:23:06.000Z</time>
      </trkpt>
      <trkpt lat="47.22976" lon="-1.46796">
        <ele>53</ele>
        <time>2021-03-06T13:23:08.000Z</time>
      </trkpt>
      <trkpt lat="47.22981" lon="-1.46782">
        <ele>53</ele>
        <time>2021-03-06T13:23:10.000Z</time>
      </trkpt>
      <trkpt lat="47.22988" lon="-1.46771">
        <ele>53</ele>
        <time>2021-03-06T13:23:12.000Z</time>
      </trkpt>
      <trkpt lat="47.22997" lon="-1.46762">
        <ele>54</ele>
        <time>2021-03-06T13:23:14.000Z</time>
      </trkpt>
      <trkpt lat="47.23006" lon="-1.46754">
        <ele>55</ele>
        <time>2021-03-06T13:23:16.000Z</time>
      </trkpt>
      <trkpt lat="47.23015" lon="-1.46748">
        <ele>55</ele>
        <time>2021-03-06T13:23:18.000Z</time>
      </trkpt>
      <trkpt lat="47.23025" lon="-1.46742">
        <ele>55</ele>
        <time>2021-03-06T13:23:20.000Z</time>
      </trkpt>
      <trkpt lat="47.23034" lon="-1.46737">
        <ele>55</ele>
        <time>2021-03-06T13:23:22.000Z</time>
      </trkpt>
      <trkpt lat="47.23043" lon="-1.46729">
        <ele>55</ele>
        <time>2021-03-06T13:23:24.000Z</time>
      </trkpt>
      <trkpt lat="47.23048" lon="-1.46716">
        <ele>56</ele>
        <time>2021-03-06T13:23:26.000Z</time>
      </trkpt>
      <trkpt lat="47.23049" lon="-1.46701">
        <ele>56</ele>
        <time>2021-03-06T13:23:28.000Z</time>
      </trkpt>
      <trkpt lat="47.23049" lon="-1.46682">
        <ele>56</ele>
        <time>2021-03-06T13:23:31.000Z</time>
      </trkpt>
      <trkpt lat="47.23053" lon="-1.46669">
        <ele>56</ele>
        <time>2021-03-06T13:23:33.000Z</time>
      </trkpt>
      <trkpt lat="47.23059" lon="-1.46652">
        <ele>56</ele>
        <time>2021-03-06T13:23:36.000Z</time>
      </trkpt>
      <trkpt lat="47.23064" lon="-1.46641">
        <ele>56</ele>
        <time>2021-03-06T13:23:38.000Z</time>
      </trkpt>
      <trkpt lat="47.23072" lon="-1.46627">
        <ele>56</ele>
        <time>2021-03-06T13:23:41.000Z</time>
      </trkpt>
      <trkpt lat="47.2308" lon="-1.46619">
        <ele>55</ele>
        <time>2021-03-06T13:23:43.000Z</time>
      </trkpt>
      <trkpt lat="47.23087" lon="-1.4661">
        <ele>56</ele>
        <time>2021-03-06T13:23:45.000Z</time>
      </trkpt>
      <trkpt lat="47.23096" lon="-1.46602">
        <ele>55</ele>
        <time>2021-03-06T13:23:47.000Z</time>
      </trkpt>
      <trkpt lat="47.23104" lon="-1.46594">
        <ele>56</ele>
        <time>2021-03-06T13:23:49.000Z</time>
      </trkpt>
      <trkpt lat="47.23112" lon="-1.46585">
        <ele>56</ele>
        <time>2021-03-06T13:23:51.000Z</time>
      </trkpt>
      <trkpt lat="47.2312" lon="-1.46576">
        <ele>56</ele>
        <time>2021-03-06T13:23:53.000Z</time>
      </trkpt>
      <trkpt lat="47.23127" lon="-1.46568">
        <ele>56</ele>
        <time>2021-03-06T13:23:55.000Z</time>
      </trkpt>
      <trkpt lat="47.23135" lon="-1.46559">
        <ele>56</ele>
        <time>2021-03-06T13:23:57.000Z</time>
      </trkpt>
      <trkpt lat="47.23142" lon="-1.4655">
        <ele>56</ele>
        <time>2021-03-06T13:23:59.000Z</time>
      </trkpt>
      <trkpt lat="47.2315" lon="-1.46541">
        <ele>55</ele>
        <time>2021-03-06T13:24:01.000Z</time>
      </trkpt>
      <trkpt lat="47.23158" lon="-1.46533">
        <ele>55</ele>
        <time>2021-03-06T13:24:03.000Z</time>
      </trkpt>
      <trkpt lat="47.23165" lon="-1.46524">
        <ele>55</ele>
        <time>2021-03-06T13:24:05.000Z</time>
      </trkpt>
      <trkpt lat="47.23173" lon="-1.46515">
        <ele>55</ele>
        <time>2021-03-06T13:24:07.000Z</time>
      </trkpt>
      <trkpt lat="47.23179" lon="-1.46505">
        <ele>55</ele>
        <time>2021-03-06T13:24:09.000Z</time>
      </trkpt>
      <trkpt lat="47.23186" lon="-1.46497">
        <ele>55</ele>
        <time>2021-03-06T13:24:11.000Z</time>
      </trkpt>
      <trkpt lat="47.23193" lon="-1.46488">
        <ele>55</ele>
        <time>2021-03-06T13:24:13.000Z</time>
      </trkpt>
      <trkpt lat="47.232" lon="-1.46478">
        <ele>54</ele>
        <time>2021-03-06T13:24:15.000Z</time>
      </trkpt>
      <trkpt lat="47.23208" lon="-1.46469">
        <ele>54</ele>
        <time>2021-03-06T13:24:17.000Z</time>
      </trkpt>
      <trkpt lat="47.23216" lon="-1.4646">
        <ele>54</ele>
        <time>2021-03-06T13:24:19.000Z</time>
      </trkpt>
      <trkpt lat="47.23223" lon="-1.4645">
        <ele>54</ele>
        <time>2021-03-06T13:24:21.000Z</time>
      </trkpt>
      <trkpt lat="47.2323" lon="-1.4644">
        <ele>55</ele>
        <time>2021-03-06T13:24:23.000Z</time>
      </trkpt>
      <trkpt lat="47.23238" lon="-1.4643">
        <ele>55</ele>
        <time>2021-03-06T13:24:25.000Z</time>
      </trkpt>
      <trkpt lat="47.23245" lon="-1.46421">
        <ele>54</ele>
        <time>2021-03-06T13:24:27.000Z</time>
      </trkpt>
      <trkpt lat="47.23253" lon="-1.46412">
        <ele>54</ele>
        <time>2021-03-06T13:24:29.000Z</time>
      </trkpt>
      <trkpt lat="47.23261" lon="-1.46402">
        <ele>54</ele>
        <time>2021-03-06T13:24:31.000Z</time>
      </trkpt>
      <trkpt lat="47.23268" lon="-1.46393">
        <ele>54</ele>
        <time>2021-03-06T13:24:33.000Z</time>
      </trkpt>
      <trkpt lat="47.23276" lon="-1.46382">
        <ele>54</ele>
        <time>2021-03-06T13:24:35.000Z</time>
      </trkpt>
      <trkpt lat="47.23285" lon="-1.46373">
        <ele>54</ele>
        <time>2021-03-06T13:24:37.000Z</time>
      </trkpt>
      <trkpt lat="47.23293" lon="-1.46364">
        <ele>54</ele>
        <time>2021-03-06T13:24:39.000Z</time>
      </trkpt>
      <trkpt lat="47.233" lon="-1.46353">
        <ele>54</ele>
        <time>2021-03-06T13:24:41.000Z</time>
      </trkpt>
      <trkpt lat="47.23308" lon="-1.46342">
        <ele>54</ele>
        <time>2021-03-06T13:24:43.000Z</time>
      </trkpt>
      <trkpt lat="47.23315" lon="-1.46331">
        <ele>54</ele>
        <time>2021-03-06T13:24:45.000Z</time>
      </trkpt>
      <trkpt lat="47.23323" lon="-1.46321">
        <ele>54</ele>
        <time>2021-03-06T13:24:47.000Z</time>
      </trkpt>
      <trkpt lat="47.23331" lon="-1.46311">
        <ele>54</ele>
        <time>2021-03-06T13:24:49.000Z</time>
      </trkpt>
      <trkpt lat="47.23339" lon="-1.46301">
        <ele>54</ele>
        <time>2021-03-06T13:24:51.000Z</time>
      </trkpt>
      <trkpt lat="47.23347" lon="-1.46291">
        <ele>55</ele>
        <time>2021-03-06T13:24:53.000Z</time>
      </trkpt>
      <trkpt lat="47.23355" lon="-1.46281">
        <ele>55</ele>
        <time>2021-03-06T13:24:55.000Z</time>
      </trkpt>
      <trkpt lat="47.23362" lon="-1.46271">
        <ele>55</ele>
        <time>2021-03-06T13:24:57.000Z</time>
      </trkpt>
      <trkpt lat="47.23369" lon="-1.46261">
        <ele>55</ele>
        <time>2021-03-06T13:24:59.000Z</time>
      </trkpt>
      <trkpt lat="47.23377" lon="-1.46251">
        <ele>55</ele>
        <time>2021-03-06T13:25:01.000Z</time>
      </trkpt>
      <trkpt lat="47.23385" lon="-1.4624">
        <ele>55</ele>
        <time>2021-03-06T13:25:03.000Z</time>
      </trkpt>
      <trkpt lat="47.23393" lon="-1.4623">
        <ele>55</ele>
        <time>2021-03-06T13:25:05.000Z</time>
      </trkpt>
      <trkpt lat="47.23401" lon="-1.4622">
        <ele>55</ele>
        <time>2021-03-06T13:25:07.000Z</time>
      </trkpt>
      <trkpt lat="47.23409" lon="-1.4621">
        <ele>55</ele>
        <time>2021-03-06T13:25:09.000Z</time>
      </trkpt>
      <trkpt lat="47.23417" lon="-1.462">
        <ele>56</ele>
        <time>2021-03-06T13:25:11.000Z</time>
      </trkpt>
      <trkpt lat="47.23425" lon="-1.4619">
        <ele>56</ele>
        <time>2021-03-06T13:25:13.000Z</time>
      </trkpt>
      <trkpt lat="47.23434" lon="-1.46181">
        <ele>56</ele>
        <time>2021-03-06T13:25:15.000Z</time>
      </trkpt>
      <trkpt lat="47.23442" lon="-1.46172">
        <ele>56</ele>
        <time>2021-03-06T13:25:17.000Z</time>
      </trkpt>
      <trkpt lat="47.2345" lon="-1.46163">
        <ele>56</ele>
        <time>2021-03-06T13:25:19.000Z</time>
      </trkpt>
      <trkpt lat="47.23458" lon="-1.46156">
        <ele>56</ele>
        <time>2021-03-06T13:25:21.000Z</time>
      </trkpt>
      <trkpt lat="47.23467" lon="-1.46147">
        <ele>56</ele>
        <time>2021-03-06T13:25:23.000Z</time>
      </trkpt>
      <trkpt lat="47.23475" lon="-1.46139">
        <ele>56</ele>
        <time>2021-03-06T13:25:25.000Z</time>
      </trkpt>
      <trkpt lat="47.23483" lon="-1.46131">
        <ele>56</ele>
        <time>2021-03-06T13:25:27.000Z</time>
      </trkpt>
      <trkpt lat="47.23491" lon="-1.46123">
        <ele>55</ele>
        <time>2021-03-06T13:25:29.000Z</time>
      </trkpt>
      <trkpt lat="47.23499" lon="-1.46114">
        <ele>56</ele>
        <time>2021-03-06T13:25:31.000Z</time>
      </trkpt>
      <trkpt lat="47.2351" lon="-1.46105">
        <ele>57</ele>
        <time>2021-03-06T13:25:34.000Z</time>
      </trkpt>
      <trkpt lat="47.23519" lon="-1.46098">
        <ele>57</ele>
        <time>2021-03-06T13:25:37.000Z</time>
      </trkpt>
      <trkpt lat="47.23528" lon="-1.46098">
        <ele>57</ele>
        <time>2021-03-06T13:25:42.000Z</time>
      </trkpt>
      <trkpt lat="47.23537" lon="-1.4608">
        <ele>54</ele>
        <time>2021-03-06T13:29:18.000Z</time>
      </trkpt>
      <trkpt lat="47.23546" lon="-1.46072">
        <ele>52</ele>
        <time>2021-03-06T13:29:20.000Z</time>
      </trkpt>
      <trkpt lat="47.23559" lon="-1.4606">
        <ele>53</ele>
        <time>2021-03-06T13:29:23.000Z</time>
      </trkpt>
      <trkpt lat="47.23569" lon="-1.46057">
        <ele>53</ele>
        <time>2021-03-06T13:29:25.000Z</time>
      </trkpt>
      <trkpt lat="47.23581" lon="-1.46052">
        <ele>52</ele>
        <time>2021-03-06T13:29:27.000Z</time>
      </trkpt>
      <trkpt lat="47.23591" lon="-1.46042">
        <ele>49</ele>
        <time>2021-03-06T13:29:29.000Z</time>
      </trkpt>
      <trkpt lat="47.23607" lon="-1.46027">
        <ele>48</ele>
        <time>2021-03-06T13:29:32.000Z</time>
      </trkpt>
      <trkpt lat="47.23619" lon="-1.46019">
        <ele>50</ele>
        <time>2021-03-06T13:29:34.000Z</time>
      </trkpt>
      <trkpt lat="47.2363" lon="-1.46013">
        <ele>51</ele>
        <time>2021-03-06T13:29:36.000Z</time>
      </trkpt>
      <trkpt lat="47.23642" lon="-1.46009">
        <ele>50</ele>
        <time>2021-03-06T13:29:38.000Z</time>
      </trkpt>
      <trkpt lat="47.23655" lon="-1.46006">
        <ele>52</ele>
        <time>2021-03-06T13:29:40.000Z</time>
      </trkpt>
      <trkpt lat="47.23677" lon="-1.46001">
        <ele>51</ele>
        <time>2021-03-06T13:29:43.000Z</time>
      </trkpt>
      <trkpt lat="47.23694" lon="-1.45995">
        <ele>52</ele>
        <time>2021-03-06T13:29:46.000Z</time>
      </trkpt>
      <trkpt lat="47.23706" lon="-1.45993">
        <ele>53</ele>
        <time>2021-03-06T13:29:48.000Z</time>
      </trkpt>
      <trkpt lat="47.23718" lon="-1.45989">
        <ele>53</ele>
        <time>2021-03-06T13:29:50.000Z</time>
      </trkpt>
      <trkpt lat="47.23729" lon="-1.45984">
        <ele>51</ele>
        <time>2021-03-06T13:29:52.000Z</time>
      </trkpt>
      <trkpt lat="47.23741" lon="-1.4598">
        <ele>52</ele>
        <time>2021-03-06T13:29:54.000Z</time>
      </trkpt>
      <trkpt lat="47.23759" lon="-1.45977">
        <ele>52</ele>
        <time>2021-03-06T13:29:57.000Z</time>
      </trkpt>
      <trkpt lat="47.23778" lon="-1.45972">
        <ele>52</ele>
        <time>2021-03-06T13:30:00.000Z</time>
      </trkpt>
      <trkpt lat="47.23789" lon="-1.45968">
        <ele>52</ele>
        <time>2021-03-06T13:30:02.000Z</time>
      </trkpt>
      <trkpt lat="47.23802" lon="-1.45963">
        <ele>54</ele>
        <time>2021-03-06T13:30:04.000Z</time>
      </trkpt>
      <trkpt lat="47.23814" lon="-1.45958">
        <ele>54</ele>
        <time>2021-03-06T13:30:06.000Z</time>
      </trkpt>
      <trkpt lat="47.23826" lon="-1.45953">
        <ele>52</ele>
        <time>2021-03-06T13:30:08.000Z</time>
      </trkpt>
      <trkpt lat="47.23838" lon="-1.4595">
        <ele>52</ele>
        <time>2021-03-06T13:30:10.000Z</time>
      </trkpt>
      <trkpt lat="47.23852" lon="-1.45949">
        <ele>52</ele>
        <time>2021-03-06T13:30:12.000Z</time>
      </trkpt>
      <trkpt lat="47.23864" lon="-1.45946">
        <ele>53</ele>
        <time>2021-03-06T13:30:14.000Z</time>
      </trkpt>
      <trkpt lat="47.23877" lon="-1.45943">
        <ele>53</ele>
        <time>2021-03-06T13:30:16.000Z</time>
      </trkpt>
      <trkpt lat="47.23888" lon="-1.45941">
        <ele>52</ele>
        <time>2021-03-06T13:30:18.000Z</time>
      </trkpt>
      <trkpt lat="47.239" lon="-1.4594">
        <ele>53</ele>
        <time>2021-03-06T13:30:20.000Z</time>
      </trkpt>
      <trkpt lat="47.23913" lon="-1.45935">
        <ele>54</ele>
        <time>2021-03-06T13:30:22.000Z</time>
      </trkpt>
      <trkpt lat="47.23923" lon="-1.45932">
        <ele>53</ele>
        <time>2021-03-06T13:30:24.000Z</time>
      </trkpt>
      <trkpt lat="47.23934" lon="-1.45926">
        <ele>52</ele>
        <time>2021-03-06T13:30:26.000Z</time>
      </trkpt>
      <trkpt lat="47.23945" lon="-1.4592">
        <ele>52</ele>
        <time>2021-03-06T13:30:28.000Z</time>
      </trkpt>
      <trkpt lat="47.23961" lon="-1.4591">
        <ele>52</ele>
        <time>2021-03-06T13:30:31.000Z</time>
      </trkpt>
      <trkpt lat="47.2397" lon="-1.45896">
        <ele>52</ele>
        <time>2021-03-06T13:30:33.000Z</time>
      </trkpt>
      <trkpt lat="47.23979" lon="-1.45885">
        <ele>52</ele>
        <time>2021-03-06T13:30:35.000Z</time>
      </trkpt>
      <trkpt lat="47.23992" lon="-1.45866">
        <ele>53</ele>
        <time>2021-03-06T13:30:38.000Z</time>
      </trkpt>
      <trkpt lat="47.23998" lon="-1.45853">
        <ele>54</ele>
        <time>2021-03-06T13:30:40.000Z</time>
      </trkpt>
      <trkpt lat="47.24006" lon="-1.45839">
        <ele>54</ele>
        <time>2021-03-06T13:30:42.000Z</time>
      </trkpt>
      <trkpt lat="47.2402" lon="-1.45819">
        <ele>53</ele>
        <time>2021-03-06T13:30:45.000Z</time>
      </trkpt>
      <trkpt lat="47.24027" lon="-1.45805">
        <ele>54</ele>
        <time>2021-03-06T13:30:47.000Z</time>
      </trkpt>
      <trkpt lat="47.24035" lon="-1.45794">
        <ele>54</ele>
        <time>2021-03-06T13:30:49.000Z</time>
      </trkpt>
      <trkpt lat="47.24043" lon="-1.45782">
        <ele>54</ele>
        <time>2021-03-06T13:30:51.000Z</time>
      </trkpt>
      <trkpt lat="47.24055" lon="-1.45761">
        <ele>54</ele>
        <time>2021-03-06T13:30:54.000Z</time>
      </trkpt>
      <trkpt lat="47.24062" lon="-1.45749">
        <ele>55</ele>
        <time>2021-03-06T13:30:56.000Z</time>
      </trkpt>
      <trkpt lat="47.24071" lon="-1.45736">
        <ele>55</ele>
        <time>2021-03-06T13:30:58.000Z</time>
      </trkpt>
      <trkpt lat="47.24083" lon="-1.45717">
        <ele>54</ele>
        <time>2021-03-06T13:31:01.000Z</time>
      </trkpt>
      <trkpt lat="47.24091" lon="-1.45704">
        <ele>54</ele>
        <time>2021-03-06T13:31:03.000Z</time>
      </trkpt>
      <trkpt lat="47.24098" lon="-1.45692">
        <ele>54</ele>
        <time>2021-03-06T13:31:05.000Z</time>
      </trkpt>
      <trkpt lat="47.24105" lon="-1.4568">
        <ele>53</ele>
        <time>2021-03-06T13:31:07.000Z</time>
      </trkpt>
      <trkpt lat="47.24113" lon="-1.45668">
        <ele>54</ele>
        <time>2021-03-06T13:31:09.000Z</time>
      </trkpt>
      <trkpt lat="47.24123" lon="-1.45646">
        <ele>54</ele>
        <time>2021-03-06T13:31:12.000Z</time>
      </trkpt>
      <trkpt lat="47.24129" lon="-1.45632">
        <ele>55</ele>
        <time>2021-03-06T13:31:14.000Z</time>
      </trkpt>
      <trkpt lat="47.24134" lon="-1.45618">
        <ele>56</ele>
        <time>2021-03-06T13:31:16.000Z</time>
      </trkpt>
      <trkpt lat="47.2414" lon="-1.45604">
        <ele>55</ele>
        <time>2021-03-06T13:31:18.000Z</time>
      </trkpt>
      <trkpt lat="47.24145" lon="-1.45589">
        <ele>54</ele>
        <time>2021-03-06T13:31:20.000Z</time>
      </trkpt>
      <trkpt lat="47.24151" lon="-1.45574">
        <ele>53</ele>
        <time>2021-03-06T13:31:22.000Z</time>
      </trkpt>
      <trkpt lat="47.24155" lon="-1.45559">
        <ele>53</ele>
        <time>2021-03-06T13:31:24.000Z</time>
      </trkpt>
      <trkpt lat="47.24158" lon="-1.45544">
        <ele>54</ele>
        <time>2021-03-06T13:31:26.000Z</time>
      </trkpt>
      <trkpt lat="47.24163" lon="-1.45529">
        <ele>54</ele>
        <time>2021-03-06T13:31:28.000Z</time>
      </trkpt>
      <trkpt lat="47.24167" lon="-1.45514">
        <ele>53</ele>
        <time>2021-03-06T13:31:30.000Z</time>
      </trkpt>
      <trkpt lat="47.24174" lon="-1.45493">
        <ele>53</ele>
        <time>2021-03-06T13:31:33.000Z</time>
      </trkpt>
      <trkpt lat="47.24177" lon="-1.45479">
        <ele>54</ele>
        <time>2021-03-06T13:31:35.000Z</time>
      </trkpt>
      <trkpt lat="47.24182" lon="-1.45455">
        <ele>54</ele>
        <time>2021-03-06T13:31:38.000Z</time>
      </trkpt>
      <trkpt lat="47.24187" lon="-1.45443">
        <ele>53</ele>
        <time>2021-03-06T13:31:40.000Z</time>
      </trkpt>
      <trkpt lat="47.24194" lon="-1.45425">
        <ele>53</ele>
        <time>2021-03-06T13:31:43.000Z</time>
      </trkpt>
      <trkpt lat="47.242" lon="-1.4541">
        <ele>53</ele>
        <time>2021-03-06T13:31:45.000Z</time>
      </trkpt>
      <trkpt lat="47.24203" lon="-1.45389">
        <ele>50</ele>
        <time>2021-03-06T13:31:47.000Z</time>
      </trkpt>
      <trkpt lat="47.2421" lon="-1.45368">
        <ele>52</ele>
        <time>2021-03-06T13:31:50.000Z</time>
      </trkpt>
      <trkpt lat="47.24215" lon="-1.45355">
        <ele>53</ele>
        <time>2021-03-06T13:31:52.000Z</time>
      </trkpt>
      <trkpt lat="47.24222" lon="-1.45341">
        <ele>52</ele>
        <time>2021-03-06T13:31:54.000Z</time>
      </trkpt>
      <trkpt lat="47.24226" lon="-1.45326">
        <ele>52</ele>
        <time>2021-03-06T13:31:56.000Z</time>
      </trkpt>
      <trkpt lat="47.24231" lon="-1.45312">
        <ele>52</ele>
        <time>2021-03-06T13:31:58.000Z</time>
      </trkpt>
      <trkpt lat="47.24235" lon="-1.45298">
        <ele>53</ele>
        <time>2021-03-06T13:32:00.000Z</time>
      </trkpt>
      <trkpt lat="47.24239" lon="-1.45285">
        <ele>53</ele>
        <time>2021-03-06T13:32:02.000Z</time>
      </trkpt>
      <trkpt lat="47.24244" lon="-1.45271">
        <ele>52</ele>
        <time>2021-03-06T13:32:04.000Z</time>
      </trkpt>
      <trkpt lat="47.24252" lon="-1.45261">
        <ele>52</ele>
        <time>2021-03-06T13:32:06.000Z</time>
      </trkpt>
      <trkpt lat="47.24258" lon="-1.45248">
        <ele>51</ele>
        <time>2021-03-06T13:32:08.000Z</time>
      </trkpt>
      <trkpt lat="47.24261" lon="-1.45231">
        <ele>51</ele>
        <time>2021-03-06T13:32:10.000Z</time>
      </trkpt>
      <trkpt lat="47.24263" lon="-1.45205">
        <ele>50</ele>
        <time>2021-03-06T13:32:13.000Z</time>
      </trkpt>
      <trkpt lat="47.24265" lon="-1.4518">
        <ele>50</ele>
        <time>2021-03-06T13:32:16.000Z</time>
      </trkpt>
      <trkpt lat="47.24268" lon="-1.45147">
        <ele>50</ele>
        <time>2021-03-06T13:32:20.000Z</time>
      </trkpt>
      <trkpt lat="47.24269" lon="-1.45122">
        <ele>51</ele>
        <time>2021-03-06T13:32:23.000Z</time>
      </trkpt>
      <trkpt lat="47.24271" lon="-1.45106">
        <ele>50</ele>
        <time>2021-03-06T13:32:25.000Z</time>
      </trkpt>
      <trkpt lat="47.24273" lon="-1.45082">
        <ele>49</ele>
        <time>2021-03-06T13:32:28.000Z</time>
      </trkpt>
      <trkpt lat="47.24274" lon="-1.45066">
        <ele>50</ele>
        <time>2021-03-06T13:32:30.000Z</time>
      </trkpt>
      <trkpt lat="47.24277" lon="-1.45042">
        <ele>49</ele>
        <time>2021-03-06T13:32:33.000Z</time>
      </trkpt>
      <trkpt lat="47.24278" lon="-1.45025">
        <ele>50</ele>
        <time>2021-03-06T13:32:35.000Z</time>
      </trkpt>
      <trkpt lat="47.24279" lon="-1.45008">
        <ele>50</ele>
        <time>2021-03-06T13:32:37.000Z</time>
      </trkpt>
      <trkpt lat="47.24281" lon="-1.44991">
        <ele>50</ele>
        <time>2021-03-06T13:32:39.000Z</time>
      </trkpt>
      <trkpt lat="47.24283" lon="-1.44975">
        <ele>51</ele>
        <time>2021-03-06T13:32:41.000Z</time>
      </trkpt>
      <trkpt lat="47.24284" lon="-1.44958">
        <ele>51</ele>
        <time>2021-03-06T13:32:43.000Z</time>
      </trkpt>
      <trkpt lat="47.24285" lon="-1.44941">
        <ele>50</ele>
        <time>2021-03-06T13:32:45.000Z</time>
      </trkpt>
      <trkpt lat="47.24287" lon="-1.44917">
        <ele>49</ele>
        <time>2021-03-06T13:32:48.000Z</time>
      </trkpt>
      <trkpt lat="47.24288" lon="-1.44893">
        <ele>49</ele>
        <time>2021-03-06T13:32:51.000Z</time>
      </trkpt>
      <trkpt lat="47.24291" lon="-1.44877">
        <ele>49</ele>
        <time>2021-03-06T13:32:53.000Z</time>
      </trkpt>
      <trkpt lat="47.24291" lon="-1.44861">
        <ele>49</ele>
        <time>2021-03-06T13:32:55.000Z</time>
      </trkpt>
      <trkpt lat="47.24293" lon="-1.44844">
        <ele>49</ele>
        <time>2021-03-06T13:32:57.000Z</time>
      </trkpt>
      <trkpt lat="47.24294" lon="-1.44827">
        <ele>48</ele>
        <time>2021-03-06T13:32:59.000Z</time>
      </trkpt>
      <trkpt lat="47.24295" lon="-1.4481">
        <ele>49</ele>
        <time>2021-03-06T13:33:01.000Z</time>
      </trkpt>
      <trkpt lat="47.24297" lon="-1.44793">
        <ele>49</ele>
        <time>2021-03-06T13:33:03.000Z</time>
      </trkpt>
      <trkpt lat="47.24298" lon="-1.44776">
        <ele>49</ele>
        <time>2021-03-06T13:33:05.000Z</time>
      </trkpt>
      <trkpt lat="47.24299" lon="-1.44759">
        <ele>49</ele>
        <time>2021-03-06T13:33:07.000Z</time>
      </trkpt>
      <trkpt lat="47.243" lon="-1.4474">
        <ele>48</ele>
        <time>2021-03-06T13:33:09.000Z</time>
      </trkpt>
      <trkpt lat="47.24302" lon="-1.44722">
        <ele>49</ele>
        <time>2021-03-06T13:33:11.000Z</time>
      </trkpt>
      <trkpt lat="47.24304" lon="-1.44705">
        <ele>49</ele>
        <time>2021-03-06T13:33:13.000Z</time>
      </trkpt>
      <trkpt lat="47.24305" lon="-1.44687">
        <ele>50</ele>
        <time>2021-03-06T13:33:15.000Z</time>
      </trkpt>
      <trkpt lat="47.24306" lon="-1.44671">
        <ele>49</ele>
        <time>2021-03-06T13:33:17.000Z</time>
      </trkpt>
      <trkpt lat="47.24309" lon="-1.44645">
        <ele>50</ele>
        <time>2021-03-06T13:33:20.000Z</time>
      </trkpt>
      <trkpt lat="47.24311" lon="-1.44629">
        <ele>50</ele>
        <time>2021-03-06T13:33:22.000Z</time>
      </trkpt>
      <trkpt lat="47.24314" lon="-1.44613">
        <ele>50</ele>
        <time>2021-03-06T13:33:24.000Z</time>
      </trkpt>
      <trkpt lat="47.24315" lon="-1.44588">
        <ele>50</ele>
        <time>2021-03-06T13:33:27.000Z</time>
      </trkpt>
      <trkpt lat="47.24315" lon="-1.44568">
        <ele>50</ele>
        <time>2021-03-06T13:33:29.000Z</time>
      </trkpt>
      <trkpt lat="47.24315" lon="-1.44542">
        <ele>49</ele>
        <time>2021-03-06T13:33:32.000Z</time>
      </trkpt>
      <trkpt lat="47.24317" lon="-1.44525">
        <ele>48</ele>
        <time>2021-03-06T13:33:34.000Z</time>
      </trkpt>
      <trkpt lat="47.24318" lon="-1.44509">
        <ele>48</ele>
        <time>2021-03-06T13:33:36.000Z</time>
      </trkpt>
      <trkpt lat="47.2432" lon="-1.44493">
        <ele>48</ele>
        <time>2021-03-06T13:33:38.000Z</time>
      </trkpt>
      <trkpt lat="47.24322" lon="-1.44477">
        <ele>48</ele>
        <time>2021-03-06T13:33:40.000Z</time>
      </trkpt>
      <trkpt lat="47.24323" lon="-1.4446">
        <ele>49</ele>
        <time>2021-03-06T13:33:42.000Z</time>
      </trkpt>
      <trkpt lat="47.24324" lon="-1.44437">
        <ele>46</ele>
        <time>2021-03-06T13:33:45.000Z</time>
      </trkpt>
      <trkpt lat="47.24326" lon="-1.44421">
        <ele>46</ele>
        <time>2021-03-06T13:33:47.000Z</time>
      </trkpt>
      <trkpt lat="47.24327" lon="-1.44405">
        <ele>47</ele>
        <time>2021-03-06T13:33:49.000Z</time>
      </trkpt>
      <trkpt lat="47.24328" lon="-1.4439">
        <ele>48</ele>
        <time>2021-03-06T13:33:51.000Z</time>
      </trkpt>
      <trkpt lat="47.24329" lon="-1.44374">
        <ele>48</ele>
        <time>2021-03-06T13:33:53.000Z</time>
      </trkpt>
      <trkpt lat="47.24332" lon="-1.44349">
        <ele>48</ele>
        <time>2021-03-06T13:33:56.000Z</time>
      </trkpt>
      <trkpt lat="47.24332" lon="-1.44334">
        <ele>49</ele>
        <time>2021-03-06T13:33:58.000Z</time>
      </trkpt>
      <trkpt lat="47.24334" lon="-1.44319">
        <ele>49</ele>
        <time>2021-03-06T13:34:00.000Z</time>
      </trkpt>
      <trkpt lat="47.24337" lon="-1.44304">
        <ele>48</ele>
        <time>2021-03-06T13:34:02.000Z</time>
      </trkpt>
      <trkpt lat="47.24342" lon="-1.4429">
        <ele>49</ele>
        <time>2021-03-06T13:34:04.000Z</time>
      </trkpt>
      <trkpt lat="47.24343" lon="-1.44265">
        <ele>50</ele>
        <time>2021-03-06T13:34:07.000Z</time>
      </trkpt>
      <trkpt lat="47.24339" lon="-1.44244">
        <ele>50</ele>
        <time>2021-03-06T13:34:10.000Z</time>
      </trkpt>
      <trkpt lat="47.24341" lon="-1.44221">
        <ele>52</ele>
        <time>2021-03-06T13:34:13.000Z</time>
      </trkpt>
      <trkpt lat="47.24344" lon="-1.44206">
        <ele>52</ele>
        <time>2021-03-06T13:34:15.000Z</time>
      </trkpt>
      <trkpt lat="47.24347" lon="-1.44192">
        <ele>52</ele>
        <time>2021-03-06T13:34:17.000Z</time>
      </trkpt>
      <trkpt lat="47.2435" lon="-1.44177">
        <ele>52</ele>
        <time>2021-03-06T13:34:19.000Z</time>
      </trkpt>
      <trkpt lat="47.24355" lon="-1.44162">
        <ele>53</ele>
        <time>2021-03-06T13:34:21.000Z</time>
      </trkpt>
      <trkpt lat="47.2436" lon="-1.44149">
        <ele>52</ele>
        <time>2021-03-06T13:34:23.000Z</time>
      </trkpt>
      <trkpt lat="47.24367" lon="-1.44136">
        <ele>53</ele>
        <time>2021-03-06T13:34:25.000Z</time>
      </trkpt>
      <trkpt lat="47.24373" lon="-1.44123">
        <ele>52</ele>
        <time>2021-03-06T13:34:27.000Z</time>
      </trkpt>
      <trkpt lat="47.2438" lon="-1.44111">
        <ele>52</ele>
        <time>2021-03-06T13:34:29.000Z</time>
      </trkpt>
      <trkpt lat="47.24386" lon="-1.44098">
        <ele>52</ele>
        <time>2021-03-06T13:34:31.000Z</time>
      </trkpt>
      <trkpt lat="47.24392" lon="-1.44085">
        <ele>53</ele>
        <time>2021-03-06T13:34:33.000Z</time>
      </trkpt>
      <trkpt lat="47.24399" lon="-1.44073">
        <ele>54</ele>
        <time>2021-03-06T13:34:35.000Z</time>
      </trkpt>
      <trkpt lat="47.24405" lon="-1.4406">
        <ele>54</ele>
        <time>2021-03-06T13:34:37.000Z</time>
      </trkpt>
      <trkpt lat="47.24411" lon="-1.44047">
        <ele>54</ele>
        <time>2021-03-06T13:34:39.000Z</time>
      </trkpt>
      <trkpt lat="47.24418" lon="-1.44034">
        <ele>53</ele>
        <time>2021-03-06T13:34:41.000Z</time>
      </trkpt>
      <trkpt lat="47.24424" lon="-1.4402">
        <ele>55</ele>
        <time>2021-03-06T13:34:43.000Z</time>
      </trkpt>
      <trkpt lat="47.24429" lon="-1.44008">
        <ele>54</ele>
        <time>2021-03-06T13:34:45.000Z</time>
      </trkpt>
      <trkpt lat="47.24437" lon="-1.43998">
        <ele>54</ele>
        <time>2021-03-06T13:34:47.000Z</time>
      </trkpt>
      <trkpt lat="47.24444" lon="-1.43988">
        <ele>54</ele>
        <time>2021-03-06T13:34:49.000Z</time>
      </trkpt>
      <trkpt lat="47.24451" lon="-1.43978">
        <ele>54</ele>
        <time>2021-03-06T13:34:51.000Z</time>
      </trkpt>
      <trkpt lat="47.24457" lon="-1.43959">
        <ele>55</ele>
        <time>2021-03-06T13:34:55.000Z</time>
      </trkpt>
      <trkpt lat="47.24462" lon="-1.43947">
        <ele>53</ele>
        <time>2021-03-06T13:34:59.000Z</time>
      </trkpt>
      <trkpt lat="47.24467" lon="-1.43931">
        <ele>48</ele>
        <time>2021-03-06T13:36:22.000Z</time>
      </trkpt>
      <trkpt lat="47.24472" lon="-1.43919">
        <ele>49</ele>
        <time>2021-03-06T13:36:24.000Z</time>
      </trkpt>
      <trkpt lat="47.24478" lon="-1.43907">
        <ele>50</ele>
        <time>2021-03-06T13:36:26.000Z</time>
      </trkpt>
      <trkpt lat="47.24483" lon="-1.43893">
        <ele>50</ele>
        <time>2021-03-06T13:36:28.000Z</time>
      </trkpt>
      <trkpt lat="47.24488" lon="-1.43879">
        <ele>51</ele>
        <time>2021-03-06T13:36:30.000Z</time>
      </trkpt>
      <trkpt lat="47.24493" lon="-1.43864">
        <ele>52</ele>
        <time>2021-03-06T13:36:32.000Z</time>
      </trkpt>
      <trkpt lat="47.24498" lon="-1.4385">
        <ele>52</ele>
        <time>2021-03-06T13:36:34.000Z</time>
      </trkpt>
      <trkpt lat="47.24503" lon="-1.43827">
        <ele>51</ele>
        <time>2021-03-06T13:36:37.000Z</time>
      </trkpt>
      <trkpt lat="47.24511" lon="-1.43795">
        <ele>50</ele>
        <time>2021-03-06T13:36:41.000Z</time>
      </trkpt>
      <trkpt lat="47.24517" lon="-1.43775">
        <ele>50</ele>
        <time>2021-03-06T13:36:44.000Z</time>
      </trkpt>
      <trkpt lat="47.24522" lon="-1.43762">
        <ele>51</ele>
        <time>2021-03-06T13:36:46.000Z</time>
      </trkpt>
      <trkpt lat="47.24527" lon="-1.43747">
        <ele>51</ele>
        <time>2021-03-06T13:36:48.000Z</time>
      </trkpt>
      <trkpt lat="47.24532" lon="-1.43734">
        <ele>51</ele>
        <time>2021-03-06T13:36:50.000Z</time>
      </trkpt>
      <trkpt lat="47.24541" lon="-1.43716">
        <ele>51</ele>
        <time>2021-03-06T13:36:53.000Z</time>
      </trkpt>
      <trkpt lat="47.24548" lon="-1.43703">
        <ele>51</ele>
        <time>2021-03-06T13:36:55.000Z</time>
      </trkpt>
      <trkpt lat="47.24562" lon="-1.43691">
        <ele>52</ele>
        <time>2021-03-06T13:36:58.000Z</time>
      </trkpt>
      <trkpt lat="47.24571" lon="-1.43682">
        <ele>52</ele>
        <time>2021-03-06T13:37:00.000Z</time>
      </trkpt>
      <trkpt lat="47.24579" lon="-1.43673">
        <ele>52</ele>
        <time>2021-03-06T13:37:02.000Z</time>
      </trkpt>
      <trkpt lat="47.24587" lon="-1.43663">
        <ele>52</ele>
        <time>2021-03-06T13:37:04.000Z</time>
      </trkpt>
      <trkpt lat="47.24595" lon="-1.43651">
        <ele>52</ele>
        <time>2021-03-06T13:37:06.000Z</time>
      </trkpt>
      <trkpt lat="47.24603" lon="-1.4364">
        <ele>52</ele>
        <time>2021-03-06T13:37:08.000Z</time>
      </trkpt>
      <trkpt lat="47.24612" lon="-1.43632">
        <ele>52</ele>
        <time>2021-03-06T13:37:10.000Z</time>
      </trkpt>
      <trkpt lat="47.24622" lon="-1.43624">
        <ele>52</ele>
        <time>2021-03-06T13:37:12.000Z</time>
      </trkpt>
      <trkpt lat="47.24632" lon="-1.43617">
        <ele>52</ele>
        <time>2021-03-06T13:37:14.000Z</time>
      </trkpt>
      <trkpt lat="47.24646" lon="-1.43604">
        <ele>52</ele>
        <time>2021-03-06T13:37:17.000Z</time>
      </trkpt>
      <trkpt lat="47.24654" lon="-1.43594">
        <ele>52</ele>
        <time>2021-03-06T13:37:19.000Z</time>
      </trkpt>
      <trkpt lat="47.24667" lon="-1.43581">
        <ele>51</ele>
        <time>2021-03-06T13:37:22.000Z</time>
      </trkpt>
      <trkpt lat="47.24681" lon="-1.43569">
        <ele>52</ele>
        <time>2021-03-06T13:37:25.000Z</time>
      </trkpt>
      <trkpt lat="47.24688" lon="-1.43557">
        <ele>52</ele>
        <time>2021-03-06T13:37:27.000Z</time>
      </trkpt>
      <trkpt lat="47.24694" lon="-1.43543">
        <ele>52</ele>
        <time>2021-03-06T13:37:29.000Z</time>
      </trkpt>
      <trkpt lat="47.24698" lon="-1.43529">
        <ele>51</ele>
        <time>2021-03-06T13:37:31.000Z</time>
      </trkpt>
      <trkpt lat="47.24702" lon="-1.43514">
        <ele>51</ele>
        <time>2021-03-06T13:37:33.000Z</time>
      </trkpt>
      <trkpt lat="47.24705" lon="-1.43498">
        <ele>51</ele>
        <time>2021-03-06T13:37:35.000Z</time>
      </trkpt>
      <trkpt lat="47.24713" lon="-1.43486">
        <ele>51</ele>
        <time>2021-03-06T13:37:37.000Z</time>
      </trkpt>
      <trkpt lat="47.24718" lon="-1.43474">
        <ele>50</ele>
        <time>2021-03-06T13:37:39.000Z</time>
      </trkpt>
      <trkpt lat="47.24724" lon="-1.43461">
        <ele>50</ele>
        <time>2021-03-06T13:37:41.000Z</time>
      </trkpt>
      <trkpt lat="47.24734" lon="-1.43444">
        <ele>51</ele>
        <time>2021-03-06T13:37:44.000Z</time>
      </trkpt>
      <trkpt lat="47.24741" lon="-1.43432">
        <ele>52</ele>
        <time>2021-03-06T13:37:46.000Z</time>
      </trkpt>
      <trkpt lat="47.24748" lon="-1.43421">
        <ele>52</ele>
        <time>2021-03-06T13:37:48.000Z</time>
      </trkpt>
      <trkpt lat="47.24756" lon="-1.4341">
        <ele>52</ele>
        <time>2021-03-06T13:37:50.000Z</time>
      </trkpt>
      <trkpt lat="47.24764" lon="-1.434">
        <ele>52</ele>
        <time>2021-03-06T13:37:52.000Z</time>
      </trkpt>
      <trkpt lat="47.24773" lon="-1.4339">
        <ele>50</ele>
        <time>2021-03-06T13:37:54.000Z</time>
      </trkpt>
      <trkpt lat="47.24781" lon="-1.43381">
        <ele>51</ele>
        <time>2021-03-06T13:37:56.000Z</time>
      </trkpt>
      <trkpt lat="47.24788" lon="-1.43371">
        <ele>52</ele>
        <time>2021-03-06T13:37:58.000Z</time>
      </trkpt>
      <trkpt lat="47.24801" lon="-1.4336">
        <ele>54</ele>
        <time>2021-03-06T13:38:01.000Z</time>
      </trkpt>
      <trkpt lat="47.24811" lon="-1.43354">
        <ele>54</ele>
        <time>2021-03-06T13:38:03.000Z</time>
      </trkpt>
      <trkpt lat="47.2482" lon="-1.43347">
        <ele>54</ele>
        <time>2021-03-06T13:38:05.000Z</time>
      </trkpt>
      <trkpt lat="47.24829" lon="-1.43341">
        <ele>54</ele>
        <time>2021-03-06T13:38:07.000Z</time>
      </trkpt>
      <trkpt lat="47.24838" lon="-1.43334">
        <ele>54</ele>
        <time>2021-03-06T13:38:09.000Z</time>
      </trkpt>
      <trkpt lat="47.24847" lon="-1.43328">
        <ele>55</ele>
        <time>2021-03-06T13:38:11.000Z</time>
      </trkpt>
      <trkpt lat="47.24856" lon="-1.43321">
        <ele>54</ele>
        <time>2021-03-06T13:38:13.000Z</time>
      </trkpt>
      <trkpt lat="47.24865" lon="-1.43313">
        <ele>53</ele>
        <time>2021-03-06T13:38:15.000Z</time>
      </trkpt>
      <trkpt lat="47.2488" lon="-1.43305">
        <ele>54</ele>
        <time>2021-03-06T13:38:18.000Z</time>
      </trkpt>
      <trkpt lat="47.24896" lon="-1.43296">
        <ele>54</ele>
        <time>2021-03-06T13:38:21.000Z</time>
      </trkpt>
      <trkpt lat="47.24911" lon="-1.43285">
        <ele>50</ele>
        <time>2021-03-06T13:38:24.000Z</time>
      </trkpt>
      <trkpt lat="47.24929" lon="-1.43274">
        <ele>50</ele>
        <time>2021-03-06T13:38:27.000Z</time>
      </trkpt>
      <trkpt lat="47.24947" lon="-1.43263">
        <ele>50</ele>
        <time>2021-03-06T13:38:30.000Z</time>
      </trkpt>
      <trkpt lat="47.24959" lon="-1.43255">
        <ele>49</ele>
        <time>2021-03-06T13:38:32.000Z</time>
      </trkpt>
      <trkpt lat="47.24969" lon="-1.43248">
        <ele>50</ele>
        <time>2021-03-06T13:38:34.000Z</time>
      </trkpt>
      <trkpt lat="47.24981" lon="-1.43243">
        <ele>51</ele>
        <time>2021-03-06T13:38:36.000Z</time>
      </trkpt>
      <trkpt lat="47.24991" lon="-1.43237">
        <ele>51</ele>
        <time>2021-03-06T13:38:38.000Z</time>
      </trkpt>
      <trkpt lat="47.25006" lon="-1.43226">
        <ele>51</ele>
        <time>2021-03-06T13:38:41.000Z</time>
      </trkpt>
      <trkpt lat="47.25015" lon="-1.43218">
        <ele>51</ele>
        <time>2021-03-06T13:38:43.000Z</time>
      </trkpt>
      <trkpt lat="47.25025" lon="-1.4321">
        <ele>51</ele>
        <time>2021-03-06T13:38:45.000Z</time>
      </trkpt>
      <trkpt lat="47.25035" lon="-1.43202">
        <ele>52</ele>
        <time>2021-03-06T13:38:47.000Z</time>
      </trkpt>
      <trkpt lat="47.25044" lon="-1.43194">
        <ele>52</ele>
        <time>2021-03-06T13:38:49.000Z</time>
      </trkpt>
      <trkpt lat="47.25053" lon="-1.43185">
        <ele>52</ele>
        <time>2021-03-06T13:38:51.000Z</time>
      </trkpt>
      <trkpt lat="47.25066" lon="-1.43171">
        <ele>52</ele>
        <time>2021-03-06T13:38:54.000Z</time>
      </trkpt>
      <trkpt lat="47.25074" lon="-1.43162">
        <ele>53</ele>
        <time>2021-03-06T13:38:56.000Z</time>
      </trkpt>
      <trkpt lat="47.25083" lon="-1.4315">
        <ele>53</ele>
        <time>2021-03-06T13:38:58.000Z</time>
      </trkpt>
      <trkpt lat="47.2509" lon="-1.43137">
        <ele>51</ele>
        <time>2021-03-06T13:39:00.000Z</time>
      </trkpt>
      <trkpt lat="47.25102" lon="-1.43121">
        <ele>52</ele>
        <time>2021-03-06T13:39:03.000Z</time>
      </trkpt>
      <trkpt lat="47.25115" lon="-1.43104">
        <ele>51</ele>
        <time>2021-03-06T13:39:06.000Z</time>
      </trkpt>
      <trkpt lat="47.25128" lon="-1.4309">
        <ele>52</ele>
        <time>2021-03-06T13:39:09.000Z</time>
      </trkpt>
      <trkpt lat="47.25136" lon="-1.43079">
        <ele>53</ele>
        <time>2021-03-06T13:39:11.000Z</time>
      </trkpt>
      <trkpt lat="47.25146" lon="-1.43067">
        <ele>52</ele>
        <time>2021-03-06T13:39:13.000Z</time>
      </trkpt>
      <trkpt lat="47.25154" lon="-1.43057">
        <ele>51</ele>
        <time>2021-03-06T13:39:15.000Z</time>
      </trkpt>
      <trkpt lat="47.25164" lon="-1.43047">
        <ele>50</ele>
        <time>2021-03-06T13:39:17.000Z</time>
      </trkpt>
      <trkpt lat="47.25175" lon="-1.43036">
        <ele>51</ele>
        <time>2021-03-06T13:39:19.000Z</time>
      </trkpt>
      <trkpt lat="47.25185" lon="-1.43024">
        <ele>51</ele>
        <time>2021-03-06T13:39:21.000Z</time>
      </trkpt>
      <trkpt lat="47.25195" lon="-1.43012">
        <ele>52</ele>
        <time>2021-03-06T13:39:23.000Z</time>
      </trkpt>
      <trkpt lat="47.25205" lon="-1.43">
        <ele>52</ele>
        <time>2021-03-06T13:39:25.000Z</time>
      </trkpt>
      <trkpt lat="47.25216" lon="-1.4299">
        <ele>52</ele>
        <time>2021-03-06T13:39:27.000Z</time>
      </trkpt>
      <trkpt lat="47.25227" lon="-1.42981">
        <ele>52</ele>
        <time>2021-03-06T13:39:29.000Z</time>
      </trkpt>
      <trkpt lat="47.25238" lon="-1.42973">
        <ele>51</ele>
        <time>2021-03-06T13:39:31.000Z</time>
      </trkpt>
      <trkpt lat="47.2525" lon="-1.42967">
        <ele>51</ele>
        <time>2021-03-06T13:39:33.000Z</time>
      </trkpt>
      <trkpt lat="47.2526" lon="-1.4296">
        <ele>50</ele>
        <time>2021-03-06T13:39:35.000Z</time>
      </trkpt>
      <trkpt lat="47.25271" lon="-1.42954">
        <ele>50</ele>
        <time>2021-03-06T13:39:37.000Z</time>
      </trkpt>
      <trkpt lat="47.25282" lon="-1.42947">
        <ele>50</ele>
        <time>2021-03-06T13:39:39.000Z</time>
      </trkpt>
      <trkpt lat="47.25295" lon="-1.42939">
        <ele>50</ele>
        <time>2021-03-06T13:39:41.000Z</time>
      </trkpt>
      <trkpt lat="47.25306" lon="-1.42934">
        <ele>52</ele>
        <time>2021-03-06T13:39:43.000Z</time>
      </trkpt>
      <trkpt lat="47.25318" lon="-1.42927">
        <ele>51</ele>
        <time>2021-03-06T13:39:45.000Z</time>
      </trkpt>
      <trkpt lat="47.25328" lon="-1.42921">
        <ele>52</ele>
        <time>2021-03-06T13:39:47.000Z</time>
      </trkpt>
      <trkpt lat="47.25339" lon="-1.42916">
        <ele>52</ele>
        <time>2021-03-06T13:39:49.000Z</time>
      </trkpt>
      <trkpt lat="47.2535" lon="-1.4291">
        <ele>52</ele>
        <time>2021-03-06T13:39:51.000Z</time>
      </trkpt>
      <trkpt lat="47.2536" lon="-1.42904">
        <ele>52</ele>
        <time>2021-03-06T13:39:53.000Z</time>
      </trkpt>
      <trkpt lat="47.25372" lon="-1.42898">
        <ele>50</ele>
        <time>2021-03-06T13:39:55.000Z</time>
      </trkpt>
      <trkpt lat="47.25389" lon="-1.42887">
        <ele>51</ele>
        <time>2021-03-06T13:39:58.000Z</time>
      </trkpt>
      <trkpt lat="47.25399" lon="-1.42879">
        <ele>52</ele>
        <time>2021-03-06T13:40:00.000Z</time>
      </trkpt>
      <trkpt lat="47.25409" lon="-1.42874">
        <ele>51</ele>
        <time>2021-03-06T13:40:02.000Z</time>
      </trkpt>
      <trkpt lat="47.25419" lon="-1.42866">
        <ele>52</ele>
        <time>2021-03-06T13:40:04.000Z</time>
      </trkpt>
      <trkpt lat="47.25428" lon="-1.42859">
        <ele>51</ele>
        <time>2021-03-06T13:40:06.000Z</time>
      </trkpt>
      <trkpt lat="47.25438" lon="-1.42851">
        <ele>52</ele>
        <time>2021-03-06T13:40:08.000Z</time>
      </trkpt>
      <trkpt lat="47.25453" lon="-1.42841">
        <ele>53</ele>
        <time>2021-03-06T13:40:11.000Z</time>
      </trkpt>
      <trkpt lat="47.25463" lon="-1.42833">
        <ele>52</ele>
        <time>2021-03-06T13:40:13.000Z</time>
      </trkpt>
      <trkpt lat="47.25473" lon="-1.42825">
        <ele>52</ele>
        <time>2021-03-06T13:40:15.000Z</time>
      </trkpt>
      <trkpt lat="47.25483" lon="-1.42817">
        <ele>52</ele>
        <time>2021-03-06T13:40:17.000Z</time>
      </trkpt>
      <trkpt lat="47.25494" lon="-1.42809">
        <ele>52</ele>
        <time>2021-03-06T13:40:19.000Z</time>
      </trkpt>
      <trkpt lat="47.25504" lon="-1.42802">
        <ele>52</ele>
        <time>2021-03-06T13:40:21.000Z</time>
      </trkpt>
      <trkpt lat="47.25515" lon="-1.42793">
        <ele>53</ele>
        <time>2021-03-06T13:40:23.000Z</time>
      </trkpt>
      <trkpt lat="47.25524" lon="-1.42784">
        <ele>53</ele>
        <time>2021-03-06T13:40:25.000Z</time>
      </trkpt>
      <trkpt lat="47.25534" lon="-1.42776">
        <ele>53</ele>
        <time>2021-03-06T13:40:27.000Z</time>
      </trkpt>
      <trkpt lat="47.25544" lon="-1.42767">
        <ele>53</ele>
        <time>2021-03-06T13:40:29.000Z</time>
      </trkpt>
      <trkpt lat="47.25554" lon="-1.42759">
        <ele>53</ele>
        <time>2021-03-06T13:40:31.000Z</time>
      </trkpt>
      <trkpt lat="47.25564" lon="-1.42752">
        <ele>53</ele>
        <time>2021-03-06T13:40:33.000Z</time>
      </trkpt>
      <trkpt lat="47.25574" lon="-1.42742">
        <ele>52</ele>
        <time>2021-03-06T13:40:35.000Z</time>
      </trkpt>
      <trkpt lat="47.25585" lon="-1.42732">
        <ele>51</ele>
        <time>2021-03-06T13:40:37.000Z</time>
      </trkpt>
      <trkpt lat="47.25595" lon="-1.42725">
        <ele>52</ele>
        <time>2021-03-06T13:40:39.000Z</time>
      </trkpt>
      <trkpt lat="47.25604" lon="-1.42718">
        <ele>52</ele>
        <time>2021-03-06T13:40:41.000Z</time>
      </trkpt>
      <trkpt lat="47.25613" lon="-1.42711">
        <ele>52</ele>
        <time>2021-03-06T13:40:43.000Z</time>
      </trkpt>
      <trkpt lat="47.25628" lon="-1.427">
        <ele>53</ele>
        <time>2021-03-06T13:40:46.000Z</time>
      </trkpt>
      <trkpt lat="47.25638" lon="-1.42691">
        <ele>52</ele>
        <time>2021-03-06T13:40:48.000Z</time>
      </trkpt>
      <trkpt lat="47.25648" lon="-1.42684">
        <ele>52</ele>
        <time>2021-03-06T13:40:50.000Z</time>
      </trkpt>
      <trkpt lat="47.25657" lon="-1.42676">
        <ele>52</ele>
        <time>2021-03-06T13:40:52.000Z</time>
      </trkpt>
      <trkpt lat="47.25667" lon="-1.42666">
        <ele>53</ele>
        <time>2021-03-06T13:40:54.000Z</time>
      </trkpt>
      <trkpt lat="47.25675" lon="-1.42658">
        <ele>53</ele>
        <time>2021-03-06T13:40:56.000Z</time>
      </trkpt>
      <trkpt lat="47.25683" lon="-1.4265">
        <ele>53</ele>
        <time>2021-03-06T13:40:58.000Z</time>
      </trkpt>
      <trkpt lat="47.25692" lon="-1.42643">
        <ele>53</ele>
        <time>2021-03-06T13:41:00.000Z</time>
      </trkpt>
      <trkpt lat="47.25704" lon="-1.42642">
        <ele>53</ele>
        <time>2021-03-06T13:41:02.000Z</time>
      </trkpt>
      <trkpt lat="47.25717" lon="-1.42643">
        <ele>53</ele>
        <time>2021-03-06T13:41:04.000Z</time>
      </trkpt>
      <trkpt lat="47.2573" lon="-1.42644">
        <ele>52</ele>
        <time>2021-03-06T13:41:06.000Z</time>
      </trkpt>
      <trkpt lat="47.25744" lon="-1.42642">
        <ele>52</ele>
        <time>2021-03-06T13:41:08.000Z</time>
      </trkpt>
      <trkpt lat="47.25752" lon="-1.42631">
        <ele>52</ele>
        <time>2021-03-06T13:41:10.000Z</time>
      </trkpt>
      <trkpt lat="47.25758" lon="-1.42613">
        <ele>53</ele>
        <time>2021-03-06T13:41:12.000Z</time>
      </trkpt>
      <trkpt lat="47.25764" lon="-1.426">
        <ele>53</ele>
        <time>2021-03-06T13:41:14.000Z</time>
      </trkpt>
      <trkpt lat="47.25775" lon="-1.42578">
        <ele>52</ele>
        <time>2021-03-06T13:41:17.000Z</time>
      </trkpt>
      <trkpt lat="47.25788" lon="-1.42569">
        <ele>52</ele>
        <time>2021-03-06T13:41:19.000Z</time>
      </trkpt>
      <trkpt lat="47.25798" lon="-1.42562">
        <ele>51</ele>
        <time>2021-03-06T13:41:21.000Z</time>
      </trkpt>
      <trkpt lat="47.25809" lon="-1.42554">
        <ele>51</ele>
        <time>2021-03-06T13:41:23.000Z</time>
      </trkpt>
      <trkpt lat="47.25823" lon="-1.42542">
        <ele>52</ele>
        <time>2021-03-06T13:41:26.000Z</time>
      </trkpt>
      <trkpt lat="47.25833" lon="-1.42534">
        <ele>52</ele>
        <time>2021-03-06T13:41:28.000Z</time>
      </trkpt>
      <trkpt lat="47.25842" lon="-1.42526">
        <ele>53</ele>
        <time>2021-03-06T13:41:30.000Z</time>
      </trkpt>
      <trkpt lat="47.25851" lon="-1.42518">
        <ele>52</ele>
        <time>2021-03-06T13:41:32.000Z</time>
      </trkpt>
      <trkpt lat="47.25859" lon="-1.42509">
        <ele>52</ele>
        <time>2021-03-06T13:41:34.000Z</time>
      </trkpt>
      <trkpt lat="47.25869" lon="-1.42503">
        <ele>52</ele>
        <time>2021-03-06T13:41:36.000Z</time>
      </trkpt>
      <trkpt lat="47.2588" lon="-1.42497">
        <ele>52</ele>
        <time>2021-03-06T13:41:38.000Z</time>
      </trkpt>
      <trkpt lat="47.2589" lon="-1.42488">
        <ele>53</ele>
        <time>2021-03-06T13:41:40.000Z</time>
      </trkpt>
      <trkpt lat="47.259" lon="-1.42479">
        <ele>52</ele>
        <time>2021-03-06T13:41:42.000Z</time>
      </trkpt>
      <trkpt lat="47.25908" lon="-1.4247">
        <ele>53</ele>
        <time>2021-03-06T13:41:44.000Z</time>
      </trkpt>
      <trkpt lat="47.25917" lon="-1.42458">
        <ele>53</ele>
        <time>2021-03-06T13:41:46.000Z</time>
      </trkpt>
      <trkpt lat="47.25925" lon="-1.42446">
        <ele>53</ele>
        <time>2021-03-06T13:41:48.000Z</time>
      </trkpt>
      <trkpt lat="47.25933" lon="-1.42436">
        <ele>53</ele>
        <time>2021-03-06T13:41:50.000Z</time>
      </trkpt>
      <trkpt lat="47.25942" lon="-1.42425">
        <ele>53</ele>
        <time>2021-03-06T13:41:52.000Z</time>
      </trkpt>
      <trkpt lat="47.2595" lon="-1.42415">
        <ele>53</ele>
        <time>2021-03-06T13:41:54.000Z</time>
      </trkpt>
      <trkpt lat="47.25957" lon="-1.42404">
        <ele>53</ele>
        <time>2021-03-06T13:41:56.000Z</time>
      </trkpt>
      <trkpt lat="47.25965" lon="-1.42395">
        <ele>53</ele>
        <time>2021-03-06T13:41:58.000Z</time>
      </trkpt>
      <trkpt lat="47.25974" lon="-1.42384">
        <ele>53</ele>
        <time>2021-03-06T13:42:00.000Z</time>
      </trkpt>
      <trkpt lat="47.25983" lon="-1.42372">
        <ele>52</ele>
        <time>2021-03-06T13:42:02.000Z</time>
      </trkpt>
      <trkpt lat="47.25992" lon="-1.42362">
        <ele>51</ele>
        <time>2021-03-06T13:42:04.000Z</time>
      </trkpt>
      <trkpt lat="47.26001" lon="-1.42353">
        <ele>52</ele>
        <time>2021-03-06T13:42:06.000Z</time>
      </trkpt>
      <trkpt lat="47.26009" lon="-1.42344">
        <ele>53</ele>
        <time>2021-03-06T13:42:08.000Z</time>
      </trkpt>
      <trkpt lat="47.26017" lon="-1.42333">
        <ele>53</ele>
        <time>2021-03-06T13:42:10.000Z</time>
      </trkpt>
      <trkpt lat="47.26026" lon="-1.42322">
        <ele>51</ele>
        <time>2021-03-06T13:42:12.000Z</time>
      </trkpt>
      <trkpt lat="47.26034" lon="-1.42309">
        <ele>52</ele>
        <time>2021-03-06T13:42:14.000Z</time>
      </trkpt>
      <trkpt lat="47.26042" lon="-1.42297">
        <ele>52</ele>
        <time>2021-03-06T13:42:16.000Z</time>
      </trkpt>
      <trkpt lat="47.26051" lon="-1.42285">
        <ele>53</ele>
        <time>2021-03-06T13:42:18.000Z</time>
      </trkpt>
      <trkpt lat="47.2606" lon="-1.42274">
        <ele>53</ele>
        <time>2021-03-06T13:42:20.000Z</time>
      </trkpt>
      <trkpt lat="47.26068" lon="-1.42263">
        <ele>53</ele>
        <time>2021-03-06T13:42:22.000Z</time>
      </trkpt>
      <trkpt lat="47.26076" lon="-1.42252">
        <ele>53</ele>
        <time>2021-03-06T13:42:24.000Z</time>
      </trkpt>
      <trkpt lat="47.26085" lon="-1.42241">
        <ele>53</ele>
        <time>2021-03-06T13:42:26.000Z</time>
      </trkpt>
      <trkpt lat="47.26093" lon="-1.42228">
        <ele>50</ele>
        <time>2021-03-06T13:42:28.000Z</time>
      </trkpt>
      <trkpt lat="47.26106" lon="-1.42213">
        <ele>51</ele>
        <time>2021-03-06T13:42:31.000Z</time>
      </trkpt>
      <trkpt lat="47.26114" lon="-1.42202">
        <ele>52</ele>
        <time>2021-03-06T13:42:33.000Z</time>
      </trkpt>
      <trkpt lat="47.2613" lon="-1.4218">
        <ele>51</ele>
        <time>2021-03-06T13:42:36.000Z</time>
      </trkpt>
      <trkpt lat="47.26139" lon="-1.4217">
        <ele>51</ele>
        <time>2021-03-06T13:42:38.000Z</time>
      </trkpt>
      <trkpt lat="47.26148" lon="-1.42155">
        <ele>53</ele>
        <time>2021-03-06T13:42:41.000Z</time>
      </trkpt>
      <trkpt lat="47.26153" lon="-1.42143">
        <ele>54</ele>
        <time>2021-03-06T13:42:43.000Z</time>
      </trkpt>
      <trkpt lat="47.26159" lon="-1.42132">
        <ele>55</ele>
        <time>2021-03-06T13:42:45.000Z</time>
      </trkpt>
      <trkpt lat="47.2617" lon="-1.42114">
        <ele>55</ele>
        <time>2021-03-06T13:42:48.000Z</time>
      </trkpt>
      <trkpt lat="47.26176" lon="-1.42102">
        <ele>54</ele>
        <time>2021-03-06T13:42:50.000Z</time>
      </trkpt>
      <trkpt lat="47.26183" lon="-1.42089">
        <ele>54</ele>
        <time>2021-03-06T13:42:52.000Z</time>
      </trkpt>
      <trkpt lat="47.26191" lon="-1.42076">
        <ele>54</ele>
        <time>2021-03-06T13:42:54.000Z</time>
      </trkpt>
      <trkpt lat="47.262" lon="-1.42069">
        <ele>54</ele>
        <time>2021-03-06T13:42:56.000Z</time>
      </trkpt>
      <trkpt lat="47.26209" lon="-1.42059">
        <ele>55</ele>
        <time>2021-03-06T13:42:58.000Z</time>
      </trkpt>
      <trkpt lat="47.26216" lon="-1.42045">
        <ele>55</ele>
        <time>2021-03-06T13:43:00.000Z</time>
      </trkpt>
      <trkpt lat="47.26223" lon="-1.4203">
        <ele>54</ele>
        <time>2021-03-06T13:43:02.000Z</time>
      </trkpt>
      <trkpt lat="47.2623" lon="-1.42016">
        <ele>55</ele>
        <time>2021-03-06T13:43:04.000Z</time>
      </trkpt>
      <trkpt lat="47.26236" lon="-1.42002">
        <ele>55</ele>
        <time>2021-03-06T13:43:06.000Z</time>
      </trkpt>
      <trkpt lat="47.26242" lon="-1.41988">
        <ele>54</ele>
        <time>2021-03-06T13:43:08.000Z</time>
      </trkpt>
      <trkpt lat="47.26249" lon="-1.41976">
        <ele>53</ele>
        <time>2021-03-06T13:43:10.000Z</time>
      </trkpt>
      <trkpt lat="47.26258" lon="-1.41964">
        <ele>53</ele>
        <time>2021-03-06T13:43:12.000Z</time>
      </trkpt>
      <trkpt lat="47.26265" lon="-1.41952">
        <ele>53</ele>
        <time>2021-03-06T13:43:14.000Z</time>
      </trkpt>
      <trkpt lat="47.26276" lon="-1.41935">
        <ele>52</ele>
        <time>2021-03-06T13:43:17.000Z</time>
      </trkpt>
      <trkpt lat="47.26286" lon="-1.41916">
        <ele>53</ele>
        <time>2021-03-06T13:43:20.000Z</time>
      </trkpt>
      <trkpt lat="47.26294" lon="-1.41903">
        <ele>54</ele>
        <time>2021-03-06T13:43:22.000Z</time>
      </trkpt>
      <trkpt lat="47.26302" lon="-1.4189">
        <ele>54</ele>
        <time>2021-03-06T13:43:24.000Z</time>
      </trkpt>
      <trkpt lat="47.26309" lon="-1.41877">
        <ele>54</ele>
        <time>2021-03-06T13:43:26.000Z</time>
      </trkpt>
      <trkpt lat="47.26316" lon="-1.41865">
        <ele>54</ele>
        <time>2021-03-06T13:43:28.000Z</time>
      </trkpt>
      <trkpt lat="47.26323" lon="-1.41851">
        <ele>54</ele>
        <time>2021-03-06T13:43:30.000Z</time>
      </trkpt>
      <trkpt lat="47.2633" lon="-1.41839">
        <ele>54</ele>
        <time>2021-03-06T13:43:32.000Z</time>
      </trkpt>
      <trkpt lat="47.26338" lon="-1.41826">
        <ele>54</ele>
        <time>2021-03-06T13:43:34.000Z</time>
      </trkpt>
      <trkpt lat="47.26346" lon="-1.41814">
        <ele>54</ele>
        <time>2021-03-06T13:43:36.000Z</time>
      </trkpt>
      <trkpt lat="47.26352" lon="-1.41801">
        <ele>56</ele>
        <time>2021-03-06T13:43:38.000Z</time>
      </trkpt>
      <trkpt lat="47.26359" lon="-1.41788">
        <ele>56</ele>
        <time>2021-03-06T13:43:40.000Z</time>
      </trkpt>
      <trkpt lat="47.26371" lon="-1.4177">
        <ele>55</ele>
        <time>2021-03-06T13:43:43.000Z</time>
      </trkpt>
      <trkpt lat="47.26377" lon="-1.41756">
        <ele>55</ele>
        <time>2021-03-06T13:43:45.000Z</time>
      </trkpt>
      <trkpt lat="47.26388" lon="-1.41736">
        <ele>54</ele>
        <time>2021-03-06T13:43:48.000Z</time>
      </trkpt>
      <trkpt lat="47.26395" lon="-1.41723">
        <ele>53</ele>
        <time>2021-03-06T13:43:50.000Z</time>
      </trkpt>
      <trkpt lat="47.26401" lon="-1.41713">
        <ele>53</ele>
        <time>2021-03-06T13:43:52.000Z</time>
      </trkpt>
      <trkpt lat="47.26409" lon="-1.41701">
        <ele>54</ele>
        <time>2021-03-06T13:43:54.000Z</time>
      </trkpt>
      <trkpt lat="47.26416" lon="-1.4169">
        <ele>54</ele>
        <time>2021-03-06T13:43:56.000Z</time>
      </trkpt>
      <trkpt lat="47.26424" lon="-1.41678">
        <ele>55</ele>
        <time>2021-03-06T13:43:58.000Z</time>
      </trkpt>
      <trkpt lat="47.26432" lon="-1.41665">
        <ele>54</ele>
        <time>2021-03-06T13:44:00.000Z</time>
      </trkpt>
      <trkpt lat="47.26439" lon="-1.41653">
        <ele>54</ele>
        <time>2021-03-06T13:44:02.000Z</time>
      </trkpt>
      <trkpt lat="47.26445" lon="-1.41641">
        <ele>54</ele>
        <time>2021-03-06T13:44:04.000Z</time>
      </trkpt>
      <trkpt lat="47.26453" lon="-1.41628">
        <ele>54</ele>
        <time>2021-03-06T13:44:06.000Z</time>
      </trkpt>
      <trkpt lat="47.2646" lon="-1.41616">
        <ele>54</ele>
        <time>2021-03-06T13:44:08.000Z</time>
      </trkpt>
      <trkpt lat="47.26467" lon="-1.41605">
        <ele>53</ele>
        <time>2021-03-06T13:44:10.000Z</time>
      </trkpt>
      <trkpt lat="47.26475" lon="-1.41593">
        <ele>54</ele>
        <time>2021-03-06T13:44:12.000Z</time>
      </trkpt>
      <trkpt lat="47.26482" lon="-1.4158">
        <ele>54</ele>
        <time>2021-03-06T13:44:14.000Z</time>
      </trkpt>
      <trkpt lat="47.26489" lon="-1.41568">
        <ele>54</ele>
        <time>2021-03-06T13:44:16.000Z</time>
      </trkpt>
      <trkpt lat="47.26496" lon="-1.41556">
        <ele>54</ele>
        <time>2021-03-06T13:44:18.000Z</time>
      </trkpt>
      <trkpt lat="47.26507" lon="-1.41539">
        <ele>54</ele>
        <time>2021-03-06T13:44:21.000Z</time>
      </trkpt>
      <trkpt lat="47.26514" lon="-1.41526">
        <ele>54</ele>
        <time>2021-03-06T13:44:23.000Z</time>
      </trkpt>
      <trkpt lat="47.26521" lon="-1.41513">
        <ele>54</ele>
        <time>2021-03-06T13:44:25.000Z</time>
      </trkpt>
      <trkpt lat="47.26527" lon="-1.41501">
        <ele>54</ele>
        <time>2021-03-06T13:44:27.000Z</time>
      </trkpt>
      <trkpt lat="47.26535" lon="-1.41489">
        <ele>53</ele>
        <time>2021-03-06T13:44:29.000Z</time>
      </trkpt>
      <trkpt lat="47.26543" lon="-1.41478">
        <ele>52</ele>
        <time>2021-03-06T13:44:31.000Z</time>
      </trkpt>
      <trkpt lat="47.26551" lon="-1.41467">
        <ele>53</ele>
        <time>2021-03-06T13:44:33.000Z</time>
      </trkpt>
      <trkpt lat="47.26558" lon="-1.41455">
        <ele>53</ele>
        <time>2021-03-06T13:44:35.000Z</time>
      </trkpt>
      <trkpt lat="47.26568" lon="-1.41436">
        <ele>54</ele>
        <time>2021-03-06T13:44:38.000Z</time>
      </trkpt>
      <trkpt lat="47.26572" lon="-1.41422">
        <ele>54</ele>
        <time>2021-03-06T13:44:40.000Z</time>
      </trkpt>
      <trkpt lat="47.26579" lon="-1.41407">
        <ele>52</ele>
        <time>2021-03-06T13:44:42.000Z</time>
      </trkpt>
      <trkpt lat="47.26585" lon="-1.41394">
        <ele>51</ele>
        <time>2021-03-06T13:44:44.000Z</time>
      </trkpt>
      <trkpt lat="47.2659" lon="-1.4138">
        <ele>52</ele>
        <time>2021-03-06T13:44:46.000Z</time>
      </trkpt>
      <trkpt lat="47.26595" lon="-1.41365">
        <ele>52</ele>
        <time>2021-03-06T13:44:48.000Z</time>
      </trkpt>
      <trkpt lat="47.26601" lon="-1.41351">
        <ele>51</ele>
        <time>2021-03-06T13:44:50.000Z</time>
      </trkpt>
      <trkpt lat="47.26607" lon="-1.41339">
        <ele>52</ele>
        <time>2021-03-06T13:44:52.000Z</time>
      </trkpt>
      <trkpt lat="47.26614" lon="-1.41328">
        <ele>52</ele>
        <time>2021-03-06T13:44:54.000Z</time>
      </trkpt>
      <trkpt lat="47.2662" lon="-1.41315">
        <ele>52</ele>
        <time>2021-03-06T13:44:56.000Z</time>
      </trkpt>
      <trkpt lat="47.26627" lon="-1.41303">
        <ele>52</ele>
        <time>2021-03-06T13:44:58.000Z</time>
      </trkpt>
      <trkpt lat="47.26639" lon="-1.41287">
        <ele>52</ele>
        <time>2021-03-06T13:45:01.000Z</time>
      </trkpt>
      <trkpt lat="47.26646" lon="-1.41276">
        <ele>51</ele>
        <time>2021-03-06T13:45:03.000Z</time>
      </trkpt>
      <trkpt lat="47.26653" lon="-1.41264">
        <ele>52</ele>
        <time>2021-03-06T13:45:05.000Z</time>
      </trkpt>
      <trkpt lat="47.2666" lon="-1.41253">
        <ele>52</ele>
        <time>2021-03-06T13:45:07.000Z</time>
      </trkpt>
      <trkpt lat="47.26667" lon="-1.41241">
        <ele>52</ele>
        <time>2021-03-06T13:45:09.000Z</time>
      </trkpt>
      <trkpt lat="47.26674" lon="-1.41229">
        <ele>52</ele>
        <time>2021-03-06T13:45:11.000Z</time>
      </trkpt>
      <trkpt lat="47.26682" lon="-1.41219">
        <ele>52</ele>
        <time>2021-03-06T13:45:13.000Z</time>
      </trkpt>
      <trkpt lat="47.26692" lon="-1.41203">
        <ele>51</ele>
        <time>2021-03-06T13:45:16.000Z</time>
      </trkpt>
      <trkpt lat="47.26702" lon="-1.41194">
        <ele>51</ele>
        <time>2021-03-06T13:45:18.000Z</time>
      </trkpt>
      <trkpt lat="47.26711" lon="-1.41185">
        <ele>52</ele>
        <time>2021-03-06T13:45:20.000Z</time>
      </trkpt>
      <trkpt lat="47.2672" lon="-1.41176">
        <ele>53</ele>
        <time>2021-03-06T13:45:22.000Z</time>
      </trkpt>
      <trkpt lat="47.26728" lon="-1.41166">
        <ele>52</ele>
        <time>2021-03-06T13:45:24.000Z</time>
      </trkpt>
      <trkpt lat="47.26736" lon="-1.41157">
        <ele>51</ele>
        <time>2021-03-06T13:45:26.000Z</time>
      </trkpt>
      <trkpt lat="47.26744" lon="-1.41146">
        <ele>51</ele>
        <time>2021-03-06T13:45:28.000Z</time>
      </trkpt>
      <trkpt lat="47.26752" lon="-1.41136">
        <ele>51</ele>
        <time>2021-03-06T13:45:30.000Z</time>
      </trkpt>
      <trkpt lat="47.2676" lon="-1.41127">
        <ele>51</ele>
        <time>2021-03-06T13:45:32.000Z</time>
      </trkpt>
      <trkpt lat="47.26767" lon="-1.41116">
        <ele>51</ele>
        <time>2021-03-06T13:45:34.000Z</time>
      </trkpt>
      <trkpt lat="47.26771" lon="-1.41104">
        <ele>51</ele>
        <time>2021-03-06T13:45:36.000Z</time>
      </trkpt>
      <trkpt lat="47.26776" lon="-1.41091">
        <ele>51</ele>
        <time>2021-03-06T13:45:38.000Z</time>
      </trkpt>
      <trkpt lat="47.2678" lon="-1.41075">
        <ele>48</ele>
        <time>2021-03-06T13:45:40.000Z</time>
      </trkpt>
      <trkpt lat="47.26784" lon="-1.41063">
        <ele>49</ele>
        <time>2021-03-06T13:45:42.000Z</time>
      </trkpt>
      <trkpt lat="47.26788" lon="-1.41051">
        <ele>50</ele>
        <time>2021-03-06T13:45:44.000Z</time>
      </trkpt>
      <trkpt lat="47.26793" lon="-1.41037">
        <ele>49</ele>
        <time>2021-03-06T13:45:46.000Z</time>
      </trkpt>
      <trkpt lat="47.26799" lon="-1.41025">
        <ele>49</ele>
        <time>2021-03-06T13:45:48.000Z</time>
      </trkpt>
      <trkpt lat="47.26805" lon="-1.41012">
        <ele>50</ele>
        <time>2021-03-06T13:45:50.000Z</time>
      </trkpt>
      <trkpt lat="47.26813" lon="-1.41003">
        <ele>51</ele>
        <time>2021-03-06T13:45:52.000Z</time>
      </trkpt>
      <trkpt lat="47.26822" lon="-1.40993">
        <ele>52</ele>
        <time>2021-03-06T13:45:54.000Z</time>
      </trkpt>
      <trkpt lat="47.26831" lon="-1.4098">
        <ele>50</ele>
        <time>2021-03-06T13:45:56.000Z</time>
      </trkpt>
      <trkpt lat="47.26836" lon="-1.40967">
        <ele>49</ele>
        <time>2021-03-06T13:45:58.000Z</time>
      </trkpt>
      <trkpt lat="47.26842" lon="-1.4095">
        <ele>51</ele>
        <time>2021-03-06T13:46:01.000Z</time>
      </trkpt>
      <trkpt lat="47.26848" lon="-1.40939">
        <ele>52</ele>
        <time>2021-03-06T13:46:03.000Z</time>
      </trkpt>
      <trkpt lat="47.26855" lon="-1.40929">
        <ele>53</ele>
        <time>2021-03-06T13:46:05.000Z</time>
      </trkpt>
      <trkpt lat="47.26863" lon="-1.40921">
        <ele>53</ele>
        <time>2021-03-06T13:46:07.000Z</time>
      </trkpt>
      <trkpt lat="47.2687" lon="-1.40909">
        <ele>52</ele>
        <time>2021-03-06T13:46:09.000Z</time>
      </trkpt>
      <trkpt lat="47.26874" lon="-1.40893">
        <ele>50</ele>
        <time>2021-03-06T13:46:11.000Z</time>
      </trkpt>
      <trkpt lat="47.26883" lon="-1.40871">
        <ele>49</ele>
        <time>2021-03-06T13:46:14.000Z</time>
      </trkpt>
      <trkpt lat="47.26891" lon="-1.40857">
        <ele>49</ele>
        <time>2021-03-06T13:46:16.000Z</time>
      </trkpt>
      <trkpt lat="47.269" lon="-1.40845">
        <ele>50</ele>
        <time>2021-03-06T13:46:18.000Z</time>
      </trkpt>
      <trkpt lat="47.26909" lon="-1.40826">
        <ele>50</ele>
        <time>2021-03-06T13:46:21.000Z</time>
      </trkpt>
      <trkpt lat="47.26917" lon="-1.40809">
        <ele>51</ele>
        <time>2021-03-06T13:46:24.000Z</time>
      </trkpt>
      <trkpt lat="47.26922" lon="-1.40796">
        <ele>51</ele>
        <time>2021-03-06T13:46:26.000Z</time>
      </trkpt>
      <trkpt lat="47.26929" lon="-1.40775">
        <ele>52</ele>
        <time>2021-03-06T13:46:29.000Z</time>
      </trkpt>
      <trkpt lat="47.26932" lon="-1.40744">
        <ele>51</ele>
        <time>2021-03-06T13:46:33.000Z</time>
      </trkpt>
      <trkpt lat="47.26932" lon="-1.40726">
        <ele>50</ele>
        <time>2021-03-06T13:46:35.000Z</time>
      </trkpt>
      <trkpt lat="47.26933" lon="-1.40709">
        <ele>51</ele>
        <time>2021-03-06T13:46:37.000Z</time>
      </trkpt>
      <trkpt lat="47.26932" lon="-1.40692">
        <ele>48</ele>
        <time>2021-03-06T13:46:39.000Z</time>
      </trkpt>
      <trkpt lat="47.26933" lon="-1.40677">
        <ele>47</ele>
        <time>2021-03-06T13:46:41.000Z</time>
      </trkpt>
      <trkpt lat="47.26936" lon="-1.40662">
        <ele>48</ele>
        <time>2021-03-06T13:46:43.000Z</time>
      </trkpt>
      <trkpt lat="47.26937" lon="-1.40647">
        <ele>50</ele>
        <time>2021-03-06T13:46:45.000Z</time>
      </trkpt>
      <trkpt lat="47.26938" lon="-1.40633">
        <ele>50</ele>
        <time>2021-03-06T13:46:47.000Z</time>
      </trkpt>
      <trkpt lat="47.2694" lon="-1.40618">
        <ele>51</ele>
        <time>2021-03-06T13:46:49.000Z</time>
      </trkpt>
      <trkpt lat="47.26943" lon="-1.40602">
        <ele>49</ele>
        <time>2021-03-06T13:46:51.000Z</time>
      </trkpt>
      <trkpt lat="47.26947" lon="-1.40587">
        <ele>50</ele>
        <time>2021-03-06T13:46:53.000Z</time>
      </trkpt>
      <trkpt lat="47.26952" lon="-1.40573">
        <ele>51</ele>
        <time>2021-03-06T13:46:55.000Z</time>
      </trkpt>
      <trkpt lat="47.26957" lon="-1.40559">
        <ele>52</ele>
        <time>2021-03-06T13:46:57.000Z</time>
      </trkpt>
      <trkpt lat="47.26963" lon="-1.40546">
        <ele>51</ele>
        <time>2021-03-06T13:46:59.000Z</time>
      </trkpt>
      <trkpt lat="47.2697" lon="-1.40533">
        <ele>51</ele>
        <time>2021-03-06T13:47:01.000Z</time>
      </trkpt>
      <trkpt lat="47.26978" lon="-1.4052">
        <ele>51</ele>
        <time>2021-03-06T13:47:03.000Z</time>
      </trkpt>
      <trkpt lat="47.26986" lon="-1.40509">
        <ele>52</ele>
        <time>2021-03-06T13:47:05.000Z</time>
      </trkpt>
      <trkpt lat="47.26991" lon="-1.40496">
        <ele>50</ele>
        <time>2021-03-06T13:47:07.000Z</time>
      </trkpt>
      <trkpt lat="47.27002" lon="-1.40479">
        <ele>51</ele>
        <time>2021-03-06T13:47:10.000Z</time>
      </trkpt>
      <trkpt lat="47.2701" lon="-1.40467">
        <ele>53</ele>
        <time>2021-03-06T13:47:12.000Z</time>
      </trkpt>
      <trkpt lat="47.27017" lon="-1.40455">
        <ele>53</ele>
        <time>2021-03-06T13:47:14.000Z</time>
      </trkpt>
      <trkpt lat="47.27026" lon="-1.40444">
        <ele>51</ele>
        <time>2021-03-06T13:47:16.000Z</time>
      </trkpt>
      <trkpt lat="47.27033" lon="-1.4043">
        <ele>52</ele>
        <time>2021-03-06T13:47:18.000Z</time>
      </trkpt>
      <trkpt lat="47.27041" lon="-1.4042">
        <ele>53</ele>
        <time>2021-03-06T13:47:20.000Z</time>
      </trkpt>
      <trkpt lat="47.27048" lon="-1.40408">
        <ele>53</ele>
        <time>2021-03-06T13:47:22.000Z</time>
      </trkpt>
      <trkpt lat="47.27055" lon="-1.40396">
        <ele>54</ele>
        <time>2021-03-06T13:47:24.000Z</time>
      </trkpt>
      <trkpt lat="47.27063" lon="-1.40383">
        <ele>53</ele>
        <time>2021-03-06T13:47:26.000Z</time>
      </trkpt>
      <trkpt lat="47.27075" lon="-1.40366">
        <ele>52</ele>
        <time>2021-03-06T13:47:29.000Z</time>
      </trkpt>
      <trkpt lat="47.27082" lon="-1.40356">
        <ele>52</ele>
        <time>2021-03-06T13:47:31.000Z</time>
      </trkpt>
      <trkpt lat="47.27088" lon="-1.40346">
        <ele>53</ele>
        <time>2021-03-06T13:47:33.000Z</time>
      </trkpt>
      <trkpt lat="47.27095" lon="-1.40333">
        <ele>54</ele>
        <time>2021-03-06T13:47:35.000Z</time>
      </trkpt>
      <trkpt lat="47.27106" lon="-1.40317">
        <ele>54</ele>
        <time>2021-03-06T13:47:38.000Z</time>
      </trkpt>
      <trkpt lat="47.27113" lon="-1.40305">
        <ele>54</ele>
        <time>2021-03-06T13:47:40.000Z</time>
      </trkpt>
      <trkpt lat="47.27125" lon="-1.40288">
        <ele>53</ele>
        <time>2021-03-06T13:47:43.000Z</time>
      </trkpt>
      <trkpt lat="47.27132" lon="-1.40277">
        <ele>53</ele>
        <time>2021-03-06T13:47:45.000Z</time>
      </trkpt>
      <trkpt lat="47.27144" lon="-1.40259">
        <ele>52</ele>
        <time>2021-03-06T13:47:48.000Z</time>
      </trkpt>
      <trkpt lat="47.2715" lon="-1.40248">
        <ele>52</ele>
        <time>2021-03-06T13:47:50.000Z</time>
      </trkpt>
      <trkpt lat="47.27157" lon="-1.40236">
        <ele>53</ele>
        <time>2021-03-06T13:47:52.000Z</time>
      </trkpt>
      <trkpt lat="47.27164" lon="-1.40224">
        <ele>54</ele>
        <time>2021-03-06T13:47:54.000Z</time>
      </trkpt>
      <trkpt lat="47.2717" lon="-1.40213">
        <ele>53</ele>
        <time>2021-03-06T13:47:56.000Z</time>
      </trkpt>
      <trkpt lat="47.2718" lon="-1.40195">
        <ele>52</ele>
        <time>2021-03-06T13:47:59.000Z</time>
      </trkpt>
      <trkpt lat="47.27194" lon="-1.40181">
        <ele>52</ele>
        <time>2021-03-06T13:48:02.000Z</time>
      </trkpt>
      <trkpt lat="47.27202" lon="-1.40169">
        <ele>53</ele>
        <time>2021-03-06T13:48:04.000Z</time>
      </trkpt>
      <trkpt lat="47.27209" lon="-1.40157">
        <ele>54</ele>
        <time>2021-03-06T13:48:06.000Z</time>
      </trkpt>
      <trkpt lat="47.27216" lon="-1.40145">
        <ele>53</ele>
        <time>2021-03-06T13:48:08.000Z</time>
      </trkpt>
      <trkpt lat="47.27223" lon="-1.40133">
        <ele>53</ele>
        <time>2021-03-06T13:48:10.000Z</time>
      </trkpt>
      <trkpt lat="47.27234" lon="-1.40116">
        <ele>53</ele>
        <time>2021-03-06T13:48:13.000Z</time>
      </trkpt>
      <trkpt lat="47.27241" lon="-1.40105">
        <ele>54</ele>
        <time>2021-03-06T13:48:15.000Z</time>
      </trkpt>
      <trkpt lat="47.27249" lon="-1.40094">
        <ele>54</ele>
        <time>2021-03-06T13:48:17.000Z</time>
      </trkpt>
      <trkpt lat="47.27255" lon="-1.40082">
        <ele>54</ele>
        <time>2021-03-06T13:48:19.000Z</time>
      </trkpt>
      <trkpt lat="47.27263" lon="-1.40071">
        <ele>54</ele>
        <time>2021-03-06T13:48:21.000Z</time>
      </trkpt>
      <trkpt lat="47.27274" lon="-1.40053">
        <ele>52</ele>
        <time>2021-03-06T13:48:24.000Z</time>
      </trkpt>
      <trkpt lat="47.27281" lon="-1.40041">
        <ele>52</ele>
        <time>2021-03-06T13:48:26.000Z</time>
      </trkpt>
      <trkpt lat="47.27288" lon="-1.40029">
        <ele>52</ele>
        <time>2021-03-06T13:48:28.000Z</time>
      </trkpt>
      <trkpt lat="47.27296" lon="-1.40017">
        <ele>51</ele>
        <time>2021-03-06T13:48:30.000Z</time>
      </trkpt>
      <trkpt lat="47.27306" lon="-1.40002">
        <ele>52</ele>
        <time>2021-03-06T13:48:33.000Z</time>
      </trkpt>
      <trkpt lat="47.27316" lon="-1.39984">
        <ele>52</ele>
        <time>2021-03-06T13:48:36.000Z</time>
      </trkpt>
      <trkpt lat="47.27329" lon="-1.39967">
        <ele>53</ele>
        <time>2021-03-06T13:48:39.000Z</time>
      </trkpt>
      <trkpt lat="47.27348" lon="-1.39942">
        <ele>53</ele>
        <time>2021-03-06T13:48:43.000Z</time>
      </trkpt>
      <trkpt lat="47.27356" lon="-1.39932">
        <ele>53</ele>
        <time>2021-03-06T13:48:45.000Z</time>
      </trkpt>
      <trkpt lat="47.27364" lon="-1.39916">
        <ele>54</ele>
        <time>2021-03-06T13:48:48.000Z</time>
      </trkpt>
      <trkpt lat="47.27374" lon="-1.39898">
        <ele>53</ele>
        <time>2021-03-06T13:48:51.000Z</time>
      </trkpt>
      <trkpt lat="47.27383" lon="-1.39888">
        <ele>52</ele>
        <time>2021-03-06T13:48:53.000Z</time>
      </trkpt>
      <trkpt lat="47.27394" lon="-1.39886">
        <ele>51</ele>
        <time>2021-03-06T13:48:55.000Z</time>
      </trkpt>
      <trkpt lat="47.27406" lon="-1.39889">
        <ele>52</ele>
        <time>2021-03-06T13:48:57.000Z</time>
      </trkpt>
      <trkpt lat="47.27421" lon="-1.39888">
        <ele>52</ele>
        <time>2021-03-06T13:49:00.000Z</time>
      </trkpt>
      <trkpt lat="47.2743" lon="-1.39873">
        <ele>52</ele>
        <time>2021-03-06T13:49:03.000Z</time>
      </trkpt>
      <trkpt lat="47.27437" lon="-1.3984">
        <ele>52</ele>
        <time>2021-03-06T13:49:07.000Z</time>
      </trkpt>
      <trkpt lat="47.27444" lon="-1.39816">
        <ele>52</ele>
        <time>2021-03-06T13:49:10.000Z</time>
      </trkpt>
      <trkpt lat="47.2745" lon="-1.39802">
        <ele>50</ele>
        <time>2021-03-06T13:49:12.000Z</time>
      </trkpt>
      <trkpt lat="47.2746" lon="-1.39776">
        <ele>50</ele>
        <time>2021-03-06T13:49:15.000Z</time>
      </trkpt>
      <trkpt lat="47.2747" lon="-1.39764">
        <ele>52</ele>
        <time>2021-03-06T13:49:17.000Z</time>
      </trkpt>
      <trkpt lat="47.27478" lon="-1.39744">
        <ele>52</ele>
        <time>2021-03-06T13:49:20.000Z</time>
      </trkpt>
      <trkpt lat="47.27484" lon="-1.3973">
        <ele>52</ele>
        <time>2021-03-06T13:49:22.000Z</time>
      </trkpt>
      <trkpt lat="47.27491" lon="-1.39716">
        <ele>51</ele>
        <time>2021-03-06T13:49:24.000Z</time>
      </trkpt>
      <trkpt lat="47.27498" lon="-1.39704">
        <ele>52</ele>
        <time>2021-03-06T13:49:26.000Z</time>
      </trkpt>
      <trkpt lat="47.2751" lon="-1.39685">
        <ele>51</ele>
        <time>2021-03-06T13:49:29.000Z</time>
      </trkpt>
      <trkpt lat="47.27518" lon="-1.39674">
        <ele>51</ele>
        <time>2021-03-06T13:49:31.000Z</time>
      </trkpt>
      <trkpt lat="47.27525" lon="-1.39661">
        <ele>51</ele>
        <time>2021-03-06T13:49:33.000Z</time>
      </trkpt>
      <trkpt lat="47.27533" lon="-1.39648">
        <ele>52</ele>
        <time>2021-03-06T13:49:35.000Z</time>
      </trkpt>
      <trkpt lat="47.2754" lon="-1.39636">
        <ele>52</ele>
        <time>2021-03-06T13:49:37.000Z</time>
      </trkpt>
      <trkpt lat="47.2755" lon="-1.39616">
        <ele>49</ele>
        <time>2021-03-06T13:49:40.000Z</time>
      </trkpt>
      <trkpt lat="47.27558" lon="-1.39605">
        <ele>50</ele>
        <time>2021-03-06T13:49:42.000Z</time>
      </trkpt>
      <trkpt lat="47.2757" lon="-1.39589">
        <ele>51</ele>
        <time>2021-03-06T13:49:45.000Z</time>
      </trkpt>
      <trkpt lat="47.27578" lon="-1.39577">
        <ele>51</ele>
        <time>2021-03-06T13:49:47.000Z</time>
      </trkpt>
      <trkpt lat="47.27585" lon="-1.39565">
        <ele>51</ele>
        <time>2021-03-06T13:49:49.000Z</time>
      </trkpt>
      <trkpt lat="47.27593" lon="-1.39554">
        <ele>52</ele>
        <time>2021-03-06T13:49:51.000Z</time>
      </trkpt>
      <trkpt lat="47.276" lon="-1.39542">
        <ele>51</ele>
        <time>2021-03-06T13:49:53.000Z</time>
      </trkpt>
      <trkpt lat="47.27612" lon="-1.39526">
        <ele>50</ele>
        <time>2021-03-06T13:49:56.000Z</time>
      </trkpt>
      <trkpt lat="47.27625" lon="-1.39515">
        <ele>50</ele>
        <time>2021-03-06T13:49:59.000Z</time>
      </trkpt>
      <trkpt lat="47.27631" lon="-1.39501">
        <ele>51</ele>
        <time>2021-03-06T13:50:01.000Z</time>
      </trkpt>
      <trkpt lat="47.27638" lon="-1.39488">
        <ele>52</ele>
        <time>2021-03-06T13:50:03.000Z</time>
      </trkpt>
      <trkpt lat="47.27643" lon="-1.39473">
        <ele>52</ele>
        <time>2021-03-06T13:50:05.000Z</time>
      </trkpt>
      <trkpt lat="47.27648" lon="-1.3946">
        <ele>51</ele>
        <time>2021-03-06T13:50:07.000Z</time>
      </trkpt>
      <trkpt lat="47.27656" lon="-1.39449">
        <ele>52</ele>
        <time>2021-03-06T13:50:09.000Z</time>
      </trkpt>
      <trkpt lat="47.27664" lon="-1.39436">
        <ele>53</ele>
        <time>2021-03-06T13:50:11.000Z</time>
      </trkpt>
      <trkpt lat="47.27674" lon="-1.39415">
        <ele>52</ele>
        <time>2021-03-06T13:50:14.000Z</time>
      </trkpt>
      <trkpt lat="47.27681" lon="-1.39403">
        <ele>52</ele>
        <time>2021-03-06T13:50:16.000Z</time>
      </trkpt>
      <trkpt lat="47.27689" lon="-1.3939">
        <ele>52</ele>
        <time>2021-03-06T13:50:18.000Z</time>
      </trkpt>
      <trkpt lat="47.27696" lon="-1.39377">
        <ele>52</ele>
        <time>2021-03-06T13:50:20.000Z</time>
      </trkpt>
      <trkpt lat="47.27705" lon="-1.39357">
        <ele>52</ele>
        <time>2021-03-06T13:50:23.000Z</time>
      </trkpt>
      <trkpt lat="47.27715" lon="-1.39337">
        <ele>53</ele>
        <time>2021-03-06T13:50:26.000Z</time>
      </trkpt>
      <trkpt lat="47.27722" lon="-1.39323">
        <ele>53</ele>
        <time>2021-03-06T13:50:28.000Z</time>
      </trkpt>
      <trkpt lat="47.27728" lon="-1.3931">
        <ele>53</ele>
        <time>2021-03-06T13:50:30.000Z</time>
      </trkpt>
      <trkpt lat="47.27734" lon="-1.39296">
        <ele>53</ele>
        <time>2021-03-06T13:50:32.000Z</time>
      </trkpt>
      <trkpt lat="47.2774" lon="-1.39283">
        <ele>53</ele>
        <time>2021-03-06T13:50:34.000Z</time>
      </trkpt>
      <trkpt lat="47.27746" lon="-1.39271">
        <ele>53</ele>
        <time>2021-03-06T13:50:36.000Z</time>
      </trkpt>
      <trkpt lat="47.27752" lon="-1.39257">
        <ele>53</ele>
        <time>2021-03-06T13:50:38.000Z</time>
      </trkpt>
      <trkpt lat="47.27758" lon="-1.39244">
        <ele>53</ele>
        <time>2021-03-06T13:50:40.000Z</time>
      </trkpt>
      <trkpt lat="47.27764" lon="-1.39232">
        <ele>53</ele>
        <time>2021-03-06T13:50:42.000Z</time>
      </trkpt>
      <trkpt lat="47.2777" lon="-1.39219">
        <ele>54</ele>
        <time>2021-03-06T13:50:44.000Z</time>
      </trkpt>
      <trkpt lat="47.27776" lon="-1.39207">
        <ele>54</ele>
        <time>2021-03-06T13:50:46.000Z</time>
      </trkpt>
      <trkpt lat="47.27782" lon="-1.39195">
        <ele>55</ele>
        <time>2021-03-06T13:50:48.000Z</time>
      </trkpt>
      <trkpt lat="47.27791" lon="-1.39178">
        <ele>52</ele>
        <time>2021-03-06T13:50:51.000Z</time>
      </trkpt>
      <trkpt lat="47.27799" lon="-1.39165">
        <ele>51</ele>
        <time>2021-03-06T13:50:53.000Z</time>
      </trkpt>
      <trkpt lat="47.27818" lon="-1.39135">
        <ele>49</ele>
        <time>2021-03-06T13:50:57.000Z</time>
      </trkpt>
      <trkpt lat="47.27827" lon="-1.3912">
        <ele>51</ele>
        <time>2021-03-06T13:50:59.000Z</time>
      </trkpt>
      <trkpt lat="47.27835" lon="-1.39106">
        <ele>51</ele>
        <time>2021-03-06T13:51:01.000Z</time>
      </trkpt>
      <trkpt lat="47.27848" lon="-1.39083">
        <ele>52</ele>
        <time>2021-03-06T13:51:04.000Z</time>
      </trkpt>
      <trkpt lat="47.27856" lon="-1.39068">
        <ele>52</ele>
        <time>2021-03-06T13:51:06.000Z</time>
      </trkpt>
      <trkpt lat="47.27864" lon="-1.39054">
        <ele>53</ele>
        <time>2021-03-06T13:51:08.000Z</time>
      </trkpt>
      <trkpt lat="47.27872" lon="-1.3904">
        <ele>53</ele>
        <time>2021-03-06T13:51:10.000Z</time>
      </trkpt>
      <trkpt lat="47.27885" lon="-1.3902">
        <ele>53</ele>
        <time>2021-03-06T13:51:13.000Z</time>
      </trkpt>
      <trkpt lat="47.27894" lon="-1.39007">
        <ele>53</ele>
        <time>2021-03-06T13:51:15.000Z</time>
      </trkpt>
      <trkpt lat="47.27903" lon="-1.38996">
        <ele>53</ele>
        <time>2021-03-06T13:51:17.000Z</time>
      </trkpt>
      <trkpt lat="47.27911" lon="-1.38984">
        <ele>52</ele>
        <time>2021-03-06T13:51:19.000Z</time>
      </trkpt>
      <trkpt lat="47.27922" lon="-1.38964">
        <ele>52</ele>
        <time>2021-03-06T13:51:22.000Z</time>
      </trkpt>
      <trkpt lat="47.2793" lon="-1.38949">
        <ele>52</ele>
        <time>2021-03-06T13:51:24.000Z</time>
      </trkpt>
      <trkpt lat="47.27938" lon="-1.38935">
        <ele>52</ele>
        <time>2021-03-06T13:51:26.000Z</time>
      </trkpt>
      <trkpt lat="47.27951" lon="-1.38912">
        <ele>48</ele>
        <time>2021-03-06T13:51:29.000Z</time>
      </trkpt>
      <trkpt lat="47.2796" lon="-1.38899">
        <ele>49</ele>
        <time>2021-03-06T13:51:31.000Z</time>
      </trkpt>
      <trkpt lat="47.27969" lon="-1.38887">
        <ele>50</ele>
        <time>2021-03-06T13:51:33.000Z</time>
      </trkpt>
      <trkpt lat="47.27978" lon="-1.38874">
        <ele>50</ele>
        <time>2021-03-06T13:51:35.000Z</time>
      </trkpt>
      <trkpt lat="47.27988" lon="-1.38862">
        <ele>49</ele>
        <time>2021-03-06T13:51:37.000Z</time>
      </trkpt>
      <trkpt lat="47.27997" lon="-1.38849">
        <ele>49</ele>
        <time>2021-03-06T13:51:39.000Z</time>
      </trkpt>
      <trkpt lat="47.28007" lon="-1.38839">
        <ele>50</ele>
        <time>2021-03-06T13:51:41.000Z</time>
      </trkpt>
      <trkpt lat="47.28016" lon="-1.3883">
        <ele>50</ele>
        <time>2021-03-06T13:51:43.000Z</time>
      </trkpt>
      <trkpt lat="47.28027" lon="-1.3882">
        <ele>50</ele>
        <time>2021-03-06T13:51:45.000Z</time>
      </trkpt>
      <trkpt lat="47.28037" lon="-1.38811">
        <ele>50</ele>
        <time>2021-03-06T13:51:47.000Z</time>
      </trkpt>
      <trkpt lat="47.28054" lon="-1.38803">
        <ele>51</ele>
        <time>2021-03-06T13:51:50.000Z</time>
      </trkpt>
      <trkpt lat="47.28065" lon="-1.38795">
        <ele>52</ele>
        <time>2021-03-06T13:51:52.000Z</time>
      </trkpt>
      <trkpt lat="47.28075" lon="-1.38785">
        <ele>51</ele>
        <time>2021-03-06T13:51:54.000Z</time>
      </trkpt>
      <trkpt lat="47.28087" lon="-1.38781">
        <ele>51</ele>
        <time>2021-03-06T13:51:56.000Z</time>
      </trkpt>
      <trkpt lat="47.281" lon="-1.38778">
        <ele>51</ele>
        <time>2021-03-06T13:51:58.000Z</time>
      </trkpt>
      <trkpt lat="47.2811" lon="-1.3877">
        <ele>52</ele>
        <time>2021-03-06T13:52:00.000Z</time>
      </trkpt>
      <trkpt lat="47.28121" lon="-1.38763">
        <ele>53</ele>
        <time>2021-03-06T13:52:02.000Z</time>
      </trkpt>
      <trkpt lat="47.2813" lon="-1.38756">
        <ele>53</ele>
        <time>2021-03-06T13:52:04.000Z</time>
      </trkpt>
      <trkpt lat="47.28139" lon="-1.38747">
        <ele>53</ele>
        <time>2021-03-06T13:52:06.000Z</time>
      </trkpt>
      <trkpt lat="47.28156" lon="-1.38731">
        <ele>50</ele>
        <time>2021-03-06T13:52:09.000Z</time>
      </trkpt>
      <trkpt lat="47.28169" lon="-1.38718">
        <ele>52</ele>
        <time>2021-03-06T13:52:12.000Z</time>
      </trkpt>
      <trkpt lat="47.28178" lon="-1.38698">
        <ele>51</ele>
        <time>2021-03-06T13:52:15.000Z</time>
      </trkpt>
      <trkpt lat="47.28182" lon="-1.38683">
        <ele>51</ele>
        <time>2021-03-06T13:52:17.000Z</time>
      </trkpt>
      <trkpt lat="47.28189" lon="-1.38657">
        <ele>52</ele>
        <time>2021-03-06T13:52:20.000Z</time>
      </trkpt>
      <trkpt lat="47.28194" lon="-1.38641">
        <ele>52</ele>
        <time>2021-03-06T13:52:22.000Z</time>
      </trkpt>
      <trkpt lat="47.28199" lon="-1.38618">
        <ele>52</ele>
        <time>2021-03-06T13:52:25.000Z</time>
      </trkpt>
      <trkpt lat="47.282" lon="-1.38601">
        <ele>52</ele>
        <time>2021-03-06T13:52:27.000Z</time>
      </trkpt>
      <trkpt lat="47.28199" lon="-1.38583">
        <ele>53</ele>
        <time>2021-03-06T13:52:29.000Z</time>
      </trkpt>
      <trkpt lat="47.282" lon="-1.38565">
        <ele>52</ele>
        <time>2021-03-06T13:52:31.000Z</time>
      </trkpt>
      <trkpt lat="47.28201" lon="-1.38538">
        <ele>52</ele>
        <time>2021-03-06T13:52:34.000Z</time>
      </trkpt>
      <trkpt lat="47.28205" lon="-1.38522">
        <ele>53</ele>
        <time>2021-03-06T13:52:36.000Z</time>
      </trkpt>
      <trkpt lat="47.28209" lon="-1.38506">
        <ele>53</ele>
        <time>2021-03-06T13:52:38.000Z</time>
      </trkpt>
      <trkpt lat="47.28214" lon="-1.38491">
        <ele>53</ele>
        <time>2021-03-06T13:52:40.000Z</time>
      </trkpt>
      <trkpt lat="47.28223" lon="-1.38471">
        <ele>52</ele>
        <time>2021-03-06T13:52:43.000Z</time>
      </trkpt>
      <trkpt lat="47.28229" lon="-1.38456">
        <ele>52</ele>
        <time>2021-03-06T13:52:45.000Z</time>
      </trkpt>
      <trkpt lat="47.28238" lon="-1.38438">
        <ele>52</ele>
        <time>2021-03-06T13:52:48.000Z</time>
      </trkpt>
      <trkpt lat="47.28248" lon="-1.38421">
        <ele>53</ele>
        <time>2021-03-06T13:52:51.000Z</time>
      </trkpt>
      <trkpt lat="47.28254" lon="-1.38407">
        <ele>53</ele>
        <time>2021-03-06T13:52:53.000Z</time>
      </trkpt>
      <trkpt lat="47.2826" lon="-1.38393">
        <ele>53</ele>
        <time>2021-03-06T13:52:55.000Z</time>
      </trkpt>
      <trkpt lat="47.28266" lon="-1.3838">
        <ele>53</ele>
        <time>2021-03-06T13:52:57.000Z</time>
      </trkpt>
      <trkpt lat="47.28272" lon="-1.38367">
        <ele>52</ele>
        <time>2021-03-06T13:52:59.000Z</time>
      </trkpt>
      <trkpt lat="47.28278" lon="-1.38353">
        <ele>53</ele>
        <time>2021-03-06T13:53:01.000Z</time>
      </trkpt>
      <trkpt lat="47.28284" lon="-1.38338">
        <ele>52</ele>
        <time>2021-03-06T13:53:03.000Z</time>
      </trkpt>
      <trkpt lat="47.2829" lon="-1.38322">
        <ele>52</ele>
        <time>2021-03-06T13:53:05.000Z</time>
      </trkpt>
      <trkpt lat="47.28297" lon="-1.3831">
        <ele>52</ele>
        <time>2021-03-06T13:53:07.000Z</time>
      </trkpt>
      <trkpt lat="47.28303" lon="-1.38299">
        <ele>52</ele>
        <time>2021-03-06T13:53:09.000Z</time>
      </trkpt>
      <trkpt lat="47.2831" lon="-1.38285">
        <ele>51</ele>
        <time>2021-03-06T13:53:11.000Z</time>
      </trkpt>
      <trkpt lat="47.2832" lon="-1.38271">
        <ele>49</ele>
        <time>2021-03-06T13:53:14.000Z</time>
      </trkpt>
      <trkpt lat="47.28329" lon="-1.38264">
        <ele>49</ele>
        <time>2021-03-06T13:53:16.000Z</time>
      </trkpt>
      <trkpt lat="47.28337" lon="-1.38253">
        <ele>50</ele>
        <time>2021-03-06T13:53:18.000Z</time>
      </trkpt>
      <trkpt lat="47.28343" lon="-1.38241">
        <ele>49</ele>
        <time>2021-03-06T13:53:20.000Z</time>
      </trkpt>
      <trkpt lat="47.28347" lon="-1.3822">
        <ele>48</ele>
        <time>2021-03-06T13:53:23.000Z</time>
      </trkpt>
      <trkpt lat="47.2835" lon="-1.38204">
        <ele>48</ele>
        <time>2021-03-06T13:53:25.000Z</time>
      </trkpt>
      <trkpt lat="47.28354" lon="-1.3819">
        <ele>49</ele>
        <time>2021-03-06T13:53:27.000Z</time>
      </trkpt>
      <trkpt lat="47.28359" lon="-1.38176">
        <ele>51</ele>
        <time>2021-03-06T13:53:29.000Z</time>
      </trkpt>
      <trkpt lat="47.28364" lon="-1.38161">
        <ele>53</ele>
        <time>2021-03-06T13:53:31.000Z</time>
      </trkpt>
      <trkpt lat="47.2837" lon="-1.38146">
        <ele>53</ele>
        <time>2021-03-06T13:53:33.000Z</time>
      </trkpt>
      <trkpt lat="47.28376" lon="-1.38133">
        <ele>53</ele>
        <time>2021-03-06T13:53:35.000Z</time>
      </trkpt>
      <trkpt lat="47.28386" lon="-1.38114">
        <ele>50</ele>
        <time>2021-03-06T13:53:38.000Z</time>
      </trkpt>
      <trkpt lat="47.284" lon="-1.38099">
        <ele>51</ele>
        <time>2021-03-06T13:53:41.000Z</time>
      </trkpt>
      <trkpt lat="47.28413" lon="-1.38083">
        <ele>50</ele>
        <time>2021-03-06T13:53:44.000Z</time>
      </trkpt>
      <trkpt lat="47.28421" lon="-1.38073">
        <ele>50</ele>
        <time>2021-03-06T13:53:46.000Z</time>
      </trkpt>
      <trkpt lat="47.28434" lon="-1.38059">
        <ele>50</ele>
        <time>2021-03-06T13:53:49.000Z</time>
      </trkpt>
      <trkpt lat="47.28443" lon="-1.38049">
        <ele>52</ele>
        <time>2021-03-06T13:53:51.000Z</time>
      </trkpt>
      <trkpt lat="47.28452" lon="-1.3804">
        <ele>52</ele>
        <time>2021-03-06T13:53:53.000Z</time>
      </trkpt>
      <trkpt lat="47.28461" lon="-1.3803">
        <ele>53</ele>
        <time>2021-03-06T13:53:55.000Z</time>
      </trkpt>
      <trkpt lat="47.28471" lon="-1.38026">
        <ele>53</ele>
        <time>2021-03-06T13:53:57.000Z</time>
      </trkpt>
      <trkpt lat="47.28482" lon="-1.38029">
        <ele>50</ele>
        <time>2021-03-06T13:53:59.000Z</time>
      </trkpt>
      <trkpt lat="47.28498" lon="-1.38023">
        <ele>48</ele>
        <time>2021-03-06T13:54:02.000Z</time>
      </trkpt>
      <trkpt lat="47.28507" lon="-1.38012">
        <ele>50</ele>
        <time>2021-03-06T13:54:04.000Z</time>
      </trkpt>
      <trkpt lat="47.2852" lon="-1.37995">
        <ele>49</ele>
        <time>2021-03-06T13:54:07.000Z</time>
      </trkpt>
      <trkpt lat="47.28527" lon="-1.37983">
        <ele>48</ele>
        <time>2021-03-06T13:54:09.000Z</time>
      </trkpt>
      <trkpt lat="47.28528" lon="-1.37959">
        <ele>52</ele>
        <time>2021-03-06T13:54:12.000Z</time>
      </trkpt>
      <trkpt lat="47.28534" lon="-1.37946">
        <ele>53</ele>
        <time>2021-03-06T13:54:14.000Z</time>
      </trkpt>
      <trkpt lat="47.28543" lon="-1.37932">
        <ele>50</ele>
        <time>2021-03-06T13:54:16.000Z</time>
      </trkpt>
      <trkpt lat="47.28553" lon="-1.3792">
        <ele>49</ele>
        <time>2021-03-06T13:54:18.000Z</time>
      </trkpt>
      <trkpt lat="47.28561" lon="-1.3791">
        <ele>49</ele>
        <time>2021-03-06T13:54:20.000Z</time>
      </trkpt>
      <trkpt lat="47.28573" lon="-1.37898">
        <ele>51</ele>
        <time>2021-03-06T13:54:23.000Z</time>
      </trkpt>
      <trkpt lat="47.28581" lon="-1.37888">
        <ele>52</ele>
        <time>2021-03-06T13:54:25.000Z</time>
      </trkpt>
      <trkpt lat="47.2859" lon="-1.37878">
        <ele>52</ele>
        <time>2021-03-06T13:54:27.000Z</time>
      </trkpt>
      <trkpt lat="47.28598" lon="-1.37868">
        <ele>51</ele>
        <time>2021-03-06T13:54:29.000Z</time>
      </trkpt>
      <trkpt lat="47.28607" lon="-1.37858">
        <ele>52</ele>
        <time>2021-03-06T13:54:31.000Z</time>
      </trkpt>
      <trkpt lat="47.28616" lon="-1.37848">
        <ele>53</ele>
        <time>2021-03-06T13:54:33.000Z</time>
      </trkpt>
      <trkpt lat="47.28629" lon="-1.37834">
        <ele>53</ele>
        <time>2021-03-06T13:54:36.000Z</time>
      </trkpt>
      <trkpt lat="47.28642" lon="-1.37818">
        <ele>54</ele>
        <time>2021-03-06T13:54:39.000Z</time>
      </trkpt>
      <trkpt lat="47.28651" lon="-1.37808">
        <ele>53</ele>
        <time>2021-03-06T13:54:41.000Z</time>
      </trkpt>
      <trkpt lat="47.28658" lon="-1.37796">
        <ele>53</ele>
        <time>2021-03-06T13:54:43.000Z</time>
      </trkpt>
      <trkpt lat="47.28668" lon="-1.37788">
        <ele>53</ele>
        <time>2021-03-06T13:54:45.000Z</time>
      </trkpt>
      <trkpt lat="47.28679" lon="-1.37773">
        <ele>50</ele>
        <time>2021-03-06T13:54:48.000Z</time>
      </trkpt>
      <trkpt lat="47.28689" lon="-1.37762">
        <ele>49</ele>
        <time>2021-03-06T13:54:50.000Z</time>
      </trkpt>
      <trkpt lat="47.28697" lon="-1.37754">
        <ele>50</ele>
        <time>2021-03-06T13:54:52.000Z</time>
      </trkpt>
      <trkpt lat="47.28706" lon="-1.37745">
        <ele>51</ele>
        <time>2021-03-06T13:54:54.000Z</time>
      </trkpt>
      <trkpt lat="47.28716" lon="-1.37736">
        <ele>51</ele>
        <time>2021-03-06T13:54:56.000Z</time>
      </trkpt>
      <trkpt lat="47.28725" lon="-1.37729">
        <ele>52</ele>
        <time>2021-03-06T13:54:58.000Z</time>
      </trkpt>
      <trkpt lat="47.28733" lon="-1.37718">
        <ele>53</ele>
        <time>2021-03-06T13:55:00.000Z</time>
      </trkpt>
      <trkpt lat="47.28742" lon="-1.37706">
        <ele>52</ele>
        <time>2021-03-06T13:55:02.000Z</time>
      </trkpt>
      <trkpt lat="47.2876" lon="-1.37685">
        <ele>53</ele>
        <time>2021-03-06T13:55:06.000Z</time>
      </trkpt>
      <trkpt lat="47.28769" lon="-1.37674">
        <ele>53</ele>
        <time>2021-03-06T13:55:08.000Z</time>
      </trkpt>
      <trkpt lat="47.28778" lon="-1.37663">
        <ele>54</ele>
        <time>2021-03-06T13:55:10.000Z</time>
      </trkpt>
      <trkpt lat="47.28794" lon="-1.37647">
        <ele>53</ele>
        <time>2021-03-06T13:55:13.000Z</time>
      </trkpt>
      <trkpt lat="47.28804" lon="-1.3764">
        <ele>51</ele>
        <time>2021-03-06T13:55:15.000Z</time>
      </trkpt>
      <trkpt lat="47.28812" lon="-1.37632">
        <ele>50</ele>
        <time>2021-03-06T13:55:17.000Z</time>
      </trkpt>
      <trkpt lat="47.28819" lon="-1.37623">
        <ele>51</ele>
        <time>2021-03-06T13:55:19.000Z</time>
      </trkpt>
      <trkpt lat="47.28826" lon="-1.37614">
        <ele>51</ele>
        <time>2021-03-06T13:55:21.000Z</time>
      </trkpt>
      <trkpt lat="47.2884" lon="-1.37605">
        <ele>49</ele>
        <time>2021-03-06T13:55:24.000Z</time>
      </trkpt>
      <trkpt lat="47.28853" lon="-1.37587">
        <ele>50</ele>
        <time>2021-03-06T13:55:28.000Z</time>
      </trkpt>
      <trkpt lat="47.28851" lon="-1.37567">
        <ele>52</ele>
        <time>2021-03-06T13:55:31.000Z</time>
      </trkpt>
      <trkpt lat="47.28859" lon="-1.37546">
        <ele>53</ele>
        <time>2021-03-06T13:55:34.000Z</time>
      </trkpt>
      <trkpt lat="47.28864" lon="-1.37529">
        <ele>51</ele>
        <time>2021-03-06T13:55:36.000Z</time>
      </trkpt>
      <trkpt lat="47.2887" lon="-1.37513">
        <ele>51</ele>
        <time>2021-03-06T13:55:38.000Z</time>
      </trkpt>
      <trkpt lat="47.28874" lon="-1.37487">
        <ele>51</ele>
        <time>2021-03-06T13:55:41.000Z</time>
      </trkpt>
      <trkpt lat="47.28881" lon="-1.37463">
        <ele>50</ele>
        <time>2021-03-06T13:55:44.000Z</time>
      </trkpt>
      <trkpt lat="47.28885" lon="-1.37449">
        <ele>51</ele>
        <time>2021-03-06T13:55:46.000Z</time>
      </trkpt>
      <trkpt lat="47.28889" lon="-1.37434">
        <ele>51</ele>
        <time>2021-03-06T13:55:48.000Z</time>
      </trkpt>
      <trkpt lat="47.28896" lon="-1.37412">
        <ele>52</ele>
        <time>2021-03-06T13:55:51.000Z</time>
      </trkpt>
      <trkpt lat="47.289" lon="-1.37398">
        <ele>52</ele>
        <time>2021-03-06T13:55:53.000Z</time>
      </trkpt>
      <trkpt lat="47.28906" lon="-1.37384">
        <ele>51</ele>
        <time>2021-03-06T13:55:55.000Z</time>
      </trkpt>
      <trkpt lat="47.2891" lon="-1.37369">
        <ele>52</ele>
        <time>2021-03-06T13:55:57.000Z</time>
      </trkpt>
      <trkpt lat="47.28914" lon="-1.37354">
        <ele>52</ele>
        <time>2021-03-06T13:55:59.000Z</time>
      </trkpt>
      <trkpt lat="47.28918" lon="-1.3734">
        <ele>51</ele>
        <time>2021-03-06T13:56:01.000Z</time>
      </trkpt>
      <trkpt lat="47.28922" lon="-1.37327">
        <ele>51</ele>
        <time>2021-03-06T13:56:03.000Z</time>
      </trkpt>
      <trkpt lat="47.28928" lon="-1.37312">
        <ele>51</ele>
        <time>2021-03-06T13:56:05.000Z</time>
      </trkpt>
      <trkpt lat="47.28937" lon="-1.37291">
        <ele>49</ele>
        <time>2021-03-06T13:56:08.000Z</time>
      </trkpt>
      <trkpt lat="47.28941" lon="-1.37275">
        <ele>49</ele>
        <time>2021-03-06T13:56:10.000Z</time>
      </trkpt>
      <trkpt lat="47.28945" lon="-1.37259">
        <ele>51</ele>
        <time>2021-03-06T13:56:12.000Z</time>
      </trkpt>
      <trkpt lat="47.2895" lon="-1.37246">
        <ele>52</ele>
        <time>2021-03-06T13:56:14.000Z</time>
      </trkpt>
      <trkpt lat="47.28954" lon="-1.37231">
        <ele>53</ele>
        <time>2021-03-06T13:56:16.000Z</time>
      </trkpt>
      <trkpt lat="47.2896" lon="-1.37208">
        <ele>51</ele>
        <time>2021-03-06T13:56:19.000Z</time>
      </trkpt>
      <trkpt lat="47.28966" lon="-1.37193">
        <ele>51</ele>
        <time>2021-03-06T13:56:21.000Z</time>
      </trkpt>
      <trkpt lat="47.28973" lon="-1.3718">
        <ele>51</ele>
        <time>2021-03-06T13:56:23.000Z</time>
      </trkpt>
      <trkpt lat="47.28979" lon="-1.37167">
        <ele>51</ele>
        <time>2021-03-06T13:56:25.000Z</time>
      </trkpt>
      <trkpt lat="47.28987" lon="-1.37148">
        <ele>50</ele>
        <time>2021-03-06T13:56:28.000Z</time>
      </trkpt>
      <trkpt lat="47.28992" lon="-1.37134">
        <ele>52</ele>
        <time>2021-03-06T13:56:30.000Z</time>
      </trkpt>
      <trkpt lat="47.28998" lon="-1.37121">
        <ele>52</ele>
        <time>2021-03-06T13:56:32.000Z</time>
      </trkpt>
      <trkpt lat="47.29007" lon="-1.37102">
        <ele>52</ele>
        <time>2021-03-06T13:56:35.000Z</time>
      </trkpt>
      <trkpt lat="47.29017" lon="-1.37083">
        <ele>53</ele>
        <time>2021-03-06T13:56:38.000Z</time>
      </trkpt>
      <trkpt lat="47.29022" lon="-1.3707">
        <ele>54</ele>
        <time>2021-03-06T13:56:40.000Z</time>
      </trkpt>
      <trkpt lat="47.29028" lon="-1.37057">
        <ele>54</ele>
        <time>2021-03-06T13:56:42.000Z</time>
      </trkpt>
      <trkpt lat="47.29034" lon="-1.37044">
        <ele>54</ele>
        <time>2021-03-06T13:56:44.000Z</time>
      </trkpt>
      <trkpt lat="47.29041" lon="-1.37032">
        <ele>54</ele>
        <time>2021-03-06T13:56:46.000Z</time>
      </trkpt>
      <trkpt lat="47.29047" lon="-1.37019">
        <ele>52</ele>
        <time>2021-03-06T13:56:48.000Z</time>
      </trkpt>
      <trkpt lat="47.29053" lon="-1.37008">
        <ele>51</ele>
        <time>2021-03-06T13:56:50.000Z</time>
      </trkpt>
      <trkpt lat="47.29063" lon="-1.36992">
        <ele>53</ele>
        <time>2021-03-06T13:56:54.000Z</time>
      </trkpt>
      <trkpt lat="47.2907" lon="-1.36982">
        <ele>53</ele>
        <time>2021-03-06T13:56:56.000Z</time>
      </trkpt>
      <trkpt lat="47.29081" lon="-1.36967">
        <ele>52</ele>
        <time>2021-03-06T13:57:00.000Z</time>
      </trkpt>
      <trkpt lat="47.29089" lon="-1.36943">
        <ele>52</ele>
        <time>2021-03-06T13:57:03.000Z</time>
      </trkpt>
      <trkpt lat="47.29095" lon="-1.36926">
        <ele>52</ele>
        <time>2021-03-06T13:57:05.000Z</time>
      </trkpt>
      <trkpt lat="47.29102" lon="-1.36913">
        <ele>53</ele>
        <time>2021-03-06T13:57:07.000Z</time>
      </trkpt>
      <trkpt lat="47.29109" lon="-1.36901">
        <ele>54</ele>
        <time>2021-03-06T13:57:09.000Z</time>
      </trkpt>
      <trkpt lat="47.29115" lon="-1.36889">
        <ele>54</ele>
        <time>2021-03-06T13:57:11.000Z</time>
      </trkpt>
      <trkpt lat="47.29122" lon="-1.36873">
        <ele>53</ele>
        <time>2021-03-06T13:57:13.000Z</time>
      </trkpt>
      <trkpt lat="47.29133" lon="-1.36851">
        <ele>52</ele>
        <time>2021-03-06T13:57:16.000Z</time>
      </trkpt>
      <trkpt lat="47.29141" lon="-1.36838">
        <ele>52</ele>
        <time>2021-03-06T13:57:18.000Z</time>
      </trkpt>
      <trkpt lat="47.29148" lon="-1.36824">
        <ele>52</ele>
        <time>2021-03-06T13:57:20.000Z</time>
      </trkpt>
      <trkpt lat="47.29154" lon="-1.36811">
        <ele>53</ele>
        <time>2021-03-06T13:57:22.000Z</time>
      </trkpt>
      <trkpt lat="47.2916" lon="-1.36798">
        <ele>54</ele>
        <time>2021-03-06T13:57:24.000Z</time>
      </trkpt>
      <trkpt lat="47.29167" lon="-1.36784">
        <ele>54</ele>
        <time>2021-03-06T13:57:26.000Z</time>
      </trkpt>
      <trkpt lat="47.29174" lon="-1.36771">
        <ele>54</ele>
        <time>2021-03-06T13:57:28.000Z</time>
      </trkpt>
      <trkpt lat="47.29187" lon="-1.36751">
        <ele>54</ele>
        <time>2021-03-06T13:57:31.000Z</time>
      </trkpt>
      <trkpt lat="47.29196" lon="-1.36731">
        <ele>54</ele>
        <time>2021-03-06T13:57:34.000Z</time>
      </trkpt>
      <trkpt lat="47.29203" lon="-1.36716">
        <ele>54</ele>
        <time>2021-03-06T13:57:36.000Z</time>
      </trkpt>
      <trkpt lat="47.2921" lon="-1.367">
        <ele>55</ele>
        <time>2021-03-06T13:57:38.000Z</time>
      </trkpt>
      <trkpt lat="47.29216" lon="-1.36688">
        <ele>55</ele>
        <time>2021-03-06T13:57:40.000Z</time>
      </trkpt>
      <trkpt lat="47.29222" lon="-1.36676">
        <ele>55</ele>
        <time>2021-03-06T13:57:42.000Z</time>
      </trkpt>
      <trkpt lat="47.29229" lon="-1.36662">
        <ele>55</ele>
        <time>2021-03-06T13:57:44.000Z</time>
      </trkpt>
      <trkpt lat="47.29234" lon="-1.3665">
        <ele>53</ele>
        <time>2021-03-06T13:57:46.000Z</time>
      </trkpt>
      <trkpt lat="47.29242" lon="-1.36637">
        <ele>54</ele>
        <time>2021-03-06T13:57:48.000Z</time>
      </trkpt>
      <trkpt lat="47.2925" lon="-1.36624">
        <ele>54</ele>
        <time>2021-03-06T13:57:50.000Z</time>
      </trkpt>
      <trkpt lat="47.29258" lon="-1.36611">
        <ele>54</ele>
        <time>2021-03-06T13:57:52.000Z</time>
      </trkpt>
      <trkpt lat="47.29265" lon="-1.36597">
        <ele>54</ele>
        <time>2021-03-06T13:57:54.000Z</time>
      </trkpt>
      <trkpt lat="47.29272" lon="-1.36584">
        <ele>54</ele>
        <time>2021-03-06T13:57:56.000Z</time>
      </trkpt>
      <trkpt lat="47.29279" lon="-1.36571">
        <ele>54</ele>
        <time>2021-03-06T13:57:58.000Z</time>
      </trkpt>
      <trkpt lat="47.29285" lon="-1.36558">
        <ele>54</ele>
        <time>2021-03-06T13:58:00.000Z</time>
      </trkpt>
      <trkpt lat="47.29292" lon="-1.36546">
        <ele>53</ele>
        <time>2021-03-06T13:58:02.000Z</time>
      </trkpt>
      <trkpt lat="47.293" lon="-1.36533">
        <ele>53</ele>
        <time>2021-03-06T13:58:04.000Z</time>
      </trkpt>
      <trkpt lat="47.29306" lon="-1.3652">
        <ele>53</ele>
        <time>2021-03-06T13:58:06.000Z</time>
      </trkpt>
      <trkpt lat="47.29313" lon="-1.36508">
        <ele>54</ele>
        <time>2021-03-06T13:58:08.000Z</time>
      </trkpt>
      <trkpt lat="47.29319" lon="-1.36495">
        <ele>54</ele>
        <time>2021-03-06T13:58:10.000Z</time>
      </trkpt>
      <trkpt lat="47.29326" lon="-1.36483">
        <ele>55</ele>
        <time>2021-03-06T13:58:12.000Z</time>
      </trkpt>
      <trkpt lat="47.29332" lon="-1.3647">
        <ele>55</ele>
        <time>2021-03-06T13:58:14.000Z</time>
      </trkpt>
      <trkpt lat="47.29339" lon="-1.36461">
        <ele>54</ele>
        <time>2021-03-06T13:58:16.000Z</time>
      </trkpt>
      <trkpt lat="47.29345" lon="-1.36449">
        <ele>53</ele>
        <time>2021-03-06T13:58:18.000Z</time>
      </trkpt>
      <trkpt lat="47.29352" lon="-1.36434">
        <ele>54</ele>
        <time>2021-03-06T13:58:20.000Z</time>
      </trkpt>
      <trkpt lat="47.29358" lon="-1.3642">
        <ele>54</ele>
        <time>2021-03-06T13:58:22.000Z</time>
      </trkpt>
      <trkpt lat="47.29364" lon="-1.36404">
        <ele>55</ele>
        <time>2021-03-06T13:58:24.000Z</time>
      </trkpt>
      <trkpt lat="47.2937" lon="-1.36392">
        <ele>56</ele>
        <time>2021-03-06T13:58:26.000Z</time>
      </trkpt>
      <trkpt lat="47.29377" lon="-1.3638">
        <ele>56</ele>
        <time>2021-03-06T13:58:28.000Z</time>
      </trkpt>
      <trkpt lat="47.29386" lon="-1.36361">
        <ele>56</ele>
        <time>2021-03-06T13:58:31.000Z</time>
      </trkpt>
      <trkpt lat="47.29392" lon="-1.36349">
        <ele>56</ele>
        <time>2021-03-06T13:58:33.000Z</time>
      </trkpt>
      <trkpt lat="47.29399" lon="-1.36337">
        <ele>56</ele>
        <time>2021-03-06T13:58:35.000Z</time>
      </trkpt>
      <trkpt lat="47.29405" lon="-1.36324">
        <ele>56</ele>
        <time>2021-03-06T13:58:37.000Z</time>
      </trkpt>
      <trkpt lat="47.29411" lon="-1.36312">
        <ele>56</ele>
        <time>2021-03-06T13:58:39.000Z</time>
      </trkpt>
      <trkpt lat="47.29416" lon="-1.363">
        <ele>56</ele>
        <time>2021-03-06T13:58:41.000Z</time>
      </trkpt>
      <trkpt lat="47.29422" lon="-1.36288">
        <ele>56</ele>
        <time>2021-03-06T13:58:43.000Z</time>
      </trkpt>
      <trkpt lat="47.29429" lon="-1.36276">
        <ele>55</ele>
        <time>2021-03-06T13:58:45.000Z</time>
      </trkpt>
      <trkpt lat="47.2944" lon="-1.36258">
        <ele>55</ele>
        <time>2021-03-06T13:58:48.000Z</time>
      </trkpt>
      <trkpt lat="47.2945" lon="-1.36239">
        <ele>55</ele>
        <time>2021-03-06T13:58:51.000Z</time>
      </trkpt>
      <trkpt lat="47.29456" lon="-1.36225">
        <ele>55</ele>
        <time>2021-03-06T13:58:53.000Z</time>
      </trkpt>
      <trkpt lat="47.29462" lon="-1.36213">
        <ele>56</ele>
        <time>2021-03-06T13:58:55.000Z</time>
      </trkpt>
      <trkpt lat="47.29469" lon="-1.36201">
        <ele>55</ele>
        <time>2021-03-06T13:58:57.000Z</time>
      </trkpt>
      <trkpt lat="47.29475" lon="-1.36188">
        <ele>55</ele>
        <time>2021-03-06T13:58:59.000Z</time>
      </trkpt>
      <trkpt lat="47.29481" lon="-1.36175">
        <ele>55</ele>
        <time>2021-03-06T13:59:01.000Z</time>
      </trkpt>
      <trkpt lat="47.29487" lon="-1.36162">
        <ele>56</ele>
        <time>2021-03-06T13:59:03.000Z</time>
      </trkpt>
      <trkpt lat="47.29493" lon="-1.3615">
        <ele>55</ele>
        <time>2021-03-06T13:59:05.000Z</time>
      </trkpt>
      <trkpt lat="47.29503" lon="-1.36133">
        <ele>54</ele>
        <time>2021-03-06T13:59:08.000Z</time>
      </trkpt>
      <trkpt lat="47.2951" lon="-1.36121">
        <ele>52</ele>
        <time>2021-03-06T13:59:10.000Z</time>
      </trkpt>
      <trkpt lat="47.29515" lon="-1.36108">
        <ele>52</ele>
        <time>2021-03-06T13:59:12.000Z</time>
      </trkpt>
      <trkpt lat="47.29521" lon="-1.36096">
        <ele>54</ele>
        <time>2021-03-06T13:59:14.000Z</time>
      </trkpt>
      <trkpt lat="47.29531" lon="-1.36078">
        <ele>55</ele>
        <time>2021-03-06T13:59:17.000Z</time>
      </trkpt>
      <trkpt lat="47.29538" lon="-1.36067">
        <ele>56</ele>
        <time>2021-03-06T13:59:19.000Z</time>
      </trkpt>
      <trkpt lat="47.29543" lon="-1.36054">
        <ele>55</ele>
        <time>2021-03-06T13:59:21.000Z</time>
      </trkpt>
      <trkpt lat="47.29549" lon="-1.36043">
        <ele>55</ele>
        <time>2021-03-06T13:59:23.000Z</time>
      </trkpt>
      <trkpt lat="47.29556" lon="-1.3603">
        <ele>55</ele>
        <time>2021-03-06T13:59:25.000Z</time>
      </trkpt>
      <trkpt lat="47.29562" lon="-1.36018">
        <ele>54</ele>
        <time>2021-03-06T13:59:27.000Z</time>
      </trkpt>
      <trkpt lat="47.29568" lon="-1.36006">
        <ele>54</ele>
        <time>2021-03-06T13:59:29.000Z</time>
      </trkpt>
      <trkpt lat="47.29575" lon="-1.35993">
        <ele>55</ele>
        <time>2021-03-06T13:59:31.000Z</time>
      </trkpt>
      <trkpt lat="47.29581" lon="-1.35981">
        <ele>55</ele>
        <time>2021-03-06T13:59:33.000Z</time>
      </trkpt>
      <trkpt lat="47.29586" lon="-1.35969">
        <ele>53</ele>
        <time>2021-03-06T13:59:35.000Z</time>
      </trkpt>
      <trkpt lat="47.29593" lon="-1.35956">
        <ele>53</ele>
        <time>2021-03-06T13:59:37.000Z</time>
      </trkpt>
      <trkpt lat="47.296" lon="-1.35943">
        <ele>52</ele>
        <time>2021-03-06T13:59:39.000Z</time>
      </trkpt>
      <trkpt lat="47.29606" lon="-1.35932">
        <ele>53</ele>
        <time>2021-03-06T13:59:41.000Z</time>
      </trkpt>
      <trkpt lat="47.29613" lon="-1.3592">
        <ele>55</ele>
        <time>2021-03-06T13:59:43.000Z</time>
      </trkpt>
      <trkpt lat="47.29622" lon="-1.35901">
        <ele>55</ele>
        <time>2021-03-06T13:59:46.000Z</time>
      </trkpt>
      <trkpt lat="47.29629" lon="-1.35889">
        <ele>55</ele>
        <time>2021-03-06T13:59:48.000Z</time>
      </trkpt>
      <trkpt lat="47.29639" lon="-1.35871">
        <ele>55</ele>
        <time>2021-03-06T13:59:51.000Z</time>
      </trkpt>
      <trkpt lat="47.29648" lon="-1.35853">
        <ele>55</ele>
        <time>2021-03-06T13:59:54.000Z</time>
      </trkpt>
      <trkpt lat="47.29654" lon="-1.35843">
        <ele>55</ele>
        <time>2021-03-06T13:59:56.000Z</time>
      </trkpt>
      <trkpt lat="47.29661" lon="-1.3583">
        <ele>55</ele>
        <time>2021-03-06T13:59:58.000Z</time>
      </trkpt>
      <trkpt lat="47.29668" lon="-1.35819">
        <ele>55</ele>
        <time>2021-03-06T14:00:00.000Z</time>
      </trkpt>
      <trkpt lat="47.29676" lon="-1.35812">
        <ele>55</ele>
        <time>2021-03-06T14:00:02.000Z</time>
      </trkpt>
      <trkpt lat="47.29688" lon="-1.35801">
        <ele>56</ele>
        <time>2021-03-06T14:00:05.000Z</time>
      </trkpt>
      <trkpt lat="47.29695" lon="-1.3579">
        <ele>55</ele>
        <time>2021-03-06T14:00:07.000Z</time>
      </trkpt>
      <trkpt lat="47.29698" lon="-1.35775">
        <ele>56</ele>
        <time>2021-03-06T14:00:09.000Z</time>
      </trkpt>
      <trkpt lat="47.29701" lon="-1.3576">
        <ele>56</ele>
        <time>2021-03-06T14:00:11.000Z</time>
      </trkpt>
      <trkpt lat="47.29704" lon="-1.35744">
        <ele>56</ele>
        <time>2021-03-06T14:00:13.000Z</time>
      </trkpt>
      <trkpt lat="47.29714" lon="-1.35726">
        <ele>56</ele>
        <time>2021-03-06T14:00:16.000Z</time>
      </trkpt>
      <trkpt lat="47.2972" lon="-1.35714">
        <ele>56</ele>
        <time>2021-03-06T14:00:18.000Z</time>
      </trkpt>
      <trkpt lat="47.29727" lon="-1.35702">
        <ele>56</ele>
        <time>2021-03-06T14:00:20.000Z</time>
      </trkpt>
      <trkpt lat="47.29733" lon="-1.35691">
        <ele>55</ele>
        <time>2021-03-06T14:00:22.000Z</time>
      </trkpt>
      <trkpt lat="47.29742" lon="-1.35679">
        <ele>52</ele>
        <time>2021-03-06T14:00:24.000Z</time>
      </trkpt>
      <trkpt lat="47.29751" lon="-1.35668">
        <ele>52</ele>
        <time>2021-03-06T14:00:26.000Z</time>
      </trkpt>
      <trkpt lat="47.2976" lon="-1.35654">
        <ele>53</ele>
        <time>2021-03-06T14:00:29.000Z</time>
      </trkpt>
      <trkpt lat="47.29766" lon="-1.35641">
        <ele>52</ele>
        <time>2021-03-06T14:00:31.000Z</time>
      </trkpt>
      <trkpt lat="47.29772" lon="-1.35627">
        <ele>50</ele>
        <time>2021-03-06T14:00:33.000Z</time>
      </trkpt>
      <trkpt lat="47.29776" lon="-1.35614">
        <ele>52</ele>
        <time>2021-03-06T14:00:35.000Z</time>
      </trkpt>
      <trkpt lat="47.29779" lon="-1.35602">
        <ele>53</ele>
        <time>2021-03-06T14:00:37.000Z</time>
      </trkpt>
      <trkpt lat="47.29784" lon="-1.3559">
        <ele>54</ele>
        <time>2021-03-06T14:00:39.000Z</time>
      </trkpt>
      <trkpt lat="47.29791" lon="-1.35577">
        <ele>52</ele>
        <time>2021-03-06T14:00:41.000Z</time>
      </trkpt>
      <trkpt lat="47.29798" lon="-1.35564">
        <ele>52</ele>
        <time>2021-03-06T14:00:43.000Z</time>
      </trkpt>
      <trkpt lat="47.29806" lon="-1.35547">
        <ele>54</ele>
        <time>2021-03-06T14:00:46.000Z</time>
      </trkpt>
      <trkpt lat="47.29811" lon="-1.35535">
        <ele>53</ele>
        <time>2021-03-06T14:00:48.000Z</time>
      </trkpt>
      <trkpt lat="47.29818" lon="-1.35522">
        <ele>54</ele>
        <time>2021-03-06T14:00:50.000Z</time>
      </trkpt>
      <trkpt lat="47.29824" lon="-1.3551">
        <ele>55</ele>
        <time>2021-03-06T14:00:52.000Z</time>
      </trkpt>
      <trkpt lat="47.29829" lon="-1.35498">
        <ele>55</ele>
        <time>2021-03-06T14:00:54.000Z</time>
      </trkpt>
      <trkpt lat="47.29836" lon="-1.35486">
        <ele>55</ele>
        <time>2021-03-06T14:00:56.000Z</time>
      </trkpt>
      <trkpt lat="47.29843" lon="-1.35474">
        <ele>55</ele>
        <time>2021-03-06T14:00:58.000Z</time>
      </trkpt>
      <trkpt lat="47.2985" lon="-1.35462">
        <ele>54</ele>
        <time>2021-03-06T14:01:00.000Z</time>
      </trkpt>
      <trkpt lat="47.29861" lon="-1.35443">
        <ele>55</ele>
        <time>2021-03-06T14:01:03.000Z</time>
      </trkpt>
      <trkpt lat="47.29866" lon="-1.35426">
        <ele>52</ele>
        <time>2021-03-06T14:01:05.000Z</time>
      </trkpt>
      <trkpt lat="47.29873" lon="-1.35412">
        <ele>52</ele>
        <time>2021-03-06T14:01:07.000Z</time>
      </trkpt>
      <trkpt lat="47.2988" lon="-1.354">
        <ele>51</ele>
        <time>2021-03-06T14:01:09.000Z</time>
      </trkpt>
      <trkpt lat="47.29886" lon="-1.35388">
        <ele>51</ele>
        <time>2021-03-06T14:01:11.000Z</time>
      </trkpt>
      <trkpt lat="47.29893" lon="-1.35375">
        <ele>52</ele>
        <time>2021-03-06T14:01:13.000Z</time>
      </trkpt>
      <trkpt lat="47.299" lon="-1.35364">
        <ele>53</ele>
        <time>2021-03-06T14:01:15.000Z</time>
      </trkpt>
      <trkpt lat="47.29906" lon="-1.35352">
        <ele>53</ele>
        <time>2021-03-06T14:01:17.000Z</time>
      </trkpt>
      <trkpt lat="47.29911" lon="-1.35339">
        <ele>51</ele>
        <time>2021-03-06T14:01:19.000Z</time>
      </trkpt>
      <trkpt lat="47.29919" lon="-1.35328">
        <ele>52</ele>
        <time>2021-03-06T14:01:21.000Z</time>
      </trkpt>
      <trkpt lat="47.29925" lon="-1.35315">
        <ele>52</ele>
        <time>2021-03-06T14:01:23.000Z</time>
      </trkpt>
      <trkpt lat="47.29931" lon="-1.35303">
        <ele>52</ele>
        <time>2021-03-06T14:01:25.000Z</time>
      </trkpt>
      <trkpt lat="47.29937" lon="-1.35292">
        <ele>53</ele>
        <time>2021-03-06T14:01:27.000Z</time>
      </trkpt>
      <trkpt lat="47.29943" lon="-1.35281">
        <ele>53</ele>
        <time>2021-03-06T14:01:29.000Z</time>
      </trkpt>
      <trkpt lat="47.29949" lon="-1.35264">
        <ele>52</ele>
        <time>2021-03-06T14:01:31.000Z</time>
      </trkpt>
      <trkpt lat="47.29955" lon="-1.35253">
        <ele>51</ele>
        <time>2021-03-06T14:01:33.000Z</time>
      </trkpt>
      <trkpt lat="47.29962" lon="-1.35244">
        <ele>52</ele>
        <time>2021-03-06T14:01:35.000Z</time>
      </trkpt>
      <trkpt lat="47.29967" lon="-1.35233">
        <ele>53</ele>
        <time>2021-03-06T14:01:37.000Z</time>
      </trkpt>
      <trkpt lat="47.29973" lon="-1.35221">
        <ele>53</ele>
        <time>2021-03-06T14:01:39.000Z</time>
      </trkpt>
      <trkpt lat="47.29979" lon="-1.35209">
        <ele>53</ele>
        <time>2021-03-06T14:01:41.000Z</time>
      </trkpt>
      <trkpt lat="47.29985" lon="-1.35198">
        <ele>55</ele>
        <time>2021-03-06T14:01:43.000Z</time>
      </trkpt>
      <trkpt lat="47.29991" lon="-1.35186">
        <ele>55</ele>
        <time>2021-03-06T14:01:45.000Z</time>
      </trkpt>
      <trkpt lat="47.29997" lon="-1.35174">
        <ele>53</ele>
        <time>2021-03-06T14:01:47.000Z</time>
      </trkpt>
      <trkpt lat="47.30003" lon="-1.35163">
        <ele>52</ele>
        <time>2021-03-06T14:01:49.000Z</time>
      </trkpt>
      <trkpt lat="47.3001" lon="-1.35151">
        <ele>52</ele>
        <time>2021-03-06T14:01:51.000Z</time>
      </trkpt>
      <trkpt lat="47.30016" lon="-1.35139">
        <ele>53</ele>
        <time>2021-03-06T14:01:53.000Z</time>
      </trkpt>
      <trkpt lat="47.30021" lon="-1.35126">
        <ele>52</ele>
        <time>2021-03-06T14:01:55.000Z</time>
      </trkpt>
      <trkpt lat="47.30026" lon="-1.35114">
        <ele>52</ele>
        <time>2021-03-06T14:01:57.000Z</time>
      </trkpt>
      <trkpt lat="47.30033" lon="-1.35103">
        <ele>52</ele>
        <time>2021-03-06T14:01:59.000Z</time>
      </trkpt>
      <trkpt lat="47.30039" lon="-1.35091">
        <ele>53</ele>
        <time>2021-03-06T14:02:01.000Z</time>
      </trkpt>
      <trkpt lat="47.30045" lon="-1.35079">
        <ele>53</ele>
        <time>2021-03-06T14:02:03.000Z</time>
      </trkpt>
      <trkpt lat="47.3005" lon="-1.35064">
        <ele>51</ele>
        <time>2021-03-06T14:02:05.000Z</time>
      </trkpt>
      <trkpt lat="47.30058" lon="-1.35045">
        <ele>53</ele>
        <time>2021-03-06T14:02:08.000Z</time>
      </trkpt>
      <trkpt lat="47.30063" lon="-1.35031">
        <ele>53</ele>
        <time>2021-03-06T14:02:10.000Z</time>
      </trkpt>
      <trkpt lat="47.30068" lon="-1.35016">
        <ele>53</ele>
        <time>2021-03-06T14:02:12.000Z</time>
      </trkpt>
      <trkpt lat="47.30073" lon="-1.35003">
        <ele>53</ele>
        <time>2021-03-06T14:02:14.000Z</time>
      </trkpt>
      <trkpt lat="47.30077" lon="-1.34989">
        <ele>53</ele>
        <time>2021-03-06T14:02:16.000Z</time>
      </trkpt>
      <trkpt lat="47.30081" lon="-1.34976">
        <ele>53</ele>
        <time>2021-03-06T14:02:18.000Z</time>
      </trkpt>
      <trkpt lat="47.30086" lon="-1.3496">
        <ele>54</ele>
        <time>2021-03-06T14:02:21.000Z</time>
      </trkpt>
      <trkpt lat="47.30092" lon="-1.34947">
        <ele>55</ele>
        <time>2021-03-06T14:02:23.000Z</time>
      </trkpt>
      <trkpt lat="47.30093" lon="-1.34933">
        <ele>56</ele>
        <time>2021-03-06T14:02:25.000Z</time>
      </trkpt>
      <trkpt lat="47.30095" lon="-1.34918">
        <ele>56</ele>
        <time>2021-03-06T14:02:27.000Z</time>
      </trkpt>
      <trkpt lat="47.30098" lon="-1.34903">
        <ele>55</ele>
        <time>2021-03-06T14:02:29.000Z</time>
      </trkpt>
      <trkpt lat="47.301" lon="-1.34888">
        <ele>56</ele>
        <time>2021-03-06T14:02:31.000Z</time>
      </trkpt>
      <trkpt lat="47.30102" lon="-1.34873">
        <ele>55</ele>
        <time>2021-03-06T14:02:33.000Z</time>
      </trkpt>
      <trkpt lat="47.30103" lon="-1.34857">
        <ele>56</ele>
        <time>2021-03-06T14:02:35.000Z</time>
      </trkpt>
      <trkpt lat="47.30106" lon="-1.34843">
        <ele>55</ele>
        <time>2021-03-06T14:02:37.000Z</time>
      </trkpt>
      <trkpt lat="47.30108" lon="-1.34827">
        <ele>55</ele>
        <time>2021-03-06T14:02:39.000Z</time>
      </trkpt>
      <trkpt lat="47.3011" lon="-1.34812">
        <ele>55</ele>
        <time>2021-03-06T14:02:41.000Z</time>
      </trkpt>
      <trkpt lat="47.30109" lon="-1.3479">
        <ele>55</ele>
        <time>2021-03-06T14:02:44.000Z</time>
      </trkpt>
      <trkpt lat="47.30103" lon="-1.34765">
        <ele>54</ele>
        <time>2021-03-06T14:02:48.000Z</time>
      </trkpt>
      <trkpt lat="47.301" lon="-1.34751">
        <ele>55</ele>
        <time>2021-03-06T14:02:50.000Z</time>
      </trkpt>
      <trkpt lat="47.30098" lon="-1.34734">
        <ele>55</ele>
        <time>2021-03-06T14:02:52.000Z</time>
      </trkpt>
      <trkpt lat="47.30098" lon="-1.34718">
        <ele>54</ele>
        <time>2021-03-06T14:02:54.000Z</time>
      </trkpt>
      <trkpt lat="47.30099" lon="-1.34693">
        <ele>54</ele>
        <time>2021-03-06T14:02:57.000Z</time>
      </trkpt>
      <trkpt lat="47.30097" lon="-1.34677">
        <ele>52</ele>
        <time>2021-03-06T14:02:59.000Z</time>
      </trkpt>
      <trkpt lat="47.30093" lon="-1.3466">
        <ele>52</ele>
        <time>2021-03-06T14:03:01.000Z</time>
      </trkpt>
      <trkpt lat="47.30091" lon="-1.34645">
        <ele>52</ele>
        <time>2021-03-06T14:03:03.000Z</time>
      </trkpt>
      <trkpt lat="47.30097" lon="-1.34631">
        <ele>53</ele>
        <time>2021-03-06T14:03:05.000Z</time>
      </trkpt>
      <trkpt lat="47.30096" lon="-1.34617">
        <ele>55</ele>
        <time>2021-03-06T14:03:07.000Z</time>
      </trkpt>
      <trkpt lat="47.30096" lon="-1.34602">
        <ele>54</ele>
        <time>2021-03-06T14:03:09.000Z</time>
      </trkpt>
      <trkpt lat="47.30099" lon="-1.34587">
        <ele>53</ele>
        <time>2021-03-06T14:03:11.000Z</time>
      </trkpt>
      <trkpt lat="47.30099" lon="-1.34569">
        <ele>55</ele>
        <time>2021-03-06T14:03:13.000Z</time>
      </trkpt>
      <trkpt lat="47.30103" lon="-1.34554">
        <ele>55</ele>
        <time>2021-03-06T14:03:15.000Z</time>
      </trkpt>
      <trkpt lat="47.30103" lon="-1.34539">
        <ele>56</ele>
        <time>2021-03-06T14:03:17.000Z</time>
      </trkpt>
      <trkpt lat="47.30099" lon="-1.34527">
        <ele>55</ele>
        <time>2021-03-06T14:03:19.000Z</time>
      </trkpt>
      <trkpt lat="47.30094" lon="-1.34514">
        <ele>54</ele>
        <time>2021-03-06T14:03:21.000Z</time>
      </trkpt>
      <trkpt lat="47.30086" lon="-1.34498">
        <ele>54</ele>
        <time>2021-03-06T14:03:24.000Z</time>
      </trkpt>
      <trkpt lat="47.30081" lon="-1.34477">
        <ele>53</ele>
        <time>2021-03-06T14:03:27.000Z</time>
      </trkpt>
      <trkpt lat="47.30077" lon="-1.34463">
        <ele>52</ele>
        <time>2021-03-06T14:03:29.000Z</time>
      </trkpt>
      <trkpt lat="47.30074" lon="-1.34448">
        <ele>52</ele>
        <time>2021-03-06T14:03:31.000Z</time>
      </trkpt>
      <trkpt lat="47.30067" lon="-1.34425">
        <ele>52</ele>
        <time>2021-03-06T14:03:34.000Z</time>
      </trkpt>
      <trkpt lat="47.30064" lon="-1.34404">
        <ele>48</ele>
        <time>2021-03-06T14:03:37.000Z</time>
      </trkpt>
      <trkpt lat="47.30062" lon="-1.34388">
        <ele>49</ele>
        <time>2021-03-06T14:03:39.000Z</time>
      </trkpt>
      <trkpt lat="47.30056" lon="-1.34372">
        <ele>46</ele>
        <time>2021-03-06T14:03:41.000Z</time>
      </trkpt>
      <trkpt lat="47.30055" lon="-1.34357">
        <ele>47</ele>
        <time>2021-03-06T14:03:43.000Z</time>
      </trkpt>
      <trkpt lat="47.30052" lon="-1.34334">
        <ele>48</ele>
        <time>2021-03-06T14:03:46.000Z</time>
      </trkpt>
      <trkpt lat="47.30049" lon="-1.34319">
        <ele>48</ele>
        <time>2021-03-06T14:03:48.000Z</time>
      </trkpt>
      <trkpt lat="47.30047" lon="-1.34305">
        <ele>48</ele>
        <time>2021-03-06T14:03:50.000Z</time>
      </trkpt>
      <trkpt lat="47.30044" lon="-1.34291">
        <ele>48</ele>
        <time>2021-03-06T14:03:52.000Z</time>
      </trkpt>
      <trkpt lat="47.30042" lon="-1.34277">
        <ele>48</ele>
        <time>2021-03-06T14:03:54.000Z</time>
      </trkpt>
      <trkpt lat="47.30037" lon="-1.34263">
        <ele>47</ele>
        <time>2021-03-06T14:03:56.000Z</time>
      </trkpt>
      <trkpt lat="47.30033" lon="-1.34243">
        <ele>47</ele>
        <time>2021-03-06T14:03:59.000Z</time>
      </trkpt>
      <trkpt lat="47.3003" lon="-1.34228">
        <ele>47</ele>
        <time>2021-03-06T14:04:01.000Z</time>
      </trkpt>
      <trkpt lat="47.30028" lon="-1.34213">
        <ele>48</ele>
        <time>2021-03-06T14:04:03.000Z</time>
      </trkpt>
      <trkpt lat="47.30025" lon="-1.34199">
        <ele>47</ele>
        <time>2021-03-06T14:04:05.000Z</time>
      </trkpt>
      <trkpt lat="47.30022" lon="-1.34185">
        <ele>46</ele>
        <time>2021-03-06T14:04:07.000Z</time>
      </trkpt>
      <trkpt lat="47.30019" lon="-1.3417">
        <ele>47</ele>
        <time>2021-03-06T14:04:09.000Z</time>
      </trkpt>
      <trkpt lat="47.30016" lon="-1.34157">
        <ele>48</ele>
        <time>2021-03-06T14:04:11.000Z</time>
      </trkpt>
      <trkpt lat="47.30014" lon="-1.34142">
        <ele>45</ele>
        <time>2021-03-06T14:04:13.000Z</time>
      </trkpt>
      <trkpt lat="47.30021" lon="-1.34122">
        <ele>47</ele>
        <time>2021-03-06T14:04:16.000Z</time>
      </trkpt>
      <trkpt lat="47.30031" lon="-1.34114">
        <ele>49</ele>
        <time>2021-03-06T14:04:18.000Z</time>
      </trkpt>
      <trkpt lat="47.30045" lon="-1.34105">
        <ele>49</ele>
        <time>2021-03-06T14:04:21.000Z</time>
      </trkpt>
      <trkpt lat="47.30056" lon="-1.34101">
        <ele>50</ele>
        <time>2021-03-06T14:04:23.000Z</time>
      </trkpt>
      <trkpt lat="47.30071" lon="-1.34107">
        <ele>51</ele>
        <time>2021-03-06T14:04:26.000Z</time>
      </trkpt>
      <trkpt lat="47.30081" lon="-1.34118">
        <ele>51</ele>
        <time>2021-03-06T14:04:28.000Z</time>
      </trkpt>
      <trkpt lat="47.30089" lon="-1.34126">
        <ele>51</ele>
        <time>2021-03-06T14:04:30.000Z</time>
      </trkpt>
      <trkpt lat="47.30095" lon="-1.34136">
        <ele>52</ele>
        <time>2021-03-06T14:04:32.000Z</time>
      </trkpt>
      <trkpt lat="47.30108" lon="-1.34132">
        <ele>53</ele>
        <time>2021-03-06T14:04:36.000Z</time>
      </trkpt>
      <trkpt lat="47.30111" lon="-1.34119">
        <ele>54</ele>
        <time>2021-03-06T14:04:38.000Z</time>
      </trkpt>
      <trkpt lat="47.30115" lon="-1.34102">
        <ele>54</ele>
        <time>2021-03-06T14:04:40.000Z</time>
      </trkpt>
      <trkpt lat="47.3012" lon="-1.34086">
        <ele>54</ele>
        <time>2021-03-06T14:04:42.000Z</time>
      </trkpt>
      <trkpt lat="47.30127" lon="-1.34073">
        <ele>51</ele>
        <time>2021-03-06T14:04:44.000Z</time>
      </trkpt>
      <trkpt lat="47.30134" lon="-1.34065">
        <ele>51</ele>
        <time>2021-03-06T14:04:46.000Z</time>
      </trkpt>
      <trkpt lat="47.30144" lon="-1.34058">
        <ele>51</ele>
        <time>2021-03-06T14:04:48.000Z</time>
      </trkpt>
      <trkpt lat="47.30152" lon="-1.34048">
        <ele>51</ele>
        <time>2021-03-06T14:04:50.000Z</time>
      </trkpt>
      <trkpt lat="47.30169" lon="-1.34034">
        <ele>49</ele>
        <time>2021-03-06T14:04:54.000Z</time>
      </trkpt>
      <trkpt lat="47.30182" lon="-1.34024">
        <ele>50</ele>
        <time>2021-03-06T14:04:57.000Z</time>
      </trkpt>
      <trkpt lat="47.30192" lon="-1.34013">
        <ele>51</ele>
        <time>2021-03-06T14:04:59.000Z</time>
      </trkpt>
      <trkpt lat="47.302" lon="-1.34002">
        <ele>52</ele>
        <time>2021-03-06T14:05:01.000Z</time>
      </trkpt>
      <trkpt lat="47.30214" lon="-1.3399">
        <ele>53</ele>
        <time>2021-03-06T14:05:04.000Z</time>
      </trkpt>
      <trkpt lat="47.30225" lon="-1.34003">
        <ele>53</ele>
        <time>2021-03-06T14:05:07.000Z</time>
      </trkpt>
      <trkpt lat="47.30233" lon="-1.34027">
        <ele>54</ele>
        <time>2021-03-06T14:05:10.000Z</time>
      </trkpt>
      <trkpt lat="47.30237" lon="-1.34041">
        <ele>51</ele>
        <time>2021-03-06T14:05:12.000Z</time>
      </trkpt>
      <trkpt lat="47.30241" lon="-1.34053">
        <ele>53</ele>
        <time>2021-03-06T14:05:14.000Z</time>
      </trkpt>
      <trkpt lat="47.30245" lon="-1.34067">
        <ele>53</ele>
        <time>2021-03-06T14:05:16.000Z</time>
      </trkpt>
      <trkpt lat="47.3025" lon="-1.34082">
        <ele>54</ele>
        <time>2021-03-06T14:05:18.000Z</time>
      </trkpt>
      <trkpt lat="47.30254" lon="-1.34094">
        <ele>54</ele>
        <time>2021-03-06T14:05:20.000Z</time>
      </trkpt>
      <trkpt lat="47.30263" lon="-1.34107">
        <ele>53</ele>
        <time>2021-03-06T14:05:24.000Z</time>
      </trkpt>
      <trkpt lat="47.30271" lon="-1.34097">
        <ele>52</ele>
        <time>2021-03-06T14:05:26.000Z</time>
      </trkpt>
      <trkpt lat="47.30279" lon="-1.34086">
        <ele>52</ele>
        <time>2021-03-06T14:05:28.000Z</time>
      </trkpt>
      <trkpt lat="47.30295" lon="-1.34068">
        <ele>52</ele>
        <time>2021-03-06T14:05:31.000Z</time>
      </trkpt>
      <trkpt lat="47.30306" lon="-1.34057">
        <ele>53</ele>
        <time>2021-03-06T14:05:33.000Z</time>
      </trkpt>
      <trkpt lat="47.30319" lon="-1.34043">
        <ele>54</ele>
        <time>2021-03-06T14:05:36.000Z</time>
      </trkpt>
      <trkpt lat="47.30326" lon="-1.34032">
        <ele>54</ele>
        <time>2021-03-06T14:05:38.000Z</time>
      </trkpt>
      <trkpt lat="47.30336" lon="-1.34013">
        <ele>54</ele>
        <time>2021-03-06T14:05:41.000Z</time>
      </trkpt>
      <trkpt lat="47.30343" lon="-1.34001">
        <ele>55</ele>
        <time>2021-03-06T14:05:43.000Z</time>
      </trkpt>
      <trkpt lat="47.30352" lon="-1.33986">
        <ele>56</ele>
        <time>2021-03-06T14:05:46.000Z</time>
      </trkpt>
      <trkpt lat="47.30358" lon="-1.33972">
        <ele>55</ele>
        <time>2021-03-06T14:05:48.000Z</time>
      </trkpt>
      <trkpt lat="47.30368" lon="-1.33955">
        <ele>54</ele>
        <time>2021-03-06T14:05:51.000Z</time>
      </trkpt>
      <trkpt lat="47.30379" lon="-1.33957">
        <ele>54</ele>
        <time>2021-03-06T14:05:53.000Z</time>
      </trkpt>
      <trkpt lat="47.3039" lon="-1.33948">
        <ele>55</ele>
        <time>2021-03-06T14:05:55.000Z</time>
      </trkpt>
      <trkpt lat="47.30397" lon="-1.33936">
        <ele>55</ele>
        <time>2021-03-06T14:05:57.000Z</time>
      </trkpt>
      <trkpt lat="47.30405" lon="-1.33923">
        <ele>54</ele>
        <time>2021-03-06T14:05:59.000Z</time>
      </trkpt>
      <trkpt lat="47.30413" lon="-1.33911">
        <ele>55</ele>
        <time>2021-03-06T14:06:01.000Z</time>
      </trkpt>
      <trkpt lat="47.30421" lon="-1.339">
        <ele>54</ele>
        <time>2021-03-06T14:06:03.000Z</time>
      </trkpt>
      <trkpt lat="47.30429" lon="-1.33889">
        <ele>54</ele>
        <time>2021-03-06T14:06:05.000Z</time>
      </trkpt>
      <trkpt lat="47.30437" lon="-1.33878">
        <ele>54</ele>
        <time>2021-03-06T14:06:07.000Z</time>
      </trkpt>
      <trkpt lat="47.30452" lon="-1.33865">
        <ele>55</ele>
        <time>2021-03-06T14:06:10.000Z</time>
      </trkpt>
      <trkpt lat="47.30467" lon="-1.33851">
        <ele>55</ele>
        <time>2021-03-06T14:06:13.000Z</time>
      </trkpt>
      <trkpt lat="47.30476" lon="-1.33842">
        <ele>55</ele>
        <time>2021-03-06T14:06:15.000Z</time>
      </trkpt>
      <trkpt lat="47.30485" lon="-1.33835">
        <ele>55</ele>
        <time>2021-03-06T14:06:17.000Z</time>
      </trkpt>
      <trkpt lat="47.30495" lon="-1.33826">
        <ele>55</ele>
        <time>2021-03-06T14:06:19.000Z</time>
      </trkpt>
      <trkpt lat="47.30505" lon="-1.33818">
        <ele>52</ele>
        <time>2021-03-06T14:06:21.000Z</time>
      </trkpt>
      <trkpt lat="47.30515" lon="-1.33813">
        <ele>52</ele>
        <time>2021-03-06T14:06:23.000Z</time>
      </trkpt>
      <trkpt lat="47.30524" lon="-1.33806">
        <ele>56</ele>
        <time>2021-03-06T14:06:25.000Z</time>
      </trkpt>
      <trkpt lat="47.3054" lon="-1.33798">
        <ele>54</ele>
        <time>2021-03-06T14:06:28.000Z</time>
      </trkpt>
      <trkpt lat="47.3055" lon="-1.33794">
        <ele>54</ele>
        <time>2021-03-06T14:06:30.000Z</time>
      </trkpt>
      <trkpt lat="47.30562" lon="-1.33786">
        <ele>55</ele>
        <time>2021-03-06T14:06:33.000Z</time>
      </trkpt>
      <trkpt lat="47.30577" lon="-1.33778">
        <ele>55</ele>
        <time>2021-03-06T14:06:36.000Z</time>
      </trkpt>
      <trkpt lat="47.30587" lon="-1.33775">
        <ele>56</ele>
        <time>2021-03-06T14:06:38.000Z</time>
      </trkpt>
      <trkpt lat="47.30598" lon="-1.33772">
        <ele>56</ele>
        <time>2021-03-06T14:06:40.000Z</time>
      </trkpt>
      <trkpt lat="47.30608" lon="-1.33768">
        <ele>56</ele>
        <time>2021-03-06T14:06:42.000Z</time>
      </trkpt>
      <trkpt lat="47.30618" lon="-1.33765">
        <ele>56</ele>
        <time>2021-03-06T14:06:44.000Z</time>
      </trkpt>
      <trkpt lat="47.30633" lon="-1.3376">
        <ele>56</ele>
        <time>2021-03-06T14:06:47.000Z</time>
      </trkpt>
      <trkpt lat="47.30645" lon="-1.33756">
        <ele>57</ele>
        <time>2021-03-06T14:06:49.000Z</time>
      </trkpt>
      <trkpt lat="47.30658" lon="-1.33749">
        <ele>56</ele>
        <time>2021-03-06T14:06:52.000Z</time>
      </trkpt>
      <trkpt lat="47.30668" lon="-1.33741">
        <ele>56</ele>
        <time>2021-03-06T14:06:54.000Z</time>
      </trkpt>
      <trkpt lat="47.30682" lon="-1.33731">
        <ele>55</ele>
        <time>2021-03-06T14:06:57.000Z</time>
      </trkpt>
      <trkpt lat="47.30696" lon="-1.33718">
        <ele>51</ele>
        <time>2021-03-06T14:07:00.000Z</time>
      </trkpt>
      <trkpt lat="47.30702" lon="-1.33705">
        <ele>53</ele>
        <time>2021-03-06T14:07:02.000Z</time>
      </trkpt>
      <trkpt lat="47.30709" lon="-1.33694">
        <ele>53</ele>
        <time>2021-03-06T14:07:04.000Z</time>
      </trkpt>
      <trkpt lat="47.30714" lon="-1.33683">
        <ele>55</ele>
        <time>2021-03-06T14:07:06.000Z</time>
      </trkpt>
      <trkpt lat="47.3072" lon="-1.3367">
        <ele>54</ele>
        <time>2021-03-06T14:07:08.000Z</time>
      </trkpt>
      <trkpt lat="47.30723" lon="-1.33655">
        <ele>54</ele>
        <time>2021-03-06T14:07:10.000Z</time>
      </trkpt>
      <trkpt lat="47.30725" lon="-1.33641">
        <ele>54</ele>
        <time>2021-03-06T14:07:12.000Z</time>
      </trkpt>
      <trkpt lat="47.30724" lon="-1.33627">
        <ele>54</ele>
        <time>2021-03-06T14:07:14.000Z</time>
      </trkpt>
      <trkpt lat="47.3072" lon="-1.33612">
        <ele>54</ele>
        <time>2021-03-06T14:07:16.000Z</time>
      </trkpt>
      <trkpt lat="47.30715" lon="-1.33597">
        <ele>55</ele>
        <time>2021-03-06T14:07:18.000Z</time>
      </trkpt>
      <trkpt lat="47.30708" lon="-1.33575">
        <ele>54</ele>
        <time>2021-03-06T14:07:21.000Z</time>
      </trkpt>
      <trkpt lat="47.30703" lon="-1.33561">
        <ele>54</ele>
        <time>2021-03-06T14:07:23.000Z</time>
      </trkpt>
      <trkpt lat="47.30699" lon="-1.33547">
        <ele>54</ele>
        <time>2021-03-06T14:07:25.000Z</time>
      </trkpt>
      <trkpt lat="47.30692" lon="-1.33532">
        <ele>51</ele>
        <time>2021-03-06T14:07:27.000Z</time>
      </trkpt>
      <trkpt lat="47.30686" lon="-1.33511">
        <ele>51</ele>
        <time>2021-03-06T14:07:30.000Z</time>
      </trkpt>
      <trkpt lat="47.30678" lon="-1.3349">
        <ele>52</ele>
        <time>2021-03-06T14:07:33.000Z</time>
      </trkpt>
      <trkpt lat="47.30671" lon="-1.33467">
        <ele>51</ele>
        <time>2021-03-06T14:07:36.000Z</time>
      </trkpt>
      <trkpt lat="47.30666" lon="-1.33454">
        <ele>51</ele>
        <time>2021-03-06T14:07:38.000Z</time>
      </trkpt>
      <trkpt lat="47.30662" lon="-1.33439">
        <ele>52</ele>
        <time>2021-03-06T14:07:40.000Z</time>
      </trkpt>
      <trkpt lat="47.30657" lon="-1.33426">
        <ele>53</ele>
        <time>2021-03-06T14:07:42.000Z</time>
      </trkpt>
      <trkpt lat="47.30653" lon="-1.33412">
        <ele>53</ele>
        <time>2021-03-06T14:07:44.000Z</time>
      </trkpt>
      <trkpt lat="47.30649" lon="-1.33398">
        <ele>54</ele>
        <time>2021-03-06T14:07:46.000Z</time>
      </trkpt>
      <trkpt lat="47.30644" lon="-1.33384">
        <ele>54</ele>
        <time>2021-03-06T14:07:48.000Z</time>
      </trkpt>
      <trkpt lat="47.30632" lon="-1.33364">
        <ele>53</ele>
        <time>2021-03-06T14:07:51.000Z</time>
      </trkpt>
      <trkpt lat="47.30627" lon="-1.33349">
        <ele>52</ele>
        <time>2021-03-06T14:07:53.000Z</time>
      </trkpt>
      <trkpt lat="47.30623" lon="-1.33336">
        <ele>53</ele>
        <time>2021-03-06T14:07:55.000Z</time>
      </trkpt>
      <trkpt lat="47.30618" lon="-1.33323">
        <ele>53</ele>
        <time>2021-03-06T14:07:57.000Z</time>
      </trkpt>
      <trkpt lat="47.30614" lon="-1.33309">
        <ele>53</ele>
        <time>2021-03-06T14:07:59.000Z</time>
      </trkpt>
      <trkpt lat="47.30612" lon="-1.33284">
        <ele>55</ele>
        <time>2021-03-06T14:08:02.000Z</time>
      </trkpt>
      <trkpt lat="47.30614" lon="-1.3327">
        <ele>55</ele>
        <time>2021-03-06T14:08:04.000Z</time>
      </trkpt>
      <trkpt lat="47.30621" lon="-1.33251">
        <ele>55</ele>
        <time>2021-03-06T14:08:07.000Z</time>
      </trkpt>
      <trkpt lat="47.30628" lon="-1.33239">
        <ele>55</ele>
        <time>2021-03-06T14:08:09.000Z</time>
      </trkpt>
      <trkpt lat="47.30637" lon="-1.3323">
        <ele>55</ele>
        <time>2021-03-06T14:08:11.000Z</time>
      </trkpt>
      <trkpt lat="47.30649" lon="-1.33222">
        <ele>53</ele>
        <time>2021-03-06T14:08:13.000Z</time>
      </trkpt>
      <trkpt lat="47.30665" lon="-1.33217">
        <ele>54</ele>
        <time>2021-03-06T14:08:16.000Z</time>
      </trkpt>
      <trkpt lat="47.30675" lon="-1.33215">
        <ele>55</ele>
        <time>2021-03-06T14:08:18.000Z</time>
      </trkpt>
      <trkpt lat="47.30684" lon="-1.33212">
        <ele>55</ele>
        <time>2021-03-06T14:08:20.000Z</time>
      </trkpt>
      <trkpt lat="47.30695" lon="-1.33209">
        <ele>55</ele>
        <time>2021-03-06T14:08:22.000Z</time>
      </trkpt>
      <trkpt lat="47.30704" lon="-1.33206">
        <ele>55</ele>
        <time>2021-03-06T14:08:24.000Z</time>
      </trkpt>
      <trkpt lat="47.30715" lon="-1.33201">
        <ele>55</ele>
        <time>2021-03-06T14:08:26.000Z</time>
      </trkpt>
      <trkpt lat="47.30725" lon="-1.33197">
        <ele>55</ele>
        <time>2021-03-06T14:08:28.000Z</time>
      </trkpt>
      <trkpt lat="47.30735" lon="-1.33193">
        <ele>55</ele>
        <time>2021-03-06T14:08:30.000Z</time>
      </trkpt>
      <trkpt lat="47.30746" lon="-1.33189">
        <ele>55</ele>
        <time>2021-03-06T14:08:32.000Z</time>
      </trkpt>
      <trkpt lat="47.30762" lon="-1.33182">
        <ele>55</ele>
        <time>2021-03-06T14:08:35.000Z</time>
      </trkpt>
      <trkpt lat="47.30778" lon="-1.33176">
        <ele>54</ele>
        <time>2021-03-06T14:08:38.000Z</time>
      </trkpt>
      <trkpt lat="47.30788" lon="-1.33169">
        <ele>52</ele>
        <time>2021-03-06T14:08:40.000Z</time>
      </trkpt>
      <trkpt lat="47.30798" lon="-1.33165">
        <ele>51</ele>
        <time>2021-03-06T14:08:42.000Z</time>
      </trkpt>
      <trkpt lat="47.3081" lon="-1.33161">
        <ele>51</ele>
        <time>2021-03-06T14:08:44.000Z</time>
      </trkpt>
      <trkpt lat="47.3082" lon="-1.33156">
        <ele>51</ele>
        <time>2021-03-06T14:08:46.000Z</time>
      </trkpt>
      <trkpt lat="47.30837" lon="-1.33149">
        <ele>53</ele>
        <time>2021-03-06T14:08:49.000Z</time>
      </trkpt>
      <trkpt lat="47.30846" lon="-1.33143">
        <ele>51</ele>
        <time>2021-03-06T14:08:51.000Z</time>
      </trkpt>
      <trkpt lat="47.30862" lon="-1.33136">
        <ele>51</ele>
        <time>2021-03-06T14:08:54.000Z</time>
      </trkpt>
      <trkpt lat="47.30873" lon="-1.3313">
        <ele>51</ele>
        <time>2021-03-06T14:08:56.000Z</time>
      </trkpt>
      <trkpt lat="47.30885" lon="-1.33126">
        <ele>53</ele>
        <time>2021-03-06T14:08:58.000Z</time>
      </trkpt>
      <trkpt lat="47.30897" lon="-1.33123">
        <ele>54</ele>
        <time>2021-03-06T14:09:00.000Z</time>
      </trkpt>
      <trkpt lat="47.30908" lon="-1.33119">
        <ele>54</ele>
        <time>2021-03-06T14:09:02.000Z</time>
      </trkpt>
      <trkpt lat="47.30926" lon="-1.33112">
        <ele>54</ele>
        <time>2021-03-06T14:09:05.000Z</time>
      </trkpt>
      <trkpt lat="47.30937" lon="-1.33108">
        <ele>54</ele>
        <time>2021-03-06T14:09:07.000Z</time>
      </trkpt>
      <trkpt lat="47.30948" lon="-1.33104">
        <ele>54</ele>
        <time>2021-03-06T14:09:09.000Z</time>
      </trkpt>
      <trkpt lat="47.30958" lon="-1.33099">
        <ele>54</ele>
        <time>2021-03-06T14:09:11.000Z</time>
      </trkpt>
      <trkpt lat="47.30969" lon="-1.33094">
        <ele>53</ele>
        <time>2021-03-06T14:09:13.000Z</time>
      </trkpt>
      <trkpt lat="47.30979" lon="-1.3309">
        <ele>54</ele>
        <time>2021-03-06T14:09:15.000Z</time>
      </trkpt>
      <trkpt lat="47.30991" lon="-1.33085">
        <ele>54</ele>
        <time>2021-03-06T14:09:17.000Z</time>
      </trkpt>
      <trkpt lat="47.31001" lon="-1.33081">
        <ele>53</ele>
        <time>2021-03-06T14:09:19.000Z</time>
      </trkpt>
      <trkpt lat="47.31017" lon="-1.33074">
        <ele>54</ele>
        <time>2021-03-06T14:09:22.000Z</time>
      </trkpt>
      <trkpt lat="47.31029" lon="-1.33071">
        <ele>53</ele>
        <time>2021-03-06T14:09:24.000Z</time>
      </trkpt>
      <trkpt lat="47.31046" lon="-1.33064">
        <ele>54</ele>
        <time>2021-03-06T14:09:27.000Z</time>
      </trkpt>
      <trkpt lat="47.31056" lon="-1.33057">
        <ele>54</ele>
        <time>2021-03-06T14:09:29.000Z</time>
      </trkpt>
      <trkpt lat="47.31067" lon="-1.33052">
        <ele>55</ele>
        <time>2021-03-06T14:09:31.000Z</time>
      </trkpt>
      <trkpt lat="47.31078" lon="-1.33047">
        <ele>53</ele>
        <time>2021-03-06T14:09:33.000Z</time>
      </trkpt>
      <trkpt lat="47.31093" lon="-1.33041">
        <ele>54</ele>
        <time>2021-03-06T14:09:36.000Z</time>
      </trkpt>
      <trkpt lat="47.31104" lon="-1.33037">
        <ele>55</ele>
        <time>2021-03-06T14:09:38.000Z</time>
      </trkpt>
      <trkpt lat="47.31114" lon="-1.33034">
        <ele>54</ele>
        <time>2021-03-06T14:09:40.000Z</time>
      </trkpt>
      <trkpt lat="47.31125" lon="-1.33029">
        <ele>51</ele>
        <time>2021-03-06T14:09:42.000Z</time>
      </trkpt>
      <trkpt lat="47.31136" lon="-1.33025">
        <ele>53</ele>
        <time>2021-03-06T14:09:44.000Z</time>
      </trkpt>
      <trkpt lat="47.31147" lon="-1.33021">
        <ele>53</ele>
        <time>2021-03-06T14:09:46.000Z</time>
      </trkpt>
      <trkpt lat="47.31157" lon="-1.33017">
        <ele>54</ele>
        <time>2021-03-06T14:09:48.000Z</time>
      </trkpt>
      <trkpt lat="47.31173" lon="-1.33011">
        <ele>54</ele>
        <time>2021-03-06T14:09:51.000Z</time>
      </trkpt>
      <trkpt lat="47.31189" lon="-1.33005">
        <ele>54</ele>
        <time>2021-03-06T14:09:54.000Z</time>
      </trkpt>
      <trkpt lat="47.31199" lon="-1.33">
        <ele>55</ele>
        <time>2021-03-06T14:09:56.000Z</time>
      </trkpt>
      <trkpt lat="47.31211" lon="-1.32997">
        <ele>55</ele>
        <time>2021-03-06T14:09:58.000Z</time>
      </trkpt>
      <trkpt lat="47.31222" lon="-1.32992">
        <ele>55</ele>
        <time>2021-03-06T14:10:00.000Z</time>
      </trkpt>
      <trkpt lat="47.31237" lon="-1.32983">
        <ele>54</ele>
        <time>2021-03-06T14:10:03.000Z</time>
      </trkpt>
      <trkpt lat="47.31248" lon="-1.32977">
        <ele>53</ele>
        <time>2021-03-06T14:10:05.000Z</time>
      </trkpt>
      <trkpt lat="47.31259" lon="-1.32969">
        <ele>53</ele>
        <time>2021-03-06T14:10:07.000Z</time>
      </trkpt>
      <trkpt lat="47.31274" lon="-1.32956">
        <ele>53</ele>
        <time>2021-03-06T14:10:10.000Z</time>
      </trkpt>
      <trkpt lat="47.31284" lon="-1.32949">
        <ele>53</ele>
        <time>2021-03-06T14:10:12.000Z</time>
      </trkpt>
      <trkpt lat="47.31294" lon="-1.3294">
        <ele>54</ele>
        <time>2021-03-06T14:10:14.000Z</time>
      </trkpt>
      <trkpt lat="47.31304" lon="-1.32932">
        <ele>54</ele>
        <time>2021-03-06T14:10:16.000Z</time>
      </trkpt>
      <trkpt lat="47.31314" lon="-1.32924">
        <ele>54</ele>
        <time>2021-03-06T14:10:18.000Z</time>
      </trkpt>
      <trkpt lat="47.31326" lon="-1.3291">
        <ele>54</ele>
        <time>2021-03-06T14:10:21.000Z</time>
      </trkpt>
      <trkpt lat="47.31335" lon="-1.32903">
        <ele>53</ele>
        <time>2021-03-06T14:10:23.000Z</time>
      </trkpt>
      <trkpt lat="47.31345" lon="-1.32896">
        <ele>53</ele>
        <time>2021-03-06T14:10:25.000Z</time>
      </trkpt>
      <trkpt lat="47.3136" lon="-1.32883">
        <ele>53</ele>
        <time>2021-03-06T14:10:28.000Z</time>
      </trkpt>
      <trkpt lat="47.3137" lon="-1.32874">
        <ele>50</ele>
        <time>2021-03-06T14:10:30.000Z</time>
      </trkpt>
      <trkpt lat="47.31379" lon="-1.32865">
        <ele>53</ele>
        <time>2021-03-06T14:10:32.000Z</time>
      </trkpt>
      <trkpt lat="47.31389" lon="-1.32857">
        <ele>54</ele>
        <time>2021-03-06T14:10:34.000Z</time>
      </trkpt>
      <trkpt lat="47.31397" lon="-1.3285">
        <ele>54</ele>
        <time>2021-03-06T14:10:36.000Z</time>
      </trkpt>
      <trkpt lat="47.31406" lon="-1.32843">
        <ele>55</ele>
        <time>2021-03-06T14:10:38.000Z</time>
      </trkpt>
      <trkpt lat="47.3142" lon="-1.32832">
        <ele>55</ele>
        <time>2021-03-06T14:10:41.000Z</time>
      </trkpt>
      <trkpt lat="47.31429" lon="-1.32823">
        <ele>55</ele>
        <time>2021-03-06T14:10:43.000Z</time>
      </trkpt>
      <trkpt lat="47.31438" lon="-1.32815">
        <ele>54</ele>
        <time>2021-03-06T14:10:45.000Z</time>
      </trkpt>
      <trkpt lat="47.31458" lon="-1.32802">
        <ele>53</ele>
        <time>2021-03-06T14:10:49.000Z</time>
      </trkpt>
      <trkpt lat="47.31467" lon="-1.32796">
        <ele>55</ele>
        <time>2021-03-06T14:10:51.000Z</time>
      </trkpt>
      <trkpt lat="47.31477" lon="-1.32788">
        <ele>55</ele>
        <time>2021-03-06T14:10:53.000Z</time>
      </trkpt>
      <trkpt lat="47.31485" lon="-1.32779">
        <ele>56</ele>
        <time>2021-03-06T14:10:55.000Z</time>
      </trkpt>
      <trkpt lat="47.31494" lon="-1.32769">
        <ele>56</ele>
        <time>2021-03-06T14:10:57.000Z</time>
      </trkpt>
      <trkpt lat="47.31502" lon="-1.32759">
        <ele>57</ele>
        <time>2021-03-06T14:10:59.000Z</time>
      </trkpt>
      <trkpt lat="47.3151" lon="-1.3275">
        <ele>58</ele>
        <time>2021-03-06T14:11:01.000Z</time>
      </trkpt>
      <trkpt lat="47.31521" lon="-1.32736">
        <ele>58</ele>
        <time>2021-03-06T14:11:04.000Z</time>
      </trkpt>
      <trkpt lat="47.31533" lon="-1.32722">
        <ele>59</ele>
        <time>2021-03-06T14:11:07.000Z</time>
      </trkpt>
      <trkpt lat="47.31541" lon="-1.32711">
        <ele>59</ele>
        <time>2021-03-06T14:11:09.000Z</time>
      </trkpt>
      <trkpt lat="47.3155" lon="-1.327">
        <ele>58</ele>
        <time>2021-03-06T14:11:11.000Z</time>
      </trkpt>
      <trkpt lat="47.31558" lon="-1.3269">
        <ele>57</ele>
        <time>2021-03-06T14:11:13.000Z</time>
      </trkpt>
      <trkpt lat="47.31574" lon="-1.32669">
        <ele>55</ele>
        <time>2021-03-06T14:11:17.000Z</time>
      </trkpt>
      <trkpt lat="47.31583" lon="-1.32659">
        <ele>55</ele>
        <time>2021-03-06T14:11:19.000Z</time>
      </trkpt>
      <trkpt lat="47.31592" lon="-1.32647">
        <ele>54</ele>
        <time>2021-03-06T14:11:21.000Z</time>
      </trkpt>
      <trkpt lat="47.316" lon="-1.32636">
        <ele>54</ele>
        <time>2021-03-06T14:11:23.000Z</time>
      </trkpt>
      <trkpt lat="47.31608" lon="-1.32624">
        <ele>55</ele>
        <time>2021-03-06T14:11:25.000Z</time>
      </trkpt>
      <trkpt lat="47.31616" lon="-1.32612">
        <ele>55</ele>
        <time>2021-03-06T14:11:27.000Z</time>
      </trkpt>
      <trkpt lat="47.31623" lon="-1.326">
        <ele>55</ele>
        <time>2021-03-06T14:11:29.000Z</time>
      </trkpt>
      <trkpt lat="47.31629" lon="-1.32588">
        <ele>56</ele>
        <time>2021-03-06T14:11:31.000Z</time>
      </trkpt>
      <trkpt lat="47.31635" lon="-1.32576">
        <ele>55</ele>
        <time>2021-03-06T14:11:33.000Z</time>
      </trkpt>
      <trkpt lat="47.31645" lon="-1.32557">
        <ele>54</ele>
        <time>2021-03-06T14:11:36.000Z</time>
      </trkpt>
      <trkpt lat="47.31651" lon="-1.32544">
        <ele>54</ele>
        <time>2021-03-06T14:11:38.000Z</time>
      </trkpt>
      <trkpt lat="47.31657" lon="-1.32532">
        <ele>54</ele>
        <time>2021-03-06T14:11:40.000Z</time>
      </trkpt>
      <trkpt lat="47.31673" lon="-1.32508">
        <ele>51</ele>
        <time>2021-03-06T14:11:44.000Z</time>
      </trkpt>
      <trkpt lat="47.31678" lon="-1.32488">
        <ele>51</ele>
        <time>2021-03-06T14:11:47.000Z</time>
      </trkpt>
      <trkpt lat="47.31683" lon="-1.32467">
        <ele>52</ele>
        <time>2021-03-06T14:11:50.000Z</time>
      </trkpt>
      <trkpt lat="47.31684" lon="-1.32451">
        <ele>52</ele>
        <time>2021-03-06T14:11:52.000Z</time>
      </trkpt>
      <trkpt lat="47.31684" lon="-1.32436">
        <ele>53</ele>
        <time>2021-03-06T14:11:54.000Z</time>
      </trkpt>
      <trkpt lat="47.31685" lon="-1.32422">
        <ele>53</ele>
        <time>2021-03-06T14:11:56.000Z</time>
      </trkpt>
      <trkpt lat="47.31686" lon="-1.324">
        <ele>53</ele>
        <time>2021-03-06T14:11:59.000Z</time>
      </trkpt>
      <trkpt lat="47.31688" lon="-1.32378">
        <ele>56</ele>
        <time>2021-03-06T14:12:02.000Z</time>
      </trkpt>
      <trkpt lat="47.31692" lon="-1.32362">
        <ele>56</ele>
        <time>2021-03-06T14:12:04.000Z</time>
      </trkpt>
      <trkpt lat="47.31696" lon="-1.32338">
        <ele>55</ele>
        <time>2021-03-06T14:12:07.000Z</time>
      </trkpt>
      <trkpt lat="47.317" lon="-1.32324">
        <ele>54</ele>
        <time>2021-03-06T14:12:09.000Z</time>
      </trkpt>
      <trkpt lat="47.31703" lon="-1.32309">
        <ele>55</ele>
        <time>2021-03-06T14:12:11.000Z</time>
      </trkpt>
      <trkpt lat="47.31709" lon="-1.32286">
        <ele>53</ele>
        <time>2021-03-06T14:12:14.000Z</time>
      </trkpt>
      <trkpt lat="47.31715" lon="-1.32254">
        <ele>54</ele>
        <time>2021-03-06T14:12:19.000Z</time>
      </trkpt>
      <trkpt lat="47.31717" lon="-1.32238">
        <ele>52</ele>
        <time>2021-03-06T14:12:21.000Z</time>
      </trkpt>
      <trkpt lat="47.31718" lon="-1.32223">
        <ele>51</ele>
        <time>2021-03-06T14:12:23.000Z</time>
      </trkpt>
      <trkpt lat="47.3172" lon="-1.32208">
        <ele>52</ele>
        <time>2021-03-06T14:12:25.000Z</time>
      </trkpt>
      <trkpt lat="47.31722" lon="-1.32192">
        <ele>53</ele>
        <time>2021-03-06T14:12:27.000Z</time>
      </trkpt>
      <trkpt lat="47.31722" lon="-1.32174">
        <ele>53</ele>
        <time>2021-03-06T14:12:29.000Z</time>
      </trkpt>
      <trkpt lat="47.31726" lon="-1.32159">
        <ele>53</ele>
        <time>2021-03-06T14:12:31.000Z</time>
      </trkpt>
      <trkpt lat="47.31729" lon="-1.32146">
        <ele>54</ele>
        <time>2021-03-06T14:12:33.000Z</time>
      </trkpt>
      <trkpt lat="47.31734" lon="-1.32132">
        <ele>54</ele>
        <time>2021-03-06T14:12:35.000Z</time>
      </trkpt>
      <trkpt lat="47.31742" lon="-1.32105">
        <ele>55</ele>
        <time>2021-03-06T14:12:39.000Z</time>
      </trkpt>
      <trkpt lat="47.31747" lon="-1.3209">
        <ele>55</ele>
        <time>2021-03-06T14:12:41.000Z</time>
      </trkpt>
      <trkpt lat="47.31752" lon="-1.32077">
        <ele>54</ele>
        <time>2021-03-06T14:12:43.000Z</time>
      </trkpt>
      <trkpt lat="47.31758" lon="-1.32064">
        <ele>53</ele>
        <time>2021-03-06T14:12:45.000Z</time>
      </trkpt>
      <trkpt lat="47.31763" lon="-1.32051">
        <ele>53</ele>
        <time>2021-03-06T14:12:47.000Z</time>
      </trkpt>
      <trkpt lat="47.31771" lon="-1.32035">
        <ele>53</ele>
        <time>2021-03-06T14:12:50.000Z</time>
      </trkpt>
      <trkpt lat="47.31776" lon="-1.32021">
        <ele>53</ele>
        <time>2021-03-06T14:12:52.000Z</time>
      </trkpt>
      <trkpt lat="47.3178" lon="-1.32007">
        <ele>51</ele>
        <time>2021-03-06T14:12:54.000Z</time>
      </trkpt>
      <trkpt lat="47.31785" lon="-1.31991">
        <ele>51</ele>
        <time>2021-03-06T14:12:56.000Z</time>
      </trkpt>
      <trkpt lat="47.31792" lon="-1.31971">
        <ele>54</ele>
        <time>2021-03-06T14:12:59.000Z</time>
      </trkpt>
      <trkpt lat="47.31795" lon="-1.31958">
        <ele>54</ele>
        <time>2021-03-06T14:13:01.000Z</time>
      </trkpt>
      <trkpt lat="47.31799" lon="-1.31944">
        <ele>52</ele>
        <time>2021-03-06T14:13:04.000Z</time>
      </trkpt>
      <trkpt lat="47.31811" lon="-1.31948">
        <ele>54</ele>
        <time>2021-03-06T14:13:07.000Z</time>
      </trkpt>
      <trkpt lat="47.31824" lon="-1.31957">
        <ele>54</ele>
        <time>2021-03-06T14:13:09.000Z</time>
      </trkpt>
      <trkpt lat="47.31837" lon="-1.31965">
        <ele>54</ele>
        <time>2021-03-06T14:13:11.000Z</time>
      </trkpt>
      <trkpt lat="47.3185" lon="-1.31974">
        <ele>54</ele>
        <time>2021-03-06T14:13:13.000Z</time>
      </trkpt>
      <trkpt lat="47.31869" lon="-1.31986">
        <ele>54</ele>
        <time>2021-03-06T14:13:16.000Z</time>
      </trkpt>
      <trkpt lat="47.3188" lon="-1.31994">
        <ele>54</ele>
        <time>2021-03-06T14:13:18.000Z</time>
      </trkpt>
      <trkpt lat="47.31892" lon="-1.32">
        <ele>54</ele>
        <time>2021-03-06T14:13:20.000Z</time>
      </trkpt>
      <trkpt lat="47.31903" lon="-1.32005">
        <ele>54</ele>
        <time>2021-03-06T14:13:22.000Z</time>
      </trkpt>
      <trkpt lat="47.31917" lon="-1.3201">
        <ele>53</ele>
        <time>2021-03-06T14:13:25.000Z</time>
      </trkpt>
      <trkpt lat="47.31933" lon="-1.32012">
        <ele>51</ele>
        <time>2021-03-06T14:13:28.000Z</time>
      </trkpt>
      <trkpt lat="47.31943" lon="-1.32009">
        <ele>52</ele>
        <time>2021-03-06T14:13:30.000Z</time>
      </trkpt>
      <trkpt lat="47.31955" lon="-1.32001">
        <ele>50</ele>
        <time>2021-03-06T14:13:33.000Z</time>
      </trkpt>
      <trkpt lat="47.31965" lon="-1.31989">
        <ele>51</ele>
        <time>2021-03-06T14:13:36.000Z</time>
      </trkpt>
      <trkpt lat="47.31971" lon="-1.31977">
        <ele>52</ele>
        <time>2021-03-06T14:13:37.000Z</time>
      </trkpt>
      <trkpt lat="47.31978" lon="-1.31961">
        <ele>49</ele>
        <time>2021-03-06T14:13:39.000Z</time>
      </trkpt>
      <trkpt lat="47.31993" lon="-1.31936">
        <ele>50</ele>
        <time>2021-03-06T14:13:42.000Z</time>
      </trkpt>
      <trkpt lat="47.31997" lon="-1.31918">
        <ele>49</ele>
        <time>2021-03-06T14:13:44.000Z</time>
      </trkpt>
      <trkpt lat="47.32002" lon="-1.31904">
        <ele>50</ele>
        <time>2021-03-06T14:13:46.000Z</time>
      </trkpt>
      <trkpt lat="47.32008" lon="-1.31889">
        <ele>50</ele>
        <time>2021-03-06T14:13:48.000Z</time>
      </trkpt>
      <trkpt lat="47.32017" lon="-1.31866">
        <ele>50</ele>
        <time>2021-03-06T14:13:51.000Z</time>
      </trkpt>
      <trkpt lat="47.32022" lon="-1.3185">
        <ele>50</ele>
        <time>2021-03-06T14:13:53.000Z</time>
      </trkpt>
      <trkpt lat="47.32027" lon="-1.31834">
        <ele>50</ele>
        <time>2021-03-06T14:13:55.000Z</time>
      </trkpt>
      <trkpt lat="47.32033" lon="-1.31819">
        <ele>51</ele>
        <time>2021-03-06T14:13:57.000Z</time>
      </trkpt>
      <trkpt lat="47.32039" lon="-1.31803">
        <ele>51</ele>
        <time>2021-03-06T14:13:59.000Z</time>
      </trkpt>
      <trkpt lat="47.32044" lon="-1.31787">
        <ele>51</ele>
        <time>2021-03-06T14:14:01.000Z</time>
      </trkpt>
      <trkpt lat="47.3205" lon="-1.31772">
        <ele>51</ele>
        <time>2021-03-06T14:14:03.000Z</time>
      </trkpt>
      <trkpt lat="47.3206" lon="-1.31748">
        <ele>51</ele>
        <time>2021-03-06T14:14:06.000Z</time>
      </trkpt>
      <trkpt lat="47.3207" lon="-1.31726">
        <ele>52</ele>
        <time>2021-03-06T14:14:09.000Z</time>
      </trkpt>
      <trkpt lat="47.32083" lon="-1.31707">
        <ele>49</ele>
        <time>2021-03-06T14:14:12.000Z</time>
      </trkpt>
      <trkpt lat="47.3209" lon="-1.31693">
        <ele>52</ele>
        <time>2021-03-06T14:14:14.000Z</time>
      </trkpt>
      <trkpt lat="47.32097" lon="-1.31682">
        <ele>52</ele>
        <time>2021-03-06T14:14:16.000Z</time>
      </trkpt>
      <trkpt lat="47.32104" lon="-1.31667">
        <ele>52</ele>
        <time>2021-03-06T14:14:18.000Z</time>
      </trkpt>
      <trkpt lat="47.32113" lon="-1.31652">
        <ele>52</ele>
        <time>2021-03-06T14:14:20.000Z</time>
      </trkpt>
      <trkpt lat="47.32122" lon="-1.31638">
        <ele>53</ele>
        <time>2021-03-06T14:14:22.000Z</time>
      </trkpt>
      <trkpt lat="47.32131" lon="-1.31623">
        <ele>53</ele>
        <time>2021-03-06T14:14:24.000Z</time>
      </trkpt>
      <trkpt lat="47.3214" lon="-1.3161">
        <ele>53</ele>
        <time>2021-03-06T14:14:26.000Z</time>
      </trkpt>
      <trkpt lat="47.32148" lon="-1.31598">
        <ele>54</ele>
        <time>2021-03-06T14:14:28.000Z</time>
      </trkpt>
      <trkpt lat="47.32158" lon="-1.31582">
        <ele>52</ele>
        <time>2021-03-06T14:14:30.000Z</time>
      </trkpt>
      <trkpt lat="47.32166" lon="-1.3157">
        <ele>51</ele>
        <time>2021-03-06T14:14:32.000Z</time>
      </trkpt>
      <trkpt lat="47.32173" lon="-1.31558">
        <ele>52</ele>
        <time>2021-03-06T14:14:34.000Z</time>
      </trkpt>
      <trkpt lat="47.32181" lon="-1.31545">
        <ele>52</ele>
        <time>2021-03-06T14:14:36.000Z</time>
      </trkpt>
      <trkpt lat="47.32191" lon="-1.31525">
        <ele>53</ele>
        <time>2021-03-06T14:14:39.000Z</time>
      </trkpt>
      <trkpt lat="47.32203" lon="-1.31506">
        <ele>53</ele>
        <time>2021-03-06T14:14:42.000Z</time>
      </trkpt>
      <trkpt lat="47.32214" lon="-1.31489">
        <ele>54</ele>
        <time>2021-03-06T14:14:45.000Z</time>
      </trkpt>
      <trkpt lat="47.32225" lon="-1.31468">
        <ele>51</ele>
        <time>2021-03-06T14:14:48.000Z</time>
      </trkpt>
      <trkpt lat="47.32232" lon="-1.31456">
        <ele>52</ele>
        <time>2021-03-06T14:14:50.000Z</time>
      </trkpt>
      <trkpt lat="47.3224" lon="-1.31444">
        <ele>53</ele>
        <time>2021-03-06T14:14:52.000Z</time>
      </trkpt>
      <trkpt lat="47.32248" lon="-1.31432">
        <ele>53</ele>
        <time>2021-03-06T14:14:54.000Z</time>
      </trkpt>
      <trkpt lat="47.32255" lon="-1.31421">
        <ele>53</ele>
        <time>2021-03-06T14:14:56.000Z</time>
      </trkpt>
      <trkpt lat="47.32266" lon="-1.31404">
        <ele>52</ele>
        <time>2021-03-06T14:14:59.000Z</time>
      </trkpt>
      <trkpt lat="47.32274" lon="-1.31392">
        <ele>51</ele>
        <time>2021-03-06T14:15:01.000Z</time>
      </trkpt>
      <trkpt lat="47.32283" lon="-1.3138">
        <ele>51</ele>
        <time>2021-03-06T14:15:03.000Z</time>
      </trkpt>
      <trkpt lat="47.32296" lon="-1.31362">
        <ele>52</ele>
        <time>2021-03-06T14:15:06.000Z</time>
      </trkpt>
      <trkpt lat="47.32304" lon="-1.3135">
        <ele>52</ele>
        <time>2021-03-06T14:15:08.000Z</time>
      </trkpt>
      <trkpt lat="47.32312" lon="-1.31339">
        <ele>52</ele>
        <time>2021-03-06T14:15:10.000Z</time>
      </trkpt>
      <trkpt lat="47.3232" lon="-1.31326">
        <ele>52</ele>
        <time>2021-03-06T14:15:12.000Z</time>
      </trkpt>
      <trkpt lat="47.32333" lon="-1.31307">
        <ele>53</ele>
        <time>2021-03-06T14:15:15.000Z</time>
      </trkpt>
      <trkpt lat="47.32351" lon="-1.31281">
        <ele>49</ele>
        <time>2021-03-06T14:15:19.000Z</time>
      </trkpt>
      <trkpt lat="47.32359" lon="-1.31263">
        <ele>50</ele>
        <time>2021-03-06T14:15:22.000Z</time>
      </trkpt>
      <trkpt lat="47.32366" lon="-1.31249">
        <ele>50</ele>
        <time>2021-03-06T14:15:24.000Z</time>
      </trkpt>
      <trkpt lat="47.32376" lon="-1.31227">
        <ele>51</ele>
        <time>2021-03-06T14:15:27.000Z</time>
      </trkpt>
      <trkpt lat="47.32382" lon="-1.31213">
        <ele>52</ele>
        <time>2021-03-06T14:15:29.000Z</time>
      </trkpt>
      <trkpt lat="47.32387" lon="-1.31198">
        <ele>52</ele>
        <time>2021-03-06T14:15:31.000Z</time>
      </trkpt>
      <trkpt lat="47.32392" lon="-1.31184">
        <ele>53</ele>
        <time>2021-03-06T14:15:33.000Z</time>
      </trkpt>
      <trkpt lat="47.32397" lon="-1.31168">
        <ele>54</ele>
        <time>2021-03-06T14:15:35.000Z</time>
      </trkpt>
      <trkpt lat="47.32402" lon="-1.31154">
        <ele>54</ele>
        <time>2021-03-06T14:15:37.000Z</time>
      </trkpt>
      <trkpt lat="47.32407" lon="-1.31138">
        <ele>54</ele>
        <time>2021-03-06T14:15:39.000Z</time>
      </trkpt>
      <trkpt lat="47.32411" lon="-1.31122">
        <ele>54</ele>
        <time>2021-03-06T14:15:41.000Z</time>
      </trkpt>
      <trkpt lat="47.32415" lon="-1.31107">
        <ele>54</ele>
        <time>2021-03-06T14:15:43.000Z</time>
      </trkpt>
      <trkpt lat="47.32422" lon="-1.31085">
        <ele>54</ele>
        <time>2021-03-06T14:15:46.000Z</time>
      </trkpt>
      <trkpt lat="47.32427" lon="-1.3107">
        <ele>54</ele>
        <time>2021-03-06T14:15:48.000Z</time>
      </trkpt>
      <trkpt lat="47.32432" lon="-1.31054">
        <ele>54</ele>
        <time>2021-03-06T14:15:50.000Z</time>
      </trkpt>
      <trkpt lat="47.32436" lon="-1.31039">
        <ele>54</ele>
        <time>2021-03-06T14:15:52.000Z</time>
      </trkpt>
      <trkpt lat="47.3244" lon="-1.31025">
        <ele>54</ele>
        <time>2021-03-06T14:15:54.000Z</time>
      </trkpt>
      <trkpt lat="47.32444" lon="-1.3101">
        <ele>54</ele>
        <time>2021-03-06T14:15:56.000Z</time>
      </trkpt>
      <trkpt lat="47.32447" lon="-1.30994">
        <ele>54</ele>
        <time>2021-03-06T14:15:58.000Z</time>
      </trkpt>
      <trkpt lat="47.32451" lon="-1.30977">
        <ele>54</ele>
        <time>2021-03-06T14:16:00.000Z</time>
      </trkpt>
      <trkpt lat="47.32455" lon="-1.30961">
        <ele>54</ele>
        <time>2021-03-06T14:16:02.000Z</time>
      </trkpt>
      <trkpt lat="47.32461" lon="-1.30945">
        <ele>54</ele>
        <time>2021-03-06T14:16:04.000Z</time>
      </trkpt>
      <trkpt lat="47.32468" lon="-1.30931">
        <ele>55</ele>
        <time>2021-03-06T14:16:06.000Z</time>
      </trkpt>
      <trkpt lat="47.32471" lon="-1.30913">
        <ele>53</ele>
        <time>2021-03-06T14:16:08.000Z</time>
      </trkpt>
      <trkpt lat="47.32477" lon="-1.30901">
        <ele>53</ele>
        <time>2021-03-06T14:16:10.000Z</time>
      </trkpt>
      <trkpt lat="47.32484" lon="-1.30883">
        <ele>50</ele>
        <time>2021-03-06T14:16:13.000Z</time>
      </trkpt>
      <trkpt lat="47.32488" lon="-1.30868">
        <ele>51</ele>
        <time>2021-03-06T14:16:15.000Z</time>
      </trkpt>
      <trkpt lat="47.32498" lon="-1.30843">
        <ele>52</ele>
        <time>2021-03-06T14:16:18.000Z</time>
      </trkpt>
      <trkpt lat="47.32503" lon="-1.30828">
        <ele>52</ele>
        <time>2021-03-06T14:16:20.000Z</time>
      </trkpt>
      <trkpt lat="47.32509" lon="-1.30813">
        <ele>54</ele>
        <time>2021-03-06T14:16:22.000Z</time>
      </trkpt>
      <trkpt lat="47.32517" lon="-1.30798">
        <ele>55</ele>
        <time>2021-03-06T14:16:24.000Z</time>
      </trkpt>
      <trkpt lat="47.32522" lon="-1.30783">
        <ele>55</ele>
        <time>2021-03-06T14:16:26.000Z</time>
      </trkpt>
      <trkpt lat="47.32529" lon="-1.30765">
        <ele>55</ele>
        <time>2021-03-06T14:16:29.000Z</time>
      </trkpt>
      <trkpt lat="47.32537" lon="-1.3075">
        <ele>55</ele>
        <time>2021-03-06T14:16:31.000Z</time>
      </trkpt>
      <trkpt lat="47.32543" lon="-1.30735">
        <ele>55</ele>
        <time>2021-03-06T14:16:33.000Z</time>
      </trkpt>
      <trkpt lat="47.32548" lon="-1.3072">
        <ele>55</ele>
        <time>2021-03-06T14:16:35.000Z</time>
      </trkpt>
      <trkpt lat="47.32554" lon="-1.30707">
        <ele>55</ele>
        <time>2021-03-06T14:16:37.000Z</time>
      </trkpt>
      <trkpt lat="47.32561" lon="-1.30693">
        <ele>54</ele>
        <time>2021-03-06T14:16:39.000Z</time>
      </trkpt>
      <trkpt lat="47.3257" lon="-1.30672">
        <ele>55</ele>
        <time>2021-03-06T14:16:42.000Z</time>
      </trkpt>
      <trkpt lat="47.3258" lon="-1.30652">
        <ele>53</ele>
        <time>2021-03-06T14:16:45.000Z</time>
      </trkpt>
      <trkpt lat="47.32592" lon="-1.30621">
        <ele>54</ele>
        <time>2021-03-06T14:16:49.000Z</time>
      </trkpt>
      <trkpt lat="47.32598" lon="-1.30605">
        <ele>54</ele>
        <time>2021-03-06T14:16:51.000Z</time>
      </trkpt>
      <trkpt lat="47.32607" lon="-1.30586">
        <ele>54</ele>
        <time>2021-03-06T14:16:54.000Z</time>
      </trkpt>
      <trkpt lat="47.32617" lon="-1.30564">
        <ele>54</ele>
        <time>2021-03-06T14:16:57.000Z</time>
      </trkpt>
      <trkpt lat="47.32626" lon="-1.30545">
        <ele>55</ele>
        <time>2021-03-06T14:17:00.000Z</time>
      </trkpt>
      <trkpt lat="47.32632" lon="-1.30532">
        <ele>54</ele>
        <time>2021-03-06T14:17:02.000Z</time>
      </trkpt>
      <trkpt lat="47.32638" lon="-1.30518">
        <ele>54</ele>
        <time>2021-03-06T14:17:04.000Z</time>
      </trkpt>
      <trkpt lat="47.32644" lon="-1.30504">
        <ele>54</ele>
        <time>2021-03-06T14:17:06.000Z</time>
      </trkpt>
      <trkpt lat="47.3265" lon="-1.30487">
        <ele>51</ele>
        <time>2021-03-06T14:17:08.000Z</time>
      </trkpt>
      <trkpt lat="47.32656" lon="-1.30473">
        <ele>51</ele>
        <time>2021-03-06T14:17:10.000Z</time>
      </trkpt>
      <trkpt lat="47.32663" lon="-1.30461">
        <ele>52</ele>
        <time>2021-03-06T14:17:12.000Z</time>
      </trkpt>
      <trkpt lat="47.32669" lon="-1.30448">
        <ele>53</ele>
        <time>2021-03-06T14:17:14.000Z</time>
      </trkpt>
      <trkpt lat="47.32675" lon="-1.30434">
        <ele>53</ele>
        <time>2021-03-06T14:17:16.000Z</time>
      </trkpt>
      <trkpt lat="47.32681" lon="-1.30419">
        <ele>53</ele>
        <time>2021-03-06T14:17:18.000Z</time>
      </trkpt>
      <trkpt lat="47.32685" lon="-1.30405">
        <ele>53</ele>
        <time>2021-03-06T14:17:20.000Z</time>
      </trkpt>
      <trkpt lat="47.32686" lon="-1.30388">
        <ele>54</ele>
        <time>2021-03-06T14:17:22.000Z</time>
      </trkpt>
      <trkpt lat="47.32684" lon="-1.30374">
        <ele>51</ele>
        <time>2021-03-06T14:17:24.000Z</time>
      </trkpt>
      <trkpt lat="47.32678" lon="-1.3036">
        <ele>51</ele>
        <time>2021-03-06T14:17:26.000Z</time>
      </trkpt>
      <trkpt lat="47.32674" lon="-1.30344">
        <ele>54</ele>
        <time>2021-03-06T14:17:28.000Z</time>
      </trkpt>
      <trkpt lat="47.32667" lon="-1.30329">
        <ele>54</ele>
        <time>2021-03-06T14:17:30.000Z</time>
      </trkpt>
      <trkpt lat="47.32659" lon="-1.30306">
        <ele>57</ele>
        <time>2021-03-06T14:17:34.000Z</time>
      </trkpt>
      <trkpt lat="47.32653" lon="-1.30291">
        <ele>56</ele>
        <time>2021-03-06T14:17:36.000Z</time>
      </trkpt>
      <trkpt lat="47.32646" lon="-1.30277">
        <ele>57</ele>
        <time>2021-03-06T14:17:38.000Z</time>
      </trkpt>
      <trkpt lat="47.32642" lon="-1.30264">
        <ele>57</ele>
        <time>2021-03-06T14:17:40.000Z</time>
      </trkpt>
      <trkpt lat="47.32641" lon="-1.30249">
        <ele>57</ele>
        <time>2021-03-06T14:17:42.000Z</time>
      </trkpt>
      <trkpt lat="47.3265" lon="-1.3023">
        <ele>57</ele>
        <time>2021-03-06T14:17:45.000Z</time>
      </trkpt>
      <trkpt lat="47.32658" lon="-1.30216">
        <ele>56</ele>
        <time>2021-03-06T14:17:47.000Z</time>
      </trkpt>
      <trkpt lat="47.32666" lon="-1.30204">
        <ele>57</ele>
        <time>2021-03-06T14:17:49.000Z</time>
      </trkpt>
      <trkpt lat="47.32673" lon="-1.30192">
        <ele>57</ele>
        <time>2021-03-06T14:17:51.000Z</time>
      </trkpt>
      <trkpt lat="47.32681" lon="-1.3018">
        <ele>56</ele>
        <time>2021-03-06T14:17:53.000Z</time>
      </trkpt>
      <trkpt lat="47.32688" lon="-1.30167">
        <ele>56</ele>
        <time>2021-03-06T14:17:55.000Z</time>
      </trkpt>
      <trkpt lat="47.32694" lon="-1.30156">
        <ele>55</ele>
        <time>2021-03-06T14:17:57.000Z</time>
      </trkpt>
      <trkpt lat="47.32707" lon="-1.3014">
        <ele>54</ele>
        <time>2021-03-06T14:18:00.000Z</time>
      </trkpt>
      <trkpt lat="47.32715" lon="-1.30128">
        <ele>52</ele>
        <time>2021-03-06T14:18:02.000Z</time>
      </trkpt>
      <trkpt lat="47.3273" lon="-1.30108">
        <ele>52</ele>
        <time>2021-03-06T14:18:05.000Z</time>
      </trkpt>
      <trkpt lat="47.3274" lon="-1.30087">
        <ele>53</ele>
        <time>2021-03-06T14:18:08.000Z</time>
      </trkpt>
      <trkpt lat="47.32747" lon="-1.30074">
        <ele>53</ele>
        <time>2021-03-06T14:18:10.000Z</time>
      </trkpt>
      <trkpt lat="47.32752" lon="-1.30059">
        <ele>52</ele>
        <time>2021-03-06T14:18:12.000Z</time>
      </trkpt>
      <trkpt lat="47.32758" lon="-1.30045">
        <ele>51</ele>
        <time>2021-03-06T14:18:14.000Z</time>
      </trkpt>
      <trkpt lat="47.32764" lon="-1.30032">
        <ele>50</ele>
        <time>2021-03-06T14:18:16.000Z</time>
      </trkpt>
      <trkpt lat="47.32771" lon="-1.3002">
        <ele>52</ele>
        <time>2021-03-06T14:18:18.000Z</time>
      </trkpt>
      <trkpt lat="47.32778" lon="-1.30007">
        <ele>54</ele>
        <time>2021-03-06T14:18:20.000Z</time>
      </trkpt>
      <trkpt lat="47.32784" lon="-1.29994">
        <ele>54</ele>
        <time>2021-03-06T14:18:22.000Z</time>
      </trkpt>
      <trkpt lat="47.32791" lon="-1.29982">
        <ele>55</ele>
        <time>2021-03-06T14:18:24.000Z</time>
      </trkpt>
      <trkpt lat="47.32798" lon="-1.29968">
        <ele>55</ele>
        <time>2021-03-06T14:18:26.000Z</time>
      </trkpt>
      <trkpt lat="47.32805" lon="-1.29956">
        <ele>55</ele>
        <time>2021-03-06T14:18:28.000Z</time>
      </trkpt>
      <trkpt lat="47.32811" lon="-1.29943">
        <ele>54</ele>
        <time>2021-03-06T14:18:30.000Z</time>
      </trkpt>
      <trkpt lat="47.3282" lon="-1.29923">
        <ele>54</ele>
        <time>2021-03-06T14:18:33.000Z</time>
      </trkpt>
      <trkpt lat="47.32828" lon="-1.2991">
        <ele>55</ele>
        <time>2021-03-06T14:18:35.000Z</time>
      </trkpt>
      <trkpt lat="47.32835" lon="-1.29896">
        <ele>54</ele>
        <time>2021-03-06T14:18:37.000Z</time>
      </trkpt>
      <trkpt lat="47.32842" lon="-1.29884">
        <ele>53</ele>
        <time>2021-03-06T14:18:39.000Z</time>
      </trkpt>
      <trkpt lat="47.3285" lon="-1.29871">
        <ele>53</ele>
        <time>2021-03-06T14:18:41.000Z</time>
      </trkpt>
      <trkpt lat="47.32857" lon="-1.29859">
        <ele>53</ele>
        <time>2021-03-06T14:18:43.000Z</time>
      </trkpt>
      <trkpt lat="47.32867" lon="-1.29838">
        <ele>53</ele>
        <time>2021-03-06T14:18:46.000Z</time>
      </trkpt>
      <trkpt lat="47.32874" lon="-1.29825">
        <ele>55</ele>
        <time>2021-03-06T14:18:48.000Z</time>
      </trkpt>
      <trkpt lat="47.32886" lon="-1.29806">
        <ele>54</ele>
        <time>2021-03-06T14:18:51.000Z</time>
      </trkpt>
      <trkpt lat="47.32893" lon="-1.29792">
        <ele>52</ele>
        <time>2021-03-06T14:18:53.000Z</time>
      </trkpt>
      <trkpt lat="47.32901" lon="-1.29778">
        <ele>52</ele>
        <time>2021-03-06T14:18:55.000Z</time>
      </trkpt>
      <trkpt lat="47.32907" lon="-1.29765">
        <ele>53</ele>
        <time>2021-03-06T14:18:57.000Z</time>
      </trkpt>
      <trkpt lat="47.32913" lon="-1.29754">
        <ele>54</ele>
        <time>2021-03-06T14:18:59.000Z</time>
      </trkpt>
      <trkpt lat="47.32925" lon="-1.29729">
        <ele>54</ele>
        <time>2021-03-06T14:19:03.000Z</time>
      </trkpt>
      <trkpt lat="47.32931" lon="-1.29715">
        <ele>57</ele>
        <time>2021-03-06T14:19:05.000Z</time>
      </trkpt>
      <trkpt lat="47.32938" lon="-1.29703">
        <ele>57</ele>
        <time>2021-03-06T14:19:07.000Z</time>
      </trkpt>
      <trkpt lat="47.32946" lon="-1.29692">
        <ele>57</ele>
        <time>2021-03-06T14:19:09.000Z</time>
      </trkpt>
      <trkpt lat="47.32958" lon="-1.29676">
        <ele>55</ele>
        <time>2021-03-06T14:19:12.000Z</time>
      </trkpt>
      <trkpt lat="47.32966" lon="-1.29665">
        <ele>55</ele>
        <time>2021-03-06T14:19:14.000Z</time>
      </trkpt>
      <trkpt lat="47.32975" lon="-1.29654">
        <ele>54</ele>
        <time>2021-03-06T14:19:16.000Z</time>
      </trkpt>
      <trkpt lat="47.32982" lon="-1.29642">
        <ele>53</ele>
        <time>2021-03-06T14:19:18.000Z</time>
      </trkpt>
      <trkpt lat="47.32989" lon="-1.2963">
        <ele>54</ele>
        <time>2021-03-06T14:19:20.000Z</time>
      </trkpt>
      <trkpt lat="47.32996" lon="-1.29616">
        <ele>54</ele>
        <time>2021-03-06T14:19:22.000Z</time>
      </trkpt>
      <trkpt lat="47.33003" lon="-1.29603">
        <ele>54</ele>
        <time>2021-03-06T14:19:24.000Z</time>
      </trkpt>
      <trkpt lat="47.33014" lon="-1.29583">
        <ele>53</ele>
        <time>2021-03-06T14:19:27.000Z</time>
      </trkpt>
      <trkpt lat="47.33021" lon="-1.29568">
        <ele>53</ele>
        <time>2021-03-06T14:19:29.000Z</time>
      </trkpt>
      <trkpt lat="47.33032" lon="-1.29548">
        <ele>53</ele>
        <time>2021-03-06T14:19:32.000Z</time>
      </trkpt>
      <trkpt lat="47.33039" lon="-1.29534">
        <ele>52</ele>
        <time>2021-03-06T14:19:34.000Z</time>
      </trkpt>
      <trkpt lat="47.33047" lon="-1.2952">
        <ele>53</ele>
        <time>2021-03-06T14:19:36.000Z</time>
      </trkpt>
      <trkpt lat="47.33055" lon="-1.29508">
        <ele>52</ele>
        <time>2021-03-06T14:19:38.000Z</time>
      </trkpt>
      <trkpt lat="47.33062" lon="-1.29496">
        <ele>52</ele>
        <time>2021-03-06T14:19:40.000Z</time>
      </trkpt>
      <trkpt lat="47.3307" lon="-1.29484">
        <ele>52</ele>
        <time>2021-03-06T14:19:42.000Z</time>
      </trkpt>
      <trkpt lat="47.33079" lon="-1.29472">
        <ele>52</ele>
        <time>2021-03-06T14:19:44.000Z</time>
      </trkpt>
      <trkpt lat="47.33087" lon="-1.2946">
        <ele>51</ele>
        <time>2021-03-06T14:19:46.000Z</time>
      </trkpt>
      <trkpt lat="47.33096" lon="-1.29448">
        <ele>51</ele>
        <time>2021-03-06T14:19:48.000Z</time>
      </trkpt>
      <trkpt lat="47.33105" lon="-1.29436">
        <ele>52</ele>
        <time>2021-03-06T14:19:50.000Z</time>
      </trkpt>
      <trkpt lat="47.33113" lon="-1.29424">
        <ele>52</ele>
        <time>2021-03-06T14:19:52.000Z</time>
      </trkpt>
      <trkpt lat="47.3312" lon="-1.29412">
        <ele>52</ele>
        <time>2021-03-06T14:19:54.000Z</time>
      </trkpt>
      <trkpt lat="47.33128" lon="-1.294">
        <ele>51</ele>
        <time>2021-03-06T14:19:56.000Z</time>
      </trkpt>
      <trkpt lat="47.33135" lon="-1.29389">
        <ele>51</ele>
        <time>2021-03-06T14:19:58.000Z</time>
      </trkpt>
      <trkpt lat="47.33139" lon="-1.29377">
        <ele>48</ele>
        <time>2021-03-06T14:20:00.000Z</time>
      </trkpt>
      <trkpt lat="47.33142" lon="-1.29364">
        <ele>47</ele>
        <time>2021-03-06T14:20:02.000Z</time>
      </trkpt>
      <trkpt lat="47.33147" lon="-1.29352">
        <ele>48</ele>
        <time>2021-03-06T14:20:04.000Z</time>
      </trkpt>
      <trkpt lat="47.3314" lon="-1.29338">
        <ele>49</ele>
        <time>2021-03-06T14:20:07.000Z</time>
      </trkpt>
      <trkpt lat="47.3313" lon="-1.29322">
        <ele>50</ele>
        <time>2021-03-06T14:20:11.000Z</time>
      </trkpt>
      <trkpt lat="47.33126" lon="-1.29307">
        <ele>50</ele>
        <time>2021-03-06T14:20:13.000Z</time>
      </trkpt>
      <trkpt lat="47.33127" lon="-1.29294">
        <ele>51</ele>
        <time>2021-03-06T14:20:15.000Z</time>
      </trkpt>
      <trkpt lat="47.33133" lon="-1.29278">
        <ele>53</ele>
        <time>2021-03-06T14:20:18.000Z</time>
      </trkpt>
      <trkpt lat="47.33142" lon="-1.29262">
        <ele>53</ele>
        <time>2021-03-06T14:20:21.000Z</time>
      </trkpt>
      <trkpt lat="47.33149" lon="-1.29247">
        <ele>54</ele>
        <time>2021-03-06T14:20:23.000Z</time>
      </trkpt>
      <trkpt lat="47.33156" lon="-1.29231">
        <ele>55</ele>
        <time>2021-03-06T14:20:25.000Z</time>
      </trkpt>
      <trkpt lat="47.33169" lon="-1.29217">
        <ele>56</ele>
        <time>2021-03-06T14:20:28.000Z</time>
      </trkpt>
      <trkpt lat="47.33171" lon="-1.29199">
        <ele>56</ele>
        <time>2021-03-06T14:20:30.000Z</time>
      </trkpt>
      <trkpt lat="47.33171" lon="-1.29181">
        <ele>56</ele>
        <time>2021-03-06T14:20:32.000Z</time>
      </trkpt>
      <trkpt lat="47.33182" lon="-1.2916">
        <ele>57</ele>
        <time>2021-03-06T14:20:35.000Z</time>
      </trkpt>
      <trkpt lat="47.33197" lon="-1.29146">
        <ele>56</ele>
        <time>2021-03-06T14:20:38.000Z</time>
      </trkpt>
      <trkpt lat="47.3321" lon="-1.29144">
        <ele>54</ele>
        <time>2021-03-06T14:20:40.000Z</time>
      </trkpt>
      <trkpt lat="47.33222" lon="-1.29149">
        <ele>52</ele>
        <time>2021-03-06T14:20:42.000Z</time>
      </trkpt>
      <trkpt lat="47.33235" lon="-1.2916">
        <ele>53</ele>
        <time>2021-03-06T14:20:44.000Z</time>
      </trkpt>
      <trkpt lat="47.33248" lon="-1.29168">
        <ele>54</ele>
        <time>2021-03-06T14:20:46.000Z</time>
      </trkpt>
      <trkpt lat="47.33261" lon="-1.29174">
        <ele>52</ele>
        <time>2021-03-06T14:20:48.000Z</time>
      </trkpt>
      <trkpt lat="47.33273" lon="-1.2918">
        <ele>51</ele>
        <time>2021-03-06T14:20:50.000Z</time>
      </trkpt>
      <trkpt lat="47.33286" lon="-1.29191">
        <ele>53</ele>
        <time>2021-03-06T14:20:52.000Z</time>
      </trkpt>
      <trkpt lat="47.33302" lon="-1.29204">
        <ele>54</ele>
        <time>2021-03-06T14:20:55.000Z</time>
      </trkpt>
      <trkpt lat="47.33313" lon="-1.29212">
        <ele>52</ele>
        <time>2021-03-06T14:20:57.000Z</time>
      </trkpt>
      <trkpt lat="47.33324" lon="-1.29221">
        <ele>53</ele>
        <time>2021-03-06T14:20:59.000Z</time>
      </trkpt>
      <trkpt lat="47.33333" lon="-1.29229">
        <ele>53</ele>
        <time>2021-03-06T14:21:01.000Z</time>
      </trkpt>
      <trkpt lat="47.33343" lon="-1.29236">
        <ele>53</ele>
        <time>2021-03-06T14:21:03.000Z</time>
      </trkpt>
      <trkpt lat="47.33354" lon="-1.29246">
        <ele>53</ele>
        <time>2021-03-06T14:21:05.000Z</time>
      </trkpt>
      <trkpt lat="47.33363" lon="-1.29257">
        <ele>54</ele>
        <time>2021-03-06T14:21:07.000Z</time>
      </trkpt>
      <trkpt lat="47.3337" lon="-1.29271">
        <ele>55</ele>
        <time>2021-03-06T14:21:09.000Z</time>
      </trkpt>
      <trkpt lat="47.33376" lon="-1.29283">
        <ele>55</ele>
        <time>2021-03-06T14:21:11.000Z</time>
      </trkpt>
      <trkpt lat="47.33385" lon="-1.29293">
        <ele>56</ele>
        <time>2021-03-06T14:21:13.000Z</time>
      </trkpt>
      <trkpt lat="47.33389" lon="-1.29308">
        <ele>56</ele>
        <time>2021-03-06T14:21:15.000Z</time>
      </trkpt>
      <trkpt lat="47.33398" lon="-1.29326">
        <ele>55</ele>
        <time>2021-03-06T14:21:18.000Z</time>
      </trkpt>
      <trkpt lat="47.33404" lon="-1.2934">
        <ele>51</ele>
        <time>2021-03-06T14:21:20.000Z</time>
      </trkpt>
      <trkpt lat="47.33409" lon="-1.29354">
        <ele>52</ele>
        <time>2021-03-06T14:21:22.000Z</time>
      </trkpt>
      <trkpt lat="47.33414" lon="-1.29366">
        <ele>51</ele>
        <time>2021-03-06T14:21:24.000Z</time>
      </trkpt>
      <trkpt lat="47.33417" lon="-1.29382">
        <ele>52</ele>
        <time>2021-03-06T14:21:27.000Z</time>
      </trkpt>
      <trkpt lat="47.33428" lon="-1.29392">
        <ele>54</ele>
        <time>2021-03-06T14:21:30.000Z</time>
      </trkpt>
      <trkpt lat="47.33437" lon="-1.29396">
        <ele>54</ele>
        <time>2021-03-06T14:21:32.000Z</time>
      </trkpt>
      <trkpt lat="47.33446" lon="-1.29401">
        <ele>55</ele>
        <time>2021-03-06T14:21:34.000Z</time>
      </trkpt>
      <trkpt lat="47.33455" lon="-1.2941">
        <ele>55</ele>
        <time>2021-03-06T14:21:36.000Z</time>
      </trkpt>
      <trkpt lat="47.33466" lon="-1.29419">
        <ele>56</ele>
        <time>2021-03-06T14:21:38.000Z</time>
      </trkpt>
      <trkpt lat="47.33482" lon="-1.29432">
        <ele>57</ele>
        <time>2021-03-06T14:21:41.000Z</time>
      </trkpt>
      <trkpt lat="47.33494" lon="-1.29438">
        <ele>56</ele>
        <time>2021-03-06T14:21:43.000Z</time>
      </trkpt>
      <trkpt lat="47.33504" lon="-1.29448">
        <ele>56</ele>
        <time>2021-03-06T14:21:45.000Z</time>
      </trkpt>
      <trkpt lat="47.33514" lon="-1.29457">
        <ele>56</ele>
        <time>2021-03-06T14:21:47.000Z</time>
      </trkpt>
      <trkpt lat="47.33527" lon="-1.29465">
        <ele>55</ele>
        <time>2021-03-06T14:21:49.000Z</time>
      </trkpt>
      <trkpt lat="47.33538" lon="-1.29473">
        <ele>55</ele>
        <time>2021-03-06T14:21:51.000Z</time>
      </trkpt>
      <trkpt lat="47.33547" lon="-1.29482">
        <ele>56</ele>
        <time>2021-03-06T14:21:53.000Z</time>
      </trkpt>
      <trkpt lat="47.33556" lon="-1.2949">
        <ele>56</ele>
        <time>2021-03-06T14:21:55.000Z</time>
      </trkpt>
      <trkpt lat="47.33566" lon="-1.29497">
        <ele>56</ele>
        <time>2021-03-06T14:21:57.000Z</time>
      </trkpt>
      <trkpt lat="47.33577" lon="-1.29506">
        <ele>56</ele>
        <time>2021-03-06T14:21:59.000Z</time>
      </trkpt>
      <trkpt lat="47.33586" lon="-1.29514">
        <ele>57</ele>
        <time>2021-03-06T14:22:01.000Z</time>
      </trkpt>
      <trkpt lat="47.33599" lon="-1.29527">
        <ele>57</ele>
        <time>2021-03-06T14:22:04.000Z</time>
      </trkpt>
      <trkpt lat="47.3361" lon="-1.29536">
        <ele>57</ele>
        <time>2021-03-06T14:22:06.000Z</time>
      </trkpt>
      <trkpt lat="47.3362" lon="-1.29544">
        <ele>57</ele>
        <time>2021-03-06T14:22:08.000Z</time>
      </trkpt>
      <trkpt lat="47.33635" lon="-1.29549">
        <ele>57</ele>
        <time>2021-03-06T14:22:11.000Z</time>
      </trkpt>
      <trkpt lat="47.33645" lon="-1.29544">
        <ele>57</ele>
        <time>2021-03-06T14:22:13.000Z</time>
      </trkpt>
      <trkpt lat="47.33651" lon="-1.29529">
        <ele>57</ele>
        <time>2021-03-06T14:22:15.000Z</time>
      </trkpt>
      <trkpt lat="47.33653" lon="-1.29512">
        <ele>57</ele>
        <time>2021-03-06T14:22:17.000Z</time>
      </trkpt>
      <trkpt lat="47.33656" lon="-1.29496">
        <ele>56</ele>
        <time>2021-03-06T14:22:19.000Z</time>
      </trkpt>
      <trkpt lat="47.33659" lon="-1.29478">
        <ele>57</ele>
        <time>2021-03-06T14:22:21.000Z</time>
      </trkpt>
      <trkpt lat="47.33661" lon="-1.29462">
        <ele>57</ele>
        <time>2021-03-06T14:22:23.000Z</time>
      </trkpt>
      <trkpt lat="47.33665" lon="-1.29448">
        <ele>57</ele>
        <time>2021-03-06T14:22:25.000Z</time>
      </trkpt>
      <trkpt lat="47.33673" lon="-1.29426">
        <ele>55</ele>
        <time>2021-03-06T14:22:28.000Z</time>
      </trkpt>
      <trkpt lat="47.33681" lon="-1.29412">
        <ele>55</ele>
        <time>2021-03-06T14:22:30.000Z</time>
      </trkpt>
      <trkpt lat="47.33685" lon="-1.29398">
        <ele>55</ele>
        <time>2021-03-06T14:22:32.000Z</time>
      </trkpt>
      <trkpt lat="47.33692" lon="-1.29384">
        <ele>56</ele>
        <time>2021-03-06T14:22:34.000Z</time>
      </trkpt>
      <trkpt lat="47.33697" lon="-1.2937">
        <ele>54</ele>
        <time>2021-03-06T14:22:36.000Z</time>
      </trkpt>
      <trkpt lat="47.33702" lon="-1.29353">
        <ele>54</ele>
        <time>2021-03-06T14:22:38.000Z</time>
      </trkpt>
      <trkpt lat="47.33707" lon="-1.29332">
        <ele>55</ele>
        <time>2021-03-06T14:22:40.000Z</time>
      </trkpt>
      <trkpt lat="47.33712" lon="-1.29311">
        <ele>56</ele>
        <time>2021-03-06T14:22:42.000Z</time>
      </trkpt>
      <trkpt lat="47.33718" lon="-1.29291">
        <ele>54</ele>
        <time>2021-03-06T14:22:44.000Z</time>
      </trkpt>
      <trkpt lat="47.33722" lon="-1.29274">
        <ele>54</ele>
        <time>2021-03-06T14:22:46.000Z</time>
      </trkpt>
      <trkpt lat="47.33728" lon="-1.29256">
        <ele>55</ele>
        <time>2021-03-06T14:22:48.000Z</time>
      </trkpt>
      <trkpt lat="47.33732" lon="-1.29238">
        <ele>55</ele>
        <time>2021-03-06T14:22:50.000Z</time>
      </trkpt>
      <trkpt lat="47.33735" lon="-1.29219">
        <ele>54</ele>
        <time>2021-03-06T14:22:52.000Z</time>
      </trkpt>
      <trkpt lat="47.33739" lon="-1.29201">
        <ele>55</ele>
        <time>2021-03-06T14:22:54.000Z</time>
      </trkpt>
      <trkpt lat="47.33744" lon="-1.29186">
        <ele>55</ele>
        <time>2021-03-06T14:22:56.000Z</time>
      </trkpt>
      <trkpt lat="47.33748" lon="-1.29172">
        <ele>55</ele>
        <time>2021-03-06T14:22:58.000Z</time>
      </trkpt>
      <trkpt lat="47.33752" lon="-1.29153">
        <ele>56</ele>
        <time>2021-03-06T14:23:01.000Z</time>
      </trkpt>
      <trkpt lat="47.33752" lon="-1.29136">
        <ele>56</ele>
        <time>2021-03-06T14:23:03.000Z</time>
      </trkpt>
      <trkpt lat="47.33751" lon="-1.29116">
        <ele>56</ele>
        <time>2021-03-06T14:23:05.000Z</time>
      </trkpt>
      <trkpt lat="47.33751" lon="-1.29097">
        <ele>56</ele>
        <time>2021-03-06T14:23:07.000Z</time>
      </trkpt>
      <trkpt lat="47.33752" lon="-1.29076">
        <ele>56</ele>
        <time>2021-03-06T14:23:09.000Z</time>
      </trkpt>
      <trkpt lat="47.33752" lon="-1.29055">
        <ele>56</ele>
        <time>2021-03-06T14:23:11.000Z</time>
      </trkpt>
      <trkpt lat="47.33751" lon="-1.29036">
        <ele>56</ele>
        <time>2021-03-06T14:23:13.000Z</time>
      </trkpt>
      <trkpt lat="47.33751" lon="-1.29019">
        <ele>58</ele>
        <time>2021-03-06T14:23:15.000Z</time>
      </trkpt>
      <trkpt lat="47.33752" lon="-1.29002">
        <ele>56</ele>
        <time>2021-03-06T14:23:17.000Z</time>
      </trkpt>
      <trkpt lat="47.33753" lon="-1.28985">
        <ele>57</ele>
        <time>2021-03-06T14:23:19.000Z</time>
      </trkpt>
      <trkpt lat="47.33753" lon="-1.28967">
        <ele>58</ele>
        <time>2021-03-06T14:23:21.000Z</time>
      </trkpt>
      <trkpt lat="47.33752" lon="-1.28947">
        <ele>57</ele>
        <time>2021-03-06T14:23:23.000Z</time>
      </trkpt>
      <trkpt lat="47.33755" lon="-1.2893">
        <ele>59</ele>
        <time>2021-03-06T14:23:25.000Z</time>
      </trkpt>
      <trkpt lat="47.33761" lon="-1.28914">
        <ele>59</ele>
        <time>2021-03-06T14:23:27.000Z</time>
      </trkpt>
      <trkpt lat="47.33767" lon="-1.289">
        <ele>58</ele>
        <time>2021-03-06T14:23:29.000Z</time>
      </trkpt>
      <trkpt lat="47.33772" lon="-1.28886">
        <ele>57</ele>
        <time>2021-03-06T14:23:31.000Z</time>
      </trkpt>
      <trkpt lat="47.3377" lon="-1.2887">
        <ele>56</ele>
        <time>2021-03-06T14:23:33.000Z</time>
      </trkpt>
      <trkpt lat="47.33768" lon="-1.28851">
        <ele>56</ele>
        <time>2021-03-06T14:23:35.000Z</time>
      </trkpt>
      <trkpt lat="47.33768" lon="-1.2883">
        <ele>56</ele>
        <time>2021-03-06T14:23:37.000Z</time>
      </trkpt>
      <trkpt lat="47.33769" lon="-1.28811">
        <ele>57</ele>
        <time>2021-03-06T14:23:39.000Z</time>
      </trkpt>
      <trkpt lat="47.33771" lon="-1.28793">
        <ele>57</ele>
        <time>2021-03-06T14:23:41.000Z</time>
      </trkpt>
      <trkpt lat="47.33776" lon="-1.28767">
        <ele>57</ele>
        <time>2021-03-06T14:23:44.000Z</time>
      </trkpt>
      <trkpt lat="47.33777" lon="-1.28749">
        <ele>56</ele>
        <time>2021-03-06T14:23:46.000Z</time>
      </trkpt>
      <trkpt lat="47.33778" lon="-1.28725">
        <ele>55</ele>
        <time>2021-03-06T14:23:49.000Z</time>
      </trkpt>
      <trkpt lat="47.33782" lon="-1.28697">
        <ele>54</ele>
        <time>2021-03-06T14:23:52.000Z</time>
      </trkpt>
      <trkpt lat="47.33786" lon="-1.28681">
        <ele>54</ele>
        <time>2021-03-06T14:23:54.000Z</time>
      </trkpt>
      <trkpt lat="47.3379" lon="-1.2866">
        <ele>54</ele>
        <time>2021-03-06T14:23:57.000Z</time>
      </trkpt>
      <trkpt lat="47.33791" lon="-1.28633">
        <ele>51</ele>
        <time>2021-03-06T14:24:00.000Z</time>
      </trkpt>
      <trkpt lat="47.33794" lon="-1.28616">
        <ele>52</ele>
        <time>2021-03-06T14:24:02.000Z</time>
      </trkpt>
      <trkpt lat="47.33799" lon="-1.28602">
        <ele>49</ele>
        <time>2021-03-06T14:24:04.000Z</time>
      </trkpt>
      <trkpt lat="47.33808" lon="-1.28584">
        <ele>51</ele>
        <time>2021-03-06T14:24:07.000Z</time>
      </trkpt>
      <trkpt lat="47.33811" lon="-1.28569">
        <ele>51</ele>
        <time>2021-03-06T14:24:10.000Z</time>
      </trkpt>
      <trkpt lat="47.33804" lon="-1.28555">
        <ele>52</ele>
        <time>2021-03-06T14:24:12.000Z</time>
      </trkpt>
      <trkpt lat="47.33798" lon="-1.28541">
        <ele>53</ele>
        <time>2021-03-06T14:24:14.000Z</time>
      </trkpt>
      <trkpt lat="47.33802" lon="-1.28526">
        <ele>55</ele>
        <time>2021-03-06T14:24:16.000Z</time>
      </trkpt>
      <trkpt lat="47.33806" lon="-1.28501">
        <ele>56</ele>
        <time>2021-03-06T14:24:19.000Z</time>
      </trkpt>
      <trkpt lat="47.33808" lon="-1.28484">
        <ele>56</ele>
        <time>2021-03-06T14:24:21.000Z</time>
      </trkpt>
      <trkpt lat="47.33809" lon="-1.28466">
        <ele>55</ele>
        <time>2021-03-06T14:24:23.000Z</time>
      </trkpt>
      <trkpt lat="47.33811" lon="-1.28448">
        <ele>55</ele>
        <time>2021-03-06T14:24:25.000Z</time>
      </trkpt>
      <trkpt lat="47.33813" lon="-1.2842">
        <ele>55</ele>
        <time>2021-03-06T14:24:28.000Z</time>
      </trkpt>
      <trkpt lat="47.33814" lon="-1.28402">
        <ele>55</ele>
        <time>2021-03-06T14:24:30.000Z</time>
      </trkpt>
      <trkpt lat="47.33814" lon="-1.28386">
        <ele>55</ele>
        <time>2021-03-06T14:24:32.000Z</time>
      </trkpt>
      <trkpt lat="47.33818" lon="-1.28369">
        <ele>55</ele>
        <time>2021-03-06T14:24:34.000Z</time>
      </trkpt>
      <trkpt lat="47.33822" lon="-1.2835">
        <ele>55</ele>
        <time>2021-03-06T14:24:36.000Z</time>
      </trkpt>
      <trkpt lat="47.33821" lon="-1.28323">
        <ele>59</ele>
        <time>2021-03-06T14:24:39.000Z</time>
      </trkpt>
      <trkpt lat="47.33825" lon="-1.28305">
        <ele>58</ele>
        <time>2021-03-06T14:24:41.000Z</time>
      </trkpt>
      <trkpt lat="47.33829" lon="-1.28289">
        <ele>56</ele>
        <time>2021-03-06T14:24:43.000Z</time>
      </trkpt>
      <trkpt lat="47.33836" lon="-1.2827">
        <ele>56</ele>
        <time>2021-03-06T14:24:45.000Z</time>
      </trkpt>
      <trkpt lat="47.3384" lon="-1.28252">
        <ele>57</ele>
        <time>2021-03-06T14:24:47.000Z</time>
      </trkpt>
      <trkpt lat="47.33843" lon="-1.28237">
        <ele>56</ele>
        <time>2021-03-06T14:24:49.000Z</time>
      </trkpt>
      <trkpt lat="47.33845" lon="-1.2822">
        <ele>56</ele>
        <time>2021-03-06T14:24:51.000Z</time>
      </trkpt>
      <trkpt lat="47.33847" lon="-1.28202">
        <ele>55</ele>
        <time>2021-03-06T14:24:53.000Z</time>
      </trkpt>
      <trkpt lat="47.33849" lon="-1.28184">
        <ele>53</ele>
        <time>2021-03-06T14:24:55.000Z</time>
      </trkpt>
      <trkpt lat="47.33853" lon="-1.28158">
        <ele>53</ele>
        <time>2021-03-06T14:24:58.000Z</time>
      </trkpt>
      <trkpt lat="47.33855" lon="-1.28142">
        <ele>54</ele>
        <time>2021-03-06T14:25:00.000Z</time>
      </trkpt>
      <trkpt lat="47.33857" lon="-1.28126">
        <ele>54</ele>
        <time>2021-03-06T14:25:02.000Z</time>
      </trkpt>
      <trkpt lat="47.33858" lon="-1.28113">
        <ele>54</ele>
        <time>2021-03-06T14:25:04.000Z</time>
      </trkpt>
      <trkpt lat="47.33858" lon="-1.28093">
        <ele>53</ele>
        <time>2021-03-06T14:25:07.000Z</time>
      </trkpt>
      <trkpt lat="47.3386" lon="-1.28069">
        <ele>53</ele>
        <time>2021-03-06T14:25:10.000Z</time>
      </trkpt>
      <trkpt lat="47.33863" lon="-1.28052">
        <ele>54</ele>
        <time>2021-03-06T14:25:12.000Z</time>
      </trkpt>
      <trkpt lat="47.33869" lon="-1.28025">
        <ele>53</ele>
        <time>2021-03-06T14:25:15.000Z</time>
      </trkpt>
      <trkpt lat="47.33868" lon="-1.28009">
        <ele>54</ele>
        <time>2021-03-06T14:25:17.000Z</time>
      </trkpt>
      <trkpt lat="47.33871" lon="-1.2799">
        <ele>54</ele>
        <time>2021-03-06T14:25:19.000Z</time>
      </trkpt>
      <trkpt lat="47.33872" lon="-1.27969">
        <ele>53</ele>
        <time>2021-03-06T14:25:21.000Z</time>
      </trkpt>
      <trkpt lat="47.33875" lon="-1.27937">
        <ele>49</ele>
        <time>2021-03-06T14:25:24.000Z</time>
      </trkpt>
      <trkpt lat="47.33875" lon="-1.27912">
        <ele>51</ele>
        <time>2021-03-06T14:25:27.000Z</time>
      </trkpt>
      <trkpt lat="47.33876" lon="-1.27895">
        <ele>52</ele>
        <time>2021-03-06T14:25:29.000Z</time>
      </trkpt>
      <trkpt lat="47.33876" lon="-1.27877">
        <ele>53</ele>
        <time>2021-03-06T14:25:31.000Z</time>
      </trkpt>
      <trkpt lat="47.33877" lon="-1.27851">
        <ele>53</ele>
        <time>2021-03-06T14:25:34.000Z</time>
      </trkpt>
      <trkpt lat="47.33877" lon="-1.27835">
        <ele>53</ele>
        <time>2021-03-06T14:25:36.000Z</time>
      </trkpt>
      <trkpt lat="47.33877" lon="-1.2782">
        <ele>54</ele>
        <time>2021-03-06T14:25:38.000Z</time>
      </trkpt>
      <trkpt lat="47.33877" lon="-1.27806">
        <ele>54</ele>
        <time>2021-03-06T14:25:40.000Z</time>
      </trkpt>
      <trkpt lat="47.33871" lon="-1.2779">
        <ele>54</ele>
        <time>2021-03-06T14:25:43.000Z</time>
      </trkpt>
      <trkpt lat="47.33858" lon="-1.27788">
        <ele>54</ele>
        <time>2021-03-06T14:25:45.000Z</time>
      </trkpt>
      <trkpt lat="47.33844" lon="-1.27785">
        <ele>53</ele>
        <time>2021-03-06T14:25:47.000Z</time>
      </trkpt>
      <trkpt lat="47.3383" lon="-1.27782">
        <ele>52</ele>
        <time>2021-03-06T14:25:49.000Z</time>
      </trkpt>
      <trkpt lat="47.33819" lon="-1.27776">
        <ele>53</ele>
        <time>2021-03-06T14:25:51.000Z</time>
      </trkpt>
      <trkpt lat="47.33807" lon="-1.27772">
        <ele>54</ele>
        <time>2021-03-06T14:25:53.000Z</time>
      </trkpt>
      <trkpt lat="47.33796" lon="-1.27767">
        <ele>54</ele>
        <time>2021-03-06T14:25:55.000Z</time>
      </trkpt>
      <trkpt lat="47.33785" lon="-1.27761">
        <ele>54</ele>
        <time>2021-03-06T14:25:57.000Z</time>
      </trkpt>
      <trkpt lat="47.33769" lon="-1.27756">
        <ele>54</ele>
        <time>2021-03-06T14:26:00.000Z</time>
      </trkpt>
      <trkpt lat="47.33751" lon="-1.27752">
        <ele>54</ele>
        <time>2021-03-06T14:26:04.000Z</time>
      </trkpt>
      <trkpt lat="47.3374" lon="-1.2775">
        <ele>54</ele>
        <time>2021-03-06T14:26:07.000Z</time>
      </trkpt>
      <trkpt lat="47.33732" lon="-1.27739">
        <ele>53</ele>
        <time>2021-03-06T14:26:11.000Z</time>
      </trkpt>
      <trkpt lat="47.33741" lon="-1.27727">
        <ele>53</ele>
        <time>2021-03-06T14:26:13.000Z</time>
      </trkpt>
      <trkpt lat="47.33751" lon="-1.27721">
        <ele>54</ele>
        <time>2021-03-06T14:26:15.000Z</time>
      </trkpt>
      <trkpt lat="47.33762" lon="-1.27723">
        <ele>57</ele>
        <time>2021-03-06T14:26:17.000Z</time>
      </trkpt>
      <trkpt lat="47.33771" lon="-1.27735">
        <ele>57</ele>
        <time>2021-03-06T14:26:19.000Z</time>
      </trkpt>
      <trkpt lat="47.33781" lon="-1.27743">
        <ele>57</ele>
        <time>2021-03-06T14:26:21.000Z</time>
      </trkpt>
      <trkpt lat="47.33793" lon="-1.27746">
        <ele>58</ele>
        <time>2021-03-06T14:26:23.000Z</time>
      </trkpt>
      <trkpt lat="47.33812" lon="-1.27752">
        <ele>59</ele>
        <time>2021-03-06T14:26:26.000Z</time>
      </trkpt>
      <trkpt lat="47.33823" lon="-1.27755">
        <ele>59</ele>
        <time>2021-03-06T14:26:28.000Z</time>
      </trkpt>
      <trkpt lat="47.33834" lon="-1.27758">
        <ele>60</ele>
        <time>2021-03-06T14:26:30.000Z</time>
      </trkpt>
      <trkpt lat="47.33846" lon="-1.27762">
        <ele>59</ele>
        <time>2021-03-06T14:26:32.000Z</time>
      </trkpt>
      <trkpt lat="47.33858" lon="-1.27766">
        <ele>60</ele>
        <time>2021-03-06T14:26:34.000Z</time>
      </trkpt>
      <trkpt lat="47.33869" lon="-1.2777">
        <ele>60</ele>
        <time>2021-03-06T14:26:36.000Z</time>
      </trkpt>
      <trkpt lat="47.33881" lon="-1.27774">
        <ele>61</ele>
        <time>2021-03-06T14:26:38.000Z</time>
      </trkpt>
      <trkpt lat="47.33893" lon="-1.27777">
        <ele>61</ele>
        <time>2021-03-06T14:26:40.000Z</time>
      </trkpt>
      <trkpt lat="47.33905" lon="-1.27781">
        <ele>61</ele>
        <time>2021-03-06T14:26:42.000Z</time>
      </trkpt>
      <trkpt lat="47.33917" lon="-1.27784">
        <ele>61</ele>
        <time>2021-03-06T14:26:44.000Z</time>
      </trkpt>
      <trkpt lat="47.33929" lon="-1.27788">
        <ele>62</ele>
        <time>2021-03-06T14:26:46.000Z</time>
      </trkpt>
      <trkpt lat="47.33941" lon="-1.27792">
        <ele>62</ele>
        <time>2021-03-06T14:26:48.000Z</time>
      </trkpt>
      <trkpt lat="47.33954" lon="-1.27796">
        <ele>60</ele>
        <time>2021-03-06T14:26:50.000Z</time>
      </trkpt>
      <trkpt lat="47.33966" lon="-1.27798">
        <ele>60</ele>
        <time>2021-03-06T14:26:52.000Z</time>
      </trkpt>
      <trkpt lat="47.33978" lon="-1.27803">
        <ele>61</ele>
        <time>2021-03-06T14:26:54.000Z</time>
      </trkpt>
      <trkpt lat="47.33991" lon="-1.27807">
        <ele>61</ele>
        <time>2021-03-06T14:26:56.000Z</time>
      </trkpt>
      <trkpt lat="47.34005" lon="-1.27812">
        <ele>62</ele>
        <time>2021-03-06T14:26:58.000Z</time>
      </trkpt>
      <trkpt lat="47.34018" lon="-1.27817">
        <ele>59</ele>
        <time>2021-03-06T14:27:00.000Z</time>
      </trkpt>
      <trkpt lat="47.34032" lon="-1.27822">
        <ele>60</ele>
        <time>2021-03-06T14:27:02.000Z</time>
      </trkpt>
      <trkpt lat="47.34045" lon="-1.27825">
        <ele>60</ele>
        <time>2021-03-06T14:27:04.000Z</time>
      </trkpt>
      <trkpt lat="47.34063" lon="-1.27832">
        <ele>62</ele>
        <time>2021-03-06T14:27:07.000Z</time>
      </trkpt>
      <trkpt lat="47.34076" lon="-1.27835">
        <ele>62</ele>
        <time>2021-03-06T14:27:09.000Z</time>
      </trkpt>
      <trkpt lat="47.34088" lon="-1.2784">
        <ele>63</ele>
        <time>2021-03-06T14:27:11.000Z</time>
      </trkpt>
      <trkpt lat="47.34101" lon="-1.27844">
        <ele>63</ele>
        <time>2021-03-06T14:27:13.000Z</time>
      </trkpt>
      <trkpt lat="47.3412" lon="-1.2785">
        <ele>63</ele>
        <time>2021-03-06T14:27:16.000Z</time>
      </trkpt>
      <trkpt lat="47.34133" lon="-1.27854">
        <ele>63</ele>
        <time>2021-03-06T14:27:18.000Z</time>
      </trkpt>
      <trkpt lat="47.34145" lon="-1.27858">
        <ele>63</ele>
        <time>2021-03-06T14:27:20.000Z</time>
      </trkpt>
      <trkpt lat="47.34157" lon="-1.27861">
        <ele>63</ele>
        <time>2021-03-06T14:27:22.000Z</time>
      </trkpt>
      <trkpt lat="47.34169" lon="-1.27864">
        <ele>63</ele>
        <time>2021-03-06T14:27:24.000Z</time>
      </trkpt>
      <trkpt lat="47.34183" lon="-1.27866">
        <ele>59</ele>
        <time>2021-03-06T14:27:26.000Z</time>
      </trkpt>
      <trkpt lat="47.34194" lon="-1.27871">
        <ele>60</ele>
        <time>2021-03-06T14:27:28.000Z</time>
      </trkpt>
      <trkpt lat="47.34205" lon="-1.27876">
        <ele>61</ele>
        <time>2021-03-06T14:27:30.000Z</time>
      </trkpt>
      <trkpt lat="47.34217" lon="-1.2788">
        <ele>62</ele>
        <time>2021-03-06T14:27:32.000Z</time>
      </trkpt>
      <trkpt lat="47.34229" lon="-1.27884">
        <ele>62</ele>
        <time>2021-03-06T14:27:34.000Z</time>
      </trkpt>
      <trkpt lat="47.34241" lon="-1.27888">
        <ele>63</ele>
        <time>2021-03-06T14:27:36.000Z</time>
      </trkpt>
      <trkpt lat="47.34253" lon="-1.27892">
        <ele>63</ele>
        <time>2021-03-06T14:27:38.000Z</time>
      </trkpt>
      <trkpt lat="47.34265" lon="-1.27895">
        <ele>64</ele>
        <time>2021-03-06T14:27:40.000Z</time>
      </trkpt>
      <trkpt lat="47.34276" lon="-1.27898">
        <ele>64</ele>
        <time>2021-03-06T14:27:42.000Z</time>
      </trkpt>
      <trkpt lat="47.34287" lon="-1.27899">
        <ele>65</ele>
        <time>2021-03-06T14:27:44.000Z</time>
      </trkpt>
      <trkpt lat="47.34299" lon="-1.27903">
        <ele>65</ele>
        <time>2021-03-06T14:27:46.000Z</time>
      </trkpt>
      <trkpt lat="47.34313" lon="-1.27907">
        <ele>65</ele>
        <time>2021-03-06T14:27:48.000Z</time>
      </trkpt>
      <trkpt lat="47.34327" lon="-1.27907">
        <ele>64</ele>
        <time>2021-03-06T14:27:50.000Z</time>
      </trkpt>
      <trkpt lat="47.34338" lon="-1.27914">
        <ele>64</ele>
        <time>2021-03-06T14:27:52.000Z</time>
      </trkpt>
      <trkpt lat="47.34349" lon="-1.27921">
        <ele>64</ele>
        <time>2021-03-06T14:27:54.000Z</time>
      </trkpt>
      <trkpt lat="47.34361" lon="-1.27925">
        <ele>64</ele>
        <time>2021-03-06T14:27:56.000Z</time>
      </trkpt>
      <trkpt lat="47.34374" lon="-1.27929">
        <ele>63</ele>
        <time>2021-03-06T14:27:58.000Z</time>
      </trkpt>
      <trkpt lat="47.34388" lon="-1.2793">
        <ele>61</ele>
        <time>2021-03-06T14:28:01.000Z</time>
      </trkpt>
      <trkpt lat="47.34401" lon="-1.27936">
        <ele>63</ele>
        <time>2021-03-06T14:28:03.000Z</time>
      </trkpt>
      <trkpt lat="47.34419" lon="-1.27946">
        <ele>63</ele>
        <time>2021-03-06T14:28:06.000Z</time>
      </trkpt>
      <trkpt lat="47.3443" lon="-1.27952">
        <ele>64</ele>
        <time>2021-03-06T14:28:08.000Z</time>
      </trkpt>
      <trkpt lat="47.34446" lon="-1.27964">
        <ele>65</ele>
        <time>2021-03-06T14:28:11.000Z</time>
      </trkpt>
      <trkpt lat="47.34461" lon="-1.27978">
        <ele>66</ele>
        <time>2021-03-06T14:28:14.000Z</time>
      </trkpt>
      <trkpt lat="47.3447" lon="-1.27988">
        <ele>66</ele>
        <time>2021-03-06T14:28:16.000Z</time>
      </trkpt>
      <trkpt lat="47.3448" lon="-1.28001">
        <ele>65</ele>
        <time>2021-03-06T14:28:18.000Z</time>
      </trkpt>
      <trkpt lat="47.34494" lon="-1.28022">
        <ele>65</ele>
        <time>2021-03-06T14:28:21.000Z</time>
      </trkpt>
      <trkpt lat="47.34506" lon="-1.28046">
        <ele>64</ele>
        <time>2021-03-06T14:28:24.000Z</time>
      </trkpt>
      <trkpt lat="47.34514" lon="-1.28064">
        <ele>63</ele>
        <time>2021-03-06T14:28:26.000Z</time>
      </trkpt>
      <trkpt lat="47.3452" lon="-1.28084">
        <ele>62</ele>
        <time>2021-03-06T14:28:28.000Z</time>
      </trkpt>
      <trkpt lat="47.34527" lon="-1.28105">
        <ele>59</ele>
        <time>2021-03-06T14:28:30.000Z</time>
      </trkpt>
      <trkpt lat="47.3453" lon="-1.2813">
        <ele>60</ele>
        <time>2021-03-06T14:28:32.000Z</time>
      </trkpt>
      <trkpt lat="47.34532" lon="-1.28143">
        <ele>59</ele>
        <time>2021-03-06T14:28:33.000Z</time>
      </trkpt>
      <trkpt lat="47.34535" lon="-1.28166">
        <ele>60</ele>
        <time>2021-03-06T14:28:35.000Z</time>
      </trkpt>
      <trkpt lat="47.34537" lon="-1.28186">
        <ele>59</ele>
        <time>2021-03-06T14:28:37.000Z</time>
      </trkpt>
      <trkpt lat="47.34533" lon="-1.2822">
        <ele>59</ele>
        <time>2021-03-06T14:28:40.000Z</time>
      </trkpt>
      <trkpt lat="47.3453" lon="-1.28242">
        <ele>59</ele>
        <time>2021-03-06T14:28:42.000Z</time>
      </trkpt>
      <trkpt lat="47.34529" lon="-1.28265">
        <ele>60</ele>
        <time>2021-03-06T14:28:44.000Z</time>
      </trkpt>
      <trkpt lat="47.34528" lon="-1.28284">
        <ele>59</ele>
        <time>2021-03-06T14:28:46.000Z</time>
      </trkpt>
      <trkpt lat="47.34526" lon="-1.28306">
        <ele>60</ele>
        <time>2021-03-06T14:28:48.000Z</time>
      </trkpt>
      <trkpt lat="47.34524" lon="-1.28328">
        <ele>61</ele>
        <time>2021-03-06T14:28:50.000Z</time>
      </trkpt>
      <trkpt lat="47.34522" lon="-1.2835">
        <ele>60</ele>
        <time>2021-03-06T14:28:52.000Z</time>
      </trkpt>
      <trkpt lat="47.34523" lon="-1.2837">
        <ele>60</ele>
        <time>2021-03-06T14:28:54.000Z</time>
      </trkpt>
      <trkpt lat="47.34524" lon="-1.28391">
        <ele>59</ele>
        <time>2021-03-06T14:28:56.000Z</time>
      </trkpt>
      <trkpt lat="47.34529" lon="-1.28422">
        <ele>58</ele>
        <time>2021-03-06T14:28:59.000Z</time>
      </trkpt>
      <trkpt lat="47.34536" lon="-1.28442">
        <ele>57</ele>
        <time>2021-03-06T14:29:01.000Z</time>
      </trkpt>
      <trkpt lat="47.34543" lon="-1.28458">
        <ele>58</ele>
        <time>2021-03-06T14:29:03.000Z</time>
      </trkpt>
      <trkpt lat="47.34548" lon="-1.28475">
        <ele>59</ele>
        <time>2021-03-06T14:29:05.000Z</time>
      </trkpt>
      <trkpt lat="47.34556" lon="-1.28491">
        <ele>60</ele>
        <time>2021-03-06T14:29:07.000Z</time>
      </trkpt>
      <trkpt lat="47.34563" lon="-1.28505">
        <ele>56</ele>
        <time>2021-03-06T14:29:09.000Z</time>
      </trkpt>
      <trkpt lat="47.34572" lon="-1.28517">
        <ele>57</ele>
        <time>2021-03-06T14:29:11.000Z</time>
      </trkpt>
      <trkpt lat="47.34587" lon="-1.28534">
        <ele>58</ele>
        <time>2021-03-06T14:29:14.000Z</time>
      </trkpt>
      <trkpt lat="47.34597" lon="-1.28543">
        <ele>59</ele>
        <time>2021-03-06T14:29:16.000Z</time>
      </trkpt>
      <trkpt lat="47.34614" lon="-1.28557">
        <ele>60</ele>
        <time>2021-03-06T14:29:19.000Z</time>
      </trkpt>
      <trkpt lat="47.34623" lon="-1.28566">
        <ele>61</ele>
        <time>2021-03-06T14:29:21.000Z</time>
      </trkpt>
      <trkpt lat="47.34633" lon="-1.28574">
        <ele>60</ele>
        <time>2021-03-06T14:29:23.000Z</time>
      </trkpt>
      <trkpt lat="47.34641" lon="-1.28582">
        <ele>61</ele>
        <time>2021-03-06T14:29:25.000Z</time>
      </trkpt>
      <trkpt lat="47.34649" lon="-1.28591">
        <ele>61</ele>
        <time>2021-03-06T14:29:27.000Z</time>
      </trkpt>
      <trkpt lat="47.34643" lon="-1.28618">
        <ele>61</ele>
        <time>2021-03-06T14:29:31.000Z</time>
      </trkpt>
      <trkpt lat="47.34633" lon="-1.28635">
        <ele>60</ele>
        <time>2021-03-06T14:29:33.000Z</time>
      </trkpt>
      <trkpt lat="47.34622" lon="-1.28653">
        <ele>60</ele>
        <time>2021-03-06T14:29:35.000Z</time>
      </trkpt>
      <trkpt lat="47.34612" lon="-1.28673">
        <ele>59</ele>
        <time>2021-03-06T14:29:37.000Z</time>
      </trkpt>
      <trkpt lat="47.34604" lon="-1.28692">
        <ele>58</ele>
        <time>2021-03-06T14:29:39.000Z</time>
      </trkpt>
      <trkpt lat="47.34596" lon="-1.2871">
        <ele>59</ele>
        <time>2021-03-06T14:29:41.000Z</time>
      </trkpt>
      <trkpt lat="47.34591" lon="-1.28728">
        <ele>59</ele>
        <time>2021-03-06T14:29:43.000Z</time>
      </trkpt>
      <trkpt lat="47.34584" lon="-1.28751">
        <ele>59</ele>
        <time>2021-03-06T14:29:46.000Z</time>
      </trkpt>
      <trkpt lat="47.34579" lon="-1.28768">
        <ele>59</ele>
        <time>2021-03-06T14:29:49.000Z</time>
      </trkpt>
      <trkpt lat="47.34573" lon="-1.28788">
        <ele>60</ele>
        <time>2021-03-06T14:29:54.000Z</time>
      </trkpt>
      <trkpt lat="47.34582" lon="-1.28779">
        <ele>58</ele>
        <time>2021-03-06T14:30:00.000Z</time>
      </trkpt>
      <trkpt lat="47.34591" lon="-1.28776">
        <ele>57</ele>
        <time>2021-03-06T14:30:05.000Z</time>
      </trkpt>
      <trkpt lat="47.34601" lon="-1.28785">
        <ele>56</ele>
        <time>2021-03-06T14:30:08.000Z</time>
      </trkpt>
      <trkpt lat="47.34613" lon="-1.28786">
        <ele>55</ele>
        <time>2021-03-06T14:30:11.000Z</time>
      </trkpt>
      <trkpt lat="47.34624" lon="-1.28794">
        <ele>56</ele>
        <time>2021-03-06T14:30:14.000Z</time>
      </trkpt>
      <trkpt lat="47.34625" lon="-1.28808">
        <ele>56</ele>
        <time>2021-03-06T14:30:18.000Z</time>
      </trkpt>
      <trkpt lat="47.34616" lon="-1.28821">
        <ele>54</ele>
        <time>2021-03-06T14:30:26.000Z</time>
      </trkpt>
      <trkpt lat="47.34609" lon="-1.28833">
        <ele>54</ele>
        <time>2021-03-06T14:30:29.000Z</time>
      </trkpt>
      <trkpt lat="47.34599" lon="-1.2885">
        <ele>56</ele>
        <time>2021-03-06T14:30:33.000Z</time>
      </trkpt>
      <trkpt lat="47.34592" lon="-1.28862">
        <ele>56</ele>
        <time>2021-03-06T14:30:36.000Z</time>
      </trkpt>
      <trkpt lat="47.3458" lon="-1.28886">
        <ele>58</ele>
        <time>2021-03-06T14:30:41.000Z</time>
      </trkpt>
      <trkpt lat="47.34571" lon="-1.28891">
        <ele>59</ele>
        <time>2021-03-06T14:30:44.000Z</time>
      </trkpt>
      <trkpt lat="47.3456" lon="-1.28889">
        <ele>60</ele>
        <time>2021-03-06T14:30:46.000Z</time>
      </trkpt>
      <trkpt lat="47.3455" lon="-1.28884">
        <ele>61</ele>
        <time>2021-03-06T14:30:48.000Z</time>
      </trkpt>
      <trkpt lat="47.34541" lon="-1.28889">
        <ele>61</ele>
        <time>2021-03-06T14:30:50.000Z</time>
      </trkpt>
      <trkpt lat="47.34535" lon="-1.289">
        <ele>60</ele>
        <time>2021-03-06T14:30:52.000Z</time>
      </trkpt>
      <trkpt lat="47.34532" lon="-1.28916">
        <ele>60</ele>
        <time>2021-03-06T14:30:54.000Z</time>
      </trkpt>
      <trkpt lat="47.34528" lon="-1.28929">
        <ele>61</ele>
        <time>2021-03-06T14:30:56.000Z</time>
      </trkpt>
      <trkpt lat="47.34521" lon="-1.28941">
        <ele>62</ele>
        <time>2021-03-06T14:30:58.000Z</time>
      </trkpt>
      <trkpt lat="47.34515" lon="-1.28954">
        <ele>62</ele>
        <time>2021-03-06T14:31:00.000Z</time>
      </trkpt>
      <trkpt lat="47.34502" lon="-1.28974">
        <ele>59</ele>
        <time>2021-03-06T14:31:03.000Z</time>
      </trkpt>
      <trkpt lat="47.34494" lon="-1.28985">
        <ele>59</ele>
        <time>2021-03-06T14:31:05.000Z</time>
      </trkpt>
      <trkpt lat="47.34484" lon="-1.29012">
        <ele>60</ele>
        <time>2021-03-06T14:31:08.000Z</time>
      </trkpt>
      <trkpt lat="47.34481" lon="-1.29027">
        <ele>56</ele>
        <time>2021-03-06T14:31:10.000Z</time>
      </trkpt>
      <trkpt lat="47.34476" lon="-1.29057">
        <ele>55</ele>
        <time>2021-03-06T14:31:13.000Z</time>
      </trkpt>
      <trkpt lat="47.34467" lon="-1.2909">
        <ele>57</ele>
        <time>2021-03-06T14:31:16.000Z</time>
      </trkpt>
      <trkpt lat="47.34461" lon="-1.29108">
        <ele>57</ele>
        <time>2021-03-06T14:31:18.000Z</time>
      </trkpt>
      <trkpt lat="47.34457" lon="-1.29123">
        <ele>55</ele>
        <time>2021-03-06T14:31:20.000Z</time>
      </trkpt>
      <trkpt lat="47.34446" lon="-1.29133">
        <ele>56</ele>
        <time>2021-03-06T14:31:22.000Z</time>
      </trkpt>
      <trkpt lat="47.34443" lon="-1.29152">
        <ele>57</ele>
        <time>2021-03-06T14:31:24.000Z</time>
      </trkpt>
      <trkpt lat="47.34444" lon="-1.29172">
        <ele>57</ele>
        <time>2021-03-06T14:31:26.000Z</time>
      </trkpt>
      <trkpt lat="47.34443" lon="-1.29194">
        <ele>57</ele>
        <time>2021-03-06T14:31:28.000Z</time>
      </trkpt>
      <trkpt lat="47.34447" lon="-1.29217">
        <ele>54</ele>
        <time>2021-03-06T14:31:30.000Z</time>
      </trkpt>
      <trkpt lat="47.34447" lon="-1.2924">
        <ele>54</ele>
        <time>2021-03-06T14:31:32.000Z</time>
      </trkpt>
      <trkpt lat="47.34446" lon="-1.29257">
        <ele>54</ele>
        <time>2021-03-06T14:31:34.000Z</time>
      </trkpt>
      <trkpt lat="47.34446" lon="-1.29277">
        <ele>54</ele>
        <time>2021-03-06T14:31:36.000Z</time>
      </trkpt>
      <trkpt lat="47.34447" lon="-1.29299">
        <ele>54</ele>
        <time>2021-03-06T14:31:38.000Z</time>
      </trkpt>
      <trkpt lat="47.34448" lon="-1.29321">
        <ele>55</ele>
        <time>2021-03-06T14:31:40.000Z</time>
      </trkpt>
      <trkpt lat="47.34448" lon="-1.29342">
        <ele>55</ele>
        <time>2021-03-06T14:31:42.000Z</time>
      </trkpt>
      <trkpt lat="47.34449" lon="-1.29363">
        <ele>55</ele>
        <time>2021-03-06T14:31:44.000Z</time>
      </trkpt>
      <trkpt lat="47.34449" lon="-1.29385">
        <ele>55</ele>
        <time>2021-03-06T14:31:46.000Z</time>
      </trkpt>
      <trkpt lat="47.34448" lon="-1.29407">
        <ele>55</ele>
        <time>2021-03-06T14:31:48.000Z</time>
      </trkpt>
      <trkpt lat="47.34447" lon="-1.29428">
        <ele>55</ele>
        <time>2021-03-06T14:31:50.000Z</time>
      </trkpt>
      <trkpt lat="47.34448" lon="-1.29447">
        <ele>54</ele>
        <time>2021-03-06T14:31:52.000Z</time>
      </trkpt>
      <trkpt lat="47.34444" lon="-1.29468">
        <ele>54</ele>
        <time>2021-03-06T14:31:54.000Z</time>
      </trkpt>
      <trkpt lat="47.3444" lon="-1.29489">
        <ele>55</ele>
        <time>2021-03-06T14:31:56.000Z</time>
      </trkpt>
      <trkpt lat="47.34439" lon="-1.29525">
        <ele>55</ele>
        <time>2021-03-06T14:31:59.000Z</time>
      </trkpt>
      <trkpt lat="47.34435" lon="-1.29544">
        <ele>56</ele>
        <time>2021-03-06T14:32:01.000Z</time>
      </trkpt>
      <trkpt lat="47.34431" lon="-1.29565">
        <ele>56</ele>
        <time>2021-03-06T14:32:03.000Z</time>
      </trkpt>
      <trkpt lat="47.34427" lon="-1.29583">
        <ele>56</ele>
        <time>2021-03-06T14:32:05.000Z</time>
      </trkpt>
      <trkpt lat="47.34422" lon="-1.29614">
        <ele>57</ele>
        <time>2021-03-06T14:32:08.000Z</time>
      </trkpt>
      <trkpt lat="47.34417" lon="-1.29633">
        <ele>57</ele>
        <time>2021-03-06T14:32:10.000Z</time>
      </trkpt>
      <trkpt lat="47.34411" lon="-1.29652">
        <ele>57</ele>
        <time>2021-03-06T14:32:12.000Z</time>
      </trkpt>
      <trkpt lat="47.34403" lon="-1.29669">
        <ele>56</ele>
        <time>2021-03-06T14:32:14.000Z</time>
      </trkpt>
      <trkpt lat="47.34397" lon="-1.29687">
        <ele>53</ele>
        <time>2021-03-06T14:32:16.000Z</time>
      </trkpt>
      <trkpt lat="47.34389" lon="-1.29704">
        <ele>50</ele>
        <time>2021-03-06T14:32:18.000Z</time>
      </trkpt>
      <trkpt lat="47.34378" lon="-1.29719">
        <ele>51</ele>
        <time>2021-03-06T14:32:20.000Z</time>
      </trkpt>
      <trkpt lat="47.34369" lon="-1.29736">
        <ele>53</ele>
        <time>2021-03-06T14:32:22.000Z</time>
      </trkpt>
      <trkpt lat="47.34357" lon="-1.29762">
        <ele>53</ele>
        <time>2021-03-06T14:32:25.000Z</time>
      </trkpt>
      <trkpt lat="47.34345" lon="-1.29787">
        <ele>52</ele>
        <time>2021-03-06T14:32:28.000Z</time>
      </trkpt>
      <trkpt lat="47.34332" lon="-1.29815">
        <ele>50</ele>
        <time>2021-03-06T14:32:31.000Z</time>
      </trkpt>
      <trkpt lat="47.34319" lon="-1.29842">
        <ele>52</ele>
        <time>2021-03-06T14:32:34.000Z</time>
      </trkpt>
      <trkpt lat="47.34314" lon="-1.2986">
        <ele>53</ele>
        <time>2021-03-06T14:32:36.000Z</time>
      </trkpt>
      <trkpt lat="47.34304" lon="-1.29889">
        <ele>54</ele>
        <time>2021-03-06T14:32:39.000Z</time>
      </trkpt>
      <trkpt lat="47.34294" lon="-1.29918">
        <ele>54</ele>
        <time>2021-03-06T14:32:42.000Z</time>
      </trkpt>
      <trkpt lat="47.34285" lon="-1.29946">
        <ele>54</ele>
        <time>2021-03-06T14:32:45.000Z</time>
      </trkpt>
      <trkpt lat="47.3428" lon="-1.29965">
        <ele>55</ele>
        <time>2021-03-06T14:32:47.000Z</time>
      </trkpt>
      <trkpt lat="47.34276" lon="-1.29984">
        <ele>55</ele>
        <time>2021-03-06T14:32:49.000Z</time>
      </trkpt>
      <trkpt lat="47.34271" lon="-1.30004">
        <ele>55</ele>
        <time>2021-03-06T14:32:51.000Z</time>
      </trkpt>
      <trkpt lat="47.34267" lon="-1.30024">
        <ele>54</ele>
        <time>2021-03-06T14:32:53.000Z</time>
      </trkpt>
      <trkpt lat="47.34263" lon="-1.30046">
        <ele>55</ele>
        <time>2021-03-06T14:32:55.000Z</time>
      </trkpt>
      <trkpt lat="47.34259" lon="-1.30065">
        <ele>56</ele>
        <time>2021-03-06T14:32:57.000Z</time>
      </trkpt>
      <trkpt lat="47.34255" lon="-1.30086">
        <ele>56</ele>
        <time>2021-03-06T14:32:59.000Z</time>
      </trkpt>
      <trkpt lat="47.34251" lon="-1.30105">
        <ele>56</ele>
        <time>2021-03-06T14:33:01.000Z</time>
      </trkpt>
      <trkpt lat="47.34246" lon="-1.30124">
        <ele>57</ele>
        <time>2021-03-06T14:33:03.000Z</time>
      </trkpt>
      <trkpt lat="47.34238" lon="-1.30152">
        <ele>57</ele>
        <time>2021-03-06T14:33:06.000Z</time>
      </trkpt>
      <trkpt lat="47.3423" lon="-1.3018">
        <ele>58</ele>
        <time>2021-03-06T14:33:09.000Z</time>
      </trkpt>
      <trkpt lat="47.34221" lon="-1.30208">
        <ele>57</ele>
        <time>2021-03-06T14:33:12.000Z</time>
      </trkpt>
      <trkpt lat="47.34211" lon="-1.30235">
        <ele>58</ele>
        <time>2021-03-06T14:33:15.000Z</time>
      </trkpt>
      <trkpt lat="47.34205" lon="-1.30249">
        <ele>56</ele>
        <time>2021-03-06T14:33:17.000Z</time>
      </trkpt>
      <trkpt lat="47.34199" lon="-1.30265">
        <ele>55</ele>
        <time>2021-03-06T14:33:19.000Z</time>
      </trkpt>
      <trkpt lat="47.34191" lon="-1.30283">
        <ele>56</ele>
        <time>2021-03-06T14:33:21.000Z</time>
      </trkpt>
      <trkpt lat="47.34184" lon="-1.30301">
        <ele>57</ele>
        <time>2021-03-06T14:33:23.000Z</time>
      </trkpt>
      <trkpt lat="47.34177" lon="-1.30318">
        <ele>57</ele>
        <time>2021-03-06T14:33:25.000Z</time>
      </trkpt>
      <trkpt lat="47.3417" lon="-1.30335">
        <ele>58</ele>
        <time>2021-03-06T14:33:27.000Z</time>
      </trkpt>
      <trkpt lat="47.34163" lon="-1.30351">
        <ele>58</ele>
        <time>2021-03-06T14:33:29.000Z</time>
      </trkpt>
      <trkpt lat="47.34156" lon="-1.30367">
        <ele>58</ele>
        <time>2021-03-06T14:33:31.000Z</time>
      </trkpt>
      <trkpt lat="47.34151" lon="-1.30384">
        <ele>55</ele>
        <time>2021-03-06T14:33:33.000Z</time>
      </trkpt>
      <trkpt lat="47.34143" lon="-1.304">
        <ele>55</ele>
        <time>2021-03-06T14:33:35.000Z</time>
      </trkpt>
      <trkpt lat="47.34133" lon="-1.30423">
        <ele>57</ele>
        <time>2021-03-06T14:33:38.000Z</time>
      </trkpt>
      <trkpt lat="47.3413" lon="-1.30438">
        <ele>56</ele>
        <time>2021-03-06T14:33:40.000Z</time>
      </trkpt>
      <trkpt lat="47.34126" lon="-1.30452">
        <ele>56</ele>
        <time>2021-03-06T14:33:42.000Z</time>
      </trkpt>
      <trkpt lat="47.34116" lon="-1.30468">
        <ele>56</ele>
        <time>2021-03-06T14:33:44.000Z</time>
      </trkpt>
      <trkpt lat="47.34103" lon="-1.30492">
        <ele>54</ele>
        <time>2021-03-06T14:33:47.000Z</time>
      </trkpt>
      <trkpt lat="47.34089" lon="-1.30516">
        <ele>55</ele>
        <time>2021-03-06T14:33:50.000Z</time>
      </trkpt>
      <trkpt lat="47.34084" lon="-1.30528">
        <ele>55</ele>
        <time>2021-03-06T14:33:51.000Z</time>
      </trkpt>
      <trkpt lat="47.34069" lon="-1.30557">
        <ele>55</ele>
        <time>2021-03-06T14:33:54.000Z</time>
      </trkpt>
      <trkpt lat="47.3406" lon="-1.30574">
        <ele>53</ele>
        <time>2021-03-06T14:33:56.000Z</time>
      </trkpt>
      <trkpt lat="47.34052" lon="-1.30589">
        <ele>52</ele>
        <time>2021-03-06T14:33:58.000Z</time>
      </trkpt>
      <trkpt lat="47.34043" lon="-1.30607">
        <ele>54</ele>
        <time>2021-03-06T14:34:00.000Z</time>
      </trkpt>
      <trkpt lat="47.34034" lon="-1.30624">
        <ele>54</ele>
        <time>2021-03-06T14:34:02.000Z</time>
      </trkpt>
      <trkpt lat="47.34026" lon="-1.3064">
        <ele>54</ele>
        <time>2021-03-06T14:34:04.000Z</time>
      </trkpt>
      <trkpt lat="47.34012" lon="-1.30661">
        <ele>54</ele>
        <time>2021-03-06T14:34:07.000Z</time>
      </trkpt>
      <trkpt lat="47.33998" lon="-1.30681">
        <ele>54</ele>
        <time>2021-03-06T14:34:10.000Z</time>
      </trkpt>
      <trkpt lat="47.33989" lon="-1.30692">
        <ele>54</ele>
        <time>2021-03-06T14:34:12.000Z</time>
      </trkpt>
      <trkpt lat="47.33979" lon="-1.30696">
        <ele>54</ele>
        <time>2021-03-06T14:34:14.000Z</time>
      </trkpt>
      <trkpt lat="47.33969" lon="-1.3069">
        <ele>54</ele>
        <time>2021-03-06T14:34:17.000Z</time>
      </trkpt>
      <trkpt lat="47.33961" lon="-1.30679">
        <ele>52</ele>
        <time>2021-03-06T14:34:20.000Z</time>
      </trkpt>
      <trkpt lat="47.33954" lon="-1.30692">
        <ele>49</ele>
        <time>2021-03-06T14:34:24.000Z</time>
      </trkpt>
      <trkpt lat="47.33946" lon="-1.30708">
        <ele>50</ele>
        <time>2021-03-06T14:34:26.000Z</time>
      </trkpt>
      <trkpt lat="47.33934" lon="-1.3072">
        <ele>51</ele>
        <time>2021-03-06T14:34:28.000Z</time>
      </trkpt>
      <trkpt lat="47.33924" lon="-1.30731">
        <ele>51</ele>
        <time>2021-03-06T14:34:30.000Z</time>
      </trkpt>
      <trkpt lat="47.33915" lon="-1.30744">
        <ele>52</ele>
        <time>2021-03-06T14:34:32.000Z</time>
      </trkpt>
      <trkpt lat="47.33905" lon="-1.30756">
        <ele>51</ele>
        <time>2021-03-06T14:34:34.000Z</time>
      </trkpt>
      <trkpt lat="47.33892" lon="-1.30772">
        <ele>50</ele>
        <time>2021-03-06T14:34:37.000Z</time>
      </trkpt>
      <trkpt lat="47.33884" lon="-1.3078">
        <ele>50</ele>
        <time>2021-03-06T14:34:39.000Z</time>
      </trkpt>
      <trkpt lat="47.33874" lon="-1.30788">
        <ele>51</ele>
        <time>2021-03-06T14:34:41.000Z</time>
      </trkpt>
      <trkpt lat="47.33864" lon="-1.30798">
        <ele>52</ele>
        <time>2021-03-06T14:34:43.000Z</time>
      </trkpt>
      <trkpt lat="47.33849" lon="-1.30814">
        <ele>50</ele>
        <time>2021-03-06T14:34:46.000Z</time>
      </trkpt>
      <trkpt lat="47.3384" lon="-1.30824">
        <ele>50</ele>
        <time>2021-03-06T14:34:48.000Z</time>
      </trkpt>
      <trkpt lat="47.33831" lon="-1.30833">
        <ele>50</ele>
        <time>2021-03-06T14:34:50.000Z</time>
      </trkpt>
      <trkpt lat="47.33817" lon="-1.30845">
        <ele>52</ele>
        <time>2021-03-06T14:34:54.000Z</time>
      </trkpt>
      <trkpt lat="47.33805" lon="-1.30856">
        <ele>53</ele>
        <time>2021-03-06T14:34:57.000Z</time>
      </trkpt>
      <trkpt lat="47.33793" lon="-1.30867">
        <ele>54</ele>
        <time>2021-03-06T14:34:59.000Z</time>
      </trkpt>
      <trkpt lat="47.33775" lon="-1.30886">
        <ele>54</ele>
        <time>2021-03-06T14:35:02.000Z</time>
      </trkpt>
      <trkpt lat="47.33764" lon="-1.30898">
        <ele>54</ele>
        <time>2021-03-06T14:35:04.000Z</time>
      </trkpt>
      <trkpt lat="47.33753" lon="-1.3091">
        <ele>54</ele>
        <time>2021-03-06T14:35:06.000Z</time>
      </trkpt>
      <trkpt lat="47.33743" lon="-1.30921">
        <ele>55</ele>
        <time>2021-03-06T14:35:08.000Z</time>
      </trkpt>
      <trkpt lat="47.33734" lon="-1.30933">
        <ele>55</ele>
        <time>2021-03-06T14:35:10.000Z</time>
      </trkpt>
      <trkpt lat="47.33725" lon="-1.30943">
        <ele>55</ele>
        <time>2021-03-06T14:35:12.000Z</time>
      </trkpt>
      <trkpt lat="47.33715" lon="-1.30954">
        <ele>55</ele>
        <time>2021-03-06T14:35:14.000Z</time>
      </trkpt>
      <trkpt lat="47.33705" lon="-1.30965">
        <ele>52</ele>
        <time>2021-03-06T14:35:16.000Z</time>
      </trkpt>
      <trkpt lat="47.33696" lon="-1.30981">
        <ele>52</ele>
        <time>2021-03-06T14:35:19.000Z</time>
      </trkpt>
      <trkpt lat="47.33684" lon="-1.3099">
        <ele>52</ele>
        <time>2021-03-06T14:35:25.000Z</time>
      </trkpt>
      <trkpt lat="47.33677" lon="-1.31001">
        <ele>53</ele>
        <time>2021-03-06T14:35:29.000Z</time>
      </trkpt>
      <trkpt lat="47.33671" lon="-1.31012">
        <ele>53</ele>
        <time>2021-03-06T14:35:31.000Z</time>
      </trkpt>
      <trkpt lat="47.33661" lon="-1.31025">
        <ele>53</ele>
        <time>2021-03-06T14:35:33.000Z</time>
      </trkpt>
      <trkpt lat="47.33654" lon="-1.31036">
        <ele>53</ele>
        <time>2021-03-06T14:35:35.000Z</time>
      </trkpt>
      <trkpt lat="47.33646" lon="-1.31048">
        <ele>53</ele>
        <time>2021-03-06T14:35:37.000Z</time>
      </trkpt>
      <trkpt lat="47.33632" lon="-1.31067">
        <ele>53</ele>
        <time>2021-03-06T14:35:40.000Z</time>
      </trkpt>
      <trkpt lat="47.33617" lon="-1.31094">
        <ele>52</ele>
        <time>2021-03-06T14:35:43.000Z</time>
      </trkpt>
      <trkpt lat="47.33607" lon="-1.31108">
        <ele>51</ele>
        <time>2021-03-06T14:35:45.000Z</time>
      </trkpt>
      <trkpt lat="47.33597" lon="-1.31127">
        <ele>51</ele>
        <time>2021-03-06T14:35:47.000Z</time>
      </trkpt>
      <trkpt lat="47.33587" lon="-1.31145">
        <ele>50</ele>
        <time>2021-03-06T14:35:49.000Z</time>
      </trkpt>
      <trkpt lat="47.33577" lon="-1.31162">
        <ele>50</ele>
        <time>2021-03-06T14:35:51.000Z</time>
      </trkpt>
      <trkpt lat="47.33565" lon="-1.31188">
        <ele>52</ele>
        <time>2021-03-06T14:35:54.000Z</time>
      </trkpt>
      <trkpt lat="47.33558" lon="-1.31208">
        <ele>51</ele>
        <time>2021-03-06T14:35:56.000Z</time>
      </trkpt>
      <trkpt lat="47.33549" lon="-1.31223">
        <ele>52</ele>
        <time>2021-03-06T14:35:58.000Z</time>
      </trkpt>
      <trkpt lat="47.33539" lon="-1.31238">
        <ele>53</ele>
        <time>2021-03-06T14:36:00.000Z</time>
      </trkpt>
      <trkpt lat="47.33529" lon="-1.31253">
        <ele>54</ele>
        <time>2021-03-06T14:36:02.000Z</time>
      </trkpt>
      <trkpt lat="47.33521" lon="-1.31269">
        <ele>54</ele>
        <time>2021-03-06T14:36:04.000Z</time>
      </trkpt>
      <trkpt lat="47.33512" lon="-1.31282">
        <ele>55</ele>
        <time>2021-03-06T14:36:06.000Z</time>
      </trkpt>
      <trkpt lat="47.33506" lon="-1.31297">
        <ele>56</ele>
        <time>2021-03-06T14:36:08.000Z</time>
      </trkpt>
      <trkpt lat="47.33499" lon="-1.31311">
        <ele>54</ele>
        <time>2021-03-06T14:36:10.000Z</time>
      </trkpt>
      <trkpt lat="47.33492" lon="-1.31325">
        <ele>53</ele>
        <time>2021-03-06T14:36:12.000Z</time>
      </trkpt>
      <trkpt lat="47.33484" lon="-1.31339">
        <ele>53</ele>
        <time>2021-03-06T14:36:14.000Z</time>
      </trkpt>
      <trkpt lat="47.33475" lon="-1.31353">
        <ele>53</ele>
        <time>2021-03-06T14:36:16.000Z</time>
      </trkpt>
      <trkpt lat="47.33469" lon="-1.31367">
        <ele>53</ele>
        <time>2021-03-06T14:36:18.000Z</time>
      </trkpt>
      <trkpt lat="47.33464" lon="-1.31382">
        <ele>52</ele>
        <time>2021-03-06T14:36:20.000Z</time>
      </trkpt>
      <trkpt lat="47.33464" lon="-1.314">
        <ele>51</ele>
        <time>2021-03-06T14:36:24.000Z</time>
      </trkpt>
      <trkpt lat="47.3345" lon="-1.31417">
        <ele>51</ele>
        <time>2021-03-06T14:36:28.000Z</time>
      </trkpt>
      <trkpt lat="47.33443" lon="-1.31427">
        <ele>52</ele>
        <time>2021-03-06T14:36:30.000Z</time>
      </trkpt>
      <trkpt lat="47.33432" lon="-1.31443">
        <ele>52</ele>
        <time>2021-03-06T14:36:33.000Z</time>
      </trkpt>
      <trkpt lat="47.33426" lon="-1.31456">
        <ele>51</ele>
        <time>2021-03-06T14:36:35.000Z</time>
      </trkpt>
      <trkpt lat="47.33419" lon="-1.31474">
        <ele>52</ele>
        <time>2021-03-06T14:36:37.000Z</time>
      </trkpt>
      <trkpt lat="47.3341" lon="-1.31491">
        <ele>52</ele>
        <time>2021-03-06T14:36:39.000Z</time>
      </trkpt>
      <trkpt lat="47.33399" lon="-1.31511">
        <ele>53</ele>
        <time>2021-03-06T14:36:41.000Z</time>
      </trkpt>
      <trkpt lat="47.33389" lon="-1.3153">
        <ele>53</ele>
        <time>2021-03-06T14:36:43.000Z</time>
      </trkpt>
      <trkpt lat="47.3338" lon="-1.31547">
        <ele>53</ele>
        <time>2021-03-06T14:36:45.000Z</time>
      </trkpt>
      <trkpt lat="47.3337" lon="-1.31567">
        <ele>53</ele>
        <time>2021-03-06T14:36:47.000Z</time>
      </trkpt>
      <trkpt lat="47.3336" lon="-1.31585">
        <ele>54</ele>
        <time>2021-03-06T14:36:49.000Z</time>
      </trkpt>
      <trkpt lat="47.33351" lon="-1.31602">
        <ele>54</ele>
        <time>2021-03-06T14:36:51.000Z</time>
      </trkpt>
      <trkpt lat="47.33338" lon="-1.31628">
        <ele>55</ele>
        <time>2021-03-06T14:36:54.000Z</time>
      </trkpt>
      <trkpt lat="47.33332" lon="-1.31646">
        <ele>55</ele>
        <time>2021-03-06T14:36:56.000Z</time>
      </trkpt>
      <trkpt lat="47.33323" lon="-1.31659">
        <ele>55</ele>
        <time>2021-03-06T14:36:58.000Z</time>
      </trkpt>
      <trkpt lat="47.33314" lon="-1.31677">
        <ele>54</ele>
        <time>2021-03-06T14:37:01.000Z</time>
      </trkpt>
      <trkpt lat="47.33306" lon="-1.31693">
        <ele>53</ele>
        <time>2021-03-06T14:37:03.000Z</time>
      </trkpt>
      <trkpt lat="47.33296" lon="-1.31715">
        <ele>54</ele>
        <time>2021-03-06T14:37:05.000Z</time>
      </trkpt>
      <trkpt lat="47.33285" lon="-1.31729">
        <ele>55</ele>
        <time>2021-03-06T14:37:07.000Z</time>
      </trkpt>
      <trkpt lat="47.33276" lon="-1.31747">
        <ele>57</ele>
        <time>2021-03-06T14:37:09.000Z</time>
      </trkpt>
      <trkpt lat="47.33263" lon="-1.31772">
        <ele>58</ele>
        <time>2021-03-06T14:37:12.000Z</time>
      </trkpt>
      <trkpt lat="47.33255" lon="-1.31788">
        <ele>58</ele>
        <time>2021-03-06T14:37:14.000Z</time>
      </trkpt>
      <trkpt lat="47.33247" lon="-1.31803">
        <ele>58</ele>
        <time>2021-03-06T14:37:16.000Z</time>
      </trkpt>
      <trkpt lat="47.3324" lon="-1.31818">
        <ele>57</ele>
        <time>2021-03-06T14:37:18.000Z</time>
      </trkpt>
      <trkpt lat="47.33233" lon="-1.31834">
        <ele>57</ele>
        <time>2021-03-06T14:37:20.000Z</time>
      </trkpt>
      <trkpt lat="47.3322" lon="-1.31858">
        <ele>56</ele>
        <time>2021-03-06T14:37:23.000Z</time>
      </trkpt>
      <trkpt lat="47.33208" lon="-1.3188">
        <ele>54</ele>
        <time>2021-03-06T14:37:26.000Z</time>
      </trkpt>
      <trkpt lat="47.332" lon="-1.31898">
        <ele>53</ele>
        <time>2021-03-06T14:37:28.000Z</time>
      </trkpt>
      <trkpt lat="47.3319" lon="-1.31916">
        <ele>54</ele>
        <time>2021-03-06T14:37:30.000Z</time>
      </trkpt>
      <trkpt lat="47.33182" lon="-1.31932">
        <ele>53</ele>
        <time>2021-03-06T14:37:32.000Z</time>
      </trkpt>
      <trkpt lat="47.33174" lon="-1.31956">
        <ele>52</ele>
        <time>2021-03-06T14:37:35.000Z</time>
      </trkpt>
      <trkpt lat="47.33169" lon="-1.31969">
        <ele>53</ele>
        <time>2021-03-06T14:37:37.000Z</time>
      </trkpt>
      <trkpt lat="47.3316" lon="-1.31978">
        <ele>54</ele>
        <time>2021-03-06T14:37:39.000Z</time>
      </trkpt>
      <trkpt lat="47.33142" lon="-1.31988">
        <ele>52</ele>
        <time>2021-03-06T14:37:42.000Z</time>
      </trkpt>
      <trkpt lat="47.33131" lon="-1.31997">
        <ele>52</ele>
        <time>2021-03-06T14:37:44.000Z</time>
      </trkpt>
      <trkpt lat="47.33121" lon="-1.32008">
        <ele>51</ele>
        <time>2021-03-06T14:37:46.000Z</time>
      </trkpt>
      <trkpt lat="47.33112" lon="-1.32022">
        <ele>52</ele>
        <time>2021-03-06T14:37:48.000Z</time>
      </trkpt>
      <trkpt lat="47.33105" lon="-1.32036">
        <ele>54</ele>
        <time>2021-03-06T14:37:50.000Z</time>
      </trkpt>
      <trkpt lat="47.33097" lon="-1.32045">
        <ele>54</ele>
        <time>2021-03-06T14:37:52.000Z</time>
      </trkpt>
      <trkpt lat="47.33098" lon="-1.32073">
        <ele>54</ele>
        <time>2021-03-06T14:37:56.000Z</time>
      </trkpt>
      <trkpt lat="47.33096" lon="-1.3209">
        <ele>51</ele>
        <time>2021-03-06T14:37:59.000Z</time>
      </trkpt>
      <trkpt lat="47.33092" lon="-1.32103">
        <ele>52</ele>
        <time>2021-03-06T14:38:01.000Z</time>
      </trkpt>
      <trkpt lat="47.33083" lon="-1.32119">
        <ele>54</ele>
        <time>2021-03-06T14:38:03.000Z</time>
      </trkpt>
      <trkpt lat="47.33076" lon="-1.32136">
        <ele>52</ele>
        <time>2021-03-06T14:38:05.000Z</time>
      </trkpt>
      <trkpt lat="47.33067" lon="-1.32149">
        <ele>53</ele>
        <time>2021-03-06T14:38:07.000Z</time>
      </trkpt>
      <trkpt lat="47.33058" lon="-1.32164">
        <ele>54</ele>
        <time>2021-03-06T14:38:09.000Z</time>
      </trkpt>
      <trkpt lat="47.33049" lon="-1.32188">
        <ele>51</ele>
        <time>2021-03-06T14:38:12.000Z</time>
      </trkpt>
      <trkpt lat="47.33042" lon="-1.32205">
        <ele>51</ele>
        <time>2021-03-06T14:38:14.000Z</time>
      </trkpt>
      <trkpt lat="47.33031" lon="-1.32221">
        <ele>51</ele>
        <time>2021-03-06T14:38:16.000Z</time>
      </trkpt>
      <trkpt lat="47.33018" lon="-1.32244">
        <ele>53</ele>
        <time>2021-03-06T14:38:19.000Z</time>
      </trkpt>
      <trkpt lat="47.33011" lon="-1.32261">
        <ele>51</ele>
        <time>2021-03-06T14:38:21.000Z</time>
      </trkpt>
      <trkpt lat="47.33003" lon="-1.32276">
        <ele>49</ele>
        <time>2021-03-06T14:38:23.000Z</time>
      </trkpt>
      <trkpt lat="47.32995" lon="-1.32293">
        <ele>50</ele>
        <time>2021-03-06T14:38:25.000Z</time>
      </trkpt>
      <trkpt lat="47.32985" lon="-1.32308">
        <ele>51</ele>
        <time>2021-03-06T14:38:27.000Z</time>
      </trkpt>
      <trkpt lat="47.32977" lon="-1.32324">
        <ele>52</ele>
        <time>2021-03-06T14:38:29.000Z</time>
      </trkpt>
      <trkpt lat="47.32969" lon="-1.32338">
        <ele>53</ele>
        <time>2021-03-06T14:38:31.000Z</time>
      </trkpt>
      <trkpt lat="47.32962" lon="-1.32353">
        <ele>53</ele>
        <time>2021-03-06T14:38:33.000Z</time>
      </trkpt>
      <trkpt lat="47.32954" lon="-1.32369">
        <ele>54</ele>
        <time>2021-03-06T14:38:35.000Z</time>
      </trkpt>
      <trkpt lat="47.32946" lon="-1.32383">
        <ele>54</ele>
        <time>2021-03-06T14:38:37.000Z</time>
      </trkpt>
      <trkpt lat="47.32935" lon="-1.32406">
        <ele>53</ele>
        <time>2021-03-06T14:38:40.000Z</time>
      </trkpt>
      <trkpt lat="47.32926" lon="-1.32421">
        <ele>53</ele>
        <time>2021-03-06T14:38:42.000Z</time>
      </trkpt>
      <trkpt lat="47.32918" lon="-1.32437">
        <ele>54</ele>
        <time>2021-03-06T14:38:44.000Z</time>
      </trkpt>
      <trkpt lat="47.3291" lon="-1.32452">
        <ele>54</ele>
        <time>2021-03-06T14:38:46.000Z</time>
      </trkpt>
      <trkpt lat="47.32899" lon="-1.32475">
        <ele>55</ele>
        <time>2021-03-06T14:38:49.000Z</time>
      </trkpt>
      <trkpt lat="47.32892" lon="-1.3249">
        <ele>55</ele>
        <time>2021-03-06T14:38:51.000Z</time>
      </trkpt>
      <trkpt lat="47.32884" lon="-1.32507">
        <ele>52</ele>
        <time>2021-03-06T14:38:53.000Z</time>
      </trkpt>
      <trkpt lat="47.32877" lon="-1.32523">
        <ele>53</ele>
        <time>2021-03-06T14:38:55.000Z</time>
      </trkpt>
      <trkpt lat="47.32869" lon="-1.32538">
        <ele>53</ele>
        <time>2021-03-06T14:38:57.000Z</time>
      </trkpt>
      <trkpt lat="47.3286" lon="-1.32551">
        <ele>53</ele>
        <time>2021-03-06T14:38:59.000Z</time>
      </trkpt>
      <trkpt lat="47.32852" lon="-1.32565">
        <ele>53</ele>
        <time>2021-03-06T14:39:01.000Z</time>
      </trkpt>
      <trkpt lat="47.32842" lon="-1.32588">
        <ele>55</ele>
        <time>2021-03-06T14:39:04.000Z</time>
      </trkpt>
      <trkpt lat="47.32832" lon="-1.32603">
        <ele>56</ele>
        <time>2021-03-06T14:39:06.000Z</time>
      </trkpt>
      <trkpt lat="47.32824" lon="-1.32619">
        <ele>56</ele>
        <time>2021-03-06T14:39:08.000Z</time>
      </trkpt>
      <trkpt lat="47.32814" lon="-1.32633">
        <ele>56</ele>
        <time>2021-03-06T14:39:10.000Z</time>
      </trkpt>
      <trkpt lat="47.32804" lon="-1.32647">
        <ele>56</ele>
        <time>2021-03-06T14:39:12.000Z</time>
      </trkpt>
      <trkpt lat="47.32795" lon="-1.32661">
        <ele>57</ele>
        <time>2021-03-06T14:39:14.000Z</time>
      </trkpt>
      <trkpt lat="47.32783" lon="-1.32685">
        <ele>57</ele>
        <time>2021-03-06T14:39:17.000Z</time>
      </trkpt>
      <trkpt lat="47.32776" lon="-1.3271">
        <ele>57</ele>
        <time>2021-03-06T14:39:20.000Z</time>
      </trkpt>
      <trkpt lat="47.32769" lon="-1.32725">
        <ele>57</ele>
        <time>2021-03-06T14:39:22.000Z</time>
      </trkpt>
      <trkpt lat="47.32761" lon="-1.3274">
        <ele>57</ele>
        <time>2021-03-06T14:39:24.000Z</time>
      </trkpt>
      <trkpt lat="47.32754" lon="-1.32756">
        <ele>56</ele>
        <time>2021-03-06T14:39:26.000Z</time>
      </trkpt>
      <trkpt lat="47.32747" lon="-1.32771">
        <ele>56</ele>
        <time>2021-03-06T14:39:28.000Z</time>
      </trkpt>
      <trkpt lat="47.32737" lon="-1.32787">
        <ele>56</ele>
        <time>2021-03-06T14:39:30.000Z</time>
      </trkpt>
      <trkpt lat="47.32731" lon="-1.32804">
        <ele>56</ele>
        <time>2021-03-06T14:39:32.000Z</time>
      </trkpt>
      <trkpt lat="47.32723" lon="-1.32822">
        <ele>55</ele>
        <time>2021-03-06T14:39:34.000Z</time>
      </trkpt>
      <trkpt lat="47.32712" lon="-1.32837">
        <ele>54</ele>
        <time>2021-03-06T14:39:36.000Z</time>
      </trkpt>
      <trkpt lat="47.327" lon="-1.32853">
        <ele>55</ele>
        <time>2021-03-06T14:39:38.000Z</time>
      </trkpt>
      <trkpt lat="47.3269" lon="-1.32867">
        <ele>55</ele>
        <time>2021-03-06T14:39:40.000Z</time>
      </trkpt>
      <trkpt lat="47.32681" lon="-1.3288">
        <ele>54</ele>
        <time>2021-03-06T14:39:42.000Z</time>
      </trkpt>
      <trkpt lat="47.3267" lon="-1.3289">
        <ele>55</ele>
        <time>2021-03-06T14:39:44.000Z</time>
      </trkpt>
      <trkpt lat="47.3266" lon="-1.32903">
        <ele>55</ele>
        <time>2021-03-06T14:39:46.000Z</time>
      </trkpt>
      <trkpt lat="47.32653" lon="-1.32915">
        <ele>53</ele>
        <time>2021-03-06T14:39:48.000Z</time>
      </trkpt>
      <trkpt lat="47.32646" lon="-1.32925">
        <ele>53</ele>
        <time>2021-03-06T14:39:50.000Z</time>
      </trkpt>
      <trkpt lat="47.32638" lon="-1.3293">
        <ele>53</ele>
        <time>2021-03-06T14:39:52.000Z</time>
      </trkpt>
      <trkpt lat="47.32624" lon="-1.32935">
        <ele>53</ele>
        <time>2021-03-06T14:39:55.000Z</time>
      </trkpt>
      <trkpt lat="47.32616" lon="-1.32946">
        <ele>50</ele>
        <time>2021-03-06T14:39:57.000Z</time>
      </trkpt>
      <trkpt lat="47.32609" lon="-1.32957">
        <ele>50</ele>
        <time>2021-03-06T14:39:59.000Z</time>
      </trkpt>
      <trkpt lat="47.32601" lon="-1.32969">
        <ele>51</ele>
        <time>2021-03-06T14:40:01.000Z</time>
      </trkpt>
      <trkpt lat="47.32593" lon="-1.32984">
        <ele>51</ele>
        <time>2021-03-06T14:40:03.000Z</time>
      </trkpt>
      <trkpt lat="47.3258" lon="-1.33001">
        <ele>52</ele>
        <time>2021-03-06T14:40:06.000Z</time>
      </trkpt>
      <trkpt lat="47.32568" lon="-1.33016">
        <ele>53</ele>
        <time>2021-03-06T14:40:09.000Z</time>
      </trkpt>
      <trkpt lat="47.32554" lon="-1.33029">
        <ele>52</ele>
        <time>2021-03-06T14:40:12.000Z</time>
      </trkpt>
      <trkpt lat="47.32537" lon="-1.33045">
        <ele>51</ele>
        <time>2021-03-06T14:40:15.000Z</time>
      </trkpt>
      <trkpt lat="47.32527" lon="-1.33058">
        <ele>51</ele>
        <time>2021-03-06T14:40:17.000Z</time>
      </trkpt>
      <trkpt lat="47.32518" lon="-1.33068">
        <ele>52</ele>
        <time>2021-03-06T14:40:19.000Z</time>
      </trkpt>
      <trkpt lat="47.32507" lon="-1.33079">
        <ele>53</ele>
        <time>2021-03-06T14:40:21.000Z</time>
      </trkpt>
      <trkpt lat="47.32495" lon="-1.33088">
        <ele>53</ele>
        <time>2021-03-06T14:40:23.000Z</time>
      </trkpt>
      <trkpt lat="47.32485" lon="-1.33098">
        <ele>54</ele>
        <time>2021-03-06T14:40:25.000Z</time>
      </trkpt>
      <trkpt lat="47.32474" lon="-1.33112">
        <ele>52</ele>
        <time>2021-03-06T14:40:27.000Z</time>
      </trkpt>
      <trkpt lat="47.32466" lon="-1.33123">
        <ele>53</ele>
        <time>2021-03-06T14:40:29.000Z</time>
      </trkpt>
      <trkpt lat="47.32454" lon="-1.33141">
        <ele>53</ele>
        <time>2021-03-06T14:40:32.000Z</time>
      </trkpt>
      <trkpt lat="47.32444" lon="-1.33151">
        <ele>52</ele>
        <time>2021-03-06T14:40:34.000Z</time>
      </trkpt>
      <trkpt lat="47.32433" lon="-1.3315">
        <ele>52</ele>
        <time>2021-03-06T14:40:36.000Z</time>
      </trkpt>
      <trkpt lat="47.32421" lon="-1.33148">
        <ele>52</ele>
        <time>2021-03-06T14:40:39.000Z</time>
      </trkpt>
      <trkpt lat="47.32415" lon="-1.33158">
        <ele>52</ele>
        <time>2021-03-06T14:40:41.000Z</time>
      </trkpt>
      <trkpt lat="47.32405" lon="-1.33176">
        <ele>52</ele>
        <time>2021-03-06T14:40:44.000Z</time>
      </trkpt>
      <trkpt lat="47.32395" lon="-1.33186">
        <ele>51</ele>
        <time>2021-03-06T14:40:46.000Z</time>
      </trkpt>
      <trkpt lat="47.32387" lon="-1.332">
        <ele>52</ele>
        <time>2021-03-06T14:40:48.000Z</time>
      </trkpt>
      <trkpt lat="47.32379" lon="-1.33213">
        <ele>54</ele>
        <time>2021-03-06T14:40:50.000Z</time>
      </trkpt>
      <trkpt lat="47.32371" lon="-1.33231">
        <ele>51</ele>
        <time>2021-03-06T14:40:52.000Z</time>
      </trkpt>
      <trkpt lat="47.32365" lon="-1.33245">
        <ele>51</ele>
        <time>2021-03-06T14:40:54.000Z</time>
      </trkpt>
      <trkpt lat="47.32358" lon="-1.3326">
        <ele>51</ele>
        <time>2021-03-06T14:40:56.000Z</time>
      </trkpt>
      <trkpt lat="47.32349" lon="-1.33274">
        <ele>52</ele>
        <time>2021-03-06T14:40:58.000Z</time>
      </trkpt>
      <trkpt lat="47.32338" lon="-1.333">
        <ele>52</ele>
        <time>2021-03-06T14:41:01.000Z</time>
      </trkpt>
      <trkpt lat="47.3233" lon="-1.33318">
        <ele>53</ele>
        <time>2021-03-06T14:41:03.000Z</time>
      </trkpt>
      <trkpt lat="47.32322" lon="-1.33335">
        <ele>53</ele>
        <time>2021-03-06T14:41:05.000Z</time>
      </trkpt>
      <trkpt lat="47.32314" lon="-1.33352">
        <ele>53</ele>
        <time>2021-03-06T14:41:07.000Z</time>
      </trkpt>
      <trkpt lat="47.32306" lon="-1.3337">
        <ele>54</ele>
        <time>2021-03-06T14:41:09.000Z</time>
      </trkpt>
      <trkpt lat="47.32298" lon="-1.33388">
        <ele>54</ele>
        <time>2021-03-06T14:41:11.000Z</time>
      </trkpt>
      <trkpt lat="47.32291" lon="-1.33406">
        <ele>54</ele>
        <time>2021-03-06T14:41:13.000Z</time>
      </trkpt>
      <trkpt lat="47.32283" lon="-1.33421">
        <ele>55</ele>
        <time>2021-03-06T14:41:15.000Z</time>
      </trkpt>
      <trkpt lat="47.32274" lon="-1.33435">
        <ele>56</ele>
        <time>2021-03-06T14:41:17.000Z</time>
      </trkpt>
      <trkpt lat="47.32268" lon="-1.33453">
        <ele>54</ele>
        <time>2021-03-06T14:41:19.000Z</time>
      </trkpt>
      <trkpt lat="47.32263" lon="-1.3347">
        <ele>54</ele>
        <time>2021-03-06T14:41:21.000Z</time>
      </trkpt>
      <trkpt lat="47.32254" lon="-1.33486">
        <ele>53</ele>
        <time>2021-03-06T14:41:23.000Z</time>
      </trkpt>
      <trkpt lat="47.32245" lon="-1.33504">
        <ele>53</ele>
        <time>2021-03-06T14:41:25.000Z</time>
      </trkpt>
      <trkpt lat="47.32236" lon="-1.33524">
        <ele>54</ele>
        <time>2021-03-06T14:41:27.000Z</time>
      </trkpt>
      <trkpt lat="47.32227" lon="-1.33542">
        <ele>53</ele>
        <time>2021-03-06T14:41:29.000Z</time>
      </trkpt>
      <trkpt lat="47.3222" lon="-1.3356">
        <ele>53</ele>
        <time>2021-03-06T14:41:31.000Z</time>
      </trkpt>
      <trkpt lat="47.32213" lon="-1.33579">
        <ele>52</ele>
        <time>2021-03-06T14:41:33.000Z</time>
      </trkpt>
      <trkpt lat="47.32205" lon="-1.33596">
        <ele>52</ele>
        <time>2021-03-06T14:41:35.000Z</time>
      </trkpt>
      <trkpt lat="47.32197" lon="-1.33612">
        <ele>53</ele>
        <time>2021-03-06T14:41:37.000Z</time>
      </trkpt>
      <trkpt lat="47.32187" lon="-1.33634">
        <ele>49</ele>
        <time>2021-03-06T14:41:40.000Z</time>
      </trkpt>
      <trkpt lat="47.32182" lon="-1.33645">
        <ele>50</ele>
        <time>2021-03-06T14:41:42.000Z</time>
      </trkpt>
      <trkpt lat="47.32177" lon="-1.33659">
        <ele>50</ele>
        <time>2021-03-06T14:41:44.000Z</time>
      </trkpt>
      <trkpt lat="47.32171" lon="-1.33673">
        <ele>51</ele>
        <time>2021-03-06T14:41:46.000Z</time>
      </trkpt>
      <trkpt lat="47.32167" lon="-1.33689">
        <ele>52</ele>
        <time>2021-03-06T14:41:48.000Z</time>
      </trkpt>
      <trkpt lat="47.32161" lon="-1.33706">
        <ele>52</ele>
        <time>2021-03-06T14:41:50.000Z</time>
      </trkpt>
      <trkpt lat="47.32154" lon="-1.33724">
        <ele>52</ele>
        <time>2021-03-06T14:41:52.000Z</time>
      </trkpt>
      <trkpt lat="47.32146" lon="-1.33741">
        <ele>53</ele>
        <time>2021-03-06T14:41:54.000Z</time>
      </trkpt>
      <trkpt lat="47.32128" lon="-1.33772">
        <ele>51</ele>
        <time>2021-03-06T14:41:58.000Z</time>
      </trkpt>
      <trkpt lat="47.32121" lon="-1.3379">
        <ele>51</ele>
        <time>2021-03-06T14:42:00.000Z</time>
      </trkpt>
      <trkpt lat="47.32114" lon="-1.33807">
        <ele>52</ele>
        <time>2021-03-06T14:42:02.000Z</time>
      </trkpt>
      <trkpt lat="47.32107" lon="-1.33823">
        <ele>50</ele>
        <time>2021-03-06T14:42:04.000Z</time>
      </trkpt>
      <trkpt lat="47.32102" lon="-1.33841">
        <ele>49</ele>
        <time>2021-03-06T14:42:06.000Z</time>
      </trkpt>
      <trkpt lat="47.32095" lon="-1.33856">
        <ele>51</ele>
        <time>2021-03-06T14:42:08.000Z</time>
      </trkpt>
      <trkpt lat="47.32083" lon="-1.33879">
        <ele>52</ele>
        <time>2021-03-06T14:42:11.000Z</time>
      </trkpt>
      <trkpt lat="47.32071" lon="-1.339">
        <ele>53</ele>
        <time>2021-03-06T14:42:14.000Z</time>
      </trkpt>
      <trkpt lat="47.32065" lon="-1.33913">
        <ele>53</ele>
        <time>2021-03-06T14:42:16.000Z</time>
      </trkpt>
      <trkpt lat="47.32056" lon="-1.33927">
        <ele>55</ele>
        <time>2021-03-06T14:42:18.000Z</time>
      </trkpt>
      <trkpt lat="47.32047" lon="-1.33942">
        <ele>54</ele>
        <time>2021-03-06T14:42:20.000Z</time>
      </trkpt>
      <trkpt lat="47.3204" lon="-1.33955">
        <ele>55</ele>
        <time>2021-03-06T14:42:22.000Z</time>
      </trkpt>
      <trkpt lat="47.32033" lon="-1.33969">
        <ele>56</ele>
        <time>2021-03-06T14:42:24.000Z</time>
      </trkpt>
      <trkpt lat="47.32026" lon="-1.33978">
        <ele>56</ele>
        <time>2021-03-06T14:42:26.000Z</time>
      </trkpt>
      <trkpt lat="47.32018" lon="-1.33988">
        <ele>53</ele>
        <time>2021-03-06T14:42:28.000Z</time>
      </trkpt>
      <trkpt lat="47.3201" lon="-1.34001">
        <ele>53</ele>
        <time>2021-03-06T14:42:30.000Z</time>
      </trkpt>
      <trkpt lat="47.32002" lon="-1.34016">
        <ele>54</ele>
        <time>2021-03-06T14:42:32.000Z</time>
      </trkpt>
      <trkpt lat="47.31987" lon="-1.3404">
        <ele>55</ele>
        <time>2021-03-06T14:42:35.000Z</time>
      </trkpt>
      <trkpt lat="47.31977" lon="-1.34055">
        <ele>55</ele>
        <time>2021-03-06T14:42:37.000Z</time>
      </trkpt>
      <trkpt lat="47.31968" lon="-1.34069">
        <ele>56</ele>
        <time>2021-03-06T14:42:39.000Z</time>
      </trkpt>
      <trkpt lat="47.31953" lon="-1.34089">
        <ele>57</ele>
        <time>2021-03-06T14:42:42.000Z</time>
      </trkpt>
      <trkpt lat="47.31944" lon="-1.34103">
        <ele>57</ele>
        <time>2021-03-06T14:42:44.000Z</time>
      </trkpt>
      <trkpt lat="47.31936" lon="-1.34118">
        <ele>57</ele>
        <time>2021-03-06T14:42:46.000Z</time>
      </trkpt>
      <trkpt lat="47.31927" lon="-1.3413">
        <ele>56</ele>
        <time>2021-03-06T14:42:48.000Z</time>
      </trkpt>
      <trkpt lat="47.31919" lon="-1.34143">
        <ele>57</ele>
        <time>2021-03-06T14:42:50.000Z</time>
      </trkpt>
      <trkpt lat="47.3191" lon="-1.34156">
        <ele>56</ele>
        <time>2021-03-06T14:42:52.000Z</time>
      </trkpt>
      <trkpt lat="47.31896" lon="-1.34177">
        <ele>55</ele>
        <time>2021-03-06T14:42:55.000Z</time>
      </trkpt>
      <trkpt lat="47.31885" lon="-1.34193">
        <ele>55</ele>
        <time>2021-03-06T14:42:57.000Z</time>
      </trkpt>
      <trkpt lat="47.31875" lon="-1.34208">
        <ele>53</ele>
        <time>2021-03-06T14:42:59.000Z</time>
      </trkpt>
      <trkpt lat="47.31866" lon="-1.34223">
        <ele>52</ele>
        <time>2021-03-06T14:43:01.000Z</time>
      </trkpt>
      <trkpt lat="47.31852" lon="-1.34245">
        <ele>52</ele>
        <time>2021-03-06T14:43:04.000Z</time>
      </trkpt>
      <trkpt lat="47.31837" lon="-1.34264">
        <ele>48</ele>
        <time>2021-03-06T14:43:07.000Z</time>
      </trkpt>
      <trkpt lat="47.31828" lon="-1.34276">
        <ele>46</ele>
        <time>2021-03-06T14:43:09.000Z</time>
      </trkpt>
      <trkpt lat="47.3182" lon="-1.34291">
        <ele>48</ele>
        <time>2021-03-06T14:43:11.000Z</time>
      </trkpt>
      <trkpt lat="47.31811" lon="-1.34307">
        <ele>49</ele>
        <time>2021-03-06T14:43:13.000Z</time>
      </trkpt>
      <trkpt lat="47.31801" lon="-1.34322">
        <ele>50</ele>
        <time>2021-03-06T14:43:15.000Z</time>
      </trkpt>
      <trkpt lat="47.31792" lon="-1.34337">
        <ele>51</ele>
        <time>2021-03-06T14:43:17.000Z</time>
      </trkpt>
      <trkpt lat="47.31782" lon="-1.34352">
        <ele>50</ele>
        <time>2021-03-06T14:43:19.000Z</time>
      </trkpt>
      <trkpt lat="47.31772" lon="-1.34366">
        <ele>52</ele>
        <time>2021-03-06T14:43:21.000Z</time>
      </trkpt>
      <trkpt lat="47.31763" lon="-1.34381">
        <ele>53</ele>
        <time>2021-03-06T14:43:23.000Z</time>
      </trkpt>
      <trkpt lat="47.31753" lon="-1.34394">
        <ele>53</ele>
        <time>2021-03-06T14:43:25.000Z</time>
      </trkpt>
      <trkpt lat="47.31744" lon="-1.3441">
        <ele>52</ele>
        <time>2021-03-06T14:43:27.000Z</time>
      </trkpt>
      <trkpt lat="47.31738" lon="-1.34427">
        <ele>51</ele>
        <time>2021-03-06T14:43:29.000Z</time>
      </trkpt>
      <trkpt lat="47.31728" lon="-1.3444">
        <ele>51</ele>
        <time>2021-03-06T14:43:31.000Z</time>
      </trkpt>
      <trkpt lat="47.31719" lon="-1.34453">
        <ele>52</ele>
        <time>2021-03-06T14:43:33.000Z</time>
      </trkpt>
      <trkpt lat="47.3171" lon="-1.34466">
        <ele>53</ele>
        <time>2021-03-06T14:43:35.000Z</time>
      </trkpt>
      <trkpt lat="47.31703" lon="-1.34479">
        <ele>52</ele>
        <time>2021-03-06T14:43:37.000Z</time>
      </trkpt>
      <trkpt lat="47.31693" lon="-1.34493">
        <ele>53</ele>
        <time>2021-03-06T14:43:39.000Z</time>
      </trkpt>
      <trkpt lat="47.31685" lon="-1.34508">
        <ele>51</ele>
        <time>2021-03-06T14:43:41.000Z</time>
      </trkpt>
      <trkpt lat="47.31676" lon="-1.34522">
        <ele>50</ele>
        <time>2021-03-06T14:43:43.000Z</time>
      </trkpt>
      <trkpt lat="47.31665" lon="-1.34539">
        <ele>51</ele>
        <time>2021-03-06T14:43:45.000Z</time>
      </trkpt>
      <trkpt lat="47.31655" lon="-1.34556">
        <ele>52</ele>
        <time>2021-03-06T14:43:47.000Z</time>
      </trkpt>
      <trkpt lat="47.31646" lon="-1.34574">
        <ele>53</ele>
        <time>2021-03-06T14:43:49.000Z</time>
      </trkpt>
      <trkpt lat="47.31637" lon="-1.34589">
        <ele>53</ele>
        <time>2021-03-06T14:43:51.000Z</time>
      </trkpt>
      <trkpt lat="47.31627" lon="-1.34603">
        <ele>54</ele>
        <time>2021-03-06T14:43:53.000Z</time>
      </trkpt>
      <trkpt lat="47.31618" lon="-1.34618">
        <ele>54</ele>
        <time>2021-03-06T14:43:55.000Z</time>
      </trkpt>
      <trkpt lat="47.31604" lon="-1.3464">
        <ele>53</ele>
        <time>2021-03-06T14:43:58.000Z</time>
      </trkpt>
      <trkpt lat="47.31594" lon="-1.34655">
        <ele>53</ele>
        <time>2021-03-06T14:44:00.000Z</time>
      </trkpt>
      <trkpt lat="47.31585" lon="-1.3467">
        <ele>53</ele>
        <time>2021-03-06T14:44:02.000Z</time>
      </trkpt>
      <trkpt lat="47.31576" lon="-1.34684">
        <ele>53</ele>
        <time>2021-03-06T14:44:04.000Z</time>
      </trkpt>
      <trkpt lat="47.31568" lon="-1.34697">
        <ele>50</ele>
        <time>2021-03-06T14:44:06.000Z</time>
      </trkpt>
      <trkpt lat="47.31558" lon="-1.34712">
        <ele>51</ele>
        <time>2021-03-06T14:44:08.000Z</time>
      </trkpt>
      <trkpt lat="47.3155" lon="-1.34726">
        <ele>51</ele>
        <time>2021-03-06T14:44:10.000Z</time>
      </trkpt>
      <trkpt lat="47.31541" lon="-1.3474">
        <ele>51</ele>
        <time>2021-03-06T14:44:12.000Z</time>
      </trkpt>
      <trkpt lat="47.31532" lon="-1.34753">
        <ele>50</ele>
        <time>2021-03-06T14:44:14.000Z</time>
      </trkpt>
      <trkpt lat="47.31519" lon="-1.34773">
        <ele>50</ele>
        <time>2021-03-06T14:44:17.000Z</time>
      </trkpt>
      <trkpt lat="47.3151" lon="-1.34787">
        <ele>50</ele>
        <time>2021-03-06T14:44:19.000Z</time>
      </trkpt>
      <trkpt lat="47.315" lon="-1.34801">
        <ele>51</ele>
        <time>2021-03-06T14:44:21.000Z</time>
      </trkpt>
      <trkpt lat="47.31492" lon="-1.34815">
        <ele>52</ele>
        <time>2021-03-06T14:44:23.000Z</time>
      </trkpt>
      <trkpt lat="47.31482" lon="-1.34829">
        <ele>53</ele>
        <time>2021-03-06T14:44:25.000Z</time>
      </trkpt>
      <trkpt lat="47.31473" lon="-1.34844">
        <ele>54</ele>
        <time>2021-03-06T14:44:27.000Z</time>
      </trkpt>
      <trkpt lat="47.31466" lon="-1.3486">
        <ele>49</ele>
        <time>2021-03-06T14:44:29.000Z</time>
      </trkpt>
      <trkpt lat="47.31456" lon="-1.34873">
        <ele>51</ele>
        <time>2021-03-06T14:44:31.000Z</time>
      </trkpt>
      <trkpt lat="47.3144" lon="-1.34894">
        <ele>52</ele>
        <time>2021-03-06T14:44:34.000Z</time>
      </trkpt>
      <trkpt lat="47.31432" lon="-1.34907">
        <ele>53</ele>
        <time>2021-03-06T14:44:36.000Z</time>
      </trkpt>
      <trkpt lat="47.31424" lon="-1.34921">
        <ele>54</ele>
        <time>2021-03-06T14:44:38.000Z</time>
      </trkpt>
      <trkpt lat="47.31416" lon="-1.34935">
        <ele>54</ele>
        <time>2021-03-06T14:44:40.000Z</time>
      </trkpt>
      <trkpt lat="47.31407" lon="-1.34948">
        <ele>55</ele>
        <time>2021-03-06T14:44:42.000Z</time>
      </trkpt>
      <trkpt lat="47.31399" lon="-1.34961">
        <ele>53</ele>
        <time>2021-03-06T14:44:44.000Z</time>
      </trkpt>
      <trkpt lat="47.31393" lon="-1.34973">
        <ele>52</ele>
        <time>2021-03-06T14:44:46.000Z</time>
      </trkpt>
      <trkpt lat="47.31385" lon="-1.34987">
        <ele>52</ele>
        <time>2021-03-06T14:44:48.000Z</time>
      </trkpt>
      <trkpt lat="47.31377" lon="-1.35001">
        <ele>52</ele>
        <time>2021-03-06T14:44:50.000Z</time>
      </trkpt>
      <trkpt lat="47.31367" lon="-1.35016">
        <ele>52</ele>
        <time>2021-03-06T14:44:52.000Z</time>
      </trkpt>
      <trkpt lat="47.31359" lon="-1.3503">
        <ele>53</ele>
        <time>2021-03-06T14:44:54.000Z</time>
      </trkpt>
      <trkpt lat="47.31349" lon="-1.35046">
        <ele>53</ele>
        <time>2021-03-06T14:44:56.000Z</time>
      </trkpt>
      <trkpt lat="47.3134" lon="-1.35058">
        <ele>54</ele>
        <time>2021-03-06T14:44:58.000Z</time>
      </trkpt>
      <trkpt lat="47.31333" lon="-1.35072">
        <ele>53</ele>
        <time>2021-03-06T14:45:00.000Z</time>
      </trkpt>
      <trkpt lat="47.31324" lon="-1.35084">
        <ele>53</ele>
        <time>2021-03-06T14:45:02.000Z</time>
      </trkpt>
      <trkpt lat="47.31312" lon="-1.35087">
        <ele>52</ele>
        <time>2021-03-06T14:45:04.000Z</time>
      </trkpt>
      <trkpt lat="47.31301" lon="-1.35096">
        <ele>53</ele>
        <time>2021-03-06T14:45:06.000Z</time>
      </trkpt>
      <trkpt lat="47.31296" lon="-1.35111">
        <ele>52</ele>
        <time>2021-03-06T14:45:08.000Z</time>
      </trkpt>
      <trkpt lat="47.31291" lon="-1.35125">
        <ele>52</ele>
        <time>2021-03-06T14:45:10.000Z</time>
      </trkpt>
      <trkpt lat="47.31282" lon="-1.35147">
        <ele>53</ele>
        <time>2021-03-06T14:45:13.000Z</time>
      </trkpt>
      <trkpt lat="47.31275" lon="-1.35162">
        <ele>54</ele>
        <time>2021-03-06T14:45:15.000Z</time>
      </trkpt>
      <trkpt lat="47.31265" lon="-1.35176">
        <ele>54</ele>
        <time>2021-03-06T14:45:17.000Z</time>
      </trkpt>
      <trkpt lat="47.31255" lon="-1.35191">
        <ele>53</ele>
        <time>2021-03-06T14:45:19.000Z</time>
      </trkpt>
      <trkpt lat="47.31241" lon="-1.35213">
        <ele>54</ele>
        <time>2021-03-06T14:45:22.000Z</time>
      </trkpt>
      <trkpt lat="47.31232" lon="-1.35227">
        <ele>54</ele>
        <time>2021-03-06T14:45:24.000Z</time>
      </trkpt>
      <trkpt lat="47.31223" lon="-1.35241">
        <ele>55</ele>
        <time>2021-03-06T14:45:26.000Z</time>
      </trkpt>
      <trkpt lat="47.31214" lon="-1.35255">
        <ele>54</ele>
        <time>2021-03-06T14:45:28.000Z</time>
      </trkpt>
      <trkpt lat="47.31201" lon="-1.35276">
        <ele>54</ele>
        <time>2021-03-06T14:45:31.000Z</time>
      </trkpt>
      <trkpt lat="47.31193" lon="-1.35289">
        <ele>54</ele>
        <time>2021-03-06T14:45:33.000Z</time>
      </trkpt>
      <trkpt lat="47.31181" lon="-1.3531">
        <ele>53</ele>
        <time>2021-03-06T14:45:36.000Z</time>
      </trkpt>
      <trkpt lat="47.31169" lon="-1.35331">
        <ele>52</ele>
        <time>2021-03-06T14:45:39.000Z</time>
      </trkpt>
      <trkpt lat="47.3116" lon="-1.35345">
        <ele>52</ele>
        <time>2021-03-06T14:45:41.000Z</time>
      </trkpt>
      <trkpt lat="47.31151" lon="-1.35357">
        <ele>52</ele>
        <time>2021-03-06T14:45:43.000Z</time>
      </trkpt>
      <trkpt lat="47.31142" lon="-1.35371">
        <ele>52</ele>
        <time>2021-03-06T14:45:45.000Z</time>
      </trkpt>
      <trkpt lat="47.31133" lon="-1.35385">
        <ele>52</ele>
        <time>2021-03-06T14:45:47.000Z</time>
      </trkpt>
      <trkpt lat="47.31127" lon="-1.35398">
        <ele>49</ele>
        <time>2021-03-06T14:45:49.000Z</time>
      </trkpt>
      <trkpt lat="47.31119" lon="-1.35414">
        <ele>48</ele>
        <time>2021-03-06T14:45:51.000Z</time>
      </trkpt>
      <trkpt lat="47.31109" lon="-1.35427">
        <ele>48</ele>
        <time>2021-03-06T14:45:53.000Z</time>
      </trkpt>
      <trkpt lat="47.31093" lon="-1.35446">
        <ele>49</ele>
        <time>2021-03-06T14:45:56.000Z</time>
      </trkpt>
      <trkpt lat="47.31082" lon="-1.35459">
        <ele>49</ele>
        <time>2021-03-06T14:45:58.000Z</time>
      </trkpt>
      <trkpt lat="47.31071" lon="-1.35471">
        <ele>50</ele>
        <time>2021-03-06T14:46:00.000Z</time>
      </trkpt>
      <trkpt lat="47.3106" lon="-1.35483">
        <ele>51</ele>
        <time>2021-03-06T14:46:02.000Z</time>
      </trkpt>
      <trkpt lat="47.31049" lon="-1.35497">
        <ele>51</ele>
        <time>2021-03-06T14:46:04.000Z</time>
      </trkpt>
      <trkpt lat="47.31029" lon="-1.35523">
        <ele>51</ele>
        <time>2021-03-06T14:46:08.000Z</time>
      </trkpt>
      <trkpt lat="47.31018" lon="-1.35535">
        <ele>51</ele>
        <time>2021-03-06T14:46:10.000Z</time>
      </trkpt>
      <trkpt lat="47.31007" lon="-1.35548">
        <ele>52</ele>
        <time>2021-03-06T14:46:12.000Z</time>
      </trkpt>
      <trkpt lat="47.30997" lon="-1.35562">
        <ele>51</ele>
        <time>2021-03-06T14:46:14.000Z</time>
      </trkpt>
      <trkpt lat="47.30987" lon="-1.35577">
        <ele>52</ele>
        <time>2021-03-06T14:46:16.000Z</time>
      </trkpt>
      <trkpt lat="47.30975" lon="-1.35585">
        <ele>52</ele>
        <time>2021-03-06T14:46:18.000Z</time>
      </trkpt>
      <trkpt lat="47.30965" lon="-1.35595">
        <ele>52</ele>
        <time>2021-03-06T14:46:20.000Z</time>
      </trkpt>
      <trkpt lat="47.30957" lon="-1.35603">
        <ele>53</ele>
        <time>2021-03-06T14:46:22.000Z</time>
      </trkpt>
      <trkpt lat="47.30949" lon="-1.35613">
        <ele>54</ele>
        <time>2021-03-06T14:46:24.000Z</time>
      </trkpt>
      <trkpt lat="47.30939" lon="-1.35624">
        <ele>52</ele>
        <time>2021-03-06T14:46:26.000Z</time>
      </trkpt>
      <trkpt lat="47.30923" lon="-1.35644">
        <ele>52</ele>
        <time>2021-03-06T14:46:29.000Z</time>
      </trkpt>
      <trkpt lat="47.30914" lon="-1.35658">
        <ele>52</ele>
        <time>2021-03-06T14:46:31.000Z</time>
      </trkpt>
      <trkpt lat="47.30902" lon="-1.35669">
        <ele>51</ele>
        <time>2021-03-06T14:46:33.000Z</time>
      </trkpt>
      <trkpt lat="47.30893" lon="-1.35684">
        <ele>51</ele>
        <time>2021-03-06T14:46:35.000Z</time>
      </trkpt>
      <trkpt lat="47.30882" lon="-1.35696">
        <ele>50</ele>
        <time>2021-03-06T14:46:37.000Z</time>
      </trkpt>
      <trkpt lat="47.3087" lon="-1.35705">
        <ele>50</ele>
        <time>2021-03-06T14:46:39.000Z</time>
      </trkpt>
      <trkpt lat="47.30859" lon="-1.35717">
        <ele>50</ele>
        <time>2021-03-06T14:46:41.000Z</time>
      </trkpt>
      <trkpt lat="47.30844" lon="-1.35739">
        <ele>51</ele>
        <time>2021-03-06T14:46:44.000Z</time>
      </trkpt>
      <trkpt lat="47.30833" lon="-1.3575">
        <ele>50</ele>
        <time>2021-03-06T14:46:46.000Z</time>
      </trkpt>
      <trkpt lat="47.30823" lon="-1.35762">
        <ele>50</ele>
        <time>2021-03-06T14:46:48.000Z</time>
      </trkpt>
      <trkpt lat="47.30813" lon="-1.35774">
        <ele>51</ele>
        <time>2021-03-06T14:46:50.000Z</time>
      </trkpt>
      <trkpt lat="47.30803" lon="-1.35786">
        <ele>51</ele>
        <time>2021-03-06T14:46:52.000Z</time>
      </trkpt>
      <trkpt lat="47.30793" lon="-1.35799">
        <ele>50</ele>
        <time>2021-03-06T14:46:54.000Z</time>
      </trkpt>
      <trkpt lat="47.30783" lon="-1.35811">
        <ele>50</ele>
        <time>2021-03-06T14:46:56.000Z</time>
      </trkpt>
      <trkpt lat="47.30773" lon="-1.35823">
        <ele>50</ele>
        <time>2021-03-06T14:46:58.000Z</time>
      </trkpt>
      <trkpt lat="47.30762" lon="-1.35837">
        <ele>49</ele>
        <time>2021-03-06T14:47:00.000Z</time>
      </trkpt>
      <trkpt lat="47.30751" lon="-1.35853">
        <ele>48</ele>
        <time>2021-03-06T14:47:02.000Z</time>
      </trkpt>
      <trkpt lat="47.30741" lon="-1.35862">
        <ele>49</ele>
        <time>2021-03-06T14:47:04.000Z</time>
      </trkpt>
      <trkpt lat="47.30732" lon="-1.35871">
        <ele>46</ele>
        <time>2021-03-06T14:47:06.000Z</time>
      </trkpt>
      <trkpt lat="47.30722" lon="-1.35882">
        <ele>46</ele>
        <time>2021-03-06T14:47:08.000Z</time>
      </trkpt>
      <trkpt lat="47.30712" lon="-1.35894">
        <ele>47</ele>
        <time>2021-03-06T14:47:10.000Z</time>
      </trkpt>
      <trkpt lat="47.30701" lon="-1.35905">
        <ele>47</ele>
        <time>2021-03-06T14:47:12.000Z</time>
      </trkpt>
      <trkpt lat="47.30684" lon="-1.35924">
        <ele>49</ele>
        <time>2021-03-06T14:47:15.000Z</time>
      </trkpt>
      <trkpt lat="47.30677" lon="-1.3594">
        <ele>48</ele>
        <time>2021-03-06T14:47:17.000Z</time>
      </trkpt>
      <trkpt lat="47.30666" lon="-1.35951">
        <ele>49</ele>
        <time>2021-03-06T14:47:19.000Z</time>
      </trkpt>
      <trkpt lat="47.30654" lon="-1.35963">
        <ele>49</ele>
        <time>2021-03-06T14:47:21.000Z</time>
      </trkpt>
      <trkpt lat="47.30642" lon="-1.35973">
        <ele>51</ele>
        <time>2021-03-06T14:47:23.000Z</time>
      </trkpt>
      <trkpt lat="47.30631" lon="-1.35987">
        <ele>51</ele>
        <time>2021-03-06T14:47:25.000Z</time>
      </trkpt>
      <trkpt lat="47.3062" lon="-1.35999">
        <ele>51</ele>
        <time>2021-03-06T14:47:27.000Z</time>
      </trkpt>
      <trkpt lat="47.30605" lon="-1.3602">
        <ele>49</ele>
        <time>2021-03-06T14:47:30.000Z</time>
      </trkpt>
      <trkpt lat="47.30595" lon="-1.36028">
        <ele>49</ele>
        <time>2021-03-06T14:47:32.000Z</time>
      </trkpt>
      <trkpt lat="47.30586" lon="-1.36033">
        <ele>50</ele>
        <time>2021-03-06T14:47:34.000Z</time>
      </trkpt>
      <trkpt lat="47.30579" lon="-1.3605">
        <ele>52</ele>
        <time>2021-03-06T14:47:37.000Z</time>
      </trkpt>
      <trkpt lat="47.3057" lon="-1.36062">
        <ele>52</ele>
        <time>2021-03-06T14:47:39.000Z</time>
      </trkpt>
      <trkpt lat="47.30556" lon="-1.36082">
        <ele>53</ele>
        <time>2021-03-06T14:47:42.000Z</time>
      </trkpt>
      <trkpt lat="47.30547" lon="-1.36096">
        <ele>53</ele>
        <time>2021-03-06T14:47:44.000Z</time>
      </trkpt>
      <trkpt lat="47.30538" lon="-1.36109">
        <ele>54</ele>
        <time>2021-03-06T14:47:46.000Z</time>
      </trkpt>
      <trkpt lat="47.30529" lon="-1.36123">
        <ele>53</ele>
        <time>2021-03-06T14:47:48.000Z</time>
      </trkpt>
      <trkpt lat="47.30523" lon="-1.36139">
        <ele>52</ele>
        <time>2021-03-06T14:47:50.000Z</time>
      </trkpt>
      <trkpt lat="47.30515" lon="-1.36154">
        <ele>53</ele>
        <time>2021-03-06T14:47:52.000Z</time>
      </trkpt>
      <trkpt lat="47.30505" lon="-1.36169">
        <ele>53</ele>
        <time>2021-03-06T14:47:54.000Z</time>
      </trkpt>
      <trkpt lat="47.30497" lon="-1.36183">
        <ele>54</ele>
        <time>2021-03-06T14:47:56.000Z</time>
      </trkpt>
      <trkpt lat="47.30488" lon="-1.36199">
        <ele>54</ele>
        <time>2021-03-06T14:47:58.000Z</time>
      </trkpt>
      <trkpt lat="47.30476" lon="-1.36221">
        <ele>54</ele>
        <time>2021-03-06T14:48:01.000Z</time>
      </trkpt>
      <trkpt lat="47.30469" lon="-1.36236">
        <ele>54</ele>
        <time>2021-03-06T14:48:03.000Z</time>
      </trkpt>
      <trkpt lat="47.30457" lon="-1.36259">
        <ele>53</ele>
        <time>2021-03-06T14:48:06.000Z</time>
      </trkpt>
      <trkpt lat="47.30445" lon="-1.36284">
        <ele>52</ele>
        <time>2021-03-06T14:48:09.000Z</time>
      </trkpt>
      <trkpt lat="47.30437" lon="-1.36299">
        <ele>53</ele>
        <time>2021-03-06T14:48:11.000Z</time>
      </trkpt>
      <trkpt lat="47.30428" lon="-1.36315">
        <ele>53</ele>
        <time>2021-03-06T14:48:13.000Z</time>
      </trkpt>
      <trkpt lat="47.3042" lon="-1.36331">
        <ele>52</ele>
        <time>2021-03-06T14:48:15.000Z</time>
      </trkpt>
      <trkpt lat="47.30412" lon="-1.36349">
        <ele>53</ele>
        <time>2021-03-06T14:48:17.000Z</time>
      </trkpt>
      <trkpt lat="47.30405" lon="-1.36366">
        <ele>53</ele>
        <time>2021-03-06T14:48:19.000Z</time>
      </trkpt>
      <trkpt lat="47.30397" lon="-1.36382">
        <ele>52</ele>
        <time>2021-03-06T14:48:21.000Z</time>
      </trkpt>
      <trkpt lat="47.30387" lon="-1.36408">
        <ele>52</ele>
        <time>2021-03-06T14:48:24.000Z</time>
      </trkpt>
      <trkpt lat="47.30378" lon="-1.36426">
        <ele>52</ele>
        <time>2021-03-06T14:48:26.000Z</time>
      </trkpt>
      <trkpt lat="47.3037" lon="-1.36442">
        <ele>52</ele>
        <time>2021-03-06T14:48:28.000Z</time>
      </trkpt>
      <trkpt lat="47.30362" lon="-1.36469">
        <ele>51</ele>
        <time>2021-03-06T14:48:31.000Z</time>
      </trkpt>
      <trkpt lat="47.30353" lon="-1.36484">
        <ele>52</ele>
        <time>2021-03-06T14:48:33.000Z</time>
      </trkpt>
      <trkpt lat="47.30344" lon="-1.36501">
        <ele>53</ele>
        <time>2021-03-06T14:48:35.000Z</time>
      </trkpt>
      <trkpt lat="47.30335" lon="-1.36516">
        <ele>53</ele>
        <time>2021-03-06T14:48:37.000Z</time>
      </trkpt>
      <trkpt lat="47.30327" lon="-1.36532">
        <ele>53</ele>
        <time>2021-03-06T14:48:39.000Z</time>
      </trkpt>
      <trkpt lat="47.30319" lon="-1.36549">
        <ele>53</ele>
        <time>2021-03-06T14:48:41.000Z</time>
      </trkpt>
      <trkpt lat="47.3031" lon="-1.36565">
        <ele>53</ele>
        <time>2021-03-06T14:48:43.000Z</time>
      </trkpt>
      <trkpt lat="47.30297" lon="-1.36592">
        <ele>53</ele>
        <time>2021-03-06T14:48:46.000Z</time>
      </trkpt>
      <trkpt lat="47.30289" lon="-1.36606">
        <ele>53</ele>
        <time>2021-03-06T14:48:48.000Z</time>
      </trkpt>
      <trkpt lat="47.30281" lon="-1.36622">
        <ele>53</ele>
        <time>2021-03-06T14:48:50.000Z</time>
      </trkpt>
      <trkpt lat="47.30273" lon="-1.36639">
        <ele>52</ele>
        <time>2021-03-06T14:48:52.000Z</time>
      </trkpt>
      <trkpt lat="47.30264" lon="-1.36662">
        <ele>52</ele>
        <time>2021-03-06T14:48:55.000Z</time>
      </trkpt>
      <trkpt lat="47.30257" lon="-1.36679">
        <ele>52</ele>
        <time>2021-03-06T14:48:57.000Z</time>
      </trkpt>
      <trkpt lat="47.3025" lon="-1.36695">
        <ele>53</ele>
        <time>2021-03-06T14:48:59.000Z</time>
      </trkpt>
      <trkpt lat="47.30242" lon="-1.36711">
        <ele>54</ele>
        <time>2021-03-06T14:49:01.000Z</time>
      </trkpt>
      <trkpt lat="47.30233" lon="-1.36724">
        <ele>54</ele>
        <time>2021-03-06T14:49:03.000Z</time>
      </trkpt>
      <trkpt lat="47.30223" lon="-1.36739">
        <ele>54</ele>
        <time>2021-03-06T14:49:05.000Z</time>
      </trkpt>
      <trkpt lat="47.30218" lon="-1.36755">
        <ele>52</ele>
        <time>2021-03-06T14:49:07.000Z</time>
      </trkpt>
      <trkpt lat="47.30208" lon="-1.3678">
        <ele>53</ele>
        <time>2021-03-06T14:49:10.000Z</time>
      </trkpt>
      <trkpt lat="47.30201" lon="-1.36797">
        <ele>56</ele>
        <time>2021-03-06T14:49:12.000Z</time>
      </trkpt>
      <trkpt lat="47.30193" lon="-1.36811">
        <ele>57</ele>
        <time>2021-03-06T14:49:14.000Z</time>
      </trkpt>
      <trkpt lat="47.30185" lon="-1.36825">
        <ele>57</ele>
        <time>2021-03-06T14:49:16.000Z</time>
      </trkpt>
      <trkpt lat="47.30177" lon="-1.36839">
        <ele>57</ele>
        <time>2021-03-06T14:49:18.000Z</time>
      </trkpt>
      <trkpt lat="47.30164" lon="-1.36863">
        <ele>56</ele>
        <time>2021-03-06T14:49:21.000Z</time>
      </trkpt>
      <trkpt lat="47.30154" lon="-1.36882">
        <ele>55</ele>
        <time>2021-03-06T14:49:23.000Z</time>
      </trkpt>
      <trkpt lat="47.30147" lon="-1.36895">
        <ele>56</ele>
        <time>2021-03-06T14:49:25.000Z</time>
      </trkpt>
      <trkpt lat="47.30141" lon="-1.36909">
        <ele>56</ele>
        <time>2021-03-06T14:49:27.000Z</time>
      </trkpt>
      <trkpt lat="47.30134" lon="-1.36925">
        <ele>56</ele>
        <time>2021-03-06T14:49:29.000Z</time>
      </trkpt>
      <trkpt lat="47.30127" lon="-1.36942">
        <ele>55</ele>
        <time>2021-03-06T14:49:31.000Z</time>
      </trkpt>
      <trkpt lat="47.3012" lon="-1.3696">
        <ele>55</ele>
        <time>2021-03-06T14:49:33.000Z</time>
      </trkpt>
      <trkpt lat="47.30114" lon="-1.36973">
        <ele>54</ele>
        <time>2021-03-06T14:49:35.000Z</time>
      </trkpt>
      <trkpt lat="47.30108" lon="-1.36989">
        <ele>54</ele>
        <time>2021-03-06T14:49:37.000Z</time>
      </trkpt>
      <trkpt lat="47.301" lon="-1.3701">
        <ele>53</ele>
        <time>2021-03-06T14:49:40.000Z</time>
      </trkpt>
      <trkpt lat="47.30087" lon="-1.3703">
        <ele>53</ele>
        <time>2021-03-06T14:49:43.000Z</time>
      </trkpt>
      <trkpt lat="47.30078" lon="-1.37043">
        <ele>52</ele>
        <time>2021-03-06T14:49:45.000Z</time>
      </trkpt>
      <trkpt lat="47.3007" lon="-1.37057">
        <ele>52</ele>
        <time>2021-03-06T14:49:47.000Z</time>
      </trkpt>
      <trkpt lat="47.30061" lon="-1.37072">
        <ele>53</ele>
        <time>2021-03-06T14:49:49.000Z</time>
      </trkpt>
      <trkpt lat="47.3005" lon="-1.37094">
        <ele>54</ele>
        <time>2021-03-06T14:49:52.000Z</time>
      </trkpt>
      <trkpt lat="47.30041" lon="-1.37109">
        <ele>54</ele>
        <time>2021-03-06T14:49:54.000Z</time>
      </trkpt>
      <trkpt lat="47.30033" lon="-1.37122">
        <ele>55</ele>
        <time>2021-03-06T14:49:56.000Z</time>
      </trkpt>
      <trkpt lat="47.30018" lon="-1.37144">
        <ele>54</ele>
        <time>2021-03-06T14:49:59.000Z</time>
      </trkpt>
      <trkpt lat="47.30006" lon="-1.37163">
        <ele>51</ele>
        <time>2021-03-06T14:50:02.000Z</time>
      </trkpt>
      <trkpt lat="47.29997" lon="-1.37175">
        <ele>52</ele>
        <time>2021-03-06T14:50:04.000Z</time>
      </trkpt>
      <trkpt lat="47.29983" lon="-1.37197">
        <ele>53</ele>
        <time>2021-03-06T14:50:07.000Z</time>
      </trkpt>
      <trkpt lat="47.29976" lon="-1.37212">
        <ele>53</ele>
        <time>2021-03-06T14:50:09.000Z</time>
      </trkpt>
      <trkpt lat="47.29967" lon="-1.37226">
        <ele>53</ele>
        <time>2021-03-06T14:50:11.000Z</time>
      </trkpt>
      <trkpt lat="47.29958" lon="-1.37239">
        <ele>53</ele>
        <time>2021-03-06T14:50:13.000Z</time>
      </trkpt>
      <trkpt lat="47.2995" lon="-1.37252">
        <ele>53</ele>
        <time>2021-03-06T14:50:15.000Z</time>
      </trkpt>
      <trkpt lat="47.2994" lon="-1.37266">
        <ele>54</ele>
        <time>2021-03-06T14:50:17.000Z</time>
      </trkpt>
      <trkpt lat="47.29932" lon="-1.37278">
        <ele>54</ele>
        <time>2021-03-06T14:50:19.000Z</time>
      </trkpt>
      <trkpt lat="47.29922" lon="-1.37293">
        <ele>54</ele>
        <time>2021-03-06T14:50:21.000Z</time>
      </trkpt>
      <trkpt lat="47.29913" lon="-1.37306">
        <ele>55</ele>
        <time>2021-03-06T14:50:23.000Z</time>
      </trkpt>
      <trkpt lat="47.29905" lon="-1.37319">
        <ele>54</ele>
        <time>2021-03-06T14:50:25.000Z</time>
      </trkpt>
      <trkpt lat="47.29895" lon="-1.37334">
        <ele>51</ele>
        <time>2021-03-06T14:50:27.000Z</time>
      </trkpt>
      <trkpt lat="47.29882" lon="-1.37353">
        <ele>49</ele>
        <time>2021-03-06T14:50:30.000Z</time>
      </trkpt>
      <trkpt lat="47.2987" lon="-1.37373">
        <ele>52</ele>
        <time>2021-03-06T14:50:33.000Z</time>
      </trkpt>
      <trkpt lat="47.2986" lon="-1.37386">
        <ele>52</ele>
        <time>2021-03-06T14:50:35.000Z</time>
      </trkpt>
      <trkpt lat="47.29848" lon="-1.37408">
        <ele>53</ele>
        <time>2021-03-06T14:50:38.000Z</time>
      </trkpt>
      <trkpt lat="47.2984" lon="-1.37421">
        <ele>53</ele>
        <time>2021-03-06T14:50:40.000Z</time>
      </trkpt>
      <trkpt lat="47.29831" lon="-1.37435">
        <ele>53</ele>
        <time>2021-03-06T14:50:42.000Z</time>
      </trkpt>
      <trkpt lat="47.29824" lon="-1.3745">
        <ele>53</ele>
        <time>2021-03-06T14:50:44.000Z</time>
      </trkpt>
      <trkpt lat="47.29817" lon="-1.37464">
        <ele>53</ele>
        <time>2021-03-06T14:50:46.000Z</time>
      </trkpt>
      <trkpt lat="47.29807" lon="-1.37477">
        <ele>54</ele>
        <time>2021-03-06T14:50:48.000Z</time>
      </trkpt>
      <trkpt lat="47.29798" lon="-1.37491">
        <ele>54</ele>
        <time>2021-03-06T14:50:50.000Z</time>
      </trkpt>
      <trkpt lat="47.29789" lon="-1.37506">
        <ele>54</ele>
        <time>2021-03-06T14:50:52.000Z</time>
      </trkpt>
      <trkpt lat="47.29778" lon="-1.37528">
        <ele>53</ele>
        <time>2021-03-06T14:50:55.000Z</time>
      </trkpt>
      <trkpt lat="47.29768" lon="-1.37543">
        <ele>53</ele>
        <time>2021-03-06T14:50:57.000Z</time>
      </trkpt>
      <trkpt lat="47.2976" lon="-1.37561">
        <ele>53</ele>
        <time>2021-03-06T14:50:59.000Z</time>
      </trkpt>
      <trkpt lat="47.29748" lon="-1.37582">
        <ele>53</ele>
        <time>2021-03-06T14:51:02.000Z</time>
      </trkpt>
      <trkpt lat="47.29739" lon="-1.37598">
        <ele>53</ele>
        <time>2021-03-06T14:51:04.000Z</time>
      </trkpt>
      <trkpt lat="47.29728" lon="-1.3762">
        <ele>53</ele>
        <time>2021-03-06T14:51:07.000Z</time>
      </trkpt>
      <trkpt lat="47.29721" lon="-1.37636">
        <ele>54</ele>
        <time>2021-03-06T14:51:09.000Z</time>
      </trkpt>
      <trkpt lat="47.29707" lon="-1.37656">
        <ele>54</ele>
        <time>2021-03-06T14:51:12.000Z</time>
      </trkpt>
      <trkpt lat="47.29696" lon="-1.37682">
        <ele>54</ele>
        <time>2021-03-06T14:51:15.000Z</time>
      </trkpt>
      <trkpt lat="47.29691" lon="-1.377">
        <ele>55</ele>
        <time>2021-03-06T14:51:17.000Z</time>
      </trkpt>
      <trkpt lat="47.29684" lon="-1.37716">
        <ele>55</ele>
        <time>2021-03-06T14:51:19.000Z</time>
      </trkpt>
      <trkpt lat="47.29673" lon="-1.37738">
        <ele>53</ele>
        <time>2021-03-06T14:51:22.000Z</time>
      </trkpt>
      <trkpt lat="47.29663" lon="-1.37753">
        <ele>54</ele>
        <time>2021-03-06T14:51:24.000Z</time>
      </trkpt>
      <trkpt lat="47.29654" lon="-1.37767">
        <ele>54</ele>
        <time>2021-03-06T14:51:26.000Z</time>
      </trkpt>
      <trkpt lat="47.29646" lon="-1.37781">
        <ele>54</ele>
        <time>2021-03-06T14:51:28.000Z</time>
      </trkpt>
      <trkpt lat="47.29638" lon="-1.37798">
        <ele>53</ele>
        <time>2021-03-06T14:51:30.000Z</time>
      </trkpt>
      <trkpt lat="47.29629" lon="-1.37815">
        <ele>52</ele>
        <time>2021-03-06T14:51:32.000Z</time>
      </trkpt>
      <trkpt lat="47.2962" lon="-1.37829">
        <ele>52</ele>
        <time>2021-03-06T14:51:34.000Z</time>
      </trkpt>
      <trkpt lat="47.29607" lon="-1.3785">
        <ele>53</ele>
        <time>2021-03-06T14:51:37.000Z</time>
      </trkpt>
      <trkpt lat="47.296" lon="-1.37869">
        <ele>52</ele>
        <time>2021-03-06T14:51:39.000Z</time>
      </trkpt>
      <trkpt lat="47.2959" lon="-1.37892">
        <ele>53</ele>
        <time>2021-03-06T14:51:42.000Z</time>
      </trkpt>
      <trkpt lat="47.29578" lon="-1.37919">
        <ele>53</ele>
        <time>2021-03-06T14:51:45.000Z</time>
      </trkpt>
      <trkpt lat="47.2957" lon="-1.37932">
        <ele>54</ele>
        <time>2021-03-06T14:51:47.000Z</time>
      </trkpt>
      <trkpt lat="47.29564" lon="-1.37951">
        <ele>51</ele>
        <time>2021-03-06T14:51:49.000Z</time>
      </trkpt>
      <trkpt lat="47.2956" lon="-1.37965">
        <ele>53</ele>
        <time>2021-03-06T14:51:51.000Z</time>
      </trkpt>
      <trkpt lat="47.29554" lon="-1.37982">
        <ele>53</ele>
        <time>2021-03-06T14:51:53.000Z</time>
      </trkpt>
      <trkpt lat="47.29548" lon="-1.37999">
        <ele>51</ele>
        <time>2021-03-06T14:51:55.000Z</time>
      </trkpt>
      <trkpt lat="47.29541" lon="-1.38016">
        <ele>51</ele>
        <time>2021-03-06T14:51:57.000Z</time>
      </trkpt>
      <trkpt lat="47.29535" lon="-1.38031">
        <ele>53</ele>
        <time>2021-03-06T14:51:59.000Z</time>
      </trkpt>
      <trkpt lat="47.2953" lon="-1.38047">
        <ele>54</ele>
        <time>2021-03-06T14:52:01.000Z</time>
      </trkpt>
      <trkpt lat="47.29521" lon="-1.38073">
        <ele>54</ele>
        <time>2021-03-06T14:52:04.000Z</time>
      </trkpt>
      <trkpt lat="47.29516" lon="-1.38091">
        <ele>54</ele>
        <time>2021-03-06T14:52:06.000Z</time>
      </trkpt>
      <trkpt lat="47.29511" lon="-1.38109">
        <ele>54</ele>
        <time>2021-03-06T14:52:08.000Z</time>
      </trkpt>
      <trkpt lat="47.29504" lon="-1.38134">
        <ele>54</ele>
        <time>2021-03-06T14:52:11.000Z</time>
      </trkpt>
      <trkpt lat="47.29499" lon="-1.38153">
        <ele>55</ele>
        <time>2021-03-06T14:52:13.000Z</time>
      </trkpt>
      <trkpt lat="47.29494" lon="-1.38171">
        <ele>55</ele>
        <time>2021-03-06T14:52:15.000Z</time>
      </trkpt>
      <trkpt lat="47.29486" lon="-1.38202">
        <ele>55</ele>
        <time>2021-03-06T14:52:18.000Z</time>
      </trkpt>
      <trkpt lat="47.29481" lon="-1.3822">
        <ele>55</ele>
        <time>2021-03-06T14:52:20.000Z</time>
      </trkpt>
      <trkpt lat="47.29476" lon="-1.38237">
        <ele>56</ele>
        <time>2021-03-06T14:52:22.000Z</time>
      </trkpt>
      <trkpt lat="47.29471" lon="-1.38255">
        <ele>56</ele>
        <time>2021-03-06T14:52:24.000Z</time>
      </trkpt>
      <trkpt lat="47.29466" lon="-1.38274">
        <ele>55</ele>
        <time>2021-03-06T14:52:26.000Z</time>
      </trkpt>
      <trkpt lat="47.29461" lon="-1.38292">
        <ele>56</ele>
        <time>2021-03-06T14:52:28.000Z</time>
      </trkpt>
      <trkpt lat="47.29454" lon="-1.38315">
        <ele>57</ele>
        <time>2021-03-06T14:52:31.000Z</time>
      </trkpt>
      <trkpt lat="47.29449" lon="-1.38327">
        <ele>56</ele>
        <time>2021-03-06T14:52:33.000Z</time>
      </trkpt>
      <trkpt lat="47.29443" lon="-1.38342">
        <ele>57</ele>
        <time>2021-03-06T14:52:35.000Z</time>
      </trkpt>
      <trkpt lat="47.29441" lon="-1.38363">
        <ele>57</ele>
        <time>2021-03-06T14:52:37.000Z</time>
      </trkpt>
      <trkpt lat="47.29433" lon="-1.38394">
        <ele>56</ele>
        <time>2021-03-06T14:52:40.000Z</time>
      </trkpt>
      <trkpt lat="47.29427" lon="-1.38416">
        <ele>56</ele>
        <time>2021-03-06T14:52:42.000Z</time>
      </trkpt>
      <trkpt lat="47.29422" lon="-1.38437">
        <ele>56</ele>
        <time>2021-03-06T14:52:44.000Z</time>
      </trkpt>
      <trkpt lat="47.29417" lon="-1.38457">
        <ele>56</ele>
        <time>2021-03-06T14:52:46.000Z</time>
      </trkpt>
      <trkpt lat="47.29411" lon="-1.38485">
        <ele>52</ele>
        <time>2021-03-06T14:52:49.000Z</time>
      </trkpt>
      <trkpt lat="47.29401" lon="-1.38515">
        <ele>52</ele>
        <time>2021-03-06T14:52:52.000Z</time>
      </trkpt>
      <trkpt lat="47.29395" lon="-1.38537">
        <ele>52</ele>
        <time>2021-03-06T14:52:54.000Z</time>
      </trkpt>
      <trkpt lat="47.29387" lon="-1.38569">
        <ele>56</ele>
        <time>2021-03-06T14:52:57.000Z</time>
      </trkpt>
      <trkpt lat="47.29378" lon="-1.386">
        <ele>55</ele>
        <time>2021-03-06T14:53:00.000Z</time>
      </trkpt>
      <trkpt lat="47.29375" lon="-1.38618">
        <ele>52</ele>
        <time>2021-03-06T14:53:02.000Z</time>
      </trkpt>
      <trkpt lat="47.29369" lon="-1.3864">
        <ele>53</ele>
        <time>2021-03-06T14:53:04.000Z</time>
      </trkpt>
      <trkpt lat="47.29359" lon="-1.38671">
        <ele>54</ele>
        <time>2021-03-06T14:53:07.000Z</time>
      </trkpt>
      <trkpt lat="47.29355" lon="-1.38691">
        <ele>54</ele>
        <time>2021-03-06T14:53:09.000Z</time>
      </trkpt>
      <trkpt lat="47.29348" lon="-1.38711">
        <ele>55</ele>
        <time>2021-03-06T14:53:11.000Z</time>
      </trkpt>
      <trkpt lat="47.29341" lon="-1.38732">
        <ele>55</ele>
        <time>2021-03-06T14:53:13.000Z</time>
      </trkpt>
      <trkpt lat="47.29334" lon="-1.38752">
        <ele>55</ele>
        <time>2021-03-06T14:53:15.000Z</time>
      </trkpt>
      <trkpt lat="47.29329" lon="-1.38772">
        <ele>55</ele>
        <time>2021-03-06T14:53:17.000Z</time>
      </trkpt>
      <trkpt lat="47.29321" lon="-1.38803">
        <ele>52</ele>
        <time>2021-03-06T14:53:20.000Z</time>
      </trkpt>
      <trkpt lat="47.29306" lon="-1.38844">
        <ele>59</ele>
        <time>2021-03-06T14:53:24.000Z</time>
      </trkpt>
      <trkpt lat="47.29304" lon="-1.38862">
        <ele>53</ele>
        <time>2021-03-06T14:53:26.000Z</time>
      </trkpt>
      <trkpt lat="47.29294" lon="-1.38889">
        <ele>54</ele>
        <time>2021-03-06T14:53:29.000Z</time>
      </trkpt>
      <trkpt lat="47.29289" lon="-1.38909">
        <ele>56</ele>
        <time>2021-03-06T14:53:31.000Z</time>
      </trkpt>
      <trkpt lat="47.29283" lon="-1.38939">
        <ele>55</ele>
        <time>2021-03-06T14:53:34.000Z</time>
      </trkpt>
      <trkpt lat="47.29277" lon="-1.3896">
        <ele>55</ele>
        <time>2021-03-06T14:53:36.000Z</time>
      </trkpt>
      <trkpt lat="47.29272" lon="-1.38979">
        <ele>55</ele>
        <time>2021-03-06T14:53:38.000Z</time>
      </trkpt>
      <trkpt lat="47.29267" lon="-1.38999">
        <ele>55</ele>
        <time>2021-03-06T14:53:40.000Z</time>
      </trkpt>
      <trkpt lat="47.29261" lon="-1.39019">
        <ele>55</ele>
        <time>2021-03-06T14:53:42.000Z</time>
      </trkpt>
      <trkpt lat="47.29254" lon="-1.39048">
        <ele>55</ele>
        <time>2021-03-06T14:53:45.000Z</time>
      </trkpt>
      <trkpt lat="47.29249" lon="-1.39068">
        <ele>55</ele>
        <time>2021-03-06T14:53:47.000Z</time>
      </trkpt>
      <trkpt lat="47.29243" lon="-1.39086">
        <ele>55</ele>
        <time>2021-03-06T14:53:49.000Z</time>
      </trkpt>
      <trkpt lat="47.29236" lon="-1.39104">
        <ele>56</ele>
        <time>2021-03-06T14:53:51.000Z</time>
      </trkpt>
      <trkpt lat="47.29227" lon="-1.39121">
        <ele>56</ele>
        <time>2021-03-06T14:53:53.000Z</time>
      </trkpt>
      <trkpt lat="47.29218" lon="-1.39136">
        <ele>56</ele>
        <time>2021-03-06T14:53:55.000Z</time>
      </trkpt>
      <trkpt lat="47.29206" lon="-1.39152">
        <ele>56</ele>
        <time>2021-03-06T14:53:57.000Z</time>
      </trkpt>
      <trkpt lat="47.29194" lon="-1.39166">
        <ele>56</ele>
        <time>2021-03-06T14:53:59.000Z</time>
      </trkpt>
      <trkpt lat="47.29182" lon="-1.3918">
        <ele>56</ele>
        <time>2021-03-06T14:54:01.000Z</time>
      </trkpt>
      <trkpt lat="47.29162" lon="-1.39202">
        <ele>57</ele>
        <time>2021-03-06T14:54:04.000Z</time>
      </trkpt>
      <trkpt lat="47.29151" lon="-1.39214">
        <ele>56</ele>
        <time>2021-03-06T14:54:06.000Z</time>
      </trkpt>
      <trkpt lat="47.2914" lon="-1.39228">
        <ele>56</ele>
        <time>2021-03-06T14:54:08.000Z</time>
      </trkpt>
      <trkpt lat="47.29129" lon="-1.39242">
        <ele>56</ele>
        <time>2021-03-06T14:54:10.000Z</time>
      </trkpt>
      <trkpt lat="47.29113" lon="-1.39263">
        <ele>56</ele>
        <time>2021-03-06T14:54:13.000Z</time>
      </trkpt>
      <trkpt lat="47.29104" lon="-1.39278">
        <ele>56</ele>
        <time>2021-03-06T14:54:15.000Z</time>
      </trkpt>
      <trkpt lat="47.29096" lon="-1.39296">
        <ele>56</ele>
        <time>2021-03-06T14:54:17.000Z</time>
      </trkpt>
      <trkpt lat="47.29084" lon="-1.39317">
        <ele>57</ele>
        <time>2021-03-06T14:54:20.000Z</time>
      </trkpt>
      <trkpt lat="47.29064" lon="-1.39323">
        <ele>56</ele>
        <time>2021-03-06T14:54:23.000Z</time>
      </trkpt>
      <trkpt lat="47.2905" lon="-1.39332">
        <ele>55</ele>
        <time>2021-03-06T14:54:25.000Z</time>
      </trkpt>
      <trkpt lat="47.29041" lon="-1.39347">
        <ele>51</ele>
        <time>2021-03-06T14:54:27.000Z</time>
      </trkpt>
      <trkpt lat="47.29029" lon="-1.39363">
        <ele>51</ele>
        <time>2021-03-06T14:54:29.000Z</time>
      </trkpt>
      <trkpt lat="47.29021" lon="-1.3937">
        <ele>52</ele>
        <time>2021-03-06T14:54:30.000Z</time>
      </trkpt>
      <trkpt lat="47.29008" lon="-1.39385">
        <ele>53</ele>
        <time>2021-03-06T14:54:32.000Z</time>
      </trkpt>
      <trkpt lat="47.28998" lon="-1.39402">
        <ele>52</ele>
        <time>2021-03-06T14:54:34.000Z</time>
      </trkpt>
      <trkpt lat="47.28985" lon="-1.39415">
        <ele>53</ele>
        <time>2021-03-06T14:54:36.000Z</time>
      </trkpt>
      <trkpt lat="47.28973" lon="-1.39429">
        <ele>53</ele>
        <time>2021-03-06T14:54:38.000Z</time>
      </trkpt>
      <trkpt lat="47.28956" lon="-1.39453">
        <ele>53</ele>
        <time>2021-03-06T14:54:41.000Z</time>
      </trkpt>
      <trkpt lat="47.28944" lon="-1.39466">
        <ele>54</ele>
        <time>2021-03-06T14:54:43.000Z</time>
      </trkpt>
      <trkpt lat="47.28933" lon="-1.39477">
        <ele>54</ele>
        <time>2021-03-06T14:54:45.000Z</time>
      </trkpt>
      <trkpt lat="47.28923" lon="-1.39488">
        <ele>54</ele>
        <time>2021-03-06T14:54:47.000Z</time>
      </trkpt>
      <trkpt lat="47.28905" lon="-1.39507">
        <ele>54</ele>
        <time>2021-03-06T14:54:50.000Z</time>
      </trkpt>
      <trkpt lat="47.28894" lon="-1.39525">
        <ele>53</ele>
        <time>2021-03-06T14:54:52.000Z</time>
      </trkpt>
      <trkpt lat="47.28884" lon="-1.39537">
        <ele>54</ele>
        <time>2021-03-06T14:54:54.000Z</time>
      </trkpt>
      <trkpt lat="47.28873" lon="-1.3955">
        <ele>54</ele>
        <time>2021-03-06T14:54:56.000Z</time>
      </trkpt>
      <trkpt lat="47.28862" lon="-1.39562">
        <ele>55</ele>
        <time>2021-03-06T14:54:58.000Z</time>
      </trkpt>
      <trkpt lat="47.2885" lon="-1.39574">
        <ele>55</ele>
        <time>2021-03-06T14:55:00.000Z</time>
      </trkpt>
      <trkpt lat="47.28839" lon="-1.39587">
        <ele>55</ele>
        <time>2021-03-06T14:55:02.000Z</time>
      </trkpt>
      <trkpt lat="47.28828" lon="-1.39599">
        <ele>55</ele>
        <time>2021-03-06T14:55:04.000Z</time>
      </trkpt>
      <trkpt lat="47.28815" lon="-1.39615">
        <ele>52</ele>
        <time>2021-03-06T14:55:06.000Z</time>
      </trkpt>
      <trkpt lat="47.28804" lon="-1.39629">
        <ele>53</ele>
        <time>2021-03-06T14:55:08.000Z</time>
      </trkpt>
      <trkpt lat="47.28793" lon="-1.39644">
        <ele>53</ele>
        <time>2021-03-06T14:55:10.000Z</time>
      </trkpt>
      <trkpt lat="47.2878" lon="-1.39656">
        <ele>53</ele>
        <time>2021-03-06T14:55:12.000Z</time>
      </trkpt>
      <trkpt lat="47.28768" lon="-1.39672">
        <ele>53</ele>
        <time>2021-03-06T14:55:14.000Z</time>
      </trkpt>
      <trkpt lat="47.28756" lon="-1.39686">
        <ele>53</ele>
        <time>2021-03-06T14:55:16.000Z</time>
      </trkpt>
      <trkpt lat="47.2874" lon="-1.39708">
        <ele>54</ele>
        <time>2021-03-06T14:55:19.000Z</time>
      </trkpt>
      <trkpt lat="47.28728" lon="-1.39721">
        <ele>54</ele>
        <time>2021-03-06T14:55:21.000Z</time>
      </trkpt>
      <trkpt lat="47.28716" lon="-1.39736">
        <ele>54</ele>
        <time>2021-03-06T14:55:23.000Z</time>
      </trkpt>
      <trkpt lat="47.28704" lon="-1.39751">
        <ele>54</ele>
        <time>2021-03-06T14:55:25.000Z</time>
      </trkpt>
      <trkpt lat="47.28692" lon="-1.39765">
        <ele>55</ele>
        <time>2021-03-06T14:55:27.000Z</time>
      </trkpt>
      <trkpt lat="47.28682" lon="-1.39783">
        <ele>53</ele>
        <time>2021-03-06T14:55:29.000Z</time>
      </trkpt>
      <trkpt lat="47.28671" lon="-1.39798">
        <ele>52</ele>
        <time>2021-03-06T14:55:31.000Z</time>
      </trkpt>
      <trkpt lat="47.28661" lon="-1.39813">
        <ele>52</ele>
        <time>2021-03-06T14:55:33.000Z</time>
      </trkpt>
      <trkpt lat="47.2865" lon="-1.39827">
        <ele>53</ele>
        <time>2021-03-06T14:55:35.000Z</time>
      </trkpt>
      <trkpt lat="47.28634" lon="-1.3985">
        <ele>54</ele>
        <time>2021-03-06T14:55:38.000Z</time>
      </trkpt>
      <trkpt lat="47.28622" lon="-1.39868">
        <ele>55</ele>
        <time>2021-03-06T14:55:40.000Z</time>
      </trkpt>
      <trkpt lat="47.28612" lon="-1.39882">
        <ele>56</ele>
        <time>2021-03-06T14:55:42.000Z</time>
      </trkpt>
      <trkpt lat="47.28597" lon="-1.39907">
        <ele>54</ele>
        <time>2021-03-06T14:55:45.000Z</time>
      </trkpt>
      <trkpt lat="47.28588" lon="-1.3992">
        <ele>55</ele>
        <time>2021-03-06T14:55:47.000Z</time>
      </trkpt>
      <trkpt lat="47.28579" lon="-1.39935">
        <ele>55</ele>
        <time>2021-03-06T14:55:49.000Z</time>
      </trkpt>
      <trkpt lat="47.28569" lon="-1.39949">
        <ele>55</ele>
        <time>2021-03-06T14:55:51.000Z</time>
      </trkpt>
      <trkpt lat="47.28555" lon="-1.39971">
        <ele>55</ele>
        <time>2021-03-06T14:55:54.000Z</time>
      </trkpt>
      <trkpt lat="47.28545" lon="-1.39984">
        <ele>55</ele>
        <time>2021-03-06T14:55:56.000Z</time>
      </trkpt>
      <trkpt lat="47.28535" lon="-1.39998">
        <ele>55</ele>
        <time>2021-03-06T14:55:58.000Z</time>
      </trkpt>
      <trkpt lat="47.28525" lon="-1.40009">
        <ele>55</ele>
        <time>2021-03-06T14:56:00.000Z</time>
      </trkpt>
      <trkpt lat="47.28516" lon="-1.40022">
        <ele>55</ele>
        <time>2021-03-06T14:56:02.000Z</time>
      </trkpt>
      <trkpt lat="47.28504" lon="-1.40046">
        <ele>51</ele>
        <time>2021-03-06T14:56:05.000Z</time>
      </trkpt>
      <trkpt lat="47.28498" lon="-1.40062">
        <ele>53</ele>
        <time>2021-03-06T14:56:07.000Z</time>
      </trkpt>
      <trkpt lat="47.28491" lon="-1.40077">
        <ele>52</ele>
        <time>2021-03-06T14:56:09.000Z</time>
      </trkpt>
      <trkpt lat="47.28484" lon="-1.40093">
        <ele>52</ele>
        <time>2021-03-06T14:56:11.000Z</time>
      </trkpt>
      <trkpt lat="47.28476" lon="-1.4011">
        <ele>51</ele>
        <time>2021-03-06T14:56:13.000Z</time>
      </trkpt>
      <trkpt lat="47.2847" lon="-1.4013">
        <ele>52</ele>
        <time>2021-03-06T14:56:15.000Z</time>
      </trkpt>
      <trkpt lat="47.28461" lon="-1.4015">
        <ele>51</ele>
        <time>2021-03-06T14:56:17.000Z</time>
      </trkpt>
      <trkpt lat="47.28453" lon="-1.40172">
        <ele>52</ele>
        <time>2021-03-06T14:56:19.000Z</time>
      </trkpt>
      <trkpt lat="47.28445" lon="-1.40194">
        <ele>52</ele>
        <time>2021-03-06T14:56:21.000Z</time>
      </trkpt>
      <trkpt lat="47.28432" lon="-1.40223">
        <ele>51</ele>
        <time>2021-03-06T14:56:24.000Z</time>
      </trkpt>
      <trkpt lat="47.28426" lon="-1.40243">
        <ele>52</ele>
        <time>2021-03-06T14:56:26.000Z</time>
      </trkpt>
      <trkpt lat="47.28411" lon="-1.40273">
        <ele>46</ele>
        <time>2021-03-06T14:56:29.000Z</time>
      </trkpt>
      <trkpt lat="47.28399" lon="-1.40294">
        <ele>48</ele>
        <time>2021-03-06T14:56:31.000Z</time>
      </trkpt>
      <trkpt lat="47.28388" lon="-1.40313">
        <ele>50</ele>
        <time>2021-03-06T14:56:33.000Z</time>
      </trkpt>
      <trkpt lat="47.28378" lon="-1.40335">
        <ele>47</ele>
        <time>2021-03-06T14:56:35.000Z</time>
      </trkpt>
      <trkpt lat="47.28364" lon="-1.40348">
        <ele>46</ele>
        <time>2021-03-06T14:56:37.000Z</time>
      </trkpt>
      <trkpt lat="47.28346" lon="-1.40371">
        <ele>47</ele>
        <time>2021-03-06T14:56:40.000Z</time>
      </trkpt>
      <trkpt lat="47.28323" lon="-1.40403">
        <ele>49</ele>
        <time>2021-03-06T14:56:44.000Z</time>
      </trkpt>
      <trkpt lat="47.28312" lon="-1.40416">
        <ele>51</ele>
        <time>2021-03-06T14:56:46.000Z</time>
      </trkpt>
      <trkpt lat="47.28299" lon="-1.40429">
        <ele>52</ele>
        <time>2021-03-06T14:56:48.000Z</time>
      </trkpt>
      <trkpt lat="47.28287" lon="-1.40443">
        <ele>54</ele>
        <time>2021-03-06T14:56:50.000Z</time>
      </trkpt>
      <trkpt lat="47.28275" lon="-1.40454">
        <ele>54</ele>
        <time>2021-03-06T14:56:52.000Z</time>
      </trkpt>
      <trkpt lat="47.28262" lon="-1.40466">
        <ele>54</ele>
        <time>2021-03-06T14:56:54.000Z</time>
      </trkpt>
      <trkpt lat="47.2825" lon="-1.40478">
        <ele>54</ele>
        <time>2021-03-06T14:56:56.000Z</time>
      </trkpt>
      <trkpt lat="47.28238" lon="-1.40491">
        <ele>54</ele>
        <time>2021-03-06T14:56:58.000Z</time>
      </trkpt>
      <trkpt lat="47.28227" lon="-1.40503">
        <ele>54</ele>
        <time>2021-03-06T14:57:00.000Z</time>
      </trkpt>
      <trkpt lat="47.28209" lon="-1.40519">
        <ele>54</ele>
        <time>2021-03-06T14:57:03.000Z</time>
      </trkpt>
      <trkpt lat="47.28191" lon="-1.40538">
        <ele>54</ele>
        <time>2021-03-06T14:57:06.000Z</time>
      </trkpt>
      <trkpt lat="47.28179" lon="-1.40549">
        <ele>54</ele>
        <time>2021-03-06T14:57:08.000Z</time>
      </trkpt>
      <trkpt lat="47.2816" lon="-1.40566">
        <ele>54</ele>
        <time>2021-03-06T14:57:11.000Z</time>
      </trkpt>
      <trkpt lat="47.28141" lon="-1.40584">
        <ele>54</ele>
        <time>2021-03-06T14:57:14.000Z</time>
      </trkpt>
      <trkpt lat="47.28129" lon="-1.40596">
        <ele>55</ele>
        <time>2021-03-06T14:57:16.000Z</time>
      </trkpt>
      <trkpt lat="47.28118" lon="-1.40607">
        <ele>55</ele>
        <time>2021-03-06T14:57:18.000Z</time>
      </trkpt>
      <trkpt lat="47.28106" lon="-1.40618">
        <ele>55</ele>
        <time>2021-03-06T14:57:20.000Z</time>
      </trkpt>
      <trkpt lat="47.28093" lon="-1.40629">
        <ele>54</ele>
        <time>2021-03-06T14:57:22.000Z</time>
      </trkpt>
      <trkpt lat="47.28082" lon="-1.4064">
        <ele>54</ele>
        <time>2021-03-06T14:57:24.000Z</time>
      </trkpt>
      <trkpt lat="47.2807" lon="-1.40651">
        <ele>54</ele>
        <time>2021-03-06T14:57:26.000Z</time>
      </trkpt>
      <trkpt lat="47.28057" lon="-1.40665">
        <ele>52</ele>
        <time>2021-03-06T14:57:28.000Z</time>
      </trkpt>
      <trkpt lat="47.28046" lon="-1.40677">
        <ele>52</ele>
        <time>2021-03-06T14:57:30.000Z</time>
      </trkpt>
      <trkpt lat="47.28034" lon="-1.4069">
        <ele>53</ele>
        <time>2021-03-06T14:57:32.000Z</time>
      </trkpt>
      <trkpt lat="47.28016" lon="-1.40708">
        <ele>54</ele>
        <time>2021-03-06T14:57:35.000Z</time>
      </trkpt>
      <trkpt lat="47.28004" lon="-1.40722">
        <ele>52</ele>
        <time>2021-03-06T14:57:37.000Z</time>
      </trkpt>
      <trkpt lat="47.27992" lon="-1.40733">
        <ele>48</ele>
        <time>2021-03-06T14:57:39.000Z</time>
      </trkpt>
      <trkpt lat="47.27981" lon="-1.40742">
        <ele>50</ele>
        <time>2021-03-06T14:57:41.000Z</time>
      </trkpt>
      <trkpt lat="47.27969" lon="-1.40752">
        <ele>51</ele>
        <time>2021-03-06T14:57:43.000Z</time>
      </trkpt>
      <trkpt lat="47.27952" lon="-1.40774">
        <ele>50</ele>
        <time>2021-03-06T14:57:46.000Z</time>
      </trkpt>
      <trkpt lat="47.27939" lon="-1.40782">
        <ele>51</ele>
        <time>2021-03-06T14:57:48.000Z</time>
      </trkpt>
      <trkpt lat="47.27927" lon="-1.40792">
        <ele>51</ele>
        <time>2021-03-06T14:57:50.000Z</time>
      </trkpt>
      <trkpt lat="47.27915" lon="-1.40802">
        <ele>52</ele>
        <time>2021-03-06T14:57:52.000Z</time>
      </trkpt>
      <trkpt lat="47.27903" lon="-1.40814">
        <ele>53</ele>
        <time>2021-03-06T14:57:54.000Z</time>
      </trkpt>
      <trkpt lat="47.27891" lon="-1.40826">
        <ele>53</ele>
        <time>2021-03-06T14:57:56.000Z</time>
      </trkpt>
      <trkpt lat="47.27881" lon="-1.4084">
        <ele>54</ele>
        <time>2021-03-06T14:57:58.000Z</time>
      </trkpt>
      <trkpt lat="47.2787" lon="-1.40864">
        <ele>52</ele>
        <time>2021-03-06T14:58:01.000Z</time>
      </trkpt>
      <trkpt lat="47.27862" lon="-1.40882">
        <ele>53</ele>
        <time>2021-03-06T14:58:03.000Z</time>
      </trkpt>
      <trkpt lat="47.27855" lon="-1.409">
        <ele>52</ele>
        <time>2021-03-06T14:58:05.000Z</time>
      </trkpt>
      <trkpt lat="47.27842" lon="-1.40926">
        <ele>53</ele>
        <time>2021-03-06T14:58:08.000Z</time>
      </trkpt>
      <trkpt lat="47.27834" lon="-1.40943">
        <ele>54</ele>
        <time>2021-03-06T14:58:10.000Z</time>
      </trkpt>
      <trkpt lat="47.27825" lon="-1.4096">
        <ele>54</ele>
        <time>2021-03-06T14:58:12.000Z</time>
      </trkpt>
      <trkpt lat="47.27816" lon="-1.40976">
        <ele>55</ele>
        <time>2021-03-06T14:58:14.000Z</time>
      </trkpt>
      <trkpt lat="47.27806" lon="-1.40992">
        <ele>55</ele>
        <time>2021-03-06T14:58:16.000Z</time>
      </trkpt>
      <trkpt lat="47.27797" lon="-1.41006">
        <ele>55</ele>
        <time>2021-03-06T14:58:18.000Z</time>
      </trkpt>
      <trkpt lat="47.27787" lon="-1.4102">
        <ele>55</ele>
        <time>2021-03-06T14:58:20.000Z</time>
      </trkpt>
      <trkpt lat="47.27779" lon="-1.41036">
        <ele>55</ele>
        <time>2021-03-06T14:58:22.000Z</time>
      </trkpt>
      <trkpt lat="47.27773" lon="-1.41055">
        <ele>55</ele>
        <time>2021-03-06T14:58:24.000Z</time>
      </trkpt>
      <trkpt lat="47.27765" lon="-1.41072">
        <ele>55</ele>
        <time>2021-03-06T14:58:26.000Z</time>
      </trkpt>
      <trkpt lat="47.27754" lon="-1.41085">
        <ele>55</ele>
        <time>2021-03-06T14:58:28.000Z</time>
      </trkpt>
      <trkpt lat="47.27742" lon="-1.41097">
        <ele>55</ele>
        <time>2021-03-06T14:58:30.000Z</time>
      </trkpt>
      <trkpt lat="47.2773" lon="-1.41108">
        <ele>54</ele>
        <time>2021-03-06T14:58:32.000Z</time>
      </trkpt>
      <trkpt lat="47.27719" lon="-1.41119">
        <ele>54</ele>
        <time>2021-03-06T14:58:34.000Z</time>
      </trkpt>
      <trkpt lat="47.27701" lon="-1.41141">
        <ele>51</ele>
        <time>2021-03-06T14:58:37.000Z</time>
      </trkpt>
      <trkpt lat="47.2769" lon="-1.41149">
        <ele>52</ele>
        <time>2021-03-06T14:58:39.000Z</time>
      </trkpt>
      <trkpt lat="47.27674" lon="-1.41167">
        <ele>53</ele>
        <time>2021-03-06T14:58:42.000Z</time>
      </trkpt>
      <trkpt lat="47.27664" lon="-1.41181">
        <ele>53</ele>
        <time>2021-03-06T14:58:44.000Z</time>
      </trkpt>
      <trkpt lat="47.27652" lon="-1.41192">
        <ele>53</ele>
        <time>2021-03-06T14:58:46.000Z</time>
      </trkpt>
      <trkpt lat="47.27641" lon="-1.41202">
        <ele>53</ele>
        <time>2021-03-06T14:58:48.000Z</time>
      </trkpt>
      <trkpt lat="47.2763" lon="-1.41213">
        <ele>53</ele>
        <time>2021-03-06T14:58:50.000Z</time>
      </trkpt>
      <trkpt lat="47.27619" lon="-1.41223">
        <ele>53</ele>
        <time>2021-03-06T14:58:52.000Z</time>
      </trkpt>
      <trkpt lat="47.27608" lon="-1.41234">
        <ele>52</ele>
        <time>2021-03-06T14:58:54.000Z</time>
      </trkpt>
      <trkpt lat="47.27598" lon="-1.41247">
        <ele>51</ele>
        <time>2021-03-06T14:58:56.000Z</time>
      </trkpt>
      <trkpt lat="47.27587" lon="-1.41258">
        <ele>52</ele>
        <time>2021-03-06T14:58:58.000Z</time>
      </trkpt>
      <trkpt lat="47.27573" lon="-1.41277">
        <ele>50</ele>
        <time>2021-03-06T14:59:01.000Z</time>
      </trkpt>
      <trkpt lat="47.27561" lon="-1.41291">
        <ele>51</ele>
        <time>2021-03-06T14:59:03.000Z</time>
      </trkpt>
      <trkpt lat="47.27552" lon="-1.41303">
        <ele>53</ele>
        <time>2021-03-06T14:59:05.000Z</time>
      </trkpt>
      <trkpt lat="47.27543" lon="-1.4132">
        <ele>51</ele>
        <time>2021-03-06T14:59:07.000Z</time>
      </trkpt>
      <trkpt lat="47.27533" lon="-1.41332">
        <ele>50</ele>
        <time>2021-03-06T14:59:09.000Z</time>
      </trkpt>
      <trkpt lat="47.27523" lon="-1.41347">
        <ele>53</ele>
        <time>2021-03-06T14:59:11.000Z</time>
      </trkpt>
      <trkpt lat="47.27507" lon="-1.41364">
        <ele>54</ele>
        <time>2021-03-06T14:59:14.000Z</time>
      </trkpt>
      <trkpt lat="47.27497" lon="-1.41378">
        <ele>54</ele>
        <time>2021-03-06T14:59:16.000Z</time>
      </trkpt>
      <trkpt lat="47.27484" lon="-1.41403">
        <ele>49</ele>
        <time>2021-03-06T14:59:19.000Z</time>
      </trkpt>
      <trkpt lat="47.27475" lon="-1.41417">
        <ele>51</ele>
        <time>2021-03-06T14:59:21.000Z</time>
      </trkpt>
      <trkpt lat="47.27466" lon="-1.41434">
        <ele>50</ele>
        <time>2021-03-06T14:59:23.000Z</time>
      </trkpt>
      <trkpt lat="47.27457" lon="-1.4145">
        <ele>51</ele>
        <time>2021-03-06T14:59:25.000Z</time>
      </trkpt>
      <trkpt lat="47.27448" lon="-1.41464">
        <ele>52</ele>
        <time>2021-03-06T14:59:27.000Z</time>
      </trkpt>
      <trkpt lat="47.27439" lon="-1.41479">
        <ele>53</ele>
        <time>2021-03-06T14:59:29.000Z</time>
      </trkpt>
      <trkpt lat="47.27431" lon="-1.41494">
        <ele>54</ele>
        <time>2021-03-06T14:59:31.000Z</time>
      </trkpt>
      <trkpt lat="47.27422" lon="-1.41508">
        <ele>53</ele>
        <time>2021-03-06T14:59:33.000Z</time>
      </trkpt>
      <trkpt lat="47.27413" lon="-1.41523">
        <ele>53</ele>
        <time>2021-03-06T14:59:35.000Z</time>
      </trkpt>
      <trkpt lat="47.27404" lon="-1.41537">
        <ele>53</ele>
        <time>2021-03-06T14:59:37.000Z</time>
      </trkpt>
      <trkpt lat="47.27396" lon="-1.4155">
        <ele>55</ele>
        <time>2021-03-06T14:59:39.000Z</time>
      </trkpt>
      <trkpt lat="47.27383" lon="-1.41573">
        <ele>56</ele>
        <time>2021-03-06T14:59:42.000Z</time>
      </trkpt>
      <trkpt lat="47.27374" lon="-1.41587">
        <ele>55</ele>
        <time>2021-03-06T14:59:44.000Z</time>
      </trkpt>
      <trkpt lat="47.27364" lon="-1.416">
        <ele>55</ele>
        <time>2021-03-06T14:59:46.000Z</time>
      </trkpt>
      <trkpt lat="47.27354" lon="-1.41614">
        <ele>56</ele>
        <time>2021-03-06T14:59:48.000Z</time>
      </trkpt>
      <trkpt lat="47.27345" lon="-1.41629">
        <ele>56</ele>
        <time>2021-03-06T14:59:50.000Z</time>
      </trkpt>
      <trkpt lat="47.27331" lon="-1.41653">
        <ele>56</ele>
        <time>2021-03-06T14:59:53.000Z</time>
      </trkpt>
      <trkpt lat="47.27317" lon="-1.41675">
        <ele>55</ele>
        <time>2021-03-06T14:59:56.000Z</time>
      </trkpt>
      <trkpt lat="47.27309" lon="-1.41691">
        <ele>55</ele>
        <time>2021-03-06T14:59:58.000Z</time>
      </trkpt>
      <trkpt lat="47.27297" lon="-1.41714">
        <ele>56</ele>
        <time>2021-03-06T15:00:01.000Z</time>
      </trkpt>
      <trkpt lat="47.27289" lon="-1.41731">
        <ele>55</ele>
        <time>2021-03-06T15:00:03.000Z</time>
      </trkpt>
      <trkpt lat="47.27281" lon="-1.41747">
        <ele>56</ele>
        <time>2021-03-06T15:00:05.000Z</time>
      </trkpt>
      <trkpt lat="47.27272" lon="-1.41764">
        <ele>55</ele>
        <time>2021-03-06T15:00:07.000Z</time>
      </trkpt>
      <trkpt lat="47.27265" lon="-1.41779">
        <ele>55</ele>
        <time>2021-03-06T15:00:09.000Z</time>
      </trkpt>
      <trkpt lat="47.27255" lon="-1.41794">
        <ele>54</ele>
        <time>2021-03-06T15:00:11.000Z</time>
      </trkpt>
      <trkpt lat="47.27246" lon="-1.4181">
        <ele>55</ele>
        <time>2021-03-06T15:00:13.000Z</time>
      </trkpt>
      <trkpt lat="47.27233" lon="-1.41833">
        <ele>55</ele>
        <time>2021-03-06T15:00:16.000Z</time>
      </trkpt>
      <trkpt lat="47.27221" lon="-1.41857">
        <ele>55</ele>
        <time>2021-03-06T15:00:19.000Z</time>
      </trkpt>
      <trkpt lat="47.27212" lon="-1.41874">
        <ele>53</ele>
        <time>2021-03-06T15:00:21.000Z</time>
      </trkpt>
      <trkpt lat="47.272" lon="-1.41895">
        <ele>53</ele>
        <time>2021-03-06T15:00:24.000Z</time>
      </trkpt>
      <trkpt lat="47.2719" lon="-1.41909">
        <ele>53</ele>
        <time>2021-03-06T15:00:26.000Z</time>
      </trkpt>
      <trkpt lat="47.27177" lon="-1.41932">
        <ele>54</ele>
        <time>2021-03-06T15:00:29.000Z</time>
      </trkpt>
      <trkpt lat="47.27169" lon="-1.41947">
        <ele>54</ele>
        <time>2021-03-06T15:00:31.000Z</time>
      </trkpt>
      <trkpt lat="47.2716" lon="-1.41963">
        <ele>54</ele>
        <time>2021-03-06T15:00:33.000Z</time>
      </trkpt>
      <trkpt lat="47.27152" lon="-1.41979">
        <ele>54</ele>
        <time>2021-03-06T15:00:35.000Z</time>
      </trkpt>
      <trkpt lat="47.27143" lon="-1.41995">
        <ele>54</ele>
        <time>2021-03-06T15:00:37.000Z</time>
      </trkpt>
      <trkpt lat="47.27135" lon="-1.4201">
        <ele>54</ele>
        <time>2021-03-06T15:00:39.000Z</time>
      </trkpt>
      <trkpt lat="47.27126" lon="-1.42025">
        <ele>54</ele>
        <time>2021-03-06T15:00:41.000Z</time>
      </trkpt>
      <trkpt lat="47.27116" lon="-1.42038">
        <ele>53</ele>
        <time>2021-03-06T15:00:43.000Z</time>
      </trkpt>
      <trkpt lat="47.27103" lon="-1.42061">
        <ele>53</ele>
        <time>2021-03-06T15:00:46.000Z</time>
      </trkpt>
      <trkpt lat="47.27093" lon="-1.42075">
        <ele>54</ele>
        <time>2021-03-06T15:00:48.000Z</time>
      </trkpt>
      <trkpt lat="47.27084" lon="-1.42089">
        <ele>54</ele>
        <time>2021-03-06T15:00:50.000Z</time>
      </trkpt>
      <trkpt lat="47.27075" lon="-1.42105">
        <ele>54</ele>
        <time>2021-03-06T15:00:52.000Z</time>
      </trkpt>
      <trkpt lat="47.27066" lon="-1.42121">
        <ele>54</ele>
        <time>2021-03-06T15:00:54.000Z</time>
      </trkpt>
      <trkpt lat="47.27058" lon="-1.42136">
        <ele>54</ele>
        <time>2021-03-06T15:00:56.000Z</time>
      </trkpt>
      <trkpt lat="47.2705" lon="-1.42152">
        <ele>54</ele>
        <time>2021-03-06T15:00:58.000Z</time>
      </trkpt>
      <trkpt lat="47.27037" lon="-1.42175">
        <ele>55</ele>
        <time>2021-03-06T15:01:01.000Z</time>
      </trkpt>
      <trkpt lat="47.27028" lon="-1.42188">
        <ele>49</ele>
        <time>2021-03-06T15:01:03.000Z</time>
      </trkpt>
      <trkpt lat="47.2702" lon="-1.42204">
        <ele>50</ele>
        <time>2021-03-06T15:01:05.000Z</time>
      </trkpt>
      <trkpt lat="47.27007" lon="-1.42228">
        <ele>51</ele>
        <time>2021-03-06T15:01:08.000Z</time>
      </trkpt>
      <trkpt lat="47.26997" lon="-1.42243">
        <ele>48</ele>
        <time>2021-03-06T15:01:10.000Z</time>
      </trkpt>
      <trkpt lat="47.26988" lon="-1.42257">
        <ele>50</ele>
        <time>2021-03-06T15:01:12.000Z</time>
      </trkpt>
      <trkpt lat="47.2698" lon="-1.42272">
        <ele>50</ele>
        <time>2021-03-06T15:01:14.000Z</time>
      </trkpt>
      <trkpt lat="47.26972" lon="-1.42287">
        <ele>51</ele>
        <time>2021-03-06T15:01:16.000Z</time>
      </trkpt>
      <trkpt lat="47.26964" lon="-1.42303">
        <ele>52</ele>
        <time>2021-03-06T15:01:18.000Z</time>
      </trkpt>
      <trkpt lat="47.26956" lon="-1.4232">
        <ele>53</ele>
        <time>2021-03-06T15:01:20.000Z</time>
      </trkpt>
      <trkpt lat="47.26944" lon="-1.42344">
        <ele>53</ele>
        <time>2021-03-06T15:01:23.000Z</time>
      </trkpt>
      <trkpt lat="47.26937" lon="-1.4236">
        <ele>54</ele>
        <time>2021-03-06T15:01:25.000Z</time>
      </trkpt>
      <trkpt lat="47.26929" lon="-1.42375">
        <ele>54</ele>
        <time>2021-03-06T15:01:27.000Z</time>
      </trkpt>
      <trkpt lat="47.26922" lon="-1.4239">
        <ele>53</ele>
        <time>2021-03-06T15:01:29.000Z</time>
      </trkpt>
      <trkpt lat="47.26913" lon="-1.42407">
        <ele>52</ele>
        <time>2021-03-06T15:01:31.000Z</time>
      </trkpt>
      <trkpt lat="47.26904" lon="-1.42423">
        <ele>53</ele>
        <time>2021-03-06T15:01:33.000Z</time>
      </trkpt>
      <trkpt lat="47.26896" lon="-1.42438">
        <ele>53</ele>
        <time>2021-03-06T15:01:35.000Z</time>
      </trkpt>
      <trkpt lat="47.26888" lon="-1.42453">
        <ele>53</ele>
        <time>2021-03-06T15:01:37.000Z</time>
      </trkpt>
      <trkpt lat="47.26877" lon="-1.42476">
        <ele>50</ele>
        <time>2021-03-06T15:01:40.000Z</time>
      </trkpt>
      <trkpt lat="47.26869" lon="-1.42487">
        <ele>50</ele>
        <time>2021-03-06T15:01:42.000Z</time>
      </trkpt>
      <trkpt lat="47.26861" lon="-1.42502">
        <ele>51</ele>
        <time>2021-03-06T15:01:44.000Z</time>
      </trkpt>
      <trkpt lat="47.26852" lon="-1.42519">
        <ele>54</ele>
        <time>2021-03-06T15:01:46.000Z</time>
      </trkpt>
      <trkpt lat="47.26843" lon="-1.42537">
        <ele>54</ele>
        <time>2021-03-06T15:01:48.000Z</time>
      </trkpt>
      <trkpt lat="47.26835" lon="-1.42554">
        <ele>54</ele>
        <time>2021-03-06T15:01:50.000Z</time>
      </trkpt>
      <trkpt lat="47.26823" lon="-1.42578">
        <ele>54</ele>
        <time>2021-03-06T15:01:53.000Z</time>
      </trkpt>
      <trkpt lat="47.26815" lon="-1.42595">
        <ele>54</ele>
        <time>2021-03-06T15:01:55.000Z</time>
      </trkpt>
      <trkpt lat="47.26808" lon="-1.42613">
        <ele>54</ele>
        <time>2021-03-06T15:01:57.000Z</time>
      </trkpt>
      <trkpt lat="47.26797" lon="-1.42639">
        <ele>54</ele>
        <time>2021-03-06T15:02:00.000Z</time>
      </trkpt>
      <trkpt lat="47.2679" lon="-1.42655">
        <ele>54</ele>
        <time>2021-03-06T15:02:02.000Z</time>
      </trkpt>
      <trkpt lat="47.26784" lon="-1.42673">
        <ele>54</ele>
        <time>2021-03-06T15:02:04.000Z</time>
      </trkpt>
      <trkpt lat="47.26776" lon="-1.42699">
        <ele>54</ele>
        <time>2021-03-06T15:02:07.000Z</time>
      </trkpt>
      <trkpt lat="47.2677" lon="-1.42716">
        <ele>54</ele>
        <time>2021-03-06T15:02:09.000Z</time>
      </trkpt>
      <trkpt lat="47.26762" lon="-1.42732">
        <ele>54</ele>
        <time>2021-03-06T15:02:11.000Z</time>
      </trkpt>
      <trkpt lat="47.26754" lon="-1.42748">
        <ele>54</ele>
        <time>2021-03-06T15:02:13.000Z</time>
      </trkpt>
      <trkpt lat="47.26743" lon="-1.42771">
        <ele>54</ele>
        <time>2021-03-06T15:02:16.000Z</time>
      </trkpt>
      <trkpt lat="47.26738" lon="-1.42789">
        <ele>54</ele>
        <time>2021-03-06T15:02:18.000Z</time>
      </trkpt>
      <trkpt lat="47.26733" lon="-1.42807">
        <ele>54</ele>
        <time>2021-03-06T15:02:20.000Z</time>
      </trkpt>
      <trkpt lat="47.26727" lon="-1.42824">
        <ele>54</ele>
        <time>2021-03-06T15:02:22.000Z</time>
      </trkpt>
      <trkpt lat="47.26721" lon="-1.42841">
        <ele>54</ele>
        <time>2021-03-06T15:02:24.000Z</time>
      </trkpt>
      <trkpt lat="47.26714" lon="-1.42858">
        <ele>54</ele>
        <time>2021-03-06T15:02:26.000Z</time>
      </trkpt>
      <trkpt lat="47.26706" lon="-1.42875">
        <ele>52</ele>
        <time>2021-03-06T15:02:28.000Z</time>
      </trkpt>
      <trkpt lat="47.26698" lon="-1.42894">
        <ele>52</ele>
        <time>2021-03-06T15:02:30.000Z</time>
      </trkpt>
      <trkpt lat="47.26688" lon="-1.4291">
        <ele>52</ele>
        <time>2021-03-06T15:02:32.000Z</time>
      </trkpt>
      <trkpt lat="47.26679" lon="-1.42927">
        <ele>53</ele>
        <time>2021-03-06T15:02:34.000Z</time>
      </trkpt>
      <trkpt lat="47.26671" lon="-1.42944">
        <ele>53</ele>
        <time>2021-03-06T15:02:36.000Z</time>
      </trkpt>
      <trkpt lat="47.26662" lon="-1.42962">
        <ele>53</ele>
        <time>2021-03-06T15:02:38.000Z</time>
      </trkpt>
      <trkpt lat="47.26653" lon="-1.42978">
        <ele>54</ele>
        <time>2021-03-06T15:02:40.000Z</time>
      </trkpt>
      <trkpt lat="47.26647" lon="-1.42993">
        <ele>54</ele>
        <time>2021-03-06T15:02:42.000Z</time>
      </trkpt>
      <trkpt lat="47.26639" lon="-1.43009">
        <ele>52</ele>
        <time>2021-03-06T15:02:44.000Z</time>
      </trkpt>
      <trkpt lat="47.26628" lon="-1.43034">
        <ele>52</ele>
        <time>2021-03-06T15:02:47.000Z</time>
      </trkpt>
      <trkpt lat="47.26619" lon="-1.43049">
        <ele>52</ele>
        <time>2021-03-06T15:02:49.000Z</time>
      </trkpt>
      <trkpt lat="47.2661" lon="-1.43065">
        <ele>53</ele>
        <time>2021-03-06T15:02:51.000Z</time>
      </trkpt>
      <trkpt lat="47.26602" lon="-1.4308">
        <ele>53</ele>
        <time>2021-03-06T15:02:53.000Z</time>
      </trkpt>
      <trkpt lat="47.26593" lon="-1.43097">
        <ele>55</ele>
        <time>2021-03-06T15:02:55.000Z</time>
      </trkpt>
      <trkpt lat="47.26584" lon="-1.43112">
        <ele>55</ele>
        <time>2021-03-06T15:02:57.000Z</time>
      </trkpt>
      <trkpt lat="47.26571" lon="-1.43136">
        <ele>53</ele>
        <time>2021-03-06T15:03:00.000Z</time>
      </trkpt>
      <trkpt lat="47.26562" lon="-1.43148">
        <ele>53</ele>
        <time>2021-03-06T15:03:02.000Z</time>
      </trkpt>
      <trkpt lat="47.26554" lon="-1.43162">
        <ele>53</ele>
        <time>2021-03-06T15:03:04.000Z</time>
      </trkpt>
      <trkpt lat="47.26545" lon="-1.43176">
        <ele>52</ele>
        <time>2021-03-06T15:03:06.000Z</time>
      </trkpt>
      <trkpt lat="47.26532" lon="-1.43199">
        <ele>50</ele>
        <time>2021-03-06T15:03:09.000Z</time>
      </trkpt>
      <trkpt lat="47.26523" lon="-1.43214">
        <ele>49</ele>
        <time>2021-03-06T15:03:11.000Z</time>
      </trkpt>
      <trkpt lat="47.26509" lon="-1.43229">
        <ele>48</ele>
        <time>2021-03-06T15:03:14.000Z</time>
      </trkpt>
      <trkpt lat="47.265" lon="-1.43241">
        <ele>47</ele>
        <time>2021-03-06T15:03:16.000Z</time>
      </trkpt>
      <trkpt lat="47.26492" lon="-1.43254">
        <ele>47</ele>
        <time>2021-03-06T15:03:18.000Z</time>
      </trkpt>
      <trkpt lat="47.26482" lon="-1.43268">
        <ele>48</ele>
        <time>2021-03-06T15:03:20.000Z</time>
      </trkpt>
      <trkpt lat="47.26473" lon="-1.43282">
        <ele>49</ele>
        <time>2021-03-06T15:03:22.000Z</time>
      </trkpt>
      <trkpt lat="47.26464" lon="-1.43295">
        <ele>50</ele>
        <time>2021-03-06T15:03:24.000Z</time>
      </trkpt>
      <trkpt lat="47.26455" lon="-1.4331">
        <ele>51</ele>
        <time>2021-03-06T15:03:26.000Z</time>
      </trkpt>
      <trkpt lat="47.26444" lon="-1.43324">
        <ele>52</ele>
        <time>2021-03-06T15:03:28.000Z</time>
      </trkpt>
      <trkpt lat="47.26434" lon="-1.43338">
        <ele>52</ele>
        <time>2021-03-06T15:03:30.000Z</time>
      </trkpt>
      <trkpt lat="47.26426" lon="-1.43353">
        <ele>50</ele>
        <time>2021-03-06T15:03:32.000Z</time>
      </trkpt>
      <trkpt lat="47.26413" lon="-1.43365">
        <ele>50</ele>
        <time>2021-03-06T15:03:34.000Z</time>
      </trkpt>
      <trkpt lat="47.26405" lon="-1.43372">
        <ele>51</ele>
        <time>2021-03-06T15:03:35.000Z</time>
      </trkpt>
      <trkpt lat="47.26393" lon="-1.43384">
        <ele>51</ele>
        <time>2021-03-06T15:03:37.000Z</time>
      </trkpt>
      <trkpt lat="47.26382" lon="-1.43396">
        <ele>52</ele>
        <time>2021-03-06T15:03:39.000Z</time>
      </trkpt>
      <trkpt lat="47.26372" lon="-1.43412">
        <ele>51</ele>
        <time>2021-03-06T15:03:41.000Z</time>
      </trkpt>
      <trkpt lat="47.26361" lon="-1.43421">
        <ele>53</ele>
        <time>2021-03-06T15:03:43.000Z</time>
      </trkpt>
      <trkpt lat="47.2635" lon="-1.43431">
        <ele>52</ele>
        <time>2021-03-06T15:03:45.000Z</time>
      </trkpt>
      <trkpt lat="47.26339" lon="-1.43444">
        <ele>51</ele>
        <time>2021-03-06T15:03:47.000Z</time>
      </trkpt>
      <trkpt lat="47.26323" lon="-1.43461">
        <ele>51</ele>
        <time>2021-03-06T15:03:50.000Z</time>
      </trkpt>
      <trkpt lat="47.2631" lon="-1.43473">
        <ele>52</ele>
        <time>2021-03-06T15:03:52.000Z</time>
      </trkpt>
      <trkpt lat="47.26295" lon="-1.43487">
        <ele>53</ele>
        <time>2021-03-06T15:03:55.000Z</time>
      </trkpt>
      <trkpt lat="47.26283" lon="-1.4349">
        <ele>53</ele>
        <time>2021-03-06T15:03:57.000Z</time>
      </trkpt>
      <trkpt lat="47.26272" lon="-1.43493">
        <ele>53</ele>
        <time>2021-03-06T15:03:59.000Z</time>
      </trkpt>
      <trkpt lat="47.2626" lon="-1.43498">
        <ele>54</ele>
        <time>2021-03-06T15:04:01.000Z</time>
      </trkpt>
      <trkpt lat="47.26251" lon="-1.4351">
        <ele>51</ele>
        <time>2021-03-06T15:04:03.000Z</time>
      </trkpt>
      <trkpt lat="47.26239" lon="-1.43521">
        <ele>52</ele>
        <time>2021-03-06T15:04:05.000Z</time>
      </trkpt>
      <trkpt lat="47.26229" lon="-1.43531">
        <ele>53</ele>
        <time>2021-03-06T15:04:07.000Z</time>
      </trkpt>
      <trkpt lat="47.2622" lon="-1.43543">
        <ele>53</ele>
        <time>2021-03-06T15:04:09.000Z</time>
      </trkpt>
      <trkpt lat="47.26216" lon="-1.43555">
        <ele>53</ele>
        <time>2021-03-06T15:04:11.000Z</time>
      </trkpt>
      <trkpt lat="47.26214" lon="-1.43577">
        <ele>53</ele>
        <time>2021-03-06T15:04:14.000Z</time>
      </trkpt>
      <trkpt lat="47.26208" lon="-1.43591">
        <ele>53</ele>
        <time>2021-03-06T15:04:16.000Z</time>
      </trkpt>
      <trkpt lat="47.26195" lon="-1.43612">
        <ele>52</ele>
        <time>2021-03-06T15:04:19.000Z</time>
      </trkpt>
      <trkpt lat="47.26183" lon="-1.43634">
        <ele>52</ele>
        <time>2021-03-06T15:04:22.000Z</time>
      </trkpt>
      <trkpt lat="47.26173" lon="-1.43652">
        <ele>49</ele>
        <time>2021-03-06T15:04:24.000Z</time>
      </trkpt>
      <trkpt lat="47.26156" lon="-1.43679">
        <ele>47</ele>
        <time>2021-03-06T15:04:27.000Z</time>
      </trkpt>
      <trkpt lat="47.26147" lon="-1.43694">
        <ele>47</ele>
        <time>2021-03-06T15:04:29.000Z</time>
      </trkpt>
      <trkpt lat="47.26132" lon="-1.43714">
        <ele>49</ele>
        <time>2021-03-06T15:04:32.000Z</time>
      </trkpt>
      <trkpt lat="47.26123" lon="-1.43727">
        <ele>50</ele>
        <time>2021-03-06T15:04:34.000Z</time>
      </trkpt>
      <trkpt lat="47.26115" lon="-1.43741">
        <ele>49</ele>
        <time>2021-03-06T15:04:36.000Z</time>
      </trkpt>
      <trkpt lat="47.26105" lon="-1.43754">
        <ele>50</ele>
        <time>2021-03-06T15:04:38.000Z</time>
      </trkpt>
      <trkpt lat="47.26095" lon="-1.43766">
        <ele>51</ele>
        <time>2021-03-06T15:04:40.000Z</time>
      </trkpt>
      <trkpt lat="47.26086" lon="-1.43778">
        <ele>49</ele>
        <time>2021-03-06T15:04:42.000Z</time>
      </trkpt>
      <trkpt lat="47.26075" lon="-1.43789">
        <ele>49</ele>
        <time>2021-03-06T15:04:44.000Z</time>
      </trkpt>
      <trkpt lat="47.26064" lon="-1.43805">
        <ele>50</ele>
        <time>2021-03-06T15:04:46.000Z</time>
      </trkpt>
      <trkpt lat="47.26055" lon="-1.43821">
        <ele>50</ele>
        <time>2021-03-06T15:04:48.000Z</time>
      </trkpt>
      <trkpt lat="47.26049" lon="-1.43837">
        <ele>49</ele>
        <time>2021-03-06T15:04:50.000Z</time>
      </trkpt>
      <trkpt lat="47.26044" lon="-1.43853">
        <ele>51</ele>
        <time>2021-03-06T15:04:52.000Z</time>
      </trkpt>
      <trkpt lat="47.26032" lon="-1.43867">
        <ele>52</ele>
        <time>2021-03-06T15:04:54.000Z</time>
      </trkpt>
      <trkpt lat="47.26021" lon="-1.43878">
        <ele>52</ele>
        <time>2021-03-06T15:04:56.000Z</time>
      </trkpt>
      <trkpt lat="47.26009" lon="-1.4389">
        <ele>52</ele>
        <time>2021-03-06T15:04:58.000Z</time>
      </trkpt>
      <trkpt lat="47.25999" lon="-1.43905">
        <ele>52</ele>
        <time>2021-03-06T15:05:00.000Z</time>
      </trkpt>
      <trkpt lat="47.25981" lon="-1.43922">
        <ele>53</ele>
        <time>2021-03-06T15:05:03.000Z</time>
      </trkpt>
      <trkpt lat="47.25973" lon="-1.43932">
        <ele>49</ele>
        <time>2021-03-06T15:05:05.000Z</time>
      </trkpt>
      <trkpt lat="47.2596" lon="-1.43949">
        <ele>47</ele>
        <time>2021-03-06T15:05:08.000Z</time>
      </trkpt>
      <trkpt lat="47.25947" lon="-1.43963">
        <ele>48</ele>
        <time>2021-03-06T15:05:10.000Z</time>
      </trkpt>
      <trkpt lat="47.25935" lon="-1.43978">
        <ele>48</ele>
        <time>2021-03-06T15:05:12.000Z</time>
      </trkpt>
      <trkpt lat="47.25925" lon="-1.43993">
        <ele>46</ele>
        <time>2021-03-06T15:05:14.000Z</time>
      </trkpt>
      <trkpt lat="47.25913" lon="-1.44007">
        <ele>47</ele>
        <time>2021-03-06T15:05:16.000Z</time>
      </trkpt>
      <trkpt lat="47.259" lon="-1.4402">
        <ele>48</ele>
        <time>2021-03-06T15:05:18.000Z</time>
      </trkpt>
      <trkpt lat="47.25888" lon="-1.44033">
        <ele>48</ele>
        <time>2021-03-06T15:05:20.000Z</time>
      </trkpt>
      <trkpt lat="47.2588" lon="-1.44051">
        <ele>50</ele>
        <time>2021-03-06T15:05:22.000Z</time>
      </trkpt>
      <trkpt lat="47.25873" lon="-1.44072">
        <ele>51</ele>
        <time>2021-03-06T15:05:24.000Z</time>
      </trkpt>
      <trkpt lat="47.25865" lon="-1.44088">
        <ele>50</ele>
        <time>2021-03-06T15:05:26.000Z</time>
      </trkpt>
      <trkpt lat="47.25854" lon="-1.44102">
        <ele>51</ele>
        <time>2021-03-06T15:05:28.000Z</time>
      </trkpt>
      <trkpt lat="47.25839" lon="-1.44115">
        <ele>52</ele>
        <time>2021-03-06T15:05:30.000Z</time>
      </trkpt>
      <trkpt lat="47.25827" lon="-1.4413">
        <ele>52</ele>
        <time>2021-03-06T15:05:32.000Z</time>
      </trkpt>
      <trkpt lat="47.25815" lon="-1.44143">
        <ele>52</ele>
        <time>2021-03-06T15:05:34.000Z</time>
      </trkpt>
      <trkpt lat="47.25803" lon="-1.44156">
        <ele>53</ele>
        <time>2021-03-06T15:05:36.000Z</time>
      </trkpt>
      <trkpt lat="47.25791" lon="-1.44169">
        <ele>53</ele>
        <time>2021-03-06T15:05:38.000Z</time>
      </trkpt>
      <trkpt lat="47.2578" lon="-1.44183">
        <ele>53</ele>
        <time>2021-03-06T15:05:40.000Z</time>
      </trkpt>
      <trkpt lat="47.25769" lon="-1.44196">
        <ele>53</ele>
        <time>2021-03-06T15:05:42.000Z</time>
      </trkpt>
      <trkpt lat="47.25757" lon="-1.4421">
        <ele>52</ele>
        <time>2021-03-06T15:05:44.000Z</time>
      </trkpt>
      <trkpt lat="47.25746" lon="-1.44224">
        <ele>52</ele>
        <time>2021-03-06T15:05:46.000Z</time>
      </trkpt>
      <trkpt lat="47.25736" lon="-1.44238">
        <ele>53</ele>
        <time>2021-03-06T15:05:48.000Z</time>
      </trkpt>
      <trkpt lat="47.25728" lon="-1.4425">
        <ele>50</ele>
        <time>2021-03-06T15:05:50.000Z</time>
      </trkpt>
      <trkpt lat="47.2571" lon="-1.44271">
        <ele>51</ele>
        <time>2021-03-06T15:05:53.000Z</time>
      </trkpt>
      <trkpt lat="47.257" lon="-1.44285">
        <ele>49</ele>
        <time>2021-03-06T15:05:55.000Z</time>
      </trkpt>
      <trkpt lat="47.25688" lon="-1.44297">
        <ele>49</ele>
        <time>2021-03-06T15:05:57.000Z</time>
      </trkpt>
      <trkpt lat="47.25676" lon="-1.4431">
        <ele>48</ele>
        <time>2021-03-06T15:05:59.000Z</time>
      </trkpt>
      <trkpt lat="47.25665" lon="-1.44323">
        <ele>49</ele>
        <time>2021-03-06T15:06:01.000Z</time>
      </trkpt>
      <trkpt lat="47.25654" lon="-1.44335">
        <ele>50</ele>
        <time>2021-03-06T15:06:03.000Z</time>
      </trkpt>
      <trkpt lat="47.2564" lon="-1.44356">
        <ele>51</ele>
        <time>2021-03-06T15:06:06.000Z</time>
      </trkpt>
      <trkpt lat="47.25629" lon="-1.44367">
        <ele>52</ele>
        <time>2021-03-06T15:06:08.000Z</time>
      </trkpt>
      <trkpt lat="47.25613" lon="-1.44385">
        <ele>52</ele>
        <time>2021-03-06T15:06:11.000Z</time>
      </trkpt>
      <trkpt lat="47.25602" lon="-1.44398">
        <ele>53</ele>
        <time>2021-03-06T15:06:13.000Z</time>
      </trkpt>
      <trkpt lat="47.2559" lon="-1.44411">
        <ele>53</ele>
        <time>2021-03-06T15:06:15.000Z</time>
      </trkpt>
      <trkpt lat="47.25579" lon="-1.44426">
        <ele>53</ele>
        <time>2021-03-06T15:06:17.000Z</time>
      </trkpt>
      <trkpt lat="47.25568" lon="-1.4444">
        <ele>54</ele>
        <time>2021-03-06T15:06:19.000Z</time>
      </trkpt>
      <trkpt lat="47.25558" lon="-1.44453">
        <ele>54</ele>
        <time>2021-03-06T15:06:21.000Z</time>
      </trkpt>
      <trkpt lat="47.25548" lon="-1.44469">
        <ele>54</ele>
        <time>2021-03-06T15:06:23.000Z</time>
      </trkpt>
      <trkpt lat="47.25538" lon="-1.44483">
        <ele>54</ele>
        <time>2021-03-06T15:06:25.000Z</time>
      </trkpt>
      <trkpt lat="47.25529" lon="-1.44497">
        <ele>51</ele>
        <time>2021-03-06T15:06:27.000Z</time>
      </trkpt>
      <trkpt lat="47.25519" lon="-1.44511">
        <ele>52</ele>
        <time>2021-03-06T15:06:29.000Z</time>
      </trkpt>
      <trkpt lat="47.25511" lon="-1.44526">
        <ele>52</ele>
        <time>2021-03-06T15:06:31.000Z</time>
      </trkpt>
      <trkpt lat="47.25498" lon="-1.4454">
        <ele>53</ele>
        <time>2021-03-06T15:06:33.000Z</time>
      </trkpt>
      <trkpt lat="47.25487" lon="-1.44554">
        <ele>53</ele>
        <time>2021-03-06T15:06:35.000Z</time>
      </trkpt>
      <trkpt lat="47.25471" lon="-1.44578">
        <ele>54</ele>
        <time>2021-03-06T15:06:38.000Z</time>
      </trkpt>
      <trkpt lat="47.2546" lon="-1.44593">
        <ele>54</ele>
        <time>2021-03-06T15:06:40.000Z</time>
      </trkpt>
      <trkpt lat="47.25447" lon="-1.44614">
        <ele>52</ele>
        <time>2021-03-06T15:06:43.000Z</time>
      </trkpt>
      <trkpt lat="47.25439" lon="-1.44628">
        <ele>52</ele>
        <time>2021-03-06T15:06:45.000Z</time>
      </trkpt>
      <trkpt lat="47.25426" lon="-1.4465">
        <ele>51</ele>
        <time>2021-03-06T15:06:48.000Z</time>
      </trkpt>
      <trkpt lat="47.25409" lon="-1.44671">
        <ele>48</ele>
        <time>2021-03-06T15:06:51.000Z</time>
      </trkpt>
      <trkpt lat="47.25398" lon="-1.44684">
        <ele>48</ele>
        <time>2021-03-06T15:06:53.000Z</time>
      </trkpt>
      <trkpt lat="47.25386" lon="-1.44697">
        <ele>49</ele>
        <time>2021-03-06T15:06:55.000Z</time>
      </trkpt>
      <trkpt lat="47.25374" lon="-1.4471">
        <ele>49</ele>
        <time>2021-03-06T15:06:57.000Z</time>
      </trkpt>
      <trkpt lat="47.25363" lon="-1.44723">
        <ele>51</ele>
        <time>2021-03-06T15:06:59.000Z</time>
      </trkpt>
      <trkpt lat="47.25352" lon="-1.44734">
        <ele>51</ele>
        <time>2021-03-06T15:07:01.000Z</time>
      </trkpt>
      <trkpt lat="47.2534" lon="-1.44748">
        <ele>49</ele>
        <time>2021-03-06T15:07:03.000Z</time>
      </trkpt>
      <trkpt lat="47.25324" lon="-1.44766">
        <ele>47</ele>
        <time>2021-03-06T15:07:06.000Z</time>
      </trkpt>
      <trkpt lat="47.25314" lon="-1.44779">
        <ele>48</ele>
        <time>2021-03-06T15:07:08.000Z</time>
      </trkpt>
      <trkpt lat="47.25302" lon="-1.44789">
        <ele>50</ele>
        <time>2021-03-06T15:07:10.000Z</time>
      </trkpt>
      <trkpt lat="47.25286" lon="-1.44805">
        <ele>52</ele>
        <time>2021-03-06T15:07:13.000Z</time>
      </trkpt>
      <trkpt lat="47.25276" lon="-1.44817">
        <ele>52</ele>
        <time>2021-03-06T15:07:15.000Z</time>
      </trkpt>
      <trkpt lat="47.25267" lon="-1.44837">
        <ele>50</ele>
        <time>2021-03-06T15:07:17.000Z</time>
      </trkpt>
      <trkpt lat="47.25255" lon="-1.44849">
        <ele>51</ele>
        <time>2021-03-06T15:07:19.000Z</time>
      </trkpt>
      <trkpt lat="47.25236" lon="-1.44863">
        <ele>48</ele>
        <time>2021-03-06T15:07:22.000Z</time>
      </trkpt>
      <trkpt lat="47.25225" lon="-1.44872">
        <ele>49</ele>
        <time>2021-03-06T15:07:24.000Z</time>
      </trkpt>
      <trkpt lat="47.25213" lon="-1.44881">
        <ele>50</ele>
        <time>2021-03-06T15:07:26.000Z</time>
      </trkpt>
      <trkpt lat="47.25195" lon="-1.44895">
        <ele>50</ele>
        <time>2021-03-06T15:07:29.000Z</time>
      </trkpt>
      <trkpt lat="47.25183" lon="-1.44903">
        <ele>51</ele>
        <time>2021-03-06T15:07:31.000Z</time>
      </trkpt>
      <trkpt lat="47.25171" lon="-1.44916">
        <ele>51</ele>
        <time>2021-03-06T15:07:33.000Z</time>
      </trkpt>
      <trkpt lat="47.25159" lon="-1.44928">
        <ele>51</ele>
        <time>2021-03-06T15:07:35.000Z</time>
      </trkpt>
      <trkpt lat="47.25147" lon="-1.4494">
        <ele>52</ele>
        <time>2021-03-06T15:07:37.000Z</time>
      </trkpt>
      <trkpt lat="47.2513" lon="-1.44955">
        <ele>54</ele>
        <time>2021-03-06T15:07:40.000Z</time>
      </trkpt>
      <trkpt lat="47.25118" lon="-1.44967">
        <ele>51</ele>
        <time>2021-03-06T15:07:42.000Z</time>
      </trkpt>
      <trkpt lat="47.25101" lon="-1.44983">
        <ele>52</ele>
        <time>2021-03-06T15:07:45.000Z</time>
      </trkpt>
      <trkpt lat="47.2509" lon="-1.44994">
        <ele>53</ele>
        <time>2021-03-06T15:07:47.000Z</time>
      </trkpt>
      <trkpt lat="47.25078" lon="-1.45004">
        <ele>53</ele>
        <time>2021-03-06T15:07:49.000Z</time>
      </trkpt>
      <trkpt lat="47.25066" lon="-1.45014">
        <ele>54</ele>
        <time>2021-03-06T15:07:51.000Z</time>
      </trkpt>
      <trkpt lat="47.25054" lon="-1.45023">
        <ele>55</ele>
        <time>2021-03-06T15:07:53.000Z</time>
      </trkpt>
      <trkpt lat="47.25041" lon="-1.45033">
        <ele>55</ele>
        <time>2021-03-06T15:07:55.000Z</time>
      </trkpt>
      <trkpt lat="47.25023" lon="-1.45048">
        <ele>55</ele>
        <time>2021-03-06T15:07:58.000Z</time>
      </trkpt>
      <trkpt lat="47.25011" lon="-1.45061">
        <ele>53</ele>
        <time>2021-03-06T15:08:00.000Z</time>
      </trkpt>
      <trkpt lat="47.24999" lon="-1.45073">
        <ele>53</ele>
        <time>2021-03-06T15:08:02.000Z</time>
      </trkpt>
      <trkpt lat="47.24988" lon="-1.45084">
        <ele>52</ele>
        <time>2021-03-06T15:08:04.000Z</time>
      </trkpt>
      <trkpt lat="47.24978" lon="-1.45096">
        <ele>50</ele>
        <time>2021-03-06T15:08:06.000Z</time>
      </trkpt>
      <trkpt lat="47.24967" lon="-1.45106">
        <ele>51</ele>
        <time>2021-03-06T15:08:08.000Z</time>
      </trkpt>
      <trkpt lat="47.24956" lon="-1.45117">
        <ele>51</ele>
        <time>2021-03-06T15:08:10.000Z</time>
      </trkpt>
      <trkpt lat="47.24944" lon="-1.45129">
        <ele>51</ele>
        <time>2021-03-06T15:08:12.000Z</time>
      </trkpt>
      <trkpt lat="47.24934" lon="-1.45141">
        <ele>49</ele>
        <time>2021-03-06T15:08:14.000Z</time>
      </trkpt>
      <trkpt lat="47.24924" lon="-1.45152">
        <ele>48</ele>
        <time>2021-03-06T15:08:16.000Z</time>
      </trkpt>
      <trkpt lat="47.24906" lon="-1.45169">
        <ele>49</ele>
        <time>2021-03-06T15:08:19.000Z</time>
      </trkpt>
      <trkpt lat="47.24892" lon="-1.45186">
        <ele>49</ele>
        <time>2021-03-06T15:08:22.000Z</time>
      </trkpt>
      <trkpt lat="47.24887" lon="-1.45197">
        <ele>47</ele>
        <time>2021-03-06T15:08:24.000Z</time>
      </trkpt>
      <trkpt lat="47.2488" lon="-1.4521">
        <ele>48</ele>
        <time>2021-03-06T15:08:26.000Z</time>
      </trkpt>
      <trkpt lat="47.24867" lon="-1.4523">
        <ele>46</ele>
        <time>2021-03-06T15:08:29.000Z</time>
      </trkpt>
      <trkpt lat="47.24858" lon="-1.45244">
        <ele>45</ele>
        <time>2021-03-06T15:08:31.000Z</time>
      </trkpt>
      <trkpt lat="47.24847" lon="-1.45259">
        <ele>46</ele>
        <time>2021-03-06T15:08:33.000Z</time>
      </trkpt>
      <trkpt lat="47.24837" lon="-1.45274">
        <ele>45</ele>
        <time>2021-03-06T15:08:35.000Z</time>
      </trkpt>
      <trkpt lat="47.24829" lon="-1.45288">
        <ele>45</ele>
        <time>2021-03-06T15:08:37.000Z</time>
      </trkpt>
      <trkpt lat="47.24821" lon="-1.45304">
        <ele>46</ele>
        <time>2021-03-06T15:08:39.000Z</time>
      </trkpt>
      <trkpt lat="47.24813" lon="-1.45321">
        <ele>47</ele>
        <time>2021-03-06T15:08:41.000Z</time>
      </trkpt>
      <trkpt lat="47.24805" lon="-1.45345">
        <ele>46</ele>
        <time>2021-03-06T15:08:44.000Z</time>
      </trkpt>
      <trkpt lat="47.24798" lon="-1.45363">
        <ele>48</ele>
        <time>2021-03-06T15:08:46.000Z</time>
      </trkpt>
      <trkpt lat="47.24791" lon="-1.45381">
        <ele>49</ele>
        <time>2021-03-06T15:08:48.000Z</time>
      </trkpt>
      <trkpt lat="47.24782" lon="-1.45399">
        <ele>50</ele>
        <time>2021-03-06T15:08:50.000Z</time>
      </trkpt>
      <trkpt lat="47.24768" lon="-1.45432">
        <ele>47</ele>
        <time>2021-03-06T15:08:54.000Z</time>
      </trkpt>
      <trkpt lat="47.24762" lon="-1.4545">
        <ele>46</ele>
        <time>2021-03-06T15:08:56.000Z</time>
      </trkpt>
      <trkpt lat="47.24752" lon="-1.45475">
        <ele>48</ele>
        <time>2021-03-06T15:08:59.000Z</time>
      </trkpt>
      <trkpt lat="47.24744" lon="-1.45492">
        <ele>49</ele>
        <time>2021-03-06T15:09:01.000Z</time>
      </trkpt>
      <trkpt lat="47.24735" lon="-1.4551">
        <ele>50</ele>
        <time>2021-03-06T15:09:03.000Z</time>
      </trkpt>
      <trkpt lat="47.24727" lon="-1.45529">
        <ele>52</ele>
        <time>2021-03-06T15:09:05.000Z</time>
      </trkpt>
      <trkpt lat="47.2472" lon="-1.45548">
        <ele>52</ele>
        <time>2021-03-06T15:09:07.000Z</time>
      </trkpt>
      <trkpt lat="47.24711" lon="-1.45575">
        <ele>53</ele>
        <time>2021-03-06T15:09:10.000Z</time>
      </trkpt>
      <trkpt lat="47.24706" lon="-1.45593">
        <ele>53</ele>
        <time>2021-03-06T15:09:12.000Z</time>
      </trkpt>
      <trkpt lat="47.24701" lon="-1.45611">
        <ele>53</ele>
        <time>2021-03-06T15:09:14.000Z</time>
      </trkpt>
      <trkpt lat="47.24696" lon="-1.45627">
        <ele>53</ele>
        <time>2021-03-06T15:09:16.000Z</time>
      </trkpt>
      <trkpt lat="47.24692" lon="-1.4564">
        <ele>54</ele>
        <time>2021-03-06T15:09:18.000Z</time>
      </trkpt>
      <trkpt lat="47.24687" lon="-1.45654">
        <ele>54</ele>
        <time>2021-03-06T15:09:21.000Z</time>
      </trkpt>
      <trkpt lat="47.24684" lon="-1.45668">
        <ele>54</ele>
        <time>2021-03-06T15:09:24.000Z</time>
      </trkpt>
      <trkpt lat="47.24679" lon="-1.45692">
        <ele>54</ele>
        <time>2021-03-06T15:09:28.000Z</time>
      </trkpt>
      <trkpt lat="47.24674" lon="-1.45708">
        <ele>53</ele>
        <time>2021-03-06T15:09:30.000Z</time>
      </trkpt>
      <trkpt lat="47.24669" lon="-1.4573">
        <ele>53</ele>
        <time>2021-03-06T15:09:32.000Z</time>
      </trkpt>
      <trkpt lat="47.24664" lon="-1.45755">
        <ele>52</ele>
        <time>2021-03-06T15:09:34.000Z</time>
      </trkpt>
      <trkpt lat="47.24655" lon="-1.45787">
        <ele>51</ele>
        <time>2021-03-06T15:09:37.000Z</time>
      </trkpt>
      <trkpt lat="47.24649" lon="-1.45808">
        <ele>50</ele>
        <time>2021-03-06T15:09:39.000Z</time>
      </trkpt>
      <trkpt lat="47.24642" lon="-1.45829">
        <ele>50</ele>
        <time>2021-03-06T15:09:41.000Z</time>
      </trkpt>
      <trkpt lat="47.24636" lon="-1.45849">
        <ele>51</ele>
        <time>2021-03-06T15:09:43.000Z</time>
      </trkpt>
      <trkpt lat="47.24631" lon="-1.45868">
        <ele>51</ele>
        <time>2021-03-06T15:09:45.000Z</time>
      </trkpt>
      <trkpt lat="47.24628" lon="-1.45887">
        <ele>51</ele>
        <time>2021-03-06T15:09:47.000Z</time>
      </trkpt>
      <trkpt lat="47.24622" lon="-1.45905">
        <ele>51</ele>
        <time>2021-03-06T15:09:49.000Z</time>
      </trkpt>
      <trkpt lat="47.24616" lon="-1.45921">
        <ele>50</ele>
        <time>2021-03-06T15:09:51.000Z</time>
      </trkpt>
      <trkpt lat="47.24602" lon="-1.45951">
        <ele>50</ele>
        <time>2021-03-06T15:09:54.000Z</time>
      </trkpt>
      <trkpt lat="47.24593" lon="-1.45973">
        <ele>50</ele>
        <time>2021-03-06T15:09:56.000Z</time>
      </trkpt>
      <trkpt lat="47.24584" lon="-1.45994">
        <ele>50</ele>
        <time>2021-03-06T15:09:58.000Z</time>
      </trkpt>
      <trkpt lat="47.24578" lon="-1.46005">
        <ele>50</ele>
        <time>2021-03-06T15:09:59.000Z</time>
      </trkpt>
      <trkpt lat="47.24572" lon="-1.46015">
        <ele>50</ele>
        <time>2021-03-06T15:10:00.000Z</time>
      </trkpt>
      <trkpt lat="47.24561" lon="-1.46035">
        <ele>50</ele>
        <time>2021-03-06T15:10:02.000Z</time>
      </trkpt>
      <trkpt lat="47.24551" lon="-1.46054">
        <ele>50</ele>
        <time>2021-03-06T15:10:04.000Z</time>
      </trkpt>
      <trkpt lat="47.24541" lon="-1.46075">
        <ele>47</ele>
        <time>2021-03-06T15:10:06.000Z</time>
      </trkpt>
      <trkpt lat="47.24533" lon="-1.4609">
        <ele>47</ele>
        <time>2021-03-06T15:10:08.000Z</time>
      </trkpt>
      <trkpt lat="47.24522" lon="-1.46103">
        <ele>49</ele>
        <time>2021-03-06T15:10:10.000Z</time>
      </trkpt>
      <trkpt lat="47.24509" lon="-1.46117">
        <ele>50</ele>
        <time>2021-03-06T15:10:12.000Z</time>
      </trkpt>
      <trkpt lat="47.24497" lon="-1.46133">
        <ele>50</ele>
        <time>2021-03-06T15:10:14.000Z</time>
      </trkpt>
      <trkpt lat="47.24485" lon="-1.46148">
        <ele>51</ele>
        <time>2021-03-06T15:10:16.000Z</time>
      </trkpt>
      <trkpt lat="47.24465" lon="-1.46169">
        <ele>49</ele>
        <time>2021-03-06T15:10:19.000Z</time>
      </trkpt>
      <trkpt lat="47.24456" lon="-1.46185">
        <ele>50</ele>
        <time>2021-03-06T15:10:21.000Z</time>
      </trkpt>
      <trkpt lat="47.24445" lon="-1.46198">
        <ele>52</ele>
        <time>2021-03-06T15:10:23.000Z</time>
      </trkpt>
      <trkpt lat="47.24434" lon="-1.46213">
        <ele>52</ele>
        <time>2021-03-06T15:10:25.000Z</time>
      </trkpt>
      <trkpt lat="47.24421" lon="-1.46234">
        <ele>49</ele>
        <time>2021-03-06T15:10:28.000Z</time>
      </trkpt>
      <trkpt lat="47.24404" lon="-1.46257">
        <ele>51</ele>
        <time>2021-03-06T15:10:31.000Z</time>
      </trkpt>
      <trkpt lat="47.24389" lon="-1.4628">
        <ele>52</ele>
        <time>2021-03-06T15:10:34.000Z</time>
      </trkpt>
      <trkpt lat="47.24378" lon="-1.46295">
        <ele>53</ele>
        <time>2021-03-06T15:10:36.000Z</time>
      </trkpt>
      <trkpt lat="47.24369" lon="-1.46309">
        <ele>54</ele>
        <time>2021-03-06T15:10:38.000Z</time>
      </trkpt>
      <trkpt lat="47.24359" lon="-1.46325">
        <ele>54</ele>
        <time>2021-03-06T15:10:40.000Z</time>
      </trkpt>
      <trkpt lat="47.24349" lon="-1.46341">
        <ele>54</ele>
        <time>2021-03-06T15:10:42.000Z</time>
      </trkpt>
      <trkpt lat="47.24336" lon="-1.46364">
        <ele>54</ele>
        <time>2021-03-06T15:10:45.000Z</time>
      </trkpt>
      <trkpt lat="47.24326" lon="-1.46381">
        <ele>55</ele>
        <time>2021-03-06T15:10:47.000Z</time>
      </trkpt>
      <trkpt lat="47.24316" lon="-1.46397">
        <ele>54</ele>
        <time>2021-03-06T15:10:49.000Z</time>
      </trkpt>
      <trkpt lat="47.24307" lon="-1.46413">
        <ele>55</ele>
        <time>2021-03-06T15:10:51.000Z</time>
      </trkpt>
      <trkpt lat="47.24293" lon="-1.46438">
        <ele>56</ele>
        <time>2021-03-06T15:10:54.000Z</time>
      </trkpt>
      <trkpt lat="47.24276" lon="-1.4646">
        <ele>57</ele>
        <time>2021-03-06T15:10:57.000Z</time>
      </trkpt>
      <trkpt lat="47.24266" lon="-1.46473">
        <ele>57</ele>
        <time>2021-03-06T15:10:59.000Z</time>
      </trkpt>
      <trkpt lat="47.24255" lon="-1.46487">
        <ele>56</ele>
        <time>2021-03-06T15:11:01.000Z</time>
      </trkpt>
      <trkpt lat="47.24244" lon="-1.465">
        <ele>55</ele>
        <time>2021-03-06T15:11:03.000Z</time>
      </trkpt>
      <trkpt lat="47.24234" lon="-1.46513">
        <ele>56</ele>
        <time>2021-03-06T15:11:05.000Z</time>
      </trkpt>
      <trkpt lat="47.24218" lon="-1.46533">
        <ele>56</ele>
        <time>2021-03-06T15:11:08.000Z</time>
      </trkpt>
      <trkpt lat="47.24207" lon="-1.46546">
        <ele>56</ele>
        <time>2021-03-06T15:11:10.000Z</time>
      </trkpt>
      <trkpt lat="47.24198" lon="-1.46557">
        <ele>53</ele>
        <time>2021-03-06T15:11:12.000Z</time>
      </trkpt>
      <trkpt lat="47.24187" lon="-1.46571">
        <ele>54</ele>
        <time>2021-03-06T15:11:14.000Z</time>
      </trkpt>
      <trkpt lat="47.24176" lon="-1.46585">
        <ele>54</ele>
        <time>2021-03-06T15:11:16.000Z</time>
      </trkpt>
      <trkpt lat="47.24165" lon="-1.46598">
        <ele>54</ele>
        <time>2021-03-06T15:11:18.000Z</time>
      </trkpt>
      <trkpt lat="47.24154" lon="-1.46609">
        <ele>53</ele>
        <time>2021-03-06T15:11:20.000Z</time>
      </trkpt>
      <trkpt lat="47.24142" lon="-1.46621">
        <ele>53</ele>
        <time>2021-03-06T15:11:22.000Z</time>
      </trkpt>
      <trkpt lat="47.24132" lon="-1.46637">
        <ele>53</ele>
        <time>2021-03-06T15:11:24.000Z</time>
      </trkpt>
      <trkpt lat="47.24123" lon="-1.46653">
        <ele>53</ele>
        <time>2021-03-06T15:11:26.000Z</time>
      </trkpt>
      <trkpt lat="47.24113" lon="-1.46668">
        <ele>54</ele>
        <time>2021-03-06T15:11:28.000Z</time>
      </trkpt>
      <trkpt lat="47.24098" lon="-1.46689">
        <ele>55</ele>
        <time>2021-03-06T15:11:31.000Z</time>
      </trkpt>
      <trkpt lat="47.24089" lon="-1.46703">
        <ele>54</ele>
        <time>2021-03-06T15:11:33.000Z</time>
      </trkpt>
      <trkpt lat="47.24082" lon="-1.46718">
        <ele>54</ele>
        <time>2021-03-06T15:11:35.000Z</time>
      </trkpt>
      <trkpt lat="47.24075" lon="-1.46734">
        <ele>54</ele>
        <time>2021-03-06T15:11:37.000Z</time>
      </trkpt>
      <trkpt lat="47.24065" lon="-1.46748">
        <ele>53</ele>
        <time>2021-03-06T15:11:39.000Z</time>
      </trkpt>
      <trkpt lat="47.24053" lon="-1.46758">
        <ele>53</ele>
        <time>2021-03-06T15:11:41.000Z</time>
      </trkpt>
      <trkpt lat="47.2404" lon="-1.46768">
        <ele>54</ele>
        <time>2021-03-06T15:11:43.000Z</time>
      </trkpt>
      <trkpt lat="47.24028" lon="-1.46779">
        <ele>54</ele>
        <time>2021-03-06T15:11:45.000Z</time>
      </trkpt>
      <trkpt lat="47.24017" lon="-1.46793">
        <ele>55</ele>
        <time>2021-03-06T15:11:47.000Z</time>
      </trkpt>
      <trkpt lat="47.24006" lon="-1.46804">
        <ele>56</ele>
        <time>2021-03-06T15:11:49.000Z</time>
      </trkpt>
      <trkpt lat="47.23994" lon="-1.46817">
        <ele>56</ele>
        <time>2021-03-06T15:11:51.000Z</time>
      </trkpt>
      <trkpt lat="47.23982" lon="-1.46829">
        <ele>56</ele>
        <time>2021-03-06T15:11:53.000Z</time>
      </trkpt>
      <trkpt lat="47.23971" lon="-1.46841">
        <ele>56</ele>
        <time>2021-03-06T15:11:55.000Z</time>
      </trkpt>
      <trkpt lat="47.23959" lon="-1.46856">
        <ele>55</ele>
        <time>2021-03-06T15:11:57.000Z</time>
      </trkpt>
      <trkpt lat="47.23948" lon="-1.46871">
        <ele>54</ele>
        <time>2021-03-06T15:11:59.000Z</time>
      </trkpt>
      <trkpt lat="47.23936" lon="-1.46878">
        <ele>54</ele>
        <time>2021-03-06T15:12:01.000Z</time>
      </trkpt>
      <trkpt lat="47.23924" lon="-1.46888">
        <ele>55</ele>
        <time>2021-03-06T15:12:03.000Z</time>
      </trkpt>
      <trkpt lat="47.23908" lon="-1.46908">
        <ele>54</ele>
        <time>2021-03-06T15:12:06.000Z</time>
      </trkpt>
      <trkpt lat="47.23898" lon="-1.46923">
        <ele>55</ele>
        <time>2021-03-06T15:12:08.000Z</time>
      </trkpt>
      <trkpt lat="47.23881" lon="-1.46944">
        <ele>54</ele>
        <time>2021-03-06T15:12:11.000Z</time>
      </trkpt>
      <trkpt lat="47.23867" lon="-1.46962">
        <ele>54</ele>
        <time>2021-03-06T15:12:13.000Z</time>
      </trkpt>
      <trkpt lat="47.23853" lon="-1.46976">
        <ele>54</ele>
        <time>2021-03-06T15:12:15.000Z</time>
      </trkpt>
      <trkpt lat="47.23842" lon="-1.46992">
        <ele>53</ele>
        <time>2021-03-06T15:12:17.000Z</time>
      </trkpt>
      <trkpt lat="47.2383" lon="-1.4701">
        <ele>52</ele>
        <time>2021-03-06T15:12:19.000Z</time>
      </trkpt>
      <trkpt lat="47.23819" lon="-1.47027">
        <ele>52</ele>
        <time>2021-03-06T15:12:21.000Z</time>
      </trkpt>
      <trkpt lat="47.23808" lon="-1.47043">
        <ele>53</ele>
        <time>2021-03-06T15:12:23.000Z</time>
      </trkpt>
      <trkpt lat="47.23796" lon="-1.47062">
        <ele>50</ele>
        <time>2021-03-06T15:12:25.000Z</time>
      </trkpt>
      <trkpt lat="47.23785" lon="-1.47079">
        <ele>51</ele>
        <time>2021-03-06T15:12:27.000Z</time>
      </trkpt>
      <trkpt lat="47.23773" lon="-1.47093">
        <ele>51</ele>
        <time>2021-03-06T15:12:29.000Z</time>
      </trkpt>
      <trkpt lat="47.23762" lon="-1.47108">
        <ele>52</ele>
        <time>2021-03-06T15:12:31.000Z</time>
      </trkpt>
      <trkpt lat="47.2375" lon="-1.47125">
        <ele>52</ele>
        <time>2021-03-06T15:12:33.000Z</time>
      </trkpt>
      <trkpt lat="47.23735" lon="-1.47142">
        <ele>52</ele>
        <time>2021-03-06T15:12:35.000Z</time>
      </trkpt>
      <trkpt lat="47.23728" lon="-1.47151">
        <ele>52</ele>
        <time>2021-03-06T15:12:36.000Z</time>
      </trkpt>
      <trkpt lat="47.2372" lon="-1.47159">
        <ele>52</ele>
        <time>2021-03-06T15:12:37.000Z</time>
      </trkpt>
      <trkpt lat="47.23707" lon="-1.47177">
        <ele>53</ele>
        <time>2021-03-06T15:12:39.000Z</time>
      </trkpt>
      <trkpt lat="47.237" lon="-1.47185">
        <ele>53</ele>
        <time>2021-03-06T15:12:40.000Z</time>
      </trkpt>
      <trkpt lat="47.2369" lon="-1.47201">
        <ele>53</ele>
        <time>2021-03-06T15:12:42.000Z</time>
      </trkpt>
      <trkpt lat="47.23675" lon="-1.4723">
        <ele>53</ele>
        <time>2021-03-06T15:12:45.000Z</time>
      </trkpt>
      <trkpt lat="47.2366" lon="-1.47246">
        <ele>54</ele>
        <time>2021-03-06T15:12:47.000Z</time>
      </trkpt>
      <trkpt lat="47.23653" lon="-1.47254">
        <ele>54</ele>
        <time>2021-03-06T15:12:48.000Z</time>
      </trkpt>
      <trkpt lat="47.23645" lon="-1.47262">
        <ele>55</ele>
        <time>2021-03-06T15:12:49.000Z</time>
      </trkpt>
      <trkpt lat="47.23637" lon="-1.4727">
        <ele>55</ele>
        <time>2021-03-06T15:12:50.000Z</time>
      </trkpt>
      <trkpt lat="47.23622" lon="-1.47287">
        <ele>54</ele>
        <time>2021-03-06T15:12:52.000Z</time>
      </trkpt>
      <trkpt lat="47.23614" lon="-1.47295">
        <ele>54</ele>
        <time>2021-03-06T15:12:53.000Z</time>
      </trkpt>
      <trkpt lat="47.23601" lon="-1.47312">
        <ele>54</ele>
        <time>2021-03-06T15:12:55.000Z</time>
      </trkpt>
      <trkpt lat="47.23587" lon="-1.47327">
        <ele>53</ele>
        <time>2021-03-06T15:12:57.000Z</time>
      </trkpt>
      <trkpt lat="47.23571" lon="-1.47338">
        <ele>54</ele>
        <time>2021-03-06T15:12:59.000Z</time>
      </trkpt>
      <trkpt lat="47.23563" lon="-1.47344">
        <ele>53</ele>
        <time>2021-03-06T15:13:00.000Z</time>
      </trkpt>
      <trkpt lat="47.23548" lon="-1.47357">
        <ele>54</ele>
        <time>2021-03-06T15:13:02.000Z</time>
      </trkpt>
      <trkpt lat="47.23533" lon="-1.47369">
        <ele>54</ele>
        <time>2021-03-06T15:13:04.000Z</time>
      </trkpt>
      <trkpt lat="47.2352" lon="-1.47381">
        <ele>52</ele>
        <time>2021-03-06T15:13:06.000Z</time>
      </trkpt>
      <trkpt lat="47.23498" lon="-1.47397">
        <ele>53</ele>
        <time>2021-03-06T15:13:09.000Z</time>
      </trkpt>
      <trkpt lat="47.23482" lon="-1.47405">
        <ele>54</ele>
        <time>2021-03-06T15:13:11.000Z</time>
      </trkpt>
      <trkpt lat="47.23467" lon="-1.47412">
        <ele>53</ele>
        <time>2021-03-06T15:13:13.000Z</time>
      </trkpt>
      <trkpt lat="47.23453" lon="-1.47419">
        <ele>53</ele>
        <time>2021-03-06T15:13:15.000Z</time>
      </trkpt>
      <trkpt lat="47.23439" lon="-1.47425">
        <ele>54</ele>
        <time>2021-03-06T15:13:17.000Z</time>
      </trkpt>
      <trkpt lat="47.23426" lon="-1.47431">
        <ele>54</ele>
        <time>2021-03-06T15:13:19.000Z</time>
      </trkpt>
      <trkpt lat="47.23412" lon="-1.4744">
        <ele>54</ele>
        <time>2021-03-06T15:13:21.000Z</time>
      </trkpt>
      <trkpt lat="47.23399" lon="-1.47457">
        <ele>53</ele>
        <time>2021-03-06T15:13:23.000Z</time>
      </trkpt>
      <trkpt lat="47.23383" lon="-1.47463">
        <ele>53</ele>
        <time>2021-03-06T15:13:25.000Z</time>
      </trkpt>
      <trkpt lat="47.23367" lon="-1.47469">
        <ele>53</ele>
        <time>2021-03-06T15:13:27.000Z</time>
      </trkpt>
      <trkpt lat="47.23352" lon="-1.47474">
        <ele>53</ele>
        <time>2021-03-06T15:13:29.000Z</time>
      </trkpt>
      <trkpt lat="47.23337" lon="-1.47482">
        <ele>53</ele>
        <time>2021-03-06T15:13:31.000Z</time>
      </trkpt>
      <trkpt lat="47.23315" lon="-1.47496">
        <ele>53</ele>
        <time>2021-03-06T15:13:34.000Z</time>
      </trkpt>
      <trkpt lat="47.23302" lon="-1.47505">
        <ele>52</ele>
        <time>2021-03-06T15:13:36.000Z</time>
      </trkpt>
      <trkpt lat="47.2328" lon="-1.47518">
        <ele>51</ele>
        <time>2021-03-06T15:13:39.000Z</time>
      </trkpt>
      <trkpt lat="47.23267" lon="-1.47528">
        <ele>51</ele>
        <time>2021-03-06T15:13:41.000Z</time>
      </trkpt>
      <trkpt lat="47.23253" lon="-1.47554">
        <ele>51</ele>
        <time>2021-03-06T15:13:44.000Z</time>
      </trkpt>
      <trkpt lat="47.23245" lon="-1.47572">
        <ele>48</ele>
        <time>2021-03-06T15:13:46.000Z</time>
      </trkpt>
      <trkpt lat="47.2323" lon="-1.47599">
        <ele>47</ele>
        <time>2021-03-06T15:13:49.000Z</time>
      </trkpt>
      <trkpt lat="47.23221" lon="-1.47618">
        <ele>46</ele>
        <time>2021-03-06T15:13:51.000Z</time>
      </trkpt>
      <trkpt lat="47.23209" lon="-1.47643">
        <ele>49</ele>
        <time>2021-03-06T15:13:54.000Z</time>
      </trkpt>
      <trkpt lat="47.23201" lon="-1.47661">
        <ele>49</ele>
        <time>2021-03-06T15:13:56.000Z</time>
      </trkpt>
      <trkpt lat="47.23195" lon="-1.47679">
        <ele>49</ele>
        <time>2021-03-06T15:13:58.000Z</time>
      </trkpt>
      <trkpt lat="47.23186" lon="-1.47697">
        <ele>50</ele>
        <time>2021-03-06T15:14:00.000Z</time>
      </trkpt>
      <trkpt lat="47.23176" lon="-1.47718">
        <ele>51</ele>
        <time>2021-03-06T15:14:02.000Z</time>
      </trkpt>
      <trkpt lat="47.23167" lon="-1.47737">
        <ele>52</ele>
        <time>2021-03-06T15:14:04.000Z</time>
      </trkpt>
      <trkpt lat="47.23159" lon="-1.47757">
        <ele>53</ele>
        <time>2021-03-06T15:14:06.000Z</time>
      </trkpt>
      <trkpt lat="47.23152" lon="-1.47777">
        <ele>53</ele>
        <time>2021-03-06T15:14:08.000Z</time>
      </trkpt>
      <trkpt lat="47.23146" lon="-1.47796">
        <ele>53</ele>
        <time>2021-03-06T15:14:10.000Z</time>
      </trkpt>
      <trkpt lat="47.23141" lon="-1.47814">
        <ele>53</ele>
        <time>2021-03-06T15:14:12.000Z</time>
      </trkpt>
      <trkpt lat="47.23133" lon="-1.47831">
        <ele>52</ele>
        <time>2021-03-06T15:14:14.000Z</time>
      </trkpt>
      <trkpt lat="47.2312" lon="-1.47858">
        <ele>52</ele>
        <time>2021-03-06T15:14:17.000Z</time>
      </trkpt>
      <trkpt lat="47.23104" lon="-1.47882">
        <ele>53</ele>
        <time>2021-03-06T15:14:20.000Z</time>
      </trkpt>
      <trkpt lat="47.23093" lon="-1.47899">
        <ele>52</ele>
        <time>2021-03-06T15:14:22.000Z</time>
      </trkpt>
      <trkpt lat="47.23076" lon="-1.47923">
        <ele>52</ele>
        <time>2021-03-06T15:14:25.000Z</time>
      </trkpt>
      <trkpt lat="47.23067" lon="-1.47938">
        <ele>52</ele>
        <time>2021-03-06T15:14:27.000Z</time>
      </trkpt>
      <trkpt lat="47.2305" lon="-1.47954">
        <ele>50</ele>
        <time>2021-03-06T15:14:30.000Z</time>
      </trkpt>
      <trkpt lat="47.23041" lon="-1.47969">
        <ele>51</ele>
        <time>2021-03-06T15:14:32.000Z</time>
      </trkpt>
      <trkpt lat="47.23028" lon="-1.47985">
        <ele>53</ele>
        <time>2021-03-06T15:14:34.000Z</time>
      </trkpt>
      <trkpt lat="47.23018" lon="-1.48001">
        <ele>54</ele>
        <time>2021-03-06T15:14:36.000Z</time>
      </trkpt>
      <trkpt lat="47.23008" lon="-1.48017">
        <ele>54</ele>
        <time>2021-03-06T15:14:38.000Z</time>
      </trkpt>
      <trkpt lat="47.22998" lon="-1.48033">
        <ele>52</ele>
        <time>2021-03-06T15:14:40.000Z</time>
      </trkpt>
      <trkpt lat="47.22988" lon="-1.4805">
        <ele>51</ele>
        <time>2021-03-06T15:14:42.000Z</time>
      </trkpt>
      <trkpt lat="47.22978" lon="-1.48065">
        <ele>52</ele>
        <time>2021-03-06T15:14:44.000Z</time>
      </trkpt>
      <trkpt lat="47.22969" lon="-1.48079">
        <ele>53</ele>
        <time>2021-03-06T15:14:46.000Z</time>
      </trkpt>
      <trkpt lat="47.22961" lon="-1.48093">
        <ele>53</ele>
        <time>2021-03-06T15:14:48.000Z</time>
      </trkpt>
      <trkpt lat="47.22946" lon="-1.48112">
        <ele>52</ele>
        <time>2021-03-06T15:14:51.000Z</time>
      </trkpt>
      <trkpt lat="47.22929" lon="-1.48116">
        <ele>51</ele>
        <time>2021-03-06T15:14:53.000Z</time>
      </trkpt>
      <trkpt lat="47.22913" lon="-1.48119">
        <ele>48</ele>
        <time>2021-03-06T15:14:55.000Z</time>
      </trkpt>
      <trkpt lat="47.229" lon="-1.48129">
        <ele>49</ele>
        <time>2021-03-06T15:14:57.000Z</time>
      </trkpt>
      <trkpt lat="47.22883" lon="-1.48149">
        <ele>49</ele>
        <time>2021-03-06T15:15:00.000Z</time>
      </trkpt>
      <trkpt lat="47.22865" lon="-1.48169">
        <ele>47</ele>
        <time>2021-03-06T15:15:03.000Z</time>
      </trkpt>
      <trkpt lat="47.22857" lon="-1.48186">
        <ele>48</ele>
        <time>2021-03-06T15:15:05.000Z</time>
      </trkpt>
      <trkpt lat="47.22848" lon="-1.48203">
        <ele>49</ele>
        <time>2021-03-06T15:15:07.000Z</time>
      </trkpt>
      <trkpt lat="47.22834" lon="-1.48228">
        <ele>51</ele>
        <time>2021-03-06T15:15:10.000Z</time>
      </trkpt>
      <trkpt lat="47.22824" lon="-1.48244">
        <ele>52</ele>
        <time>2021-03-06T15:15:12.000Z</time>
      </trkpt>
      <trkpt lat="47.22814" lon="-1.4826">
        <ele>52</ele>
        <time>2021-03-06T15:15:14.000Z</time>
      </trkpt>
      <trkpt lat="47.22799" lon="-1.48285">
        <ele>51</ele>
        <time>2021-03-06T15:15:17.000Z</time>
      </trkpt>
      <trkpt lat="47.22792" lon="-1.483">
        <ele>50</ele>
        <time>2021-03-06T15:15:19.000Z</time>
      </trkpt>
      <trkpt lat="47.22783" lon="-1.48315">
        <ele>51</ele>
        <time>2021-03-06T15:15:21.000Z</time>
      </trkpt>
      <trkpt lat="47.22772" lon="-1.4833">
        <ele>51</ele>
        <time>2021-03-06T15:15:23.000Z</time>
      </trkpt>
      <trkpt lat="47.2276" lon="-1.48345">
        <ele>51</ele>
        <time>2021-03-06T15:15:25.000Z</time>
      </trkpt>
      <trkpt lat="47.2275" lon="-1.48359">
        <ele>49</ele>
        <time>2021-03-06T15:15:27.000Z</time>
      </trkpt>
      <trkpt lat="47.22735" lon="-1.48381">
        <ele>51</ele>
        <time>2021-03-06T15:15:30.000Z</time>
      </trkpt>
      <trkpt lat="47.22723" lon="-1.48396">
        <ele>52</ele>
        <time>2021-03-06T15:15:32.000Z</time>
      </trkpt>
      <trkpt lat="47.22711" lon="-1.48412">
        <ele>51</ele>
        <time>2021-03-06T15:15:34.000Z</time>
      </trkpt>
      <trkpt lat="47.22703" lon="-1.48431">
        <ele>51</ele>
        <time>2021-03-06T15:15:36.000Z</time>
      </trkpt>
      <trkpt lat="47.22696" lon="-1.48449">
        <ele>51</ele>
        <time>2021-03-06T15:15:38.000Z</time>
      </trkpt>
      <trkpt lat="47.2269" lon="-1.48467">
        <ele>51</ele>
        <time>2021-03-06T15:15:40.000Z</time>
      </trkpt>
      <trkpt lat="47.22682" lon="-1.48485">
        <ele>52</ele>
        <time>2021-03-06T15:15:42.000Z</time>
      </trkpt>
      <trkpt lat="47.22675" lon="-1.48502">
        <ele>52</ele>
        <time>2021-03-06T15:15:44.000Z</time>
      </trkpt>
      <trkpt lat="47.22669" lon="-1.48522">
        <ele>51</ele>
        <time>2021-03-06T15:15:46.000Z</time>
      </trkpt>
      <trkpt lat="47.22663" lon="-1.48541">
        <ele>51</ele>
        <time>2021-03-06T15:15:48.000Z</time>
      </trkpt>
      <trkpt lat="47.22656" lon="-1.4856">
        <ele>51</ele>
        <time>2021-03-06T15:15:50.000Z</time>
      </trkpt>
      <trkpt lat="47.22649" lon="-1.4858">
        <ele>51</ele>
        <time>2021-03-06T15:15:52.000Z</time>
      </trkpt>
      <trkpt lat="47.22642" lon="-1.48597">
        <ele>51</ele>
        <time>2021-03-06T15:15:54.000Z</time>
      </trkpt>
      <trkpt lat="47.22636" lon="-1.48622">
        <ele>47</ele>
        <time>2021-03-06T15:15:57.000Z</time>
      </trkpt>
      <trkpt lat="47.22629" lon="-1.48642">
        <ele>46</ele>
        <time>2021-03-06T15:15:59.000Z</time>
      </trkpt>
      <trkpt lat="47.22622" lon="-1.48661">
        <ele>46</ele>
        <time>2021-03-06T15:16:01.000Z</time>
      </trkpt>
      <trkpt lat="47.22616" lon="-1.48682">
        <ele>47</ele>
        <time>2021-03-06T15:16:03.000Z</time>
      </trkpt>
      <trkpt lat="47.22607" lon="-1.48708">
        <ele>45</ele>
        <time>2021-03-06T15:16:06.000Z</time>
      </trkpt>
      <trkpt lat="47.22603" lon="-1.48729">
        <ele>46</ele>
        <time>2021-03-06T15:16:08.000Z</time>
      </trkpt>
      <trkpt lat="47.22596" lon="-1.48748">
        <ele>48</ele>
        <time>2021-03-06T15:16:10.000Z</time>
      </trkpt>
      <trkpt lat="47.22589" lon="-1.48769">
        <ele>48</ele>
        <time>2021-03-06T15:16:12.000Z</time>
      </trkpt>
      <trkpt lat="47.2258" lon="-1.48807">
        <ele>47</ele>
        <time>2021-03-06T15:16:16.000Z</time>
      </trkpt>
      <trkpt lat="47.22573" lon="-1.48827">
        <ele>48</ele>
        <time>2021-03-06T15:16:18.000Z</time>
      </trkpt>
      <trkpt lat="47.22565" lon="-1.4885">
        <ele>49</ele>
        <time>2021-03-06T15:16:21.000Z</time>
      </trkpt>
      <trkpt lat="47.22559" lon="-1.48876">
        <ele>49</ele>
        <time>2021-03-06T15:16:24.000Z</time>
      </trkpt>
      <trkpt lat="47.22557" lon="-1.48892">
        <ele>48</ele>
        <time>2021-03-06T15:16:26.000Z</time>
      </trkpt>
      <trkpt lat="47.22551" lon="-1.48912">
        <ele>48</ele>
        <time>2021-03-06T15:16:28.000Z</time>
      </trkpt>
      <trkpt lat="47.22544" lon="-1.48933">
        <ele>49</ele>
        <time>2021-03-06T15:16:30.000Z</time>
      </trkpt>
      <trkpt lat="47.22529" lon="-1.48973">
        <ele>51</ele>
        <time>2021-03-06T15:16:34.000Z</time>
      </trkpt>
      <trkpt lat="47.22522" lon="-1.48993">
        <ele>51</ele>
        <time>2021-03-06T15:16:36.000Z</time>
      </trkpt>
      <trkpt lat="47.22516" lon="-1.49013">
        <ele>51</ele>
        <time>2021-03-06T15:16:38.000Z</time>
      </trkpt>
      <trkpt lat="47.2251" lon="-1.49035">
        <ele>51</ele>
        <time>2021-03-06T15:16:40.000Z</time>
      </trkpt>
      <trkpt lat="47.22504" lon="-1.49056">
        <ele>51</ele>
        <time>2021-03-06T15:16:42.000Z</time>
      </trkpt>
      <trkpt lat="47.22497" lon="-1.49077">
        <ele>52</ele>
        <time>2021-03-06T15:16:44.000Z</time>
      </trkpt>
      <trkpt lat="47.22488" lon="-1.49112">
        <ele>51</ele>
        <time>2021-03-06T15:16:48.000Z</time>
      </trkpt>
      <trkpt lat="47.22483" lon="-1.49129">
        <ele>52</ele>
        <time>2021-03-06T15:16:50.000Z</time>
      </trkpt>
      <trkpt lat="47.22476" lon="-1.49151">
        <ele>52</ele>
        <time>2021-03-06T15:16:52.000Z</time>
      </trkpt>
      <trkpt lat="47.22465" lon="-1.4918">
        <ele>52</ele>
        <time>2021-03-06T15:16:55.000Z</time>
      </trkpt>
      <trkpt lat="47.22457" lon="-1.49199">
        <ele>52</ele>
        <time>2021-03-06T15:16:57.000Z</time>
      </trkpt>
      <trkpt lat="47.22443" lon="-1.49239">
        <ele>52</ele>
        <time>2021-03-06T15:17:01.000Z</time>
      </trkpt>
      <trkpt lat="47.22435" lon="-1.49256">
        <ele>52</ele>
        <time>2021-03-06T15:17:03.000Z</time>
      </trkpt>
      <trkpt lat="47.22427" lon="-1.49275">
        <ele>52</ele>
        <time>2021-03-06T15:17:05.000Z</time>
      </trkpt>
      <trkpt lat="47.2242" lon="-1.49295">
        <ele>52</ele>
        <time>2021-03-06T15:17:07.000Z</time>
      </trkpt>
      <trkpt lat="47.22413" lon="-1.49316">
        <ele>52</ele>
        <time>2021-03-06T15:17:09.000Z</time>
      </trkpt>
      <trkpt lat="47.224" lon="-1.49347">
        <ele>52</ele>
        <time>2021-03-06T15:17:12.000Z</time>
      </trkpt>
      <trkpt lat="47.22392" lon="-1.49366">
        <ele>54</ele>
        <time>2021-03-06T15:17:14.000Z</time>
      </trkpt>
      <trkpt lat="47.22384" lon="-1.49383">
        <ele>54</ele>
        <time>2021-03-06T15:17:16.000Z</time>
      </trkpt>
      <trkpt lat="47.22377" lon="-1.49401">
        <ele>54</ele>
        <time>2021-03-06T15:17:18.000Z</time>
      </trkpt>
      <trkpt lat="47.22365" lon="-1.49428">
        <ele>55</ele>
        <time>2021-03-06T15:17:21.000Z</time>
      </trkpt>
      <trkpt lat="47.2236" lon="-1.49446">
        <ele>53</ele>
        <time>2021-03-06T15:17:23.000Z</time>
      </trkpt>
      <trkpt lat="47.22355" lon="-1.49465">
        <ele>54</ele>
        <time>2021-03-06T15:17:25.000Z</time>
      </trkpt>
      <trkpt lat="47.22349" lon="-1.49484">
        <ele>55</ele>
        <time>2021-03-06T15:17:27.000Z</time>
      </trkpt>
      <trkpt lat="47.22344" lon="-1.49502">
        <ele>55</ele>
        <time>2021-03-06T15:17:29.000Z</time>
      </trkpt>
      <trkpt lat="47.2233" lon="-1.4954">
        <ele>55</ele>
        <time>2021-03-06T15:17:33.000Z</time>
      </trkpt>
      <trkpt lat="47.22324" lon="-1.49559">
        <ele>54</ele>
        <time>2021-03-06T15:17:35.000Z</time>
      </trkpt>
      <trkpt lat="47.22316" lon="-1.49577">
        <ele>54</ele>
        <time>2021-03-06T15:17:37.000Z</time>
      </trkpt>
      <trkpt lat="47.22309" lon="-1.49594">
        <ele>54</ele>
        <time>2021-03-06T15:17:39.000Z</time>
      </trkpt>
      <trkpt lat="47.22303" lon="-1.49612">
        <ele>54</ele>
        <time>2021-03-06T15:17:41.000Z</time>
      </trkpt>
      <trkpt lat="47.22297" lon="-1.49633">
        <ele>54</ele>
        <time>2021-03-06T15:17:43.000Z</time>
      </trkpt>
      <trkpt lat="47.22291" lon="-1.49655">
        <ele>53</ele>
        <time>2021-03-06T15:17:45.000Z</time>
      </trkpt>
      <trkpt lat="47.22285" lon="-1.49674">
        <ele>54</ele>
        <time>2021-03-06T15:17:47.000Z</time>
      </trkpt>
      <trkpt lat="47.22276" lon="-1.49702">
        <ele>54</ele>
        <time>2021-03-06T15:17:50.000Z</time>
      </trkpt>
      <trkpt lat="47.22268" lon="-1.49721">
        <ele>54</ele>
        <time>2021-03-06T15:17:52.000Z</time>
      </trkpt>
      <trkpt lat="47.2226" lon="-1.4975">
        <ele>54</ele>
        <time>2021-03-06T15:17:55.000Z</time>
      </trkpt>
      <trkpt lat="47.22256" lon="-1.4977">
        <ele>54</ele>
        <time>2021-03-06T15:17:57.000Z</time>
      </trkpt>
      <trkpt lat="47.22254" lon="-1.4979">
        <ele>54</ele>
        <time>2021-03-06T15:17:59.000Z</time>
      </trkpt>
      <trkpt lat="47.22252" lon="-1.49811">
        <ele>54</ele>
        <time>2021-03-06T15:18:01.000Z</time>
      </trkpt>
      <trkpt lat="47.22246" lon="-1.49843">
        <ele>54</ele>
        <time>2021-03-06T15:18:04.000Z</time>
      </trkpt>
      <trkpt lat="47.22244" lon="-1.4986">
        <ele>51</ele>
        <time>2021-03-06T15:18:06.000Z</time>
      </trkpt>
      <trkpt lat="47.22236" lon="-1.49894">
        <ele>51</ele>
        <time>2021-03-06T15:18:09.000Z</time>
      </trkpt>
      <trkpt lat="47.2223" lon="-1.49915">
        <ele>48</ele>
        <time>2021-03-06T15:18:11.000Z</time>
      </trkpt>
      <trkpt lat="47.22226" lon="-1.49935">
        <ele>48</ele>
        <time>2021-03-06T15:18:13.000Z</time>
      </trkpt>
      <trkpt lat="47.22224" lon="-1.49954">
        <ele>46</ele>
        <time>2021-03-06T15:18:15.000Z</time>
      </trkpt>
      <trkpt lat="47.2222" lon="-1.49972">
        <ele>46</ele>
        <time>2021-03-06T15:18:17.000Z</time>
      </trkpt>
      <trkpt lat="47.22213" lon="-1.49992">
        <ele>48</ele>
        <time>2021-03-06T15:18:19.000Z</time>
      </trkpt>
      <trkpt lat="47.22207" lon="-1.50011">
        <ele>49</ele>
        <time>2021-03-06T15:18:21.000Z</time>
      </trkpt>
      <trkpt lat="47.222" lon="-1.50033">
        <ele>49</ele>
        <time>2021-03-06T15:18:23.000Z</time>
      </trkpt>
      <trkpt lat="47.22195" lon="-1.50055">
        <ele>50</ele>
        <time>2021-03-06T15:18:25.000Z</time>
      </trkpt>
      <trkpt lat="47.22193" lon="-1.50071">
        <ele>49</ele>
        <time>2021-03-06T15:18:27.000Z</time>
      </trkpt>
      <trkpt lat="47.22188" lon="-1.50089">
        <ele>49</ele>
        <time>2021-03-06T15:18:29.000Z</time>
      </trkpt>
      <trkpt lat="47.2218" lon="-1.50108">
        <ele>50</ele>
        <time>2021-03-06T15:18:31.000Z</time>
      </trkpt>
      <trkpt lat="47.22172" lon="-1.50128">
        <ele>50</ele>
        <time>2021-03-06T15:18:33.000Z</time>
      </trkpt>
      <trkpt lat="47.22161" lon="-1.50163">
        <ele>48</ele>
        <time>2021-03-06T15:18:37.000Z</time>
      </trkpt>
      <trkpt lat="47.22155" lon="-1.50192">
        <ele>50</ele>
        <time>2021-03-06T15:18:40.000Z</time>
      </trkpt>
      <trkpt lat="47.22151" lon="-1.50212">
        <ele>51</ele>
        <time>2021-03-06T15:18:42.000Z</time>
      </trkpt>
      <trkpt lat="47.22142" lon="-1.50244">
        <ele>49</ele>
        <time>2021-03-06T15:18:46.000Z</time>
      </trkpt>
      <trkpt lat="47.22133" lon="-1.5027">
        <ele>50</ele>
        <time>2021-03-06T15:18:49.000Z</time>
      </trkpt>
      <trkpt lat="47.22124" lon="-1.50288">
        <ele>52</ele>
        <time>2021-03-06T15:18:51.000Z</time>
      </trkpt>
      <trkpt lat="47.22114" lon="-1.50306">
        <ele>54</ele>
        <time>2021-03-06T15:18:53.000Z</time>
      </trkpt>
      <trkpt lat="47.22106" lon="-1.50322">
        <ele>54</ele>
        <time>2021-03-06T15:18:55.000Z</time>
      </trkpt>
      <trkpt lat="47.22099" lon="-1.50337">
        <ele>53</ele>
        <time>2021-03-06T15:18:57.000Z</time>
      </trkpt>
      <trkpt lat="47.22093" lon="-1.50354">
        <ele>54</ele>
        <time>2021-03-06T15:18:59.000Z</time>
      </trkpt>
      <trkpt lat="47.22088" lon="-1.50372">
        <ele>53</ele>
        <time>2021-03-06T15:19:01.000Z</time>
      </trkpt>
      <trkpt lat="47.2208" lon="-1.50397">
        <ele>52</ele>
        <time>2021-03-06T15:19:04.000Z</time>
      </trkpt>
      <trkpt lat="47.22076" lon="-1.50412">
        <ele>52</ele>
        <time>2021-03-06T15:19:06.000Z</time>
      </trkpt>
      <trkpt lat="47.22074" lon="-1.50429">
        <ele>51</ele>
        <time>2021-03-06T15:19:08.000Z</time>
      </trkpt>
      <trkpt lat="47.22072" lon="-1.50448">
        <ele>51</ele>
        <time>2021-03-06T15:19:10.000Z</time>
      </trkpt>
      <trkpt lat="47.22071" lon="-1.5047">
        <ele>48</ele>
        <time>2021-03-06T15:19:12.000Z</time>
      </trkpt>
      <trkpt lat="47.22069" lon="-1.50488">
        <ele>48</ele>
        <time>2021-03-06T15:19:14.000Z</time>
      </trkpt>
      <trkpt lat="47.22067" lon="-1.5051">
        <ele>48</ele>
        <time>2021-03-06T15:19:16.000Z</time>
      </trkpt>
      <trkpt lat="47.22065" lon="-1.50541">
        <ele>49</ele>
        <time>2021-03-06T15:19:19.000Z</time>
      </trkpt>
      <trkpt lat="47.22064" lon="-1.50561">
        <ele>48</ele>
        <time>2021-03-06T15:19:21.000Z</time>
      </trkpt>
      <trkpt lat="47.22062" lon="-1.50581">
        <ele>49</ele>
        <time>2021-03-06T15:19:23.000Z</time>
      </trkpt>
      <trkpt lat="47.22059" lon="-1.50609">
        <ele>50</ele>
        <time>2021-03-06T15:19:26.000Z</time>
      </trkpt>
      <trkpt lat="47.22057" lon="-1.50628">
        <ele>50</ele>
        <time>2021-03-06T15:19:28.000Z</time>
      </trkpt>
      <trkpt lat="47.22058" lon="-1.50646">
        <ele>48</ele>
        <time>2021-03-06T15:19:30.000Z</time>
      </trkpt>
      <trkpt lat="47.22059" lon="-1.50663">
        <ele>45</ele>
        <time>2021-03-06T15:19:32.000Z</time>
      </trkpt>
      <trkpt lat="47.22057" lon="-1.50691">
        <ele>45</ele>
        <time>2021-03-06T15:19:35.000Z</time>
      </trkpt>
      <trkpt lat="47.22053" lon="-1.5071">
        <ele>47</ele>
        <time>2021-03-06T15:19:37.000Z</time>
      </trkpt>
      <trkpt lat="47.2205" lon="-1.5073">
        <ele>48</ele>
        <time>2021-03-06T15:19:39.000Z</time>
      </trkpt>
      <trkpt lat="47.22046" lon="-1.50749">
        <ele>48</ele>
        <time>2021-03-06T15:19:41.000Z</time>
      </trkpt>
      <trkpt lat="47.22043" lon="-1.50767">
        <ele>48</ele>
        <time>2021-03-06T15:19:43.000Z</time>
      </trkpt>
      <trkpt lat="47.22038" lon="-1.50786">
        <ele>49</ele>
        <time>2021-03-06T15:19:45.000Z</time>
      </trkpt>
      <trkpt lat="47.22032" lon="-1.50804">
        <ele>49</ele>
        <time>2021-03-06T15:19:47.000Z</time>
      </trkpt>
      <trkpt lat="47.22025" lon="-1.50822">
        <ele>49</ele>
        <time>2021-03-06T15:19:49.000Z</time>
      </trkpt>
      <trkpt lat="47.22019" lon="-1.50838">
        <ele>49</ele>
        <time>2021-03-06T15:19:51.000Z</time>
      </trkpt>
      <trkpt lat="47.22012" lon="-1.50855">
        <ele>50</ele>
        <time>2021-03-06T15:19:53.000Z</time>
      </trkpt>
      <trkpt lat="47.22006" lon="-1.50874">
        <ele>51</ele>
        <time>2021-03-06T15:19:55.000Z</time>
      </trkpt>
      <trkpt lat="47.22" lon="-1.50893">
        <ele>52</ele>
        <time>2021-03-06T15:19:57.000Z</time>
      </trkpt>
      <trkpt lat="47.21995" lon="-1.50919">
        <ele>51</ele>
        <time>2021-03-06T15:20:00.000Z</time>
      </trkpt>
      <trkpt lat="47.21991" lon="-1.50935">
        <ele>51</ele>
        <time>2021-03-06T15:20:02.000Z</time>
      </trkpt>
      <trkpt lat="47.21987" lon="-1.50952">
        <ele>51</ele>
        <time>2021-03-06T15:20:04.000Z</time>
      </trkpt>
      <trkpt lat="47.2198" lon="-1.50981">
        <ele>52</ele>
        <time>2021-03-06T15:20:07.000Z</time>
      </trkpt>
      <trkpt lat="47.21973" lon="-1.51">
        <ele>51</ele>
        <time>2021-03-06T15:20:09.000Z</time>
      </trkpt>
      <trkpt lat="47.21967" lon="-1.51017">
        <ele>51</ele>
        <time>2021-03-06T15:20:11.000Z</time>
      </trkpt>
      <trkpt lat="47.21962" lon="-1.51034">
        <ele>49</ele>
        <time>2021-03-06T15:20:13.000Z</time>
      </trkpt>
      <trkpt lat="47.21955" lon="-1.51056">
        <ele>50</ele>
        <time>2021-03-06T15:20:16.000Z</time>
      </trkpt>
      <trkpt lat="47.21944" lon="-1.51068">
        <ele>49</ele>
        <time>2021-03-06T15:20:18.000Z</time>
      </trkpt>
      <trkpt lat="47.21935" lon="-1.51085">
        <ele>48</ele>
        <time>2021-03-06T15:20:20.000Z</time>
      </trkpt>
      <trkpt lat="47.21929" lon="-1.51103">
        <ele>50</ele>
        <time>2021-03-06T15:20:22.000Z</time>
      </trkpt>
      <trkpt lat="47.21923" lon="-1.51122">
        <ele>51</ele>
        <time>2021-03-06T15:20:24.000Z</time>
      </trkpt>
      <trkpt lat="47.21917" lon="-1.51142">
        <ele>51</ele>
        <time>2021-03-06T15:20:26.000Z</time>
      </trkpt>
      <trkpt lat="47.21913" lon="-1.51161">
        <ele>51</ele>
        <time>2021-03-06T15:20:28.000Z</time>
      </trkpt>
      <trkpt lat="47.21906" lon="-1.51179">
        <ele>53</ele>
        <time>2021-03-06T15:20:30.000Z</time>
      </trkpt>
      <trkpt lat="47.219" lon="-1.51196">
        <ele>54</ele>
        <time>2021-03-06T15:20:32.000Z</time>
      </trkpt>
      <trkpt lat="47.2189" lon="-1.51225">
        <ele>53</ele>
        <time>2021-03-06T15:20:35.000Z</time>
      </trkpt>
      <trkpt lat="47.21885" lon="-1.51248">
        <ele>52</ele>
        <time>2021-03-06T15:20:37.000Z</time>
      </trkpt>
      <trkpt lat="47.21878" lon="-1.51266">
        <ele>53</ele>
        <time>2021-03-06T15:20:39.000Z</time>
      </trkpt>
      <trkpt lat="47.21872" lon="-1.51283">
        <ele>53</ele>
        <time>2021-03-06T15:20:41.000Z</time>
      </trkpt>
      <trkpt lat="47.21866" lon="-1.513">
        <ele>53</ele>
        <time>2021-03-06T15:20:43.000Z</time>
      </trkpt>
      <trkpt lat="47.2186" lon="-1.51318">
        <ele>53</ele>
        <time>2021-03-06T15:20:45.000Z</time>
      </trkpt>
      <trkpt lat="47.21854" lon="-1.51336">
        <ele>54</ele>
        <time>2021-03-06T15:20:47.000Z</time>
      </trkpt>
      <trkpt lat="47.21846" lon="-1.51364">
        <ele>53</ele>
        <time>2021-03-06T15:20:50.000Z</time>
      </trkpt>
      <trkpt lat="47.21843" lon="-1.51384">
        <ele>51</ele>
        <time>2021-03-06T15:20:52.000Z</time>
      </trkpt>
      <trkpt lat="47.21839" lon="-1.51402">
        <ele>51</ele>
        <time>2021-03-06T15:20:54.000Z</time>
      </trkpt>
      <trkpt lat="47.21836" lon="-1.5142">
        <ele>50</ele>
        <time>2021-03-06T15:20:56.000Z</time>
      </trkpt>
      <trkpt lat="47.21831" lon="-1.51438">
        <ele>51</ele>
        <time>2021-03-06T15:20:58.000Z</time>
      </trkpt>
      <trkpt lat="47.21825" lon="-1.51457">
        <ele>51</ele>
        <time>2021-03-06T15:21:00.000Z</time>
      </trkpt>
      <trkpt lat="47.2182" lon="-1.51476">
        <ele>52</ele>
        <time>2021-03-06T15:21:02.000Z</time>
      </trkpt>
      <trkpt lat="47.21815" lon="-1.51495">
        <ele>52</ele>
        <time>2021-03-06T15:21:04.000Z</time>
      </trkpt>
      <trkpt lat="47.21808" lon="-1.51511">
        <ele>53</ele>
        <time>2021-03-06T15:21:06.000Z</time>
      </trkpt>
      <trkpt lat="47.21801" lon="-1.51528">
        <ele>53</ele>
        <time>2021-03-06T15:21:08.000Z</time>
      </trkpt>
      <trkpt lat="47.2179" lon="-1.51553">
        <ele>54</ele>
        <time>2021-03-06T15:21:11.000Z</time>
      </trkpt>
      <trkpt lat="47.2178" lon="-1.51577">
        <ele>52</ele>
        <time>2021-03-06T15:21:14.000Z</time>
      </trkpt>
      <trkpt lat="47.21772" lon="-1.51591">
        <ele>54</ele>
        <time>2021-03-06T15:21:16.000Z</time>
      </trkpt>
      <trkpt lat="47.21762" lon="-1.51603">
        <ele>54</ele>
        <time>2021-03-06T15:21:18.000Z</time>
      </trkpt>
      <trkpt lat="47.21753" lon="-1.51617">
        <ele>52</ele>
        <time>2021-03-06T15:21:20.000Z</time>
      </trkpt>
      <trkpt lat="47.21743" lon="-1.5164">
        <ele>54</ele>
        <time>2021-03-06T15:21:23.000Z</time>
      </trkpt>
      <trkpt lat="47.21735" lon="-1.51655">
        <ele>55</ele>
        <time>2021-03-06T15:21:25.000Z</time>
      </trkpt>
      <trkpt lat="47.21729" lon="-1.5167">
        <ele>55</ele>
        <time>2021-03-06T15:21:27.000Z</time>
      </trkpt>
      <trkpt lat="47.21722" lon="-1.51687">
        <ele>55</ele>
        <time>2021-03-06T15:21:29.000Z</time>
      </trkpt>
      <trkpt lat="47.21716" lon="-1.51703">
        <ele>55</ele>
        <time>2021-03-06T15:21:31.000Z</time>
      </trkpt>
      <trkpt lat="47.21711" lon="-1.5172">
        <ele>54</ele>
        <time>2021-03-06T15:21:33.000Z</time>
      </trkpt>
      <trkpt lat="47.21704" lon="-1.51734">
        <ele>55</ele>
        <time>2021-03-06T15:21:35.000Z</time>
      </trkpt>
      <trkpt lat="47.21695" lon="-1.5175">
        <ele>54</ele>
        <time>2021-03-06T15:21:37.000Z</time>
      </trkpt>
      <trkpt lat="47.21686" lon="-1.51768">
        <ele>55</ele>
        <time>2021-03-06T15:21:39.000Z</time>
      </trkpt>
      <trkpt lat="47.21679" lon="-1.51788">
        <ele>52</ele>
        <time>2021-03-06T15:21:41.000Z</time>
      </trkpt>
      <trkpt lat="47.21672" lon="-1.51803">
        <ele>52</ele>
        <time>2021-03-06T15:21:43.000Z</time>
      </trkpt>
      <trkpt lat="47.21665" lon="-1.51818">
        <ele>53</ele>
        <time>2021-03-06T15:21:45.000Z</time>
      </trkpt>
      <trkpt lat="47.21658" lon="-1.51835">
        <ele>54</ele>
        <time>2021-03-06T15:21:47.000Z</time>
      </trkpt>
      <trkpt lat="47.21652" lon="-1.51852">
        <ele>55</ele>
        <time>2021-03-06T15:21:49.000Z</time>
      </trkpt>
      <trkpt lat="47.2165" lon="-1.5187">
        <ele>55</ele>
        <time>2021-03-06T15:21:51.000Z</time>
      </trkpt>
      <trkpt lat="47.21643" lon="-1.51893">
        <ele>52</ele>
        <time>2021-03-06T15:21:54.000Z</time>
      </trkpt>
      <trkpt lat="47.21632" lon="-1.51918">
        <ele>53</ele>
        <time>2021-03-06T15:21:57.000Z</time>
      </trkpt>
      <trkpt lat="47.21627" lon="-1.51944">
        <ele>51</ele>
        <time>2021-03-06T15:22:00.000Z</time>
      </trkpt>
      <trkpt lat="47.21626" lon="-1.51964">
        <ele>49</ele>
        <time>2021-03-06T15:22:02.000Z</time>
      </trkpt>
      <trkpt lat="47.21616" lon="-1.51985">
        <ele>52</ele>
        <time>2021-03-06T15:22:06.000Z</time>
      </trkpt>
      <trkpt lat="47.21607" lon="-1.52007">
        <ele>53</ele>
        <time>2021-03-06T15:22:08.000Z</time>
      </trkpt>
      <trkpt lat="47.21597" lon="-1.52035">
        <ele>49</ele>
        <time>2021-03-06T15:22:11.000Z</time>
      </trkpt>
      <trkpt lat="47.21589" lon="-1.52055">
        <ele>50</ele>
        <time>2021-03-06T15:22:13.000Z</time>
      </trkpt>
      <trkpt lat="47.21582" lon="-1.52073">
        <ele>51</ele>
        <time>2021-03-06T15:22:15.000Z</time>
      </trkpt>
      <trkpt lat="47.21574" lon="-1.52104">
        <ele>49</ele>
        <time>2021-03-06T15:22:18.000Z</time>
      </trkpt>
      <trkpt lat="47.21567" lon="-1.52123">
        <ele>49</ele>
        <time>2021-03-06T15:22:20.000Z</time>
      </trkpt>
      <trkpt lat="47.2156" lon="-1.52137">
        <ele>51</ele>
        <time>2021-03-06T15:22:22.000Z</time>
      </trkpt>
      <trkpt lat="47.21555" lon="-1.52155">
        <ele>51</ele>
        <time>2021-03-06T15:22:24.000Z</time>
      </trkpt>
      <trkpt lat="47.21549" lon="-1.52174">
        <ele>52</ele>
        <time>2021-03-06T15:22:26.000Z</time>
      </trkpt>
      <trkpt lat="47.21543" lon="-1.52192">
        <ele>53</ele>
        <time>2021-03-06T15:22:28.000Z</time>
      </trkpt>
      <trkpt lat="47.21537" lon="-1.5221">
        <ele>53</ele>
        <time>2021-03-06T15:22:30.000Z</time>
      </trkpt>
      <trkpt lat="47.21531" lon="-1.52228">
        <ele>53</ele>
        <time>2021-03-06T15:22:32.000Z</time>
      </trkpt>
      <trkpt lat="47.21525" lon="-1.52245">
        <ele>52</ele>
        <time>2021-03-06T15:22:34.000Z</time>
      </trkpt>
      <trkpt lat="47.2152" lon="-1.52259">
        <ele>53</ele>
        <time>2021-03-06T15:22:36.000Z</time>
      </trkpt>
      <trkpt lat="47.21515" lon="-1.5228">
        <ele>53</ele>
        <time>2021-03-06T15:22:38.000Z</time>
      </trkpt>
      <trkpt lat="47.21508" lon="-1.52302">
        <ele>53</ele>
        <time>2021-03-06T15:22:40.000Z</time>
      </trkpt>
      <trkpt lat="47.21503" lon="-1.5232">
        <ele>54</ele>
        <time>2021-03-06T15:22:42.000Z</time>
      </trkpt>
      <trkpt lat="47.21496" lon="-1.52338">
        <ele>54</ele>
        <time>2021-03-06T15:22:44.000Z</time>
      </trkpt>
      <trkpt lat="47.21491" lon="-1.52354">
        <ele>57</ele>
        <time>2021-03-06T15:22:46.000Z</time>
      </trkpt>
      <trkpt lat="47.21485" lon="-1.52372">
        <ele>55</ele>
        <time>2021-03-06T15:22:48.000Z</time>
      </trkpt>
      <trkpt lat="47.2148" lon="-1.5239">
        <ele>56</ele>
        <time>2021-03-06T15:22:50.000Z</time>
      </trkpt>
      <trkpt lat="47.21474" lon="-1.52409">
        <ele>55</ele>
        <time>2021-03-06T15:22:52.000Z</time>
      </trkpt>
      <trkpt lat="47.21466" lon="-1.52428">
        <ele>55</ele>
        <time>2021-03-06T15:22:54.000Z</time>
      </trkpt>
      <trkpt lat="47.21461" lon="-1.52445">
        <ele>55</ele>
        <time>2021-03-06T15:22:56.000Z</time>
      </trkpt>
      <trkpt lat="47.21456" lon="-1.52463">
        <ele>55</ele>
        <time>2021-03-06T15:22:58.000Z</time>
      </trkpt>
      <trkpt lat="47.21451" lon="-1.5248">
        <ele>55</ele>
        <time>2021-03-06T15:23:00.000Z</time>
      </trkpt>
      <trkpt lat="47.21446" lon="-1.52498">
        <ele>55</ele>
        <time>2021-03-06T15:23:02.000Z</time>
      </trkpt>
      <trkpt lat="47.21435" lon="-1.52525">
        <ele>55</ele>
        <time>2021-03-06T15:23:05.000Z</time>
      </trkpt>
      <trkpt lat="47.2143" lon="-1.52545">
        <ele>54</ele>
        <time>2021-03-06T15:23:07.000Z</time>
      </trkpt>
      <trkpt lat="47.21426" lon="-1.52561">
        <ele>53</ele>
        <time>2021-03-06T15:23:09.000Z</time>
      </trkpt>
      <trkpt lat="47.21421" lon="-1.52576">
        <ele>53</ele>
        <time>2021-03-06T15:23:11.000Z</time>
      </trkpt>
      <trkpt lat="47.21411" lon="-1.52601">
        <ele>53</ele>
        <time>2021-03-06T15:23:14.000Z</time>
      </trkpt>
      <trkpt lat="47.21405" lon="-1.52619">
        <ele>53</ele>
        <time>2021-03-06T15:23:16.000Z</time>
      </trkpt>
      <trkpt lat="47.21398" lon="-1.52655">
        <ele>53</ele>
        <time>2021-03-06T15:23:20.000Z</time>
      </trkpt>
      <trkpt lat="47.21394" lon="-1.52674">
        <ele>53</ele>
        <time>2021-03-06T15:23:22.000Z</time>
      </trkpt>
      <trkpt lat="47.21388" lon="-1.52693">
        <ele>54</ele>
        <time>2021-03-06T15:23:24.000Z</time>
      </trkpt>
      <trkpt lat="47.21382" lon="-1.52711">
        <ele>55</ele>
        <time>2021-03-06T15:23:26.000Z</time>
      </trkpt>
      <trkpt lat="47.21378" lon="-1.52729">
        <ele>55</ele>
        <time>2021-03-06T15:23:28.000Z</time>
      </trkpt>
      <trkpt lat="47.21374" lon="-1.52748">
        <ele>55</ele>
        <time>2021-03-06T15:23:30.000Z</time>
      </trkpt>
      <trkpt lat="47.2137" lon="-1.52776">
        <ele>56</ele>
        <time>2021-03-06T15:23:33.000Z</time>
      </trkpt>
      <trkpt lat="47.21368" lon="-1.52794">
        <ele>56</ele>
        <time>2021-03-06T15:23:35.000Z</time>
      </trkpt>
      <trkpt lat="47.21365" lon="-1.52811">
        <ele>56</ele>
        <time>2021-03-06T15:23:37.000Z</time>
      </trkpt>
      <trkpt lat="47.21362" lon="-1.52828">
        <ele>56</ele>
        <time>2021-03-06T15:23:39.000Z</time>
      </trkpt>
      <trkpt lat="47.21357" lon="-1.52859">
        <ele>54</ele>
        <time>2021-03-06T15:23:42.000Z</time>
      </trkpt>
      <trkpt lat="47.21351" lon="-1.52879">
        <ele>54</ele>
        <time>2021-03-06T15:23:44.000Z</time>
      </trkpt>
      <trkpt lat="47.21348" lon="-1.52898">
        <ele>54</ele>
        <time>2021-03-06T15:23:46.000Z</time>
      </trkpt>
      <trkpt lat="47.21344" lon="-1.52917">
        <ele>55</ele>
        <time>2021-03-06T15:23:48.000Z</time>
      </trkpt>
      <trkpt lat="47.21341" lon="-1.52938">
        <ele>54</ele>
        <time>2021-03-06T15:23:50.000Z</time>
      </trkpt>
      <trkpt lat="47.21338" lon="-1.52959">
        <ele>54</ele>
        <time>2021-03-06T15:23:52.000Z</time>
      </trkpt>
      <trkpt lat="47.21335" lon="-1.5298">
        <ele>55</ele>
        <time>2021-03-06T15:23:54.000Z</time>
      </trkpt>
      <trkpt lat="47.21334" lon="-1.53015">
        <ele>54</ele>
        <time>2021-03-06T15:23:57.000Z</time>
      </trkpt>
      <trkpt lat="47.21334" lon="-1.53031">
        <ele>55</ele>
        <time>2021-03-06T15:23:59.000Z</time>
      </trkpt>
      <trkpt lat="47.21332" lon="-1.53049">
        <ele>56</ele>
        <time>2021-03-06T15:24:01.000Z</time>
      </trkpt>
      <trkpt lat="47.2133" lon="-1.5307">
        <ele>54</ele>
        <time>2021-03-06T15:24:03.000Z</time>
      </trkpt>
      <trkpt lat="47.21328" lon="-1.53088">
        <ele>54</ele>
        <time>2021-03-06T15:24:05.000Z</time>
      </trkpt>
      <trkpt lat="47.21326" lon="-1.53108">
        <ele>55</ele>
        <time>2021-03-06T15:24:07.000Z</time>
      </trkpt>
      <trkpt lat="47.21324" lon="-1.53127">
        <ele>55</ele>
        <time>2021-03-06T15:24:09.000Z</time>
      </trkpt>
      <trkpt lat="47.21321" lon="-1.5315">
        <ele>54</ele>
        <time>2021-03-06T15:24:11.000Z</time>
      </trkpt>
      <trkpt lat="47.21317" lon="-1.53169">
        <ele>55</ele>
        <time>2021-03-06T15:24:13.000Z</time>
      </trkpt>
      <trkpt lat="47.21316" lon="-1.53187">
        <ele>55</ele>
        <time>2021-03-06T15:24:15.000Z</time>
      </trkpt>
      <trkpt lat="47.21315" lon="-1.53206">
        <ele>55</ele>
        <time>2021-03-06T15:24:17.000Z</time>
      </trkpt>
      <trkpt lat="47.21313" lon="-1.53225">
        <ele>56</ele>
        <time>2021-03-06T15:24:19.000Z</time>
      </trkpt>
      <trkpt lat="47.21314" lon="-1.53254">
        <ele>55</ele>
        <time>2021-03-06T15:24:22.000Z</time>
      </trkpt>
      <trkpt lat="47.21314" lon="-1.53272">
        <ele>55</ele>
        <time>2021-03-06T15:24:24.000Z</time>
      </trkpt>
      <trkpt lat="47.21312" lon="-1.53301">
        <ele>56</ele>
        <time>2021-03-06T15:24:27.000Z</time>
      </trkpt>
      <trkpt lat="47.2131" lon="-1.5332">
        <ele>56</ele>
        <time>2021-03-06T15:24:29.000Z</time>
      </trkpt>
      <trkpt lat="47.21304" lon="-1.5335">
        <ele>55</ele>
        <time>2021-03-06T15:24:32.000Z</time>
      </trkpt>
      <trkpt lat="47.213" lon="-1.53368">
        <ele>55</ele>
        <time>2021-03-06T15:24:34.000Z</time>
      </trkpt>
      <trkpt lat="47.21297" lon="-1.53387">
        <ele>55</ele>
        <time>2021-03-06T15:24:36.000Z</time>
      </trkpt>
      <trkpt lat="47.21296" lon="-1.53407">
        <ele>54</ele>
        <time>2021-03-06T15:24:38.000Z</time>
      </trkpt>
      <trkpt lat="47.21294" lon="-1.53434">
        <ele>53</ele>
        <time>2021-03-06T15:24:41.000Z</time>
      </trkpt>
      <trkpt lat="47.21294" lon="-1.53451">
        <ele>53</ele>
        <time>2021-03-06T15:24:43.000Z</time>
      </trkpt>
      <trkpt lat="47.21298" lon="-1.53469">
        <ele>54</ele>
        <time>2021-03-06T15:24:45.000Z</time>
      </trkpt>
      <trkpt lat="47.21301" lon="-1.53487">
        <ele>54</ele>
        <time>2021-03-06T15:24:47.000Z</time>
      </trkpt>
      <trkpt lat="47.21303" lon="-1.53517">
        <ele>54</ele>
        <time>2021-03-06T15:24:50.000Z</time>
      </trkpt>
      <trkpt lat="47.21304" lon="-1.53536">
        <ele>55</ele>
        <time>2021-03-06T15:24:52.000Z</time>
      </trkpt>
      <trkpt lat="47.21305" lon="-1.53555">
        <ele>55</ele>
        <time>2021-03-06T15:24:54.000Z</time>
      </trkpt>
      <trkpt lat="47.21305" lon="-1.53573">
        <ele>55</ele>
        <time>2021-03-06T15:24:56.000Z</time>
      </trkpt>
      <trkpt lat="47.21307" lon="-1.53591">
        <ele>53</ele>
        <time>2021-03-06T15:24:58.000Z</time>
      </trkpt>
      <trkpt lat="47.21309" lon="-1.53608">
        <ele>53</ele>
        <time>2021-03-06T15:25:00.000Z</time>
      </trkpt>
      <trkpt lat="47.21302" lon="-1.53627">
        <ele>54</ele>
        <time>2021-03-06T15:25:03.000Z</time>
      </trkpt>
      <trkpt lat="47.21299" lon="-1.53641">
        <ele>55</ele>
        <time>2021-03-06T15:25:06.000Z</time>
      </trkpt>
      <trkpt lat="47.21296" lon="-1.5366">
        <ele>56</ele>
        <time>2021-03-06T15:25:09.000Z</time>
      </trkpt>
      <trkpt lat="47.213" lon="-1.53679">
        <ele>57</ele>
        <time>2021-03-06T15:25:12.000Z</time>
      </trkpt>
      <trkpt lat="47.21305" lon="-1.53695">
        <ele>57</ele>
        <time>2021-03-06T15:25:14.000Z</time>
      </trkpt>
      <trkpt lat="47.21303" lon="-1.53719">
        <ele>50</ele>
        <time>2021-03-06T15:25:16.000Z</time>
      </trkpt>
      <trkpt lat="47.21304" lon="-1.53739">
        <ele>49</ele>
        <time>2021-03-06T15:25:18.000Z</time>
      </trkpt>
      <trkpt lat="47.2131" lon="-1.53756">
        <ele>50</ele>
        <time>2021-03-06T15:25:20.000Z</time>
      </trkpt>
      <trkpt lat="47.21313" lon="-1.53775">
        <ele>50</ele>
        <time>2021-03-06T15:25:22.000Z</time>
      </trkpt>
      <trkpt lat="47.21316" lon="-1.53794">
        <ele>50</ele>
        <time>2021-03-06T15:25:24.000Z</time>
      </trkpt>
      <trkpt lat="47.21319" lon="-1.53813">
        <ele>50</ele>
        <time>2021-03-06T15:25:26.000Z</time>
      </trkpt>
      <trkpt lat="47.21323" lon="-1.53832">
        <ele>51</ele>
        <time>2021-03-06T15:25:28.000Z</time>
      </trkpt>
      <trkpt lat="47.21326" lon="-1.5385">
        <ele>51</ele>
        <time>2021-03-06T15:25:30.000Z</time>
      </trkpt>
      <trkpt lat="47.21329" lon="-1.53868">
        <ele>51</ele>
        <time>2021-03-06T15:25:32.000Z</time>
      </trkpt>
      <trkpt lat="47.21335" lon="-1.53896">
        <ele>52</ele>
        <time>2021-03-06T15:25:35.000Z</time>
      </trkpt>
      <trkpt lat="47.21337" lon="-1.53911">
        <ele>47</ele>
        <time>2021-03-06T15:25:37.000Z</time>
      </trkpt>
      <trkpt lat="47.21345" lon="-1.53924">
        <ele>47</ele>
        <time>2021-03-06T15:25:39.000Z</time>
      </trkpt>
      <trkpt lat="47.21361" lon="-1.53934">
        <ele>49</ele>
        <time>2021-03-06T15:25:41.000Z</time>
      </trkpt>
      <trkpt lat="47.21376" lon="-1.53939">
        <ele>49</ele>
        <time>2021-03-06T15:25:43.000Z</time>
      </trkpt>
      <trkpt lat="47.21385" lon="-1.5395">
        <ele>48</ele>
        <time>2021-03-06T15:25:45.000Z</time>
      </trkpt>
      <trkpt lat="47.21388" lon="-1.53967">
        <ele>47</ele>
        <time>2021-03-06T15:25:49.000Z</time>
      </trkpt>
      <trkpt lat="47.21396" lon="-1.54008">
        <ele>58</ele>
        <time>2021-03-06T15:25:56.000Z</time>
      </trkpt>
      <trkpt lat="47.21407" lon="-1.54012">
        <ele>35</ele>
        <time>2021-03-06T15:25:57.000Z</time>
      </trkpt>
      <trkpt lat="47.21413" lon="-1.54027">
        <ele>39</ele>
        <time>2021-03-06T15:25:59.000Z</time>
      </trkpt>
      <trkpt lat="47.21424" lon="-1.54054">
        <ele>49</ele>
        <time>2021-03-06T15:26:02.000Z</time>
      </trkpt>
      <trkpt lat="47.21433" lon="-1.54069">
        <ele>51</ele>
        <time>2021-03-06T15:26:04.000Z</time>
      </trkpt>
      <trkpt lat="47.21443" lon="-1.54082">
        <ele>51</ele>
        <time>2021-03-06T15:26:06.000Z</time>
      </trkpt>
      <trkpt lat="47.21453" lon="-1.54097">
        <ele>51</ele>
        <time>2021-03-06T15:26:08.000Z</time>
      </trkpt>
      <trkpt lat="47.21463" lon="-1.54111">
        <ele>52</ele>
        <time>2021-03-06T15:26:10.000Z</time>
      </trkpt>
      <trkpt lat="47.21472" lon="-1.54125">
        <ele>53</ele>
        <time>2021-03-06T15:26:12.000Z</time>
      </trkpt>
      <trkpt lat="47.21488" lon="-1.54146">
        <ele>51</ele>
        <time>2021-03-06T15:26:15.000Z</time>
      </trkpt>
      <trkpt lat="47.21502" lon="-1.54167">
        <ele>52</ele>
        <time>2021-03-06T15:26:18.000Z</time>
      </trkpt>
      <trkpt lat="47.21508" lon="-1.5418">
        <ele>51</ele>
        <time>2021-03-06T15:26:20.000Z</time>
      </trkpt>
      <trkpt lat="47.21524" lon="-1.54207">
        <ele>51</ele>
        <time>2021-03-06T15:26:23.000Z</time>
      </trkpt>
      <trkpt lat="47.21533" lon="-1.54224">
        <ele>52</ele>
        <time>2021-03-06T15:26:25.000Z</time>
      </trkpt>
      <trkpt lat="47.21549" lon="-1.54237">
        <ele>48</ele>
        <time>2021-03-06T15:26:28.000Z</time>
      </trkpt>
      <trkpt lat="47.21562" lon="-1.54242">
        <ele>49</ele>
        <time>2021-03-06T15:26:30.000Z</time>
      </trkpt>
      <trkpt lat="47.21572" lon="-1.54254">
        <ele>51</ele>
        <time>2021-03-06T15:26:32.000Z</time>
      </trkpt>
      <trkpt lat="47.21577" lon="-1.54274">
        <ele>51</ele>
        <time>2021-03-06T15:26:34.000Z</time>
      </trkpt>
      <trkpt lat="47.21581" lon="-1.54294">
        <ele>52</ele>
        <time>2021-03-06T15:26:36.000Z</time>
      </trkpt>
      <trkpt lat="47.2159" lon="-1.54309">
        <ele>53</ele>
        <time>2021-03-06T15:26:38.000Z</time>
      </trkpt>
      <trkpt lat="47.21606" lon="-1.54326">
        <ele>53</ele>
        <time>2021-03-06T15:26:41.000Z</time>
      </trkpt>
      <trkpt lat="47.21616" lon="-1.54339">
        <ele>53</ele>
        <time>2021-03-06T15:26:43.000Z</time>
      </trkpt>
      <trkpt lat="47.21625" lon="-1.54353">
        <ele>54</ele>
        <time>2021-03-06T15:26:45.000Z</time>
      </trkpt>
      <trkpt lat="47.21628" lon="-1.54384">
        <ele>55</ele>
        <time>2021-03-06T15:26:48.000Z</time>
      </trkpt>
      <trkpt lat="47.21623" lon="-1.54414">
        <ele>55</ele>
        <time>2021-03-06T15:26:51.000Z</time>
      </trkpt>
      <trkpt lat="47.21617" lon="-1.54432">
        <ele>55</ele>
        <time>2021-03-06T15:26:53.000Z</time>
      </trkpt>
      <trkpt lat="47.21616" lon="-1.54451">
        <ele>56</ele>
        <time>2021-03-06T15:26:55.000Z</time>
      </trkpt>
      <trkpt lat="47.21613" lon="-1.54472">
        <ele>57</ele>
        <time>2021-03-06T15:26:57.000Z</time>
      </trkpt>
      <trkpt lat="47.21609" lon="-1.54495">
        <ele>55</ele>
        <time>2021-03-06T15:26:59.000Z</time>
      </trkpt>
      <trkpt lat="47.21604" lon="-1.54511">
        <ele>56</ele>
        <time>2021-03-06T15:27:01.000Z</time>
      </trkpt>
      <trkpt lat="47.21597" lon="-1.54528">
        <ele>56</ele>
        <time>2021-03-06T15:27:03.000Z</time>
      </trkpt>
      <trkpt lat="47.21592" lon="-1.54547">
        <ele>56</ele>
        <time>2021-03-06T15:27:05.000Z</time>
      </trkpt>
      <trkpt lat="47.21586" lon="-1.54564">
        <ele>55</ele>
        <time>2021-03-06T15:27:07.000Z</time>
      </trkpt>
      <trkpt lat="47.2158" lon="-1.54582">
        <ele>56</ele>
        <time>2021-03-06T15:27:09.000Z</time>
      </trkpt>
      <trkpt lat="47.21573" lon="-1.54599">
        <ele>57</ele>
        <time>2021-03-06T15:27:11.000Z</time>
      </trkpt>
      <trkpt lat="47.21566" lon="-1.54618">
        <ele>58</ele>
        <time>2021-03-06T15:27:13.000Z</time>
      </trkpt>
      <trkpt lat="47.21559" lon="-1.54638">
        <ele>59</ele>
        <time>2021-03-06T15:27:15.000Z</time>
      </trkpt>
      <trkpt lat="47.21551" lon="-1.54656">
        <ele>59</ele>
        <time>2021-03-06T15:27:17.000Z</time>
      </trkpt>
      <trkpt lat="47.21545" lon="-1.54675">
        <ele>59</ele>
        <time>2021-03-06T15:27:19.000Z</time>
      </trkpt>
      <trkpt lat="47.21539" lon="-1.54688">
        <ele>59</ele>
        <time>2021-03-06T15:27:21.000Z</time>
      </trkpt>
      <trkpt lat="47.21536" lon="-1.54705">
        <ele>60</ele>
        <time>2021-03-06T15:27:23.000Z</time>
      </trkpt>
      <trkpt lat="47.21528" lon="-1.54722">
        <ele>58</ele>
        <time>2021-03-06T15:27:25.000Z</time>
      </trkpt>
      <trkpt lat="47.21523" lon="-1.5474">
        <ele>57</ele>
        <time>2021-03-06T15:27:27.000Z</time>
      </trkpt>
      <trkpt lat="47.21516" lon="-1.54758">
        <ele>58</ele>
        <time>2021-03-06T15:27:29.000Z</time>
      </trkpt>
      <trkpt lat="47.21509" lon="-1.54777">
        <ele>58</ele>
        <time>2021-03-06T15:27:31.000Z</time>
      </trkpt>
      <trkpt lat="47.21502" lon="-1.54795">
        <ele>58</ele>
        <time>2021-03-06T15:27:33.000Z</time>
      </trkpt>
      <trkpt lat="47.21499" lon="-1.54811">
        <ele>56</ele>
        <time>2021-03-06T15:27:35.000Z</time>
      </trkpt>
      <trkpt lat="47.21482" lon="-1.54836">
        <ele>58</ele>
        <time>2021-03-06T15:27:38.000Z</time>
      </trkpt>
      <trkpt lat="47.21473" lon="-1.54854">
        <ele>57</ele>
        <time>2021-03-06T15:27:40.000Z</time>
      </trkpt>
      <trkpt lat="47.21457" lon="-1.54888">
        <ele>56</ele>
        <time>2021-03-06T15:27:44.000Z</time>
      </trkpt>
      <trkpt lat="47.21444" lon="-1.54912">
        <ele>56</ele>
        <time>2021-03-06T15:27:47.000Z</time>
      </trkpt>
      <trkpt lat="47.21436" lon="-1.54928">
        <ele>54</ele>
        <time>2021-03-06T15:27:49.000Z</time>
      </trkpt>
      <trkpt lat="47.2143" lon="-1.54946">
        <ele>57</ele>
        <time>2021-03-06T15:27:51.000Z</time>
      </trkpt>
      <trkpt lat="47.21419" lon="-1.54967">
        <ele>58</ele>
        <time>2021-03-06T15:27:53.000Z</time>
      </trkpt>
      <trkpt lat="47.21411" lon="-1.54985">
        <ele>59</ele>
        <time>2021-03-06T15:27:55.000Z</time>
      </trkpt>
      <trkpt lat="47.21403" lon="-1.55003">
        <ele>60</ele>
        <time>2021-03-06T15:27:57.000Z</time>
      </trkpt>
      <trkpt lat="47.21396" lon="-1.55021">
        <ele>61</ele>
        <time>2021-03-06T15:27:59.000Z</time>
      </trkpt>
      <trkpt lat="47.21389" lon="-1.55039">
        <ele>61</ele>
        <time>2021-03-06T15:28:01.000Z</time>
      </trkpt>
      <trkpt lat="47.21381" lon="-1.55056">
        <ele>61</ele>
        <time>2021-03-06T15:28:03.000Z</time>
      </trkpt>
      <trkpt lat="47.21371" lon="-1.55081">
        <ele>61</ele>
        <time>2021-03-06T15:28:06.000Z</time>
      </trkpt>
      <trkpt lat="47.21364" lon="-1.55098">
        <ele>60</ele>
        <time>2021-03-06T15:28:08.000Z</time>
      </trkpt>
      <trkpt lat="47.21357" lon="-1.55114">
        <ele>59</ele>
        <time>2021-03-06T15:28:10.000Z</time>
      </trkpt>
      <trkpt lat="47.21349" lon="-1.55132">
        <ele>59</ele>
        <time>2021-03-06T15:28:12.000Z</time>
      </trkpt>
      <trkpt lat="47.2134" lon="-1.55149">
        <ele>57</ele>
        <time>2021-03-06T15:28:14.000Z</time>
      </trkpt>
      <trkpt lat="47.21335" lon="-1.55165">
        <ele>57</ele>
        <time>2021-03-06T15:28:16.000Z</time>
      </trkpt>
      <trkpt lat="47.21328" lon="-1.55182">
        <ele>58</ele>
        <time>2021-03-06T15:28:18.000Z</time>
      </trkpt>
      <trkpt lat="47.21319" lon="-1.55203">
        <ele>58</ele>
        <time>2021-03-06T15:28:20.000Z</time>
      </trkpt>
      <trkpt lat="47.21313" lon="-1.55219">
        <ele>57</ele>
        <time>2021-03-06T15:28:22.000Z</time>
      </trkpt>
      <trkpt lat="47.21302" lon="-1.55247">
        <ele>57</ele>
        <time>2021-03-06T15:28:25.000Z</time>
      </trkpt>
      <trkpt lat="47.21291" lon="-1.55272">
        <ele>57</ele>
        <time>2021-03-06T15:28:28.000Z</time>
      </trkpt>
      <trkpt lat="47.21286" lon="-1.55289">
        <ele>57</ele>
        <time>2021-03-06T15:28:30.000Z</time>
      </trkpt>
      <trkpt lat="47.21271" lon="-1.553">
        <ele>59</ele>
        <time>2021-03-06T15:28:34.000Z</time>
      </trkpt>
      <trkpt lat="47.21261" lon="-1.55302">
        <ele>59</ele>
        <time>2021-03-06T15:28:36.000Z</time>
      </trkpt>
      <trkpt lat="47.21258" lon="-1.55315">
        <ele>58</ele>
        <time>2021-03-06T15:28:38.000Z</time>
      </trkpt>
      <trkpt lat="47.21261" lon="-1.5533">
        <ele>58</ele>
        <time>2021-03-06T15:28:40.000Z</time>
      </trkpt>
      <trkpt lat="47.21266" lon="-1.55342">
        <ele>57</ele>
        <time>2021-03-06T15:28:42.000Z</time>
      </trkpt>
      <trkpt lat="47.21274" lon="-1.55349">
        <ele>56</ele>
        <time>2021-03-06T15:28:45.000Z</time>
      </trkpt>
      <trkpt lat="47.21283" lon="-1.55354">
        <ele>57</ele>
        <time>2021-03-06T15:28:51.000Z</time>
      </trkpt>
      <trkpt lat="47.21288" lon="-1.55366">
        <ele>57</ele>
        <time>2021-03-06T15:28:53.000Z</time>
      </trkpt>
      <trkpt lat="47.21282" lon="-1.55381">
        <ele>57</ele>
        <time>2021-03-06T15:28:55.000Z</time>
      </trkpt>
      <trkpt lat="47.21274" lon="-1.55392">
        <ele>57</ele>
        <time>2021-03-06T15:28:57.000Z</time>
      </trkpt>
      <trkpt lat="47.21261" lon="-1.5542">
        <ele>58</ele>
        <time>2021-03-06T15:29:00.000Z</time>
      </trkpt>
      <trkpt lat="47.21248" lon="-1.55437">
        <ele>58</ele>
        <time>2021-03-06T15:29:02.000Z</time>
      </trkpt>
      <trkpt lat="47.2123" lon="-1.55463">
        <ele>59</ele>
        <time>2021-03-06T15:29:05.000Z</time>
      </trkpt>
      <trkpt lat="47.2122" lon="-1.55484">
        <ele>58</ele>
        <time>2021-03-06T15:29:07.000Z</time>
      </trkpt>
      <trkpt lat="47.21213" lon="-1.55506">
        <ele>60</ele>
        <time>2021-03-06T15:29:09.000Z</time>
      </trkpt>
      <trkpt lat="47.21205" lon="-1.55529">
        <ele>57</ele>
        <time>2021-03-06T15:29:11.000Z</time>
      </trkpt>
      <trkpt lat="47.21197" lon="-1.5556">
        <ele>58</ele>
        <time>2021-03-06T15:29:14.000Z</time>
      </trkpt>
      <trkpt lat="47.21191" lon="-1.5558">
        <ele>56</ele>
        <time>2021-03-06T15:29:16.000Z</time>
      </trkpt>
      <trkpt lat="47.21187" lon="-1.55599">
        <ele>58</ele>
        <time>2021-03-06T15:29:18.000Z</time>
      </trkpt>
      <trkpt lat="47.21181" lon="-1.55617">
        <ele>57</ele>
        <time>2021-03-06T15:29:20.000Z</time>
      </trkpt>
      <trkpt lat="47.21175" lon="-1.55634">
        <ele>57</ele>
        <time>2021-03-06T15:29:22.000Z</time>
      </trkpt>
      <trkpt lat="47.2117" lon="-1.55653">
        <ele>58</ele>
        <time>2021-03-06T15:29:24.000Z</time>
      </trkpt>
      <trkpt lat="47.21163" lon="-1.55674">
        <ele>56</ele>
        <time>2021-03-06T15:29:26.000Z</time>
      </trkpt>
      <trkpt lat="47.21153" lon="-1.55676">
        <ele>56</ele>
        <time>2021-03-06T15:29:28.000Z</time>
      </trkpt>
      <trkpt lat="47.21145" lon="-1.55667">
        <ele>57</ele>
        <time>2021-03-06T15:29:29.000Z</time>
      </trkpt>
      <trkpt lat="47.21131" lon="-1.55655">
        <ele>56</ele>
        <time>2021-03-06T15:29:31.000Z</time>
      </trkpt>
      <trkpt lat="47.21116" lon="-1.55643">
        <ele>56</ele>
        <time>2021-03-06T15:29:33.000Z</time>
      </trkpt>
      <trkpt lat="47.21101" lon="-1.55633">
        <ele>56</ele>
        <time>2021-03-06T15:29:35.000Z</time>
      </trkpt>
      <trkpt lat="47.21086" lon="-1.5563">
        <ele>55</ele>
        <time>2021-03-06T15:29:37.000Z</time>
      </trkpt>
      <trkpt lat="47.21071" lon="-1.55622">
        <ele>52</ele>
        <time>2021-03-06T15:29:39.000Z</time>
      </trkpt>
      <trkpt lat="47.21063" lon="-1.55617">
        <ele>51</ele>
        <time>2021-03-06T15:29:40.000Z</time>
      </trkpt>
      <trkpt lat="47.21053" lon="-1.5561">
        <ele>51</ele>
        <time>2021-03-06T15:29:41.000Z</time>
      </trkpt>
      <trkpt lat="47.21042" lon="-1.55596">
        <ele>53</ele>
        <time>2021-03-06T15:29:43.000Z</time>
      </trkpt>
      <trkpt lat="47.21014" lon="-1.5559">
        <ele>49</ele>
        <time>2021-03-06T15:29:47.000Z</time>
      </trkpt>
      <trkpt lat="47.21003" lon="-1.55588">
        <ele>47</ele>
        <time>2021-03-06T15:29:49.000Z</time>
      </trkpt>
      <trkpt lat="47.2099" lon="-1.55589">
        <ele>45</ele>
        <time>2021-03-06T15:29:51.000Z</time>
      </trkpt>
      <trkpt lat="47.20976" lon="-1.55594">
        <ele>42</ele>
        <time>2021-03-06T15:29:53.000Z</time>
      </trkpt>
      <trkpt lat="47.20962" lon="-1.55591">
        <ele>42</ele>
        <time>2021-03-06T15:29:55.000Z</time>
      </trkpt>
      <trkpt lat="47.20947" lon="-1.55589">
        <ele>42</ele>
        <time>2021-03-06T15:29:57.000Z</time>
      </trkpt>
      <trkpt lat="47.20935" lon="-1.55577">
        <ele>45</ele>
        <time>2021-03-06T15:29:59.000Z</time>
      </trkpt>
      <trkpt lat="47.20919" lon="-1.55564">
        <ele>47</ele>
        <time>2021-03-06T15:30:01.000Z</time>
      </trkpt>
      <trkpt lat="47.20906" lon="-1.5556">
        <ele>48</ele>
        <time>2021-03-06T15:30:03.000Z</time>
      </trkpt>
      <trkpt lat="47.20886" lon="-1.55558">
        <ele>52</ele>
        <time>2021-03-06T15:30:06.000Z</time>
      </trkpt>
      <trkpt lat="47.20874" lon="-1.55551">
        <ele>54</ele>
        <time>2021-03-06T15:30:08.000Z</time>
      </trkpt>
      <trkpt lat="47.20864" lon="-1.55546">
        <ele>55</ele>
        <time>2021-03-06T15:30:10.000Z</time>
      </trkpt>
      <trkpt lat="47.20853" lon="-1.55542">
        <ele>56</ele>
        <time>2021-03-06T15:30:12.000Z</time>
      </trkpt>
      <trkpt lat="47.20841" lon="-1.55539">
        <ele>57</ele>
        <time>2021-03-06T15:30:14.000Z</time>
      </trkpt>
      <trkpt lat="47.2083" lon="-1.55536">
        <ele>57</ele>
        <time>2021-03-06T15:30:16.000Z</time>
      </trkpt>
      <trkpt lat="47.20819" lon="-1.55534">
        <ele>57</ele>
        <time>2021-03-06T15:30:18.000Z</time>
      </trkpt>
      <trkpt lat="47.20802" lon="-1.5553">
        <ele>57</ele>
        <time>2021-03-06T15:30:21.000Z</time>
      </trkpt>
      <trkpt lat="47.20784" lon="-1.55526">
        <ele>57</ele>
        <time>2021-03-06T15:30:24.000Z</time>
      </trkpt>
      <trkpt lat="47.20771" lon="-1.55524">
        <ele>57</ele>
        <time>2021-03-06T15:30:26.000Z</time>
      </trkpt>
      <trkpt lat="47.20756" lon="-1.5552">
        <ele>56</ele>
        <time>2021-03-06T15:30:28.000Z</time>
      </trkpt>
      <trkpt lat="47.20747" lon="-1.55518">
        <ele>54</ele>
        <time>2021-03-06T15:30:29.000Z</time>
      </trkpt>
      <trkpt lat="47.20722" lon="-1.5551">
        <ele>53</ele>
        <time>2021-03-06T15:30:32.000Z</time>
      </trkpt>
      <trkpt lat="47.20714" lon="-1.55505">
        <ele>53</ele>
        <time>2021-03-06T15:30:33.000Z</time>
      </trkpt>
      <trkpt lat="47.20694" lon="-1.55496">
        <ele>53</ele>
        <time>2021-03-06T15:30:36.000Z</time>
      </trkpt>
      <trkpt lat="47.20684" lon="-1.55497">
        <ele>53</ele>
        <time>2021-03-06T15:30:39.000Z</time>
      </trkpt>
      <trkpt lat="47.20673" lon="-1.55501">
        <ele>51</ele>
        <time>2021-03-06T15:30:44.000Z</time>
      </trkpt>
      <trkpt lat="47.20664" lon="-1.55504">
        <ele>51</ele>
        <time>2021-03-06T15:31:06.000Z</time>
      </trkpt>
      <trkpt lat="47.20654" lon="-1.555">
        <ele>50</ele>
        <time>2021-03-06T15:31:09.000Z</time>
      </trkpt>
      <trkpt lat="47.20641" lon="-1.55499">
        <ele>49</ele>
        <time>2021-03-06T15:31:11.000Z</time>
      </trkpt>
      <trkpt lat="47.20624" lon="-1.55492">
        <ele>50</ele>
        <time>2021-03-06T15:31:14.000Z</time>
      </trkpt>
      <trkpt lat="47.2061" lon="-1.5549">
        <ele>50</ele>
        <time>2021-03-06T15:31:16.000Z</time>
      </trkpt>
      <trkpt lat="47.20596" lon="-1.55488">
        <ele>50</ele>
        <time>2021-03-06T15:31:18.000Z</time>
      </trkpt>
      <trkpt lat="47.20582" lon="-1.55483">
        <ele>50</ele>
        <time>2021-03-06T15:31:20.000Z</time>
      </trkpt>
      <trkpt lat="47.20569" lon="-1.55487">
        <ele>48</ele>
        <time>2021-03-06T15:31:23.000Z</time>
      </trkpt>
      <trkpt lat="47.20555" lon="-1.55498">
        <ele>49</ele>
        <time>2021-03-06T15:31:25.000Z</time>
      </trkpt>
      <trkpt lat="47.20542" lon="-1.55508">
        <ele>49</ele>
        <time>2021-03-06T15:31:27.000Z</time>
      </trkpt>
      <trkpt lat="47.20527" lon="-1.55506">
        <ele>50</ele>
        <time>2021-03-06T15:31:29.000Z</time>
      </trkpt>
      <trkpt lat="47.20514" lon="-1.55492">
        <ele>51</ele>
        <time>2021-03-06T15:31:31.000Z</time>
      </trkpt>
      <trkpt lat="47.20506" lon="-1.55474">
        <ele>52</ele>
        <time>2021-03-06T15:31:33.000Z</time>
      </trkpt>
      <trkpt lat="47.20504" lon="-1.55453">
        <ele>53</ele>
        <time>2021-03-06T15:31:35.000Z</time>
      </trkpt>
      <trkpt lat="47.20505" lon="-1.55427">
        <ele>49</ele>
        <time>2021-03-06T15:31:38.000Z</time>
      </trkpt>
      <trkpt lat="47.20497" lon="-1.55411">
        <ele>50</ele>
        <time>2021-03-06T15:31:40.000Z</time>
      </trkpt>
      <trkpt lat="47.2049" lon="-1.55397">
        <ele>51</ele>
        <time>2021-03-06T15:31:42.000Z</time>
      </trkpt>
      <trkpt lat="47.20484" lon="-1.55384">
        <ele>51</ele>
        <time>2021-03-06T15:31:44.000Z</time>
      </trkpt>
      <trkpt lat="47.20478" lon="-1.55369">
        <ele>50</ele>
        <time>2021-03-06T15:31:47.000Z</time>
      </trkpt>
      <trkpt lat="47.20476" lon="-1.55355">
        <ele>50</ele>
        <time>2021-03-06T15:31:50.000Z</time>
      </trkpt>
      <trkpt lat="47.20465" lon="-1.55335">
        <ele>50</ele>
        <time>2021-03-06T15:31:58.000Z</time>
      </trkpt>
      <trkpt lat="47.2045" lon="-1.55312">
        <ele>52</ele>
        <time>2021-03-06T15:32:01.000Z</time>
      </trkpt>
      <trkpt lat="47.20441" lon="-1.55294">
        <ele>51</ele>
        <time>2021-03-06T15:32:03.000Z</time>
      </trkpt>
      <trkpt lat="47.20432" lon="-1.55278">
        <ele>51</ele>
        <time>2021-03-06T15:32:05.000Z</time>
      </trkpt>
      <trkpt lat="47.20424" lon="-1.5526">
        <ele>50</ele>
        <time>2021-03-06T15:32:07.000Z</time>
      </trkpt>
      <trkpt lat="47.20415" lon="-1.55242">
        <ele>51</ele>
        <time>2021-03-06T15:32:09.000Z</time>
      </trkpt>
      <trkpt lat="47.20407" lon="-1.55227">
        <ele>50</ele>
        <time>2021-03-06T15:32:11.000Z</time>
      </trkpt>
      <trkpt lat="47.20396" lon="-1.55208">
        <ele>47</ele>
        <time>2021-03-06T15:32:14.000Z</time>
      </trkpt>
      <trkpt lat="47.20386" lon="-1.55198">
        <ele>47</ele>
        <time>2021-03-06T15:32:16.000Z</time>
      </trkpt>
      <trkpt lat="47.20377" lon="-1.5519">
        <ele>48</ele>
        <time>2021-03-06T15:32:18.000Z</time>
      </trkpt>
      <trkpt lat="47.20368" lon="-1.552">
        <ele>49</ele>
        <time>2021-03-06T15:32:20.000Z</time>
      </trkpt>
      <trkpt lat="47.20357" lon="-1.55212">
        <ele>50</ele>
        <time>2021-03-06T15:32:22.000Z</time>
      </trkpt>
      <trkpt lat="47.20345" lon="-1.55224">
        <ele>50</ele>
        <time>2021-03-06T15:32:24.000Z</time>
      </trkpt>
      <trkpt lat="47.20333" lon="-1.55238">
        <ele>45</ele>
        <time>2021-03-06T15:32:26.000Z</time>
      </trkpt>
      <trkpt lat="47.2032" lon="-1.55253">
        <ele>46</ele>
        <time>2021-03-06T15:32:28.000Z</time>
      </trkpt>
      <trkpt lat="47.20311" lon="-1.55269">
        <ele>48</ele>
        <time>2021-03-06T15:32:30.000Z</time>
      </trkpt>
      <trkpt lat="47.203" lon="-1.55282">
        <ele>47</ele>
        <time>2021-03-06T15:32:32.000Z</time>
      </trkpt>
      <trkpt lat="47.2029" lon="-1.55297">
        <ele>48</ele>
        <time>2021-03-06T15:32:34.000Z</time>
      </trkpt>
      <trkpt lat="47.20273" lon="-1.55317">
        <ele>51</ele>
        <time>2021-03-06T15:32:37.000Z</time>
      </trkpt>
      <trkpt lat="47.20262" lon="-1.55334">
        <ele>49</ele>
        <time>2021-03-06T15:32:39.000Z</time>
      </trkpt>
      <trkpt lat="47.20245" lon="-1.55358">
        <ele>46</ele>
        <time>2021-03-06T15:32:42.000Z</time>
      </trkpt>
      <trkpt lat="47.2023" lon="-1.55374">
        <ele>50</ele>
        <time>2021-03-06T15:32:45.000Z</time>
      </trkpt>
      <trkpt lat="47.20219" lon="-1.55387">
        <ele>52</ele>
        <time>2021-03-06T15:32:47.000Z</time>
      </trkpt>
      <trkpt lat="47.20209" lon="-1.554">
        <ele>54</ele>
        <time>2021-03-06T15:32:49.000Z</time>
      </trkpt>
      <trkpt lat="47.20196" lon="-1.5542">
        <ele>53</ele>
        <time>2021-03-06T15:32:52.000Z</time>
      </trkpt>
      <trkpt lat="47.20183" lon="-1.55434">
        <ele>53</ele>
        <time>2021-03-06T15:32:54.000Z</time>
      </trkpt>
      <trkpt lat="47.2017" lon="-1.55446">
        <ele>54</ele>
        <time>2021-03-06T15:32:56.000Z</time>
      </trkpt>
      <trkpt lat="47.20151" lon="-1.55463">
        <ele>54</ele>
        <time>2021-03-06T15:32:59.000Z</time>
      </trkpt>
      <trkpt lat="47.20139" lon="-1.55477">
        <ele>54</ele>
        <time>2021-03-06T15:33:01.000Z</time>
      </trkpt>
      <trkpt lat="47.20129" lon="-1.5549">
        <ele>55</ele>
        <time>2021-03-06T15:33:03.000Z</time>
      </trkpt>
      <trkpt lat="47.20117" lon="-1.55506">
        <ele>52</ele>
        <time>2021-03-06T15:33:05.000Z</time>
      </trkpt>
      <trkpt lat="47.20106" lon="-1.5552">
        <ele>53</ele>
        <time>2021-03-06T15:33:07.000Z</time>
      </trkpt>
      <trkpt lat="47.2009" lon="-1.55539">
        <ele>55</ele>
        <time>2021-03-06T15:33:10.000Z</time>
      </trkpt>
      <trkpt lat="47.20079" lon="-1.55552">
        <ele>55</ele>
        <time>2021-03-06T15:33:12.000Z</time>
      </trkpt>
      <trkpt lat="47.20069" lon="-1.55569">
        <ele>53</ele>
        <time>2021-03-06T15:33:14.000Z</time>
      </trkpt>
      <trkpt lat="47.20059" lon="-1.55584">
        <ele>52</ele>
        <time>2021-03-06T15:33:16.000Z</time>
      </trkpt>
      <trkpt lat="47.20048" lon="-1.55593">
        <ele>53</ele>
        <time>2021-03-06T15:33:18.000Z</time>
      </trkpt>
      <trkpt lat="47.20032" lon="-1.55615">
        <ele>54</ele>
        <time>2021-03-06T15:33:21.000Z</time>
      </trkpt>
      <trkpt lat="47.20023" lon="-1.55628">
        <ele>55</ele>
        <time>2021-03-06T15:33:23.000Z</time>
      </trkpt>
      <trkpt lat="47.20011" lon="-1.55634">
        <ele>56</ele>
        <time>2021-03-06T15:33:25.000Z</time>
      </trkpt>
      <trkpt lat="47.19998" lon="-1.55635">
        <ele>56</ele>
        <time>2021-03-06T15:33:27.000Z</time>
      </trkpt>
      <trkpt lat="47.19987" lon="-1.55643">
        <ele>55</ele>
        <time>2021-03-06T15:33:29.000Z</time>
      </trkpt>
      <trkpt lat="47.19975" lon="-1.55652">
        <ele>54</ele>
        <time>2021-03-06T15:33:31.000Z</time>
      </trkpt>
      <trkpt lat="47.19963" lon="-1.55659">
        <ele>55</ele>
        <time>2021-03-06T15:33:33.000Z</time>
      </trkpt>
      <trkpt lat="47.19952" lon="-1.5567">
        <ele>55</ele>
        <time>2021-03-06T15:33:35.000Z</time>
      </trkpt>
      <trkpt lat="47.19943" lon="-1.55686">
        <ele>55</ele>
        <time>2021-03-06T15:33:37.000Z</time>
      </trkpt>
      <trkpt lat="47.19936" lon="-1.55704">
        <ele>55</ele>
        <time>2021-03-06T15:33:39.000Z</time>
      </trkpt>
      <trkpt lat="47.19933" lon="-1.55724">
        <ele>55</ele>
        <time>2021-03-06T15:33:41.000Z</time>
      </trkpt>
      <trkpt lat="47.19931" lon="-1.55748">
        <ele>53</ele>
        <time>2021-03-06T15:33:43.000Z</time>
      </trkpt>
      <trkpt lat="47.19931" lon="-1.55768">
        <ele>55</ele>
        <time>2021-03-06T15:33:45.000Z</time>
      </trkpt>
      <trkpt lat="47.19935" lon="-1.55799">
        <ele>53</ele>
        <time>2021-03-06T15:33:48.000Z</time>
      </trkpt>
      <trkpt lat="47.19934" lon="-1.55818">
        <ele>53</ele>
        <time>2021-03-06T15:33:50.000Z</time>
      </trkpt>
      <trkpt lat="47.19934" lon="-1.5584">
        <ele>51</ele>
        <time>2021-03-06T15:33:52.000Z</time>
      </trkpt>
      <trkpt lat="47.19933" lon="-1.55859">
        <ele>52</ele>
        <time>2021-03-06T15:33:54.000Z</time>
      </trkpt>
      <trkpt lat="47.19936" lon="-1.5589">
        <ele>51</ele>
        <time>2021-03-06T15:33:57.000Z</time>
      </trkpt>
      <trkpt lat="47.19934" lon="-1.55911">
        <ele>53</ele>
        <time>2021-03-06T15:33:59.000Z</time>
      </trkpt>
      <trkpt lat="47.19934" lon="-1.55932">
        <ele>53</ele>
        <time>2021-03-06T15:34:01.000Z</time>
      </trkpt>
      <trkpt lat="47.19934" lon="-1.55953">
        <ele>53</ele>
        <time>2021-03-06T15:34:03.000Z</time>
      </trkpt>
      <trkpt lat="47.19934" lon="-1.55973">
        <ele>53</ele>
        <time>2021-03-06T15:34:05.000Z</time>
      </trkpt>
      <trkpt lat="47.19936" lon="-1.55993">
        <ele>53</ele>
        <time>2021-03-06T15:34:07.000Z</time>
      </trkpt>
      <trkpt lat="47.19935" lon="-1.56014">
        <ele>54</ele>
        <time>2021-03-06T15:34:09.000Z</time>
      </trkpt>
      <trkpt lat="47.19935" lon="-1.56034">
        <ele>54</ele>
        <time>2021-03-06T15:34:11.000Z</time>
      </trkpt>
      <trkpt lat="47.19935" lon="-1.56054">
        <ele>55</ele>
        <time>2021-03-06T15:34:13.000Z</time>
      </trkpt>
      <trkpt lat="47.19938" lon="-1.56074">
        <ele>54</ele>
        <time>2021-03-06T15:34:15.000Z</time>
      </trkpt>
      <trkpt lat="47.19949" lon="-1.56098">
        <ele>54</ele>
        <time>2021-03-06T15:34:18.000Z</time>
      </trkpt>
      <trkpt lat="47.19957" lon="-1.56113">
        <ele>51</ele>
        <time>2021-03-06T15:34:20.000Z</time>
      </trkpt>
      <trkpt lat="47.19959" lon="-1.56132">
        <ele>53</ele>
        <time>2021-03-06T15:34:23.000Z</time>
      </trkpt>
      <trkpt lat="47.19967" lon="-1.5614">
        <ele>54</ele>
        <time>2021-03-06T15:34:27.000Z</time>
      </trkpt>
      <trkpt lat="47.19968" lon="-1.56162">
        <ele>54</ele>
        <time>2021-03-06T15:34:31.000Z</time>
      </trkpt>
      <trkpt lat="47.19957" lon="-1.56168">
        <ele>54</ele>
        <time>2021-03-06T15:34:33.000Z</time>
      </trkpt>
      <trkpt lat="47.19944" lon="-1.56172">
        <ele>53</ele>
        <time>2021-03-06T15:34:35.000Z</time>
      </trkpt>
      <trkpt lat="47.1993" lon="-1.56176">
        <ele>54</ele>
        <time>2021-03-06T15:34:37.000Z</time>
      </trkpt>
      <trkpt lat="47.19915" lon="-1.56176">
        <ele>55</ele>
        <time>2021-03-06T15:34:39.000Z</time>
      </trkpt>
      <trkpt lat="47.19894" lon="-1.56181">
        <ele>55</ele>
        <time>2021-03-06T15:34:42.000Z</time>
      </trkpt>
      <trkpt lat="47.19879" lon="-1.56186">
        <ele>54</ele>
        <time>2021-03-06T15:34:44.000Z</time>
      </trkpt>
      <trkpt lat="47.19865" lon="-1.5619">
        <ele>54</ele>
        <time>2021-03-06T15:34:46.000Z</time>
      </trkpt>
      <trkpt lat="47.19854" lon="-1.56187">
        <ele>56</ele>
        <time>2021-03-06T15:34:48.000Z</time>
      </trkpt>
      <trkpt lat="47.19835" lon="-1.5619">
        <ele>57</ele>
        <time>2021-03-06T15:34:51.000Z</time>
      </trkpt>
      <trkpt lat="47.19821" lon="-1.56193">
        <ele>58</ele>
        <time>2021-03-06T15:34:53.000Z</time>
      </trkpt>
      <trkpt lat="47.19808" lon="-1.56197">
        <ele>58</ele>
        <time>2021-03-06T15:34:55.000Z</time>
      </trkpt>
      <trkpt lat="47.19796" lon="-1.56199">
        <ele>59</ele>
        <time>2021-03-06T15:34:57.000Z</time>
      </trkpt>
      <trkpt lat="47.19783" lon="-1.562">
        <ele>59</ele>
        <time>2021-03-06T15:34:59.000Z</time>
      </trkpt>
      <trkpt lat="47.19759" lon="-1.56207">
        <ele>54</ele>
        <time>2021-03-06T15:35:02.000Z</time>
      </trkpt>
      <trkpt lat="47.19739" lon="-1.56209">
        <ele>54</ele>
        <time>2021-03-06T15:35:05.000Z</time>
      </trkpt>
      <trkpt lat="47.19725" lon="-1.56211">
        <ele>56</ele>
        <time>2021-03-06T15:35:07.000Z</time>
      </trkpt>
      <trkpt lat="47.1971" lon="-1.56214">
        <ele>55</ele>
        <time>2021-03-06T15:35:09.000Z</time>
      </trkpt>
      <trkpt lat="47.19693" lon="-1.5622">
        <ele>52</ele>
        <time>2021-03-06T15:35:11.000Z</time>
      </trkpt>
      <trkpt lat="47.19677" lon="-1.56222">
        <ele>53</ele>
        <time>2021-03-06T15:35:13.000Z</time>
      </trkpt>
      <trkpt lat="47.19667" lon="-1.56225">
        <ele>51</ele>
        <time>2021-03-06T15:35:14.000Z</time>
      </trkpt>
      <trkpt lat="47.19657" lon="-1.5623">
        <ele>50</ele>
        <time>2021-03-06T15:35:15.000Z</time>
      </trkpt>
      <trkpt lat="47.19644" lon="-1.56232">
        <ele>51</ele>
        <time>2021-03-06T15:35:17.000Z</time>
      </trkpt>
      <trkpt lat="47.19637" lon="-1.56244">
        <ele>52</ele>
        <time>2021-03-06T15:35:19.000Z</time>
      </trkpt>
      <trkpt lat="47.19636" lon="-1.56273">
        <ele>52</ele>
        <time>2021-03-06T15:35:22.000Z</time>
      </trkpt>
      <trkpt lat="47.19635" lon="-1.56294">
        <ele>53</ele>
        <time>2021-03-06T15:35:24.000Z</time>
      </trkpt>
      <trkpt lat="47.19634" lon="-1.56315">
        <ele>53</ele>
        <time>2021-03-06T15:35:26.000Z</time>
      </trkpt>
      <trkpt lat="47.19633" lon="-1.56337">
        <ele>52</ele>
        <time>2021-03-06T15:35:28.000Z</time>
      </trkpt>
      <trkpt lat="47.19637" lon="-1.56358">
        <ele>51</ele>
        <time>2021-03-06T15:35:30.000Z</time>
      </trkpt>
      <trkpt lat="47.19635" lon="-1.56378">
        <ele>52</ele>
        <time>2021-03-06T15:35:32.000Z</time>
      </trkpt>
      <trkpt lat="47.19634" lon="-1.56399">
        <ele>51</ele>
        <time>2021-03-06T15:35:34.000Z</time>
      </trkpt>
      <trkpt lat="47.19635" lon="-1.56422">
        <ele>52</ele>
        <time>2021-03-06T15:35:36.000Z</time>
      </trkpt>
      <trkpt lat="47.19635" lon="-1.56443">
        <ele>49</ele>
        <time>2021-03-06T15:35:38.000Z</time>
      </trkpt>
      <trkpt lat="47.19636" lon="-1.56465">
        <ele>50</ele>
        <time>2021-03-06T15:35:40.000Z</time>
      </trkpt>
      <trkpt lat="47.19637" lon="-1.56488">
        <ele>48</ele>
        <time>2021-03-06T15:35:42.000Z</time>
      </trkpt>
      <trkpt lat="47.19637" lon="-1.56508">
        <ele>49</ele>
        <time>2021-03-06T15:35:44.000Z</time>
      </trkpt>
      <trkpt lat="47.19636" lon="-1.56529">
        <ele>50</ele>
        <time>2021-03-06T15:35:46.000Z</time>
      </trkpt>
      <trkpt lat="47.19637" lon="-1.5656">
        <ele>52</ele>
        <time>2021-03-06T15:35:49.000Z</time>
      </trkpt>
      <trkpt lat="47.19638" lon="-1.56583">
        <ele>52</ele>
        <time>2021-03-06T15:35:51.000Z</time>
      </trkpt>
      <trkpt lat="47.19638" lon="-1.56611">
        <ele>52</ele>
        <time>2021-03-06T15:35:54.000Z</time>
      </trkpt>
      <trkpt lat="47.19639" lon="-1.56636">
        <ele>49</ele>
        <time>2021-03-06T15:35:57.000Z</time>
      </trkpt>
      <trkpt lat="47.19637" lon="-1.56659">
        <ele>50</ele>
        <time>2021-03-06T15:35:59.000Z</time>
      </trkpt>
      <trkpt lat="47.19634" lon="-1.56683">
        <ele>51</ele>
        <time>2021-03-06T15:36:01.000Z</time>
      </trkpt>
      <trkpt lat="47.19631" lon="-1.56706">
        <ele>54</ele>
        <time>2021-03-06T15:36:03.000Z</time>
      </trkpt>
      <trkpt lat="47.1963" lon="-1.56726">
        <ele>53</ele>
        <time>2021-03-06T15:36:05.000Z</time>
      </trkpt>
      <trkpt lat="47.19626" lon="-1.56759">
        <ele>53</ele>
        <time>2021-03-06T15:36:08.000Z</time>
      </trkpt>
      <trkpt lat="47.19623" lon="-1.5678">
        <ele>53</ele>
        <time>2021-03-06T15:36:10.000Z</time>
      </trkpt>
      <trkpt lat="47.19623" lon="-1.56801">
        <ele>55</ele>
        <time>2021-03-06T15:36:12.000Z</time>
      </trkpt>
      <trkpt lat="47.19621" lon="-1.56822">
        <ele>55</ele>
        <time>2021-03-06T15:36:14.000Z</time>
      </trkpt>
      <trkpt lat="47.1962" lon="-1.56844">
        <ele>54</ele>
        <time>2021-03-06T15:36:16.000Z</time>
      </trkpt>
      <trkpt lat="47.1962" lon="-1.56864">
        <ele>53</ele>
        <time>2021-03-06T15:36:18.000Z</time>
      </trkpt>
      <trkpt lat="47.19616" lon="-1.56896">
        <ele>53</ele>
        <time>2021-03-06T15:36:21.000Z</time>
      </trkpt>
      <trkpt lat="47.19613" lon="-1.56919">
        <ele>51</ele>
        <time>2021-03-06T15:36:23.000Z</time>
      </trkpt>
      <trkpt lat="47.19611" lon="-1.56948">
        <ele>51</ele>
        <time>2021-03-06T15:36:26.000Z</time>
      </trkpt>
      <trkpt lat="47.19609" lon="-1.56978">
        <ele>50</ele>
        <time>2021-03-06T15:36:29.000Z</time>
      </trkpt>
      <trkpt lat="47.19609" lon="-1.56997">
        <ele>51</ele>
        <time>2021-03-06T15:36:31.000Z</time>
      </trkpt>
      <trkpt lat="47.19607" lon="-1.57017">
        <ele>52</ele>
        <time>2021-03-06T15:36:33.000Z</time>
      </trkpt>
      <trkpt lat="47.19606" lon="-1.57048">
        <ele>51</ele>
        <time>2021-03-06T15:36:36.000Z</time>
      </trkpt>
      <trkpt lat="47.19604" lon="-1.57068">
        <ele>53</ele>
        <time>2021-03-06T15:36:38.000Z</time>
      </trkpt>
      <trkpt lat="47.19604" lon="-1.57088">
        <ele>54</ele>
        <time>2021-03-06T15:36:40.000Z</time>
      </trkpt>
      <trkpt lat="47.19603" lon="-1.57107">
        <ele>53</ele>
        <time>2021-03-06T15:36:42.000Z</time>
      </trkpt>
      <trkpt lat="47.19602" lon="-1.57146">
        <ele>54</ele>
        <time>2021-03-06T15:36:46.000Z</time>
      </trkpt>
      <trkpt lat="47.19599" lon="-1.57166">
        <ele>55</ele>
        <time>2021-03-06T15:36:48.000Z</time>
      </trkpt>
      <trkpt lat="47.19597" lon="-1.57186">
        <ele>55</ele>
        <time>2021-03-06T15:36:50.000Z</time>
      </trkpt>
      <trkpt lat="47.19595" lon="-1.57216">
        <ele>55</ele>
        <time>2021-03-06T15:36:53.000Z</time>
      </trkpt>
      <trkpt lat="47.19593" lon="-1.57234">
        <ele>54</ele>
        <time>2021-03-06T15:36:55.000Z</time>
      </trkpt>
      <trkpt lat="47.19593" lon="-1.57255">
        <ele>54</ele>
        <time>2021-03-06T15:36:57.000Z</time>
      </trkpt>
      <trkpt lat="47.19591" lon="-1.57275">
        <ele>54</ele>
        <time>2021-03-06T15:36:59.000Z</time>
      </trkpt>
      <trkpt lat="47.19589" lon="-1.57294">
        <ele>54</ele>
        <time>2021-03-06T15:37:01.000Z</time>
      </trkpt>
      <trkpt lat="47.19588" lon="-1.57315">
        <ele>55</ele>
        <time>2021-03-06T15:37:03.000Z</time>
      </trkpt>
      <trkpt lat="47.19584" lon="-1.57344">
        <ele>56</ele>
        <time>2021-03-06T15:37:06.000Z</time>
      </trkpt>
      <trkpt lat="47.1958" lon="-1.57361">
        <ele>56</ele>
        <time>2021-03-06T15:37:08.000Z</time>
      </trkpt>
      <trkpt lat="47.19577" lon="-1.57388">
        <ele>54</ele>
        <time>2021-03-06T15:37:11.000Z</time>
      </trkpt>
      <trkpt lat="47.19574" lon="-1.57405">
        <ele>53</ele>
        <time>2021-03-06T15:37:13.000Z</time>
      </trkpt>
      <trkpt lat="47.19567" lon="-1.57436">
        <ele>53</ele>
        <time>2021-03-06T15:37:16.000Z</time>
      </trkpt>
      <trkpt lat="47.19563" lon="-1.57464">
        <ele>52</ele>
        <time>2021-03-06T15:37:19.000Z</time>
      </trkpt>
      <trkpt lat="47.19558" lon="-1.57484">
        <ele>52</ele>
        <time>2021-03-06T15:37:21.000Z</time>
      </trkpt>
      <trkpt lat="47.19555" lon="-1.57504">
        <ele>51</ele>
        <time>2021-03-06T15:37:23.000Z</time>
      </trkpt>
      <trkpt lat="47.1955" lon="-1.57525">
        <ele>52</ele>
        <time>2021-03-06T15:37:25.000Z</time>
      </trkpt>
      <trkpt lat="47.19546" lon="-1.57545">
        <ele>53</ele>
        <time>2021-03-06T15:37:27.000Z</time>
      </trkpt>
      <trkpt lat="47.19542" lon="-1.57563">
        <ele>51</ele>
        <time>2021-03-06T15:37:29.000Z</time>
      </trkpt>
      <trkpt lat="47.19537" lon="-1.57584">
        <ele>50</ele>
        <time>2021-03-06T15:37:31.000Z</time>
      </trkpt>
      <trkpt lat="47.19532" lon="-1.57604">
        <ele>50</ele>
        <time>2021-03-06T15:37:33.000Z</time>
      </trkpt>
      <trkpt lat="47.19529" lon="-1.57621">
        <ele>51</ele>
        <time>2021-03-06T15:37:35.000Z</time>
      </trkpt>
      <trkpt lat="47.19525" lon="-1.57639">
        <ele>52</ele>
        <time>2021-03-06T15:37:37.000Z</time>
      </trkpt>
      <trkpt lat="47.19523" lon="-1.57656">
        <ele>50</ele>
        <time>2021-03-06T15:37:39.000Z</time>
      </trkpt>
      <trkpt lat="47.1952" lon="-1.57676">
        <ele>49</ele>
        <time>2021-03-06T15:37:41.000Z</time>
      </trkpt>
      <trkpt lat="47.19514" lon="-1.57697">
        <ele>49</ele>
        <time>2021-03-06T15:37:43.000Z</time>
      </trkpt>
      <trkpt lat="47.19507" lon="-1.57725">
        <ele>49</ele>
        <time>2021-03-06T15:37:46.000Z</time>
      </trkpt>
      <trkpt lat="47.19501" lon="-1.57755">
        <ele>51</ele>
        <time>2021-03-06T15:37:49.000Z</time>
      </trkpt>
      <trkpt lat="47.19496" lon="-1.57776">
        <ele>52</ele>
        <time>2021-03-06T15:37:51.000Z</time>
      </trkpt>
      <trkpt lat="47.1949" lon="-1.57805">
        <ele>53</ele>
        <time>2021-03-06T15:37:54.000Z</time>
      </trkpt>
      <trkpt lat="47.19487" lon="-1.57826">
        <ele>53</ele>
        <time>2021-03-06T15:37:56.000Z</time>
      </trkpt>
      <trkpt lat="47.19487" lon="-1.57845">
        <ele>52</ele>
        <time>2021-03-06T15:37:58.000Z</time>
      </trkpt>
      <trkpt lat="47.19482" lon="-1.57876">
        <ele>52</ele>
        <time>2021-03-06T15:38:01.000Z</time>
      </trkpt>
      <trkpt lat="47.19478" lon="-1.57897">
        <ele>51</ele>
        <time>2021-03-06T15:38:03.000Z</time>
      </trkpt>
      <trkpt lat="47.19476" lon="-1.57919">
        <ele>51</ele>
        <time>2021-03-06T15:38:05.000Z</time>
      </trkpt>
      <trkpt lat="47.19474" lon="-1.57939">
        <ele>51</ele>
        <time>2021-03-06T15:38:07.000Z</time>
      </trkpt>
      <trkpt lat="47.19471" lon="-1.57958">
        <ele>53</ele>
        <time>2021-03-06T15:38:09.000Z</time>
      </trkpt>
      <trkpt lat="47.19468" lon="-1.57978">
        <ele>52</ele>
        <time>2021-03-06T15:38:11.000Z</time>
      </trkpt>
      <trkpt lat="47.19467" lon="-1.57998">
        <ele>53</ele>
        <time>2021-03-06T15:38:13.000Z</time>
      </trkpt>
      <trkpt lat="47.19466" lon="-1.58016">
        <ele>53</ele>
        <time>2021-03-06T15:38:15.000Z</time>
      </trkpt>
      <trkpt lat="47.19466" lon="-1.5804">
        <ele>51</ele>
        <time>2021-03-06T15:38:18.000Z</time>
      </trkpt>
      <trkpt lat="47.19461" lon="-1.58065">
        <ele>49</ele>
        <time>2021-03-06T15:38:21.000Z</time>
      </trkpt>
      <trkpt lat="47.19458" lon="-1.58083">
        <ele>49</ele>
        <time>2021-03-06T15:38:23.000Z</time>
      </trkpt>
      <trkpt lat="47.19454" lon="-1.58101">
        <ele>50</ele>
        <time>2021-03-06T15:38:25.000Z</time>
      </trkpt>
      <trkpt lat="47.19439" lon="-1.58126">
        <ele>50</ele>
        <time>2021-03-06T15:38:28.000Z</time>
      </trkpt>
      <trkpt lat="47.19426" lon="-1.58136">
        <ele>50</ele>
        <time>2021-03-06T15:38:30.000Z</time>
      </trkpt>
      <trkpt lat="47.19416" lon="-1.58145">
        <ele>50</ele>
        <time>2021-03-06T15:38:32.000Z</time>
      </trkpt>
      <trkpt lat="47.19404" lon="-1.58161">
        <ele>53</ele>
        <time>2021-03-06T15:38:35.000Z</time>
      </trkpt>
      <trkpt lat="47.19397" lon="-1.58171">
        <ele>53</ele>
        <time>2021-03-06T15:38:38.000Z</time>
      </trkpt>
      <trkpt lat="47.19391" lon="-1.58189">
        <ele>53</ele>
        <time>2021-03-06T15:38:47.000Z</time>
      </trkpt>
      <trkpt lat="47.19386" lon="-1.58201">
        <ele>55</ele>
        <time>2021-03-06T15:38:49.000Z</time>
      </trkpt>
      <trkpt lat="47.19381" lon="-1.58216">
        <ele>55</ele>
        <time>2021-03-06T15:38:51.000Z</time>
      </trkpt>
      <trkpt lat="47.19375" lon="-1.58231">
        <ele>55</ele>
        <time>2021-03-06T15:38:53.000Z</time>
      </trkpt>
      <trkpt lat="47.1937" lon="-1.58245">
        <ele>55</ele>
        <time>2021-03-06T15:38:55.000Z</time>
      </trkpt>
      <trkpt lat="47.19364" lon="-1.58261">
        <ele>56</ele>
        <time>2021-03-06T15:38:57.000Z</time>
      </trkpt>
      <trkpt lat="47.19355" lon="-1.58275">
        <ele>56</ele>
        <time>2021-03-06T15:38:59.000Z</time>
      </trkpt>
      <trkpt lat="47.19344" lon="-1.58287">
        <ele>56</ele>
        <time>2021-03-06T15:39:01.000Z</time>
      </trkpt>
      <trkpt lat="47.19333" lon="-1.58299">
        <ele>58</ele>
        <time>2021-03-06T15:39:03.000Z</time>
      </trkpt>
      <trkpt lat="47.19322" lon="-1.5831">
        <ele>60</ele>
        <time>2021-03-06T15:39:05.000Z</time>
      </trkpt>
      <trkpt lat="47.1931" lon="-1.5832">
        <ele>59</ele>
        <time>2021-03-06T15:39:07.000Z</time>
      </trkpt>
      <trkpt lat="47.19299" lon="-1.58329">
        <ele>58</ele>
        <time>2021-03-06T15:39:09.000Z</time>
      </trkpt>
      <trkpt lat="47.19287" lon="-1.5834">
        <ele>58</ele>
        <time>2021-03-06T15:39:11.000Z</time>
      </trkpt>
      <trkpt lat="47.19275" lon="-1.58352">
        <ele>57</ele>
        <time>2021-03-06T15:39:13.000Z</time>
      </trkpt>
      <trkpt lat="47.19263" lon="-1.58365">
        <ele>53</ele>
        <time>2021-03-06T15:39:15.000Z</time>
      </trkpt>
      <trkpt lat="47.19252" lon="-1.58375">
        <ele>53</ele>
        <time>2021-03-06T15:39:17.000Z</time>
      </trkpt>
      <trkpt lat="47.1924" lon="-1.58385">
        <ele>54</ele>
        <time>2021-03-06T15:39:19.000Z</time>
      </trkpt>
      <trkpt lat="47.19228" lon="-1.58396">
        <ele>53</ele>
        <time>2021-03-06T15:39:21.000Z</time>
      </trkpt>
      <trkpt lat="47.19217" lon="-1.58406">
        <ele>54</ele>
        <time>2021-03-06T15:39:23.000Z</time>
      </trkpt>
      <trkpt lat="47.19205" lon="-1.58417">
        <ele>53</ele>
        <time>2021-03-06T15:39:25.000Z</time>
      </trkpt>
      <trkpt lat="47.19193" lon="-1.58427">
        <ele>53</ele>
        <time>2021-03-06T15:39:27.000Z</time>
      </trkpt>
      <trkpt lat="47.19182" lon="-1.58438">
        <ele>53</ele>
        <time>2021-03-06T15:39:29.000Z</time>
      </trkpt>
      <trkpt lat="47.19172" lon="-1.58449">
        <ele>53</ele>
        <time>2021-03-06T15:39:31.000Z</time>
      </trkpt>
      <trkpt lat="47.19157" lon="-1.58464">
        <ele>51</ele>
        <time>2021-03-06T15:39:34.000Z</time>
      </trkpt>
      <trkpt lat="47.1915" lon="-1.58475">
        <ele>48</ele>
        <time>2021-03-06T15:39:36.000Z</time>
      </trkpt>
      <trkpt lat="47.1914" lon="-1.58482">
        <ele>49</ele>
        <time>2021-03-06T15:39:38.000Z</time>
      </trkpt>
      <trkpt lat="47.19128" lon="-1.58492">
        <ele>50</ele>
        <time>2021-03-06T15:39:40.000Z</time>
      </trkpt>
      <trkpt lat="47.19116" lon="-1.58504">
        <ele>50</ele>
        <time>2021-03-06T15:39:42.000Z</time>
      </trkpt>
      <trkpt lat="47.19105" lon="-1.58515">
        <ele>51</ele>
        <time>2021-03-06T15:39:44.000Z</time>
      </trkpt>
      <trkpt lat="47.19094" lon="-1.58525">
        <ele>51</ele>
        <time>2021-03-06T15:39:46.000Z</time>
      </trkpt>
      <trkpt lat="47.19082" lon="-1.58536">
        <ele>52</ele>
        <time>2021-03-06T15:39:48.000Z</time>
      </trkpt>
      <trkpt lat="47.19072" lon="-1.58547">
        <ele>52</ele>
        <time>2021-03-06T15:39:50.000Z</time>
      </trkpt>
      <trkpt lat="47.1905" lon="-1.58572">
        <ele>52</ele>
        <time>2021-03-06T15:39:54.000Z</time>
      </trkpt>
      <trkpt lat="47.19039" lon="-1.58585">
        <ele>52</ele>
        <time>2021-03-06T15:39:56.000Z</time>
      </trkpt>
      <trkpt lat="47.19027" lon="-1.58595">
        <ele>52</ele>
        <time>2021-03-06T15:39:58.000Z</time>
      </trkpt>
      <trkpt lat="47.19016" lon="-1.58604">
        <ele>52</ele>
        <time>2021-03-06T15:40:00.000Z</time>
      </trkpt>
      <trkpt lat="47.18998" lon="-1.58622">
        <ele>49</ele>
        <time>2021-03-06T15:40:03.000Z</time>
      </trkpt>
      <trkpt lat="47.18988" lon="-1.58634">
        <ele>48</ele>
        <time>2021-03-06T15:40:05.000Z</time>
      </trkpt>
      <trkpt lat="47.18979" lon="-1.58645">
        <ele>49</ele>
        <time>2021-03-06T15:40:07.000Z</time>
      </trkpt>
      <trkpt lat="47.18968" lon="-1.58656">
        <ele>49</ele>
        <time>2021-03-06T15:40:09.000Z</time>
      </trkpt>
      <trkpt lat="47.18949" lon="-1.58672">
        <ele>52</ele>
        <time>2021-03-06T15:40:12.000Z</time>
      </trkpt>
      <trkpt lat="47.18938" lon="-1.58682">
        <ele>52</ele>
        <time>2021-03-06T15:40:14.000Z</time>
      </trkpt>
      <trkpt lat="47.18927" lon="-1.58692">
        <ele>53</ele>
        <time>2021-03-06T15:40:16.000Z</time>
      </trkpt>
      <trkpt lat="47.18911" lon="-1.58712">
        <ele>51</ele>
        <time>2021-03-06T15:40:19.000Z</time>
      </trkpt>
      <trkpt lat="47.18898" lon="-1.58718">
        <ele>51</ele>
        <time>2021-03-06T15:40:21.000Z</time>
      </trkpt>
      <trkpt lat="47.18886" lon="-1.58724">
        <ele>52</ele>
        <time>2021-03-06T15:40:23.000Z</time>
      </trkpt>
      <trkpt lat="47.18874" lon="-1.58729">
        <ele>52</ele>
        <time>2021-03-06T15:40:25.000Z</time>
      </trkpt>
      <trkpt lat="47.18863" lon="-1.58737">
        <ele>53</ele>
        <time>2021-03-06T15:40:27.000Z</time>
      </trkpt>
      <trkpt lat="47.18851" lon="-1.58739">
        <ele>54</ele>
        <time>2021-03-06T15:40:29.000Z</time>
      </trkpt>
      <trkpt lat="47.1884" lon="-1.58746">
        <ele>54</ele>
        <time>2021-03-06T15:40:31.000Z</time>
      </trkpt>
      <trkpt lat="47.18834" lon="-1.58761">
        <ele>53</ele>
        <time>2021-03-06T15:40:33.000Z</time>
      </trkpt>
      <trkpt lat="47.18832" lon="-1.5878">
        <ele>51</ele>
        <time>2021-03-06T15:40:35.000Z</time>
      </trkpt>
      <trkpt lat="47.18823" lon="-1.58793">
        <ele>52</ele>
        <time>2021-03-06T15:40:37.000Z</time>
      </trkpt>
      <trkpt lat="47.18812" lon="-1.58805">
        <ele>53</ele>
        <time>2021-03-06T15:40:39.000Z</time>
      </trkpt>
      <trkpt lat="47.18799" lon="-1.58814">
        <ele>54</ele>
        <time>2021-03-06T15:40:41.000Z</time>
      </trkpt>
      <trkpt lat="47.18791" lon="-1.58827">
        <ele>54</ele>
        <time>2021-03-06T15:40:43.000Z</time>
      </trkpt>
      <trkpt lat="47.18787" lon="-1.58849">
        <ele>55</ele>
        <time>2021-03-06T15:40:45.000Z</time>
      </trkpt>
      <trkpt lat="47.18784" lon="-1.5887">
        <ele>55</ele>
        <time>2021-03-06T15:40:47.000Z</time>
      </trkpt>
      <trkpt lat="47.18779" lon="-1.58891">
        <ele>55</ele>
        <time>2021-03-06T15:40:49.000Z</time>
      </trkpt>
      <trkpt lat="47.18777" lon="-1.58912">
        <ele>55</ele>
        <time>2021-03-06T15:40:51.000Z</time>
      </trkpt>
      <trkpt lat="47.18773" lon="-1.58933">
        <ele>55</ele>
        <time>2021-03-06T15:40:53.000Z</time>
      </trkpt>
      <trkpt lat="47.1877" lon="-1.58955">
        <ele>54</ele>
        <time>2021-03-06T15:40:55.000Z</time>
      </trkpt>
      <trkpt lat="47.18769" lon="-1.58977">
        <ele>53</ele>
        <time>2021-03-06T15:40:57.000Z</time>
      </trkpt>
      <trkpt lat="47.18767" lon="-1.58998">
        <ele>54</ele>
        <time>2021-03-06T15:40:59.000Z</time>
      </trkpt>
      <trkpt lat="47.18764" lon="-1.5902">
        <ele>55</ele>
        <time>2021-03-06T15:41:01.000Z</time>
      </trkpt>
      <trkpt lat="47.18761" lon="-1.5904">
        <ele>55</ele>
        <time>2021-03-06T15:41:03.000Z</time>
      </trkpt>
      <trkpt lat="47.18759" lon="-1.5906">
        <ele>54</ele>
        <time>2021-03-06T15:41:05.000Z</time>
      </trkpt>
      <trkpt lat="47.18757" lon="-1.5908">
        <ele>54</ele>
        <time>2021-03-06T15:41:07.000Z</time>
      </trkpt>
      <trkpt lat="47.18755" lon="-1.591">
        <ele>54</ele>
        <time>2021-03-06T15:41:09.000Z</time>
      </trkpt>
      <trkpt lat="47.18752" lon="-1.5912">
        <ele>54</ele>
        <time>2021-03-06T15:41:11.000Z</time>
      </trkpt>
      <trkpt lat="47.1875" lon="-1.59141">
        <ele>54</ele>
        <time>2021-03-06T15:41:13.000Z</time>
      </trkpt>
      <trkpt lat="47.18748" lon="-1.59162">
        <ele>54</ele>
        <time>2021-03-06T15:41:15.000Z</time>
      </trkpt>
      <trkpt lat="47.18746" lon="-1.59193">
        <ele>53</ele>
        <time>2021-03-06T15:41:18.000Z</time>
      </trkpt>
      <trkpt lat="47.18743" lon="-1.59223">
        <ele>54</ele>
        <time>2021-03-06T15:41:21.000Z</time>
      </trkpt>
      <trkpt lat="47.18739" lon="-1.59244">
        <ele>52</ele>
        <time>2021-03-06T15:41:23.000Z</time>
      </trkpt>
      <trkpt lat="47.18736" lon="-1.59265">
        <ele>53</ele>
        <time>2021-03-06T15:41:25.000Z</time>
      </trkpt>
      <trkpt lat="47.18734" lon="-1.59288">
        <ele>53</ele>
        <time>2021-03-06T15:41:27.000Z</time>
      </trkpt>
      <trkpt lat="47.18732" lon="-1.59309">
        <ele>53</ele>
        <time>2021-03-06T15:41:29.000Z</time>
      </trkpt>
      <trkpt lat="47.18729" lon="-1.5933">
        <ele>54</ele>
        <time>2021-03-06T15:41:31.000Z</time>
      </trkpt>
      <trkpt lat="47.18727" lon="-1.59352">
        <ele>54</ele>
        <time>2021-03-06T15:41:33.000Z</time>
      </trkpt>
      <trkpt lat="47.18724" lon="-1.59374">
        <ele>54</ele>
        <time>2021-03-06T15:41:35.000Z</time>
      </trkpt>
      <trkpt lat="47.18722" lon="-1.59395">
        <ele>54</ele>
        <time>2021-03-06T15:41:37.000Z</time>
      </trkpt>
      <trkpt lat="47.1872" lon="-1.59417">
        <ele>55</ele>
        <time>2021-03-06T15:41:39.000Z</time>
      </trkpt>
      <trkpt lat="47.18717" lon="-1.5945">
        <ele>54</ele>
        <time>2021-03-06T15:41:42.000Z</time>
      </trkpt>
      <trkpt lat="47.18715" lon="-1.59472">
        <ele>55</ele>
        <time>2021-03-06T15:41:44.000Z</time>
      </trkpt>
      <trkpt lat="47.18713" lon="-1.59492">
        <ele>54</ele>
        <time>2021-03-06T15:41:46.000Z</time>
      </trkpt>
      <trkpt lat="47.18708" lon="-1.59524">
        <ele>55</ele>
        <time>2021-03-06T15:41:49.000Z</time>
      </trkpt>
      <trkpt lat="47.18706" lon="-1.59546">
        <ele>54</ele>
        <time>2021-03-06T15:41:51.000Z</time>
      </trkpt>
      <trkpt lat="47.18705" lon="-1.59566">
        <ele>55</ele>
        <time>2021-03-06T15:41:53.000Z</time>
      </trkpt>
      <trkpt lat="47.18702" lon="-1.59589">
        <ele>53</ele>
        <time>2021-03-06T15:41:55.000Z</time>
      </trkpt>
      <trkpt lat="47.18699" lon="-1.59612">
        <ele>51</ele>
        <time>2021-03-06T15:41:57.000Z</time>
      </trkpt>
      <trkpt lat="47.18696" lon="-1.5963">
        <ele>54</ele>
        <time>2021-03-06T15:41:59.000Z</time>
      </trkpt>
      <trkpt lat="47.18694" lon="-1.59649">
        <ele>54</ele>
        <time>2021-03-06T15:42:01.000Z</time>
      </trkpt>
      <trkpt lat="47.18691" lon="-1.59669">
        <ele>55</ele>
        <time>2021-03-06T15:42:03.000Z</time>
      </trkpt>
      <trkpt lat="47.18687" lon="-1.59693">
        <ele>55</ele>
        <time>2021-03-06T15:42:05.000Z</time>
      </trkpt>
      <trkpt lat="47.18685" lon="-1.59718">
        <ele>55</ele>
        <time>2021-03-06T15:42:07.000Z</time>
      </trkpt>
      <trkpt lat="47.18685" lon="-1.5974">
        <ele>55</ele>
        <time>2021-03-06T15:42:09.000Z</time>
      </trkpt>
      <trkpt lat="47.18686" lon="-1.59766">
        <ele>54</ele>
        <time>2021-03-06T15:42:12.000Z</time>
      </trkpt>
      <trkpt lat="47.18687" lon="-1.59788">
        <ele>54</ele>
        <time>2021-03-06T15:42:14.000Z</time>
      </trkpt>
      <trkpt lat="47.18684" lon="-1.59813">
        <ele>54</ele>
        <time>2021-03-06T15:42:16.000Z</time>
      </trkpt>
      <trkpt lat="47.1868" lon="-1.59826">
        <ele>54</ele>
        <time>2021-03-06T15:42:17.000Z</time>
      </trkpt>
      <trkpt lat="47.18673" lon="-1.59837">
        <ele>54</ele>
        <time>2021-03-06T15:42:18.000Z</time>
      </trkpt>
      <trkpt lat="47.18656" lon="-1.59846">
        <ele>55</ele>
        <time>2021-03-06T15:42:20.000Z</time>
      </trkpt>
      <trkpt lat="47.1864" lon="-1.59839">
        <ele>55</ele>
        <time>2021-03-06T15:42:22.000Z</time>
      </trkpt>
      <trkpt lat="47.18626" lon="-1.5983">
        <ele>54</ele>
        <time>2021-03-06T15:42:24.000Z</time>
      </trkpt>
      <trkpt lat="47.18617" lon="-1.59838">
        <ele>54</ele>
        <time>2021-03-06T15:42:26.000Z</time>
      </trkpt>
      <trkpt lat="47.1862" lon="-1.59855">
        <ele>53</ele>
        <time>2021-03-06T15:42:28.000Z</time>
      </trkpt>
      <trkpt lat="47.1862" lon="-1.59874">
        <ele>48</ele>
        <time>2021-03-06T15:42:30.000Z</time>
      </trkpt>
      <trkpt lat="47.18617" lon="-1.59894">
        <ele>51</ele>
        <time>2021-03-06T15:42:32.000Z</time>
      </trkpt>
      <trkpt lat="47.18613" lon="-1.59914">
        <ele>54</ele>
        <time>2021-03-06T15:42:34.000Z</time>
      </trkpt>
      <trkpt lat="47.18608" lon="-1.59933">
        <ele>54</ele>
        <time>2021-03-06T15:42:36.000Z</time>
      </trkpt>
      <trkpt lat="47.18603" lon="-1.59953">
        <ele>54</ele>
        <time>2021-03-06T15:42:38.000Z</time>
      </trkpt>
      <trkpt lat="47.18597" lon="-1.59972">
        <ele>54</ele>
        <time>2021-03-06T15:42:40.000Z</time>
      </trkpt>
      <trkpt lat="47.18592" lon="-1.59992">
        <ele>54</ele>
        <time>2021-03-06T15:42:42.000Z</time>
      </trkpt>
      <trkpt lat="47.18586" lon="-1.60011">
        <ele>54</ele>
        <time>2021-03-06T15:42:44.000Z</time>
      </trkpt>
      <trkpt lat="47.1858" lon="-1.6003">
        <ele>55</ele>
        <time>2021-03-06T15:42:46.000Z</time>
      </trkpt>
      <trkpt lat="47.18572" lon="-1.60048">
        <ele>55</ele>
        <time>2021-03-06T15:42:48.000Z</time>
      </trkpt>
      <trkpt lat="47.18565" lon="-1.60065">
        <ele>56</ele>
        <time>2021-03-06T15:42:50.000Z</time>
      </trkpt>
      <trkpt lat="47.18559" lon="-1.60083">
        <ele>56</ele>
        <time>2021-03-06T15:42:52.000Z</time>
      </trkpt>
      <trkpt lat="47.18552" lon="-1.60101">
        <ele>55</ele>
        <time>2021-03-06T15:42:54.000Z</time>
      </trkpt>
      <trkpt lat="47.18544" lon="-1.60118">
        <ele>55</ele>
        <time>2021-03-06T15:42:56.000Z</time>
      </trkpt>
      <trkpt lat="47.18536" lon="-1.60136">
        <ele>55</ele>
        <time>2021-03-06T15:42:58.000Z</time>
      </trkpt>
      <trkpt lat="47.18528" lon="-1.60153">
        <ele>55</ele>
        <time>2021-03-06T15:43:00.000Z</time>
      </trkpt>
      <trkpt lat="47.1852" lon="-1.6017">
        <ele>55</ele>
        <time>2021-03-06T15:43:02.000Z</time>
      </trkpt>
      <trkpt lat="47.18512" lon="-1.60187">
        <ele>55</ele>
        <time>2021-03-06T15:43:04.000Z</time>
      </trkpt>
      <trkpt lat="47.18504" lon="-1.60203">
        <ele>55</ele>
        <time>2021-03-06T15:43:06.000Z</time>
      </trkpt>
      <trkpt lat="47.18496" lon="-1.60219">
        <ele>55</ele>
        <time>2021-03-06T15:43:08.000Z</time>
      </trkpt>
      <trkpt lat="47.18488" lon="-1.60234">
        <ele>55</ele>
        <time>2021-03-06T15:43:10.000Z</time>
      </trkpt>
      <trkpt lat="47.18479" lon="-1.6025">
        <ele>55</ele>
        <time>2021-03-06T15:43:12.000Z</time>
      </trkpt>
      <trkpt lat="47.1847" lon="-1.60267">
        <ele>54</ele>
        <time>2021-03-06T15:43:14.000Z</time>
      </trkpt>
      <trkpt lat="47.18462" lon="-1.60282">
        <ele>54</ele>
        <time>2021-03-06T15:43:16.000Z</time>
      </trkpt>
      <trkpt lat="47.18454" lon="-1.60295">
        <ele>54</ele>
        <time>2021-03-06T15:43:18.000Z</time>
      </trkpt>
      <trkpt lat="47.18444" lon="-1.60311">
        <ele>54</ele>
        <time>2021-03-06T15:43:20.000Z</time>
      </trkpt>
      <trkpt lat="47.18435" lon="-1.60326">
        <ele>54</ele>
        <time>2021-03-06T15:43:22.000Z</time>
      </trkpt>
      <trkpt lat="47.18426" lon="-1.6034">
        <ele>54</ele>
        <time>2021-03-06T15:43:24.000Z</time>
      </trkpt>
      <trkpt lat="47.18417" lon="-1.60354">
        <ele>54</ele>
        <time>2021-03-06T15:43:26.000Z</time>
      </trkpt>
      <trkpt lat="47.18407" lon="-1.60369">
        <ele>53</ele>
        <time>2021-03-06T15:43:28.000Z</time>
      </trkpt>
      <trkpt lat="47.18397" lon="-1.60383">
        <ele>54</ele>
        <time>2021-03-06T15:43:30.000Z</time>
      </trkpt>
      <trkpt lat="47.18387" lon="-1.60396">
        <ele>54</ele>
        <time>2021-03-06T15:43:32.000Z</time>
      </trkpt>
      <trkpt lat="47.18377" lon="-1.60409">
        <ele>54</ele>
        <time>2021-03-06T15:43:34.000Z</time>
      </trkpt>
      <trkpt lat="47.18367" lon="-1.60423">
        <ele>55</ele>
        <time>2021-03-06T15:43:36.000Z</time>
      </trkpt>
      <trkpt lat="47.18356" lon="-1.60436">
        <ele>55</ele>
        <time>2021-03-06T15:43:38.000Z</time>
      </trkpt>
      <trkpt lat="47.18345" lon="-1.60448">
        <ele>55</ele>
        <time>2021-03-06T15:43:40.000Z</time>
      </trkpt>
      <trkpt lat="47.18334" lon="-1.60461">
        <ele>55</ele>
        <time>2021-03-06T15:43:42.000Z</time>
      </trkpt>
      <trkpt lat="47.18323" lon="-1.60473">
        <ele>55</ele>
        <time>2021-03-06T15:43:44.000Z</time>
      </trkpt>
      <trkpt lat="47.18312" lon="-1.60487">
        <ele>53</ele>
        <time>2021-03-06T15:43:46.000Z</time>
      </trkpt>
      <trkpt lat="47.18301" lon="-1.60503">
        <ele>51</ele>
        <time>2021-03-06T15:43:48.000Z</time>
      </trkpt>
      <trkpt lat="47.1829" lon="-1.60511">
        <ele>52</ele>
        <time>2021-03-06T15:43:50.000Z</time>
      </trkpt>
      <trkpt lat="47.18279" lon="-1.60521">
        <ele>52</ele>
        <time>2021-03-06T15:43:52.000Z</time>
      </trkpt>
      <trkpt lat="47.18268" lon="-1.60531">
        <ele>53</ele>
        <time>2021-03-06T15:43:54.000Z</time>
      </trkpt>
      <trkpt lat="47.18257" lon="-1.60541">
        <ele>53</ele>
        <time>2021-03-06T15:43:56.000Z</time>
      </trkpt>
      <trkpt lat="47.18246" lon="-1.60549">
        <ele>54</ele>
        <time>2021-03-06T15:43:58.000Z</time>
      </trkpt>
      <trkpt lat="47.18234" lon="-1.60557">
        <ele>54</ele>
        <time>2021-03-06T15:44:00.000Z</time>
      </trkpt>
      <trkpt lat="47.18223" lon="-1.60565">
        <ele>54</ele>
        <time>2021-03-06T15:44:02.000Z</time>
      </trkpt>
      <trkpt lat="47.18211" lon="-1.60571">
        <ele>51</ele>
        <time>2021-03-06T15:44:04.000Z</time>
      </trkpt>
      <trkpt lat="47.18201" lon="-1.60579">
        <ele>50</ele>
        <time>2021-03-06T15:44:06.000Z</time>
      </trkpt>
      <trkpt lat="47.1819" lon="-1.60586">
        <ele>51</ele>
        <time>2021-03-06T15:44:09.000Z</time>
      </trkpt>
      <trkpt lat="47.18186" lon="-1.60599">
        <ele>53</ele>
        <time>2021-03-06T15:44:11.000Z</time>
      </trkpt>
      <trkpt lat="47.18173" lon="-1.60604">
        <ele>53</ele>
        <time>2021-03-06T15:44:13.000Z</time>
      </trkpt>
      <trkpt lat="47.1816" lon="-1.60605">
        <ele>53</ele>
        <time>2021-03-06T15:44:15.000Z</time>
      </trkpt>
      <trkpt lat="47.18148" lon="-1.60604">
        <ele>53</ele>
        <time>2021-03-06T15:44:17.000Z</time>
      </trkpt>
      <trkpt lat="47.18136" lon="-1.60602">
        <ele>53</ele>
        <time>2021-03-06T15:44:19.000Z</time>
      </trkpt>
      <trkpt lat="47.18117" lon="-1.606">
        <ele>54</ele>
        <time>2021-03-06T15:44:22.000Z</time>
      </trkpt>
      <trkpt lat="47.18105" lon="-1.60595">
        <ele>55</ele>
        <time>2021-03-06T15:44:24.000Z</time>
      </trkpt>
      <trkpt lat="47.18094" lon="-1.60589">
        <ele>55</ele>
        <time>2021-03-06T15:44:26.000Z</time>
      </trkpt>
      <trkpt lat="47.18082" lon="-1.60584">
        <ele>55</ele>
        <time>2021-03-06T15:44:28.000Z</time>
      </trkpt>
      <trkpt lat="47.18071" lon="-1.60577">
        <ele>55</ele>
        <time>2021-03-06T15:44:30.000Z</time>
      </trkpt>
      <trkpt lat="47.18059" lon="-1.60571">
        <ele>54</ele>
        <time>2021-03-06T15:44:32.000Z</time>
      </trkpt>
      <trkpt lat="47.18049" lon="-1.60563">
        <ele>56</ele>
        <time>2021-03-06T15:44:34.000Z</time>
      </trkpt>
      <trkpt lat="47.18036" lon="-1.60559">
        <ele>53</ele>
        <time>2021-03-06T15:44:36.000Z</time>
      </trkpt>
      <trkpt lat="47.18024" lon="-1.60556">
        <ele>53</ele>
        <time>2021-03-06T15:44:38.000Z</time>
      </trkpt>
      <trkpt lat="47.18012" lon="-1.60555">
        <ele>55</ele>
        <time>2021-03-06T15:44:40.000Z</time>
      </trkpt>
      <trkpt lat="47.18001" lon="-1.60557">
        <ele>55</ele>
        <time>2021-03-06T15:44:42.000Z</time>
      </trkpt>
      <trkpt lat="47.17989" lon="-1.60561">
        <ele>55</ele>
        <time>2021-03-06T15:44:44.000Z</time>
      </trkpt>
      <trkpt lat="47.17978" lon="-1.60566">
        <ele>55</ele>
        <time>2021-03-06T15:44:46.000Z</time>
      </trkpt>
      <trkpt lat="47.17967" lon="-1.60571">
        <ele>55</ele>
        <time>2021-03-06T15:44:48.000Z</time>
      </trkpt>
      <trkpt lat="47.17956" lon="-1.60577">
        <ele>55</ele>
        <time>2021-03-06T15:44:50.000Z</time>
      </trkpt>
      <trkpt lat="47.17947" lon="-1.60584">
        <ele>55</ele>
        <time>2021-03-06T15:44:52.000Z</time>
      </trkpt>
      <trkpt lat="47.17937" lon="-1.60587">
        <ele>56</ele>
        <time>2021-03-06T15:44:54.000Z</time>
      </trkpt>
      <trkpt lat="47.17926" lon="-1.60589">
        <ele>56</ele>
        <time>2021-03-06T15:44:57.000Z</time>
      </trkpt>
      <trkpt lat="47.1791" lon="-1.60594">
        <ele>53</ele>
        <time>2021-03-06T15:45:08.000Z</time>
      </trkpt>
      <trkpt lat="47.179" lon="-1.60619">
        <ele>47</ele>
        <time>2021-03-06T15:45:12.000Z</time>
      </trkpt>
      <trkpt lat="47.17894" lon="-1.60639">
        <ele>48</ele>
        <time>2021-03-06T15:45:14.000Z</time>
      </trkpt>
      <trkpt lat="47.17888" lon="-1.60658">
        <ele>49</ele>
        <time>2021-03-06T15:45:16.000Z</time>
      </trkpt>
      <trkpt lat="47.17882" lon="-1.60677">
        <ele>49</ele>
        <time>2021-03-06T15:45:18.000Z</time>
      </trkpt>
      <trkpt lat="47.17878" lon="-1.60696">
        <ele>50</ele>
        <time>2021-03-06T15:45:20.000Z</time>
      </trkpt>
      <trkpt lat="47.17873" lon="-1.60715">
        <ele>50</ele>
        <time>2021-03-06T15:45:22.000Z</time>
      </trkpt>
      <trkpt lat="47.17868" lon="-1.60735">
        <ele>51</ele>
        <time>2021-03-06T15:45:24.000Z</time>
      </trkpt>
      <trkpt lat="47.17864" lon="-1.60753">
        <ele>51</ele>
        <time>2021-03-06T15:45:26.000Z</time>
      </trkpt>
      <trkpt lat="47.17861" lon="-1.60772">
        <ele>51</ele>
        <time>2021-03-06T15:45:28.000Z</time>
      </trkpt>
      <trkpt lat="47.17857" lon="-1.6079">
        <ele>52</ele>
        <time>2021-03-06T15:45:30.000Z</time>
      </trkpt>
      <trkpt lat="47.17854" lon="-1.60807">
        <ele>53</ele>
        <time>2021-03-06T15:45:32.000Z</time>
      </trkpt>
      <trkpt lat="47.17848" lon="-1.60824">
        <ele>54</ele>
        <time>2021-03-06T15:45:34.000Z</time>
      </trkpt>
      <trkpt lat="47.17842" lon="-1.60841">
        <ele>54</ele>
        <time>2021-03-06T15:45:36.000Z</time>
      </trkpt>
      <trkpt lat="47.17836" lon="-1.60857">
        <ele>54</ele>
        <time>2021-03-06T15:45:38.000Z</time>
      </trkpt>
      <trkpt lat="47.17827" lon="-1.60871">
        <ele>53</ele>
        <time>2021-03-06T15:45:40.000Z</time>
      </trkpt>
      <trkpt lat="47.17817" lon="-1.60884">
        <ele>54</ele>
        <time>2021-03-06T15:45:42.000Z</time>
      </trkpt>
      <trkpt lat="47.17807" lon="-1.60895">
        <ele>54</ele>
        <time>2021-03-06T15:45:44.000Z</time>
      </trkpt>
      <trkpt lat="47.17796" lon="-1.60905">
        <ele>53</ele>
        <time>2021-03-06T15:45:46.000Z</time>
      </trkpt>
      <trkpt lat="47.17784" lon="-1.60913">
        <ele>53</ele>
        <time>2021-03-06T15:45:48.000Z</time>
      </trkpt>
      <trkpt lat="47.17773" lon="-1.60923">
        <ele>54</ele>
        <time>2021-03-06T15:45:50.000Z</time>
      </trkpt>
      <trkpt lat="47.17762" lon="-1.60932">
        <ele>54</ele>
        <time>2021-03-06T15:45:52.000Z</time>
      </trkpt>
      <trkpt lat="47.1775" lon="-1.60942">
        <ele>54</ele>
        <time>2021-03-06T15:45:54.000Z</time>
      </trkpt>
      <trkpt lat="47.1774" lon="-1.60949">
        <ele>53</ele>
        <time>2021-03-06T15:45:56.000Z</time>
      </trkpt>
      <trkpt lat="47.17728" lon="-1.60957">
        <ele>54</ele>
        <time>2021-03-06T15:45:58.000Z</time>
      </trkpt>
      <trkpt lat="47.17718" lon="-1.60965">
        <ele>54</ele>
        <time>2021-03-06T15:46:00.000Z</time>
      </trkpt>
      <trkpt lat="47.17706" lon="-1.60973">
        <ele>55</ele>
        <time>2021-03-06T15:46:02.000Z</time>
      </trkpt>
      <trkpt lat="47.17695" lon="-1.60978">
        <ele>54</ele>
        <time>2021-03-06T15:46:04.000Z</time>
      </trkpt>
      <trkpt lat="47.17682" lon="-1.60976">
        <ele>53</ele>
        <time>2021-03-06T15:46:06.000Z</time>
      </trkpt>
      <trkpt lat="47.17666" lon="-1.60975">
        <ele>52</ele>
        <time>2021-03-06T15:46:08.000Z</time>
      </trkpt>
      <trkpt lat="47.17652" lon="-1.60981">
        <ele>52</ele>
        <time>2021-03-06T15:46:10.000Z</time>
      </trkpt>
      <trkpt lat="47.17633" lon="-1.60997">
        <ele>51</ele>
        <time>2021-03-06T15:46:13.000Z</time>
      </trkpt>
      <trkpt lat="47.17615" lon="-1.61013">
        <ele>52</ele>
        <time>2021-03-06T15:46:16.000Z</time>
      </trkpt>
      <trkpt lat="47.17603" lon="-1.61024">
        <ele>52</ele>
        <time>2021-03-06T15:46:18.000Z</time>
      </trkpt>
      <trkpt lat="47.17591" lon="-1.61034">
        <ele>51</ele>
        <time>2021-03-06T15:46:20.000Z</time>
      </trkpt>
      <trkpt lat="47.17579" lon="-1.61044">
        <ele>51</ele>
        <time>2021-03-06T15:46:22.000Z</time>
      </trkpt>
      <trkpt lat="47.17568" lon="-1.61054">
        <ele>51</ele>
        <time>2021-03-06T15:46:24.000Z</time>
      </trkpt>
      <trkpt lat="47.17555" lon="-1.61065">
        <ele>51</ele>
        <time>2021-03-06T15:46:26.000Z</time>
      </trkpt>
      <trkpt lat="47.17541" lon="-1.61075">
        <ele>48</ele>
        <time>2021-03-06T15:46:28.000Z</time>
      </trkpt>
      <trkpt lat="47.17529" lon="-1.61085">
        <ele>49</ele>
        <time>2021-03-06T15:46:30.000Z</time>
      </trkpt>
      <trkpt lat="47.17518" lon="-1.61095">
        <ele>50</ele>
        <time>2021-03-06T15:46:32.000Z</time>
      </trkpt>
      <trkpt lat="47.17506" lon="-1.61102">
        <ele>50</ele>
        <time>2021-03-06T15:46:34.000Z</time>
      </trkpt>
      <trkpt lat="47.17493" lon="-1.61104">
        <ele>50</ele>
        <time>2021-03-06T15:46:36.000Z</time>
      </trkpt>
      <trkpt lat="47.1748" lon="-1.61103">
        <ele>51</ele>
        <time>2021-03-06T15:46:38.000Z</time>
      </trkpt>
      <trkpt lat="47.17468" lon="-1.61097">
        <ele>51</ele>
        <time>2021-03-06T15:46:40.000Z</time>
      </trkpt>
      <trkpt lat="47.1746" lon="-1.61089">
        <ele>51</ele>
        <time>2021-03-06T15:46:42.000Z</time>
      </trkpt>
      <trkpt lat="47.17452" lon="-1.61081">
        <ele>52</ele>
        <time>2021-03-06T15:46:44.000Z</time>
      </trkpt>
      <trkpt lat="47.17444" lon="-1.61068">
        <ele>53</ele>
        <time>2021-03-06T15:46:46.000Z</time>
      </trkpt>
      <trkpt lat="47.17437" lon="-1.61053">
        <ele>53</ele>
        <time>2021-03-06T15:46:48.000Z</time>
      </trkpt>
      <trkpt lat="47.17432" lon="-1.61039">
        <ele>53</ele>
        <time>2021-03-06T15:46:50.000Z</time>
      </trkpt>
      <trkpt lat="47.17429" lon="-1.61025">
        <ele>53</ele>
        <time>2021-03-06T15:46:52.000Z</time>
      </trkpt>
      <trkpt lat="47.17423" lon="-1.61042">
        <ele>54</ele>
        <time>2021-03-06T15:46:58.000Z</time>
      </trkpt>
      <trkpt lat="47.17425" lon="-1.61057">
        <ele>52</ele>
        <time>2021-03-06T15:47:00.000Z</time>
      </trkpt>
      <trkpt lat="47.17428" lon="-1.6107">
        <ele>53</ele>
        <time>2021-03-06T15:47:02.000Z</time>
      </trkpt>
      <trkpt lat="47.17434" lon="-1.61085">
        <ele>55</ele>
        <time>2021-03-06T15:47:04.000Z</time>
      </trkpt>
      <trkpt lat="47.17443" lon="-1.611">
        <ele>57</ele>
        <time>2021-03-06T15:47:06.000Z</time>
      </trkpt>
      <trkpt lat="47.17451" lon="-1.61116">
        <ele>58</ele>
        <time>2021-03-06T15:47:08.000Z</time>
      </trkpt>
      <trkpt lat="47.17458" lon="-1.61132">
        <ele>59</ele>
        <time>2021-03-06T15:47:10.000Z</time>
      </trkpt>
      <trkpt lat="47.17466" lon="-1.61147">
        <ele>59</ele>
        <time>2021-03-06T15:47:12.000Z</time>
      </trkpt>
      <trkpt lat="47.17473" lon="-1.61163">
        <ele>58</ele>
        <time>2021-03-06T15:47:14.000Z</time>
      </trkpt>
      <trkpt lat="47.17479" lon="-1.61179">
        <ele>59</ele>
        <time>2021-03-06T15:47:16.000Z</time>
      </trkpt>
      <trkpt lat="47.17485" lon="-1.61195">
        <ele>60</ele>
        <time>2021-03-06T15:47:18.000Z</time>
      </trkpt>
      <trkpt lat="47.17491" lon="-1.61211">
        <ele>60</ele>
        <time>2021-03-06T15:47:20.000Z</time>
      </trkpt>
      <trkpt lat="47.17498" lon="-1.61226">
        <ele>60</ele>
        <time>2021-03-06T15:47:22.000Z</time>
      </trkpt>
      <trkpt lat="47.17505" lon="-1.6124">
        <ele>60</ele>
        <time>2021-03-06T15:47:24.000Z</time>
      </trkpt>
      <trkpt lat="47.17513" lon="-1.61254">
        <ele>59</ele>
        <time>2021-03-06T15:47:26.000Z</time>
      </trkpt>
      <trkpt lat="47.17521" lon="-1.61267">
        <ele>59</ele>
        <time>2021-03-06T15:47:28.000Z</time>
      </trkpt>
      <trkpt lat="47.17531" lon="-1.61278">
        <ele>60</ele>
        <time>2021-03-06T15:47:30.000Z</time>
      </trkpt>
      <trkpt lat="47.17539" lon="-1.61287">
        <ele>60</ele>
        <time>2021-03-06T15:47:32.000Z</time>
      </trkpt>
      <trkpt lat="47.1755" lon="-1.61295">
        <ele>61</ele>
        <time>2021-03-06T15:47:34.000Z</time>
      </trkpt>
      <trkpt lat="47.1756" lon="-1.61308">
        <ele>62</ele>
        <time>2021-03-06T15:47:36.000Z</time>
      </trkpt>
      <trkpt lat="47.1756" lon="-1.61329">
        <ele>61</ele>
        <time>2021-03-06T15:47:38.000Z</time>
      </trkpt>
      <trkpt lat="47.17553" lon="-1.61346">
        <ele>61</ele>
        <time>2021-03-06T15:47:40.000Z</time>
      </trkpt>
      <trkpt lat="47.17542" lon="-1.61358">
        <ele>61</ele>
        <time>2021-03-06T15:47:42.000Z</time>
      </trkpt>
      <trkpt lat="47.17532" lon="-1.61371">
        <ele>58</ele>
        <time>2021-03-06T15:47:44.000Z</time>
      </trkpt>
      <trkpt lat="47.17527" lon="-1.6139">
        <ele>57</ele>
        <time>2021-03-06T15:47:46.000Z</time>
      </trkpt>
      <trkpt lat="47.17523" lon="-1.61406">
        <ele>57</ele>
        <time>2021-03-06T15:47:48.000Z</time>
      </trkpt>
      <trkpt lat="47.17519" lon="-1.61424">
        <ele>59</ele>
        <time>2021-03-06T15:47:50.000Z</time>
      </trkpt>
      <trkpt lat="47.17516" lon="-1.6144">
        <ele>61</ele>
        <time>2021-03-06T15:47:52.000Z</time>
      </trkpt>
      <trkpt lat="47.17507" lon="-1.61459">
        <ele>63</ele>
        <time>2021-03-06T15:47:55.000Z</time>
      </trkpt>
      <trkpt lat="47.17491" lon="-1.61468">
        <ele>64</ele>
        <time>2021-03-06T15:47:58.000Z</time>
      </trkpt>
      <trkpt lat="47.1748" lon="-1.61474">
        <ele>65</ele>
        <time>2021-03-06T15:48:00.000Z</time>
      </trkpt>
      <trkpt lat="47.17468" lon="-1.61478">
        <ele>66</ele>
        <time>2021-03-06T15:48:02.000Z</time>
      </trkpt>
      <trkpt lat="47.17455" lon="-1.61484">
        <ele>65</ele>
        <time>2021-03-06T15:48:04.000Z</time>
      </trkpt>
      <trkpt lat="47.17444" lon="-1.61493">
        <ele>64</ele>
        <time>2021-03-06T15:48:06.000Z</time>
      </trkpt>
      <trkpt lat="47.17433" lon="-1.61498">
        <ele>64</ele>
        <time>2021-03-06T15:48:08.000Z</time>
      </trkpt>
      <trkpt lat="47.17423" lon="-1.61503">
        <ele>64</ele>
        <time>2021-03-06T15:48:10.000Z</time>
      </trkpt>
      <trkpt lat="47.17413" lon="-1.61511">
        <ele>65</ele>
        <time>2021-03-06T15:48:12.000Z</time>
      </trkpt>
      <trkpt lat="47.17403" lon="-1.61518">
        <ele>66</ele>
        <time>2021-03-06T15:48:14.000Z</time>
      </trkpt>
      <trkpt lat="47.17393" lon="-1.61526">
        <ele>66</ele>
        <time>2021-03-06T15:48:16.000Z</time>
      </trkpt>
      <trkpt lat="47.17384" lon="-1.61535">
        <ele>66</ele>
        <time>2021-03-06T15:48:18.000Z</time>
      </trkpt>
      <trkpt lat="47.17374" lon="-1.61544">
        <ele>68</ele>
        <time>2021-03-06T15:48:20.000Z</time>
      </trkpt>
      <trkpt lat="47.17365" lon="-1.61553">
        <ele>69</ele>
        <time>2021-03-06T15:48:22.000Z</time>
      </trkpt>
      <trkpt lat="47.17356" lon="-1.61562">
        <ele>72</ele>
        <time>2021-03-06T15:48:24.000Z</time>
      </trkpt>
      <trkpt lat="47.1735" lon="-1.61572">
        <ele>74</ele>
        <time>2021-03-06T15:48:26.000Z</time>
      </trkpt>
      <trkpt lat="47.17341" lon="-1.61583">
        <ele>74</ele>
        <time>2021-03-06T15:48:28.000Z</time>
      </trkpt>
      <trkpt lat="47.17333" lon="-1.61593">
        <ele>74</ele>
        <time>2021-03-06T15:48:30.000Z</time>
      </trkpt>
      <trkpt lat="47.17323" lon="-1.61603">
        <ele>75</ele>
        <time>2021-03-06T15:48:32.000Z</time>
      </trkpt>
      <trkpt lat="47.17315" lon="-1.61615">
        <ele>74</ele>
        <time>2021-03-06T15:48:34.000Z</time>
      </trkpt>
      <trkpt lat="47.17308" lon="-1.61627">
        <ele>73</ele>
        <time>2021-03-06T15:48:36.000Z</time>
      </trkpt>
      <trkpt lat="47.173" lon="-1.61639">
        <ele>73</ele>
        <time>2021-03-06T15:48:38.000Z</time>
      </trkpt>
      <trkpt lat="47.17294" lon="-1.61652">
        <ele>75</ele>
        <time>2021-03-06T15:48:40.000Z</time>
      </trkpt>
      <trkpt lat="47.17286" lon="-1.61665">
        <ele>74</ele>
        <time>2021-03-06T15:48:42.000Z</time>
      </trkpt>
      <trkpt lat="47.17279" lon="-1.61681">
        <ele>74</ele>
        <time>2021-03-06T15:48:44.000Z</time>
      </trkpt>
      <trkpt lat="47.17273" lon="-1.61695">
        <ele>73</ele>
        <time>2021-03-06T15:48:46.000Z</time>
      </trkpt>
      <trkpt lat="47.17265" lon="-1.61709">
        <ele>73</ele>
        <time>2021-03-06T15:48:48.000Z</time>
      </trkpt>
      <trkpt lat="47.17259" lon="-1.61724">
        <ele>72</ele>
        <time>2021-03-06T15:48:50.000Z</time>
      </trkpt>
      <trkpt lat="47.17251" lon="-1.61739">
        <ele>72</ele>
        <time>2021-03-06T15:48:52.000Z</time>
      </trkpt>
      <trkpt lat="47.17247" lon="-1.61755">
        <ele>72</ele>
        <time>2021-03-06T15:48:54.000Z</time>
      </trkpt>
      <trkpt lat="47.17244" lon="-1.61775">
        <ele>71</ele>
        <time>2021-03-06T15:48:56.000Z</time>
      </trkpt>
      <trkpt lat="47.17236" lon="-1.61789">
        <ele>70</ele>
        <time>2021-03-06T15:48:58.000Z</time>
      </trkpt>
      <trkpt lat="47.17223" lon="-1.61796">
        <ele>69</ele>
        <time>2021-03-06T15:49:00.000Z</time>
      </trkpt>
      <trkpt lat="47.17212" lon="-1.61806">
        <ele>70</ele>
        <time>2021-03-06T15:49:02.000Z</time>
      </trkpt>
      <trkpt lat="47.17202" lon="-1.61814">
        <ele>69</ele>
        <time>2021-03-06T15:49:04.000Z</time>
      </trkpt>
      <trkpt lat="47.17191" lon="-1.61823">
        <ele>70</ele>
        <time>2021-03-06T15:49:06.000Z</time>
      </trkpt>
      <trkpt lat="47.17181" lon="-1.61833">
        <ele>70</ele>
        <time>2021-03-06T15:49:08.000Z</time>
      </trkpt>
      <trkpt lat="47.1717" lon="-1.61842">
        <ele>69</ele>
        <time>2021-03-06T15:49:10.000Z</time>
      </trkpt>
      <trkpt lat="47.1716" lon="-1.61853">
        <ele>68</ele>
        <time>2021-03-06T15:49:12.000Z</time>
      </trkpt>
      <trkpt lat="47.17149" lon="-1.61862">
        <ele>68</ele>
        <time>2021-03-06T15:49:14.000Z</time>
      </trkpt>
      <trkpt lat="47.17139" lon="-1.61872">
        <ele>69</ele>
        <time>2021-03-06T15:49:16.000Z</time>
      </trkpt>
      <trkpt lat="47.17129" lon="-1.61883">
        <ele>68</ele>
        <time>2021-03-06T15:49:18.000Z</time>
      </trkpt>
      <trkpt lat="47.17118" lon="-1.61893">
        <ele>68</ele>
        <time>2021-03-06T15:49:20.000Z</time>
      </trkpt>
      <trkpt lat="47.17108" lon="-1.61904">
        <ele>68</ele>
        <time>2021-03-06T15:49:22.000Z</time>
      </trkpt>
      <trkpt lat="47.17098" lon="-1.61914">
        <ele>68</ele>
        <time>2021-03-06T15:49:24.000Z</time>
      </trkpt>
      <trkpt lat="47.17087" lon="-1.61924">
        <ele>69</ele>
        <time>2021-03-06T15:49:26.000Z</time>
      </trkpt>
      <trkpt lat="47.17078" lon="-1.61933">
        <ele>69</ele>
        <time>2021-03-06T15:49:28.000Z</time>
      </trkpt>
      <trkpt lat="47.17067" lon="-1.61945">
        <ele>68</ele>
        <time>2021-03-06T15:49:30.000Z</time>
      </trkpt>
      <trkpt lat="47.17057" lon="-1.61955">
        <ele>70</ele>
        <time>2021-03-06T15:49:32.000Z</time>
      </trkpt>
      <trkpt lat="47.17048" lon="-1.61967">
        <ele>71</ele>
        <time>2021-03-06T15:49:34.000Z</time>
      </trkpt>
      <trkpt lat="47.1704" lon="-1.6198">
        <ele>71</ele>
        <time>2021-03-06T15:49:36.000Z</time>
      </trkpt>
      <trkpt lat="47.17031" lon="-1.61993">
        <ele>70</ele>
        <time>2021-03-06T15:49:38.000Z</time>
      </trkpt>
      <trkpt lat="47.17022" lon="-1.62006">
        <ele>71</ele>
        <time>2021-03-06T15:49:40.000Z</time>
      </trkpt>
      <trkpt lat="47.17015" lon="-1.62021">
        <ele>69</ele>
        <time>2021-03-06T15:49:42.000Z</time>
      </trkpt>
      <trkpt lat="47.17006" lon="-1.62036">
        <ele>69</ele>
        <time>2021-03-06T15:49:44.000Z</time>
      </trkpt>
      <trkpt lat="47.16997" lon="-1.6205">
        <ele>69</ele>
        <time>2021-03-06T15:49:46.000Z</time>
      </trkpt>
      <trkpt lat="47.16988" lon="-1.62064">
        <ele>71</ele>
        <time>2021-03-06T15:49:48.000Z</time>
      </trkpt>
      <trkpt lat="47.1698" lon="-1.62077">
        <ele>71</ele>
        <time>2021-03-06T15:49:50.000Z</time>
      </trkpt>
      <trkpt lat="47.16973" lon="-1.62091">
        <ele>71</ele>
        <time>2021-03-06T15:49:52.000Z</time>
      </trkpt>
      <trkpt lat="47.16965" lon="-1.62106">
        <ele>71</ele>
        <time>2021-03-06T15:49:54.000Z</time>
      </trkpt>
      <trkpt lat="47.16957" lon="-1.6212">
        <ele>71</ele>
        <time>2021-03-06T15:49:56.000Z</time>
      </trkpt>
      <trkpt lat="47.16949" lon="-1.62136">
        <ele>70</ele>
        <time>2021-03-06T15:49:58.000Z</time>
      </trkpt>
      <trkpt lat="47.16943" lon="-1.62151">
        <ele>72</ele>
        <time>2021-03-06T15:50:00.000Z</time>
      </trkpt>
      <trkpt lat="47.16936" lon="-1.62166">
        <ele>72</ele>
        <time>2021-03-06T15:50:02.000Z</time>
      </trkpt>
      <trkpt lat="47.16929" lon="-1.62181">
        <ele>72</ele>
        <time>2021-03-06T15:50:04.000Z</time>
      </trkpt>
      <trkpt lat="47.16921" lon="-1.62195">
        <ele>73</ele>
        <time>2021-03-06T15:50:06.000Z</time>
      </trkpt>
      <trkpt lat="47.16913" lon="-1.6221">
        <ele>73</ele>
        <time>2021-03-06T15:50:08.000Z</time>
      </trkpt>
      <trkpt lat="47.16903" lon="-1.62223">
        <ele>73</ele>
        <time>2021-03-06T15:50:10.000Z</time>
      </trkpt>
      <trkpt lat="47.16893" lon="-1.62235">
        <ele>73</ele>
        <time>2021-03-06T15:50:12.000Z</time>
      </trkpt>
      <trkpt lat="47.16882" lon="-1.62249">
        <ele>72</ele>
        <time>2021-03-06T15:50:14.000Z</time>
      </trkpt>
      <trkpt lat="47.16872" lon="-1.62262">
        <ele>71</ele>
        <time>2021-03-06T15:50:16.000Z</time>
      </trkpt>
      <trkpt lat="47.16862" lon="-1.62273">
        <ele>71</ele>
        <time>2021-03-06T15:50:18.000Z</time>
      </trkpt>
      <trkpt lat="47.16851" lon="-1.62287">
        <ele>70</ele>
        <time>2021-03-06T15:50:20.000Z</time>
      </trkpt>
      <trkpt lat="47.16842" lon="-1.62298">
        <ele>71</ele>
        <time>2021-03-06T15:50:22.000Z</time>
      </trkpt>
      <trkpt lat="47.16831" lon="-1.62309">
        <ele>71</ele>
        <time>2021-03-06T15:50:24.000Z</time>
      </trkpt>
      <trkpt lat="47.1682" lon="-1.62318">
        <ele>72</ele>
        <time>2021-03-06T15:50:26.000Z</time>
      </trkpt>
      <trkpt lat="47.16808" lon="-1.62326">
        <ele>72</ele>
        <time>2021-03-06T15:50:28.000Z</time>
      </trkpt>
      <trkpt lat="47.16795" lon="-1.62333">
        <ele>72</ele>
        <time>2021-03-06T15:50:30.000Z</time>
      </trkpt>
      <trkpt lat="47.16783" lon="-1.62339">
        <ele>71</ele>
        <time>2021-03-06T15:50:32.000Z</time>
      </trkpt>
      <trkpt lat="47.16771" lon="-1.62348">
        <ele>70</ele>
        <time>2021-03-06T15:50:34.000Z</time>
      </trkpt>
      <trkpt lat="47.1676" lon="-1.6236">
        <ele>70</ele>
        <time>2021-03-06T15:50:36.000Z</time>
      </trkpt>
      <trkpt lat="47.16748" lon="-1.62369">
        <ele>69</ele>
        <time>2021-03-06T15:50:38.000Z</time>
      </trkpt>
      <trkpt lat="47.16739" lon="-1.62384">
        <ele>70</ele>
        <time>2021-03-06T15:50:40.000Z</time>
      </trkpt>
      <trkpt lat="47.16734" lon="-1.62401">
        <ele>69</ele>
        <time>2021-03-06T15:50:42.000Z</time>
      </trkpt>
      <trkpt lat="47.16731" lon="-1.62419">
        <ele>69</ele>
        <time>2021-03-06T15:50:44.000Z</time>
      </trkpt>
      <trkpt lat="47.16729" lon="-1.62437">
        <ele>68</ele>
        <time>2021-03-06T15:50:46.000Z</time>
      </trkpt>
      <trkpt lat="47.16725" lon="-1.62453">
        <ele>69</ele>
        <time>2021-03-06T15:50:48.000Z</time>
      </trkpt>
      <trkpt lat="47.1672" lon="-1.62471">
        <ele>69</ele>
        <time>2021-03-06T15:50:50.000Z</time>
      </trkpt>
      <trkpt lat="47.16716" lon="-1.62488">
        <ele>67</ele>
        <time>2021-03-06T15:50:52.000Z</time>
      </trkpt>
      <trkpt lat="47.16736" lon="-1.62504">
        <ele>63</ele>
        <time>2021-03-06T15:50:56.000Z</time>
      </trkpt>
      <trkpt lat="47.16747" lon="-1.62507">
        <ele>70</ele>
        <time>2021-03-06T15:50:58.000Z</time>
      </trkpt>
      <trkpt lat="47.16759" lon="-1.62513">
        <ele>70</ele>
        <time>2021-03-06T15:51:00.000Z</time>
      </trkpt>
      <trkpt lat="47.16776" lon="-1.62521">
        <ele>72</ele>
        <time>2021-03-06T15:51:03.000Z</time>
      </trkpt>
      <trkpt lat="47.16787" lon="-1.62529">
        <ele>72</ele>
        <time>2021-03-06T15:51:05.000Z</time>
      </trkpt>
      <trkpt lat="47.16802" lon="-1.6254">
        <ele>71</ele>
        <time>2021-03-06T15:51:08.000Z</time>
      </trkpt>
      <trkpt lat="47.16813" lon="-1.6254">
        <ele>68</ele>
        <time>2021-03-06T15:51:10.000Z</time>
      </trkpt>
      <trkpt lat="47.16829" lon="-1.62564">
        <ele>66</ele>
        <time>2021-03-06T15:51:14.000Z</time>
      </trkpt>
      <trkpt lat="47.16832" lon="-1.6258">
        <ele>66</ele>
        <time>2021-03-06T15:51:16.000Z</time>
      </trkpt>
      <trkpt lat="47.16827" lon="-1.62596">
        <ele>67</ele>
        <time>2021-03-06T15:51:18.000Z</time>
      </trkpt>
      <trkpt lat="47.16819" lon="-1.62609">
        <ele>67</ele>
        <time>2021-03-06T15:51:20.000Z</time>
      </trkpt>
      <trkpt lat="47.1681" lon="-1.62625">
        <ele>64</ele>
        <time>2021-03-06T15:51:22.000Z</time>
      </trkpt>
      <trkpt lat="47.16802" lon="-1.62635">
        <ele>67</ele>
        <time>2021-03-06T15:51:24.000Z</time>
      </trkpt>
      <trkpt lat="47.16796" lon="-1.62645">
        <ele>68</ele>
        <time>2021-03-06T15:51:26.000Z</time>
      </trkpt>
      <trkpt lat="47.16788" lon="-1.62659">
        <ele>69</ele>
        <time>2021-03-06T15:51:29.000Z</time>
      </trkpt>
      <trkpt lat="47.16779" lon="-1.62657">
        <ele>67</ele>
        <time>2021-03-06T15:51:36.000Z</time>
      </trkpt>
    </trkseg>
  </trk>
</gpx>